<?xml version="1.0" encoding="UTF-8" standalone="no" ?><gpx xmlns="http://www.topografix.com/GPX/1/1" xmlns:gpxx="http://www.garmin.com/xmlschemas/GpxExtensions/v3" xmlns:wptx1="http://www.garmin.com/xmlschemas/WaypointExtension/v1" xmlns:gpxtpx="http://www.garmin.com/xmlschemas/TrackPointExtension/v1" creator="GuideVTT.com" version="1.1" xmlns:xsi="http://www.w3.org/2001/XMLSchema-instance" xsi:schemaLocation="http://www.topografix.com/GPX/1/1 http://www.topografix.com/GPX/1/1/gpx.xsd http://www.garmin.com/xmlschemas/GpxExtensions/v3 http://www8.garmin.com/xmlschemas/GpxExtensionsv3.xsd http://www.garmin.com/xmlschemas/WaypointExtension/v1 http://www8.garmin.com/xmlschemas/WaypointExtensionv1.xsd http://www.garmin.com/xmlschemas/TrackPointExtension/v1 http://www.garmin.com/xmlschemas/TrackPointExtensionv1.xsd">
<metadata><link href="http://www.garmin.com"><text>Garmin International</text></link><time>2013-06-22T15:13:50Z</time></metadata>
<trk><name>chatel-montbovon.gpx</name><extensions><gpxx:TrackExtension><gpxx:DisplayColor>Cyan</gpxx:DisplayColor></gpxx:TrackExtension></extensions><trkseg>
<trkpt lat="46.525826" lon="6.900307"><ele></ele><time>2014-4-4T16:42:38Z</time></trkpt>
<trkpt lat="46.526218" lon="6.900482"><ele></ele><time>2014-4-4T16:42:41Z</time></trkpt>
<trkpt lat="46.526497" lon="6.900733"><ele></ele><time>2014-4-4T16:42:44Z</time></trkpt>
<trkpt lat="46.526649" lon="6.900925"><ele></ele><time>2014-4-4T16:42:47Z</time></trkpt>
<trkpt lat="46.526783" lon="6.901271"><ele></ele><time>2014-4-4T16:42:50Z</time></trkpt>
<trkpt lat="46.526772" lon="6.901653"><ele></ele><time>2014-4-4T16:42:53Z</time></trkpt>
<trkpt lat="46.526867" lon="6.901984"><ele></ele><time>2014-4-4T16:42:56Z</time></trkpt>
<trkpt lat="46.526726" lon="6.902258"><ele></ele><time>2014-4-4T16:42:59Z</time></trkpt>
<trkpt lat="46.526794" lon="6.902647"><ele></ele><time>2014-4-4T16:43:2Z</time></trkpt>
<trkpt lat="46.526981" lon="6.903028"><ele></ele><time>2014-4-4T16:43:5Z</time></trkpt>
<trkpt lat="46.526859" lon="6.903421"><ele></ele><time>2014-4-4T16:43:8Z</time></trkpt>
<trkpt lat="46.526688" lon="6.903790"><ele></ele><time>2014-4-4T16:43:11Z</time></trkpt>
<trkpt lat="46.526493" lon="6.904090"><ele></ele><time>2014-4-4T16:43:14Z</time></trkpt>
<trkpt lat="46.526295" lon="6.904371"><ele></ele><time>2014-4-4T16:43:17Z</time></trkpt>
<trkpt lat="46.526127" lon="6.904680"><ele></ele><time>2014-4-4T16:43:20Z</time></trkpt>
<trkpt lat="46.526024" lon="6.905041"><ele></ele><time>2014-4-4T16:43:23Z</time></trkpt>
<trkpt lat="46.525906" lon="6.905411"><ele></ele><time>2014-4-4T16:43:26Z</time></trkpt>
<trkpt lat="46.525867" lon="6.905822"><ele></ele><time>2014-4-4T16:43:29Z</time></trkpt>
<trkpt lat="46.525826" lon="6.906227"><ele></ele><time>2014-4-4T16:43:32Z</time></trkpt>
<trkpt lat="46.525799" lon="6.906592"><ele></ele><time>2014-4-4T16:43:35Z</time></trkpt>
<trkpt lat="46.525768" lon="6.906912"><ele></ele><time>2014-4-4T16:43:38Z</time></trkpt>
<trkpt lat="46.525742" lon="6.907196"><ele></ele><time>2014-4-4T16:43:41Z</time></trkpt>
<trkpt lat="46.525711" lon="6.907445"><ele></ele><time>2014-4-4T16:43:44Z</time></trkpt>
<trkpt lat="46.525692" lon="6.907701"><ele></ele><time>2014-4-4T16:43:47Z</time></trkpt>
<trkpt lat="46.525661" lon="6.907948"><ele></ele><time>2014-4-4T16:43:50Z</time></trkpt>
<trkpt lat="46.525604" lon="6.908194"><ele></ele><time>2014-4-4T16:43:53Z</time></trkpt>
<trkpt lat="46.525589" lon="6.908451"><ele></ele><time>2014-4-4T16:43:56Z</time></trkpt>
<trkpt lat="46.525562" lon="6.908695"><ele></ele><time>2014-4-4T16:43:59Z</time></trkpt>
<trkpt lat="46.525505" lon="6.908938"><ele></ele><time>2014-4-4T16:44:2Z</time></trkpt>
<trkpt lat="46.525433" lon="6.909176"><ele></ele><time>2014-4-4T16:44:5Z</time></trkpt>
<trkpt lat="46.525349" lon="6.909404"><ele></ele><time>2014-4-4T16:44:8Z</time></trkpt>
<trkpt lat="46.525253" lon="6.909579"><ele></ele><time>2014-4-4T16:44:11Z</time></trkpt>
<trkpt lat="46.525146" lon="6.909731"><ele></ele><time>2014-4-4T16:44:14Z</time></trkpt>
<trkpt lat="46.525036" lon="6.909885"><ele></ele><time>2014-4-4T16:44:17Z</time></trkpt>
<trkpt lat="46.524918" lon="6.910032"><ele></ele><time>2014-4-4T16:44:20Z</time></trkpt>
<trkpt lat="46.524803" lon="6.910173"><ele></ele><time>2014-4-4T16:44:23Z</time></trkpt>
<trkpt lat="46.524685" lon="6.910319"><ele></ele><time>2014-4-4T16:44:26Z</time></trkpt>
<trkpt lat="46.524578" lon="6.910480"><ele></ele><time>2014-4-4T16:44:29Z</time></trkpt>
<trkpt lat="46.524483" lon="6.910654"><ele></ele><time>2014-4-4T16:44:32Z</time></trkpt>
<trkpt lat="46.524406" lon="6.910846"><ele></ele><time>2014-4-4T16:44:35Z</time></trkpt>
<trkpt lat="46.524357" lon="6.911062"><ele></ele><time>2014-4-4T16:44:38Z</time></trkpt>
<trkpt lat="46.524326" lon="6.911295"><ele></ele><time>2014-4-4T16:44:41Z</time></trkpt>
<trkpt lat="46.524319" lon="6.911531"><ele></ele><time>2014-4-4T16:44:44Z</time></trkpt>
<trkpt lat="46.524315" lon="6.911767"><ele></ele><time>2014-4-4T16:44:47Z</time></trkpt>
<trkpt lat="46.524300" lon="6.912014"><ele></ele><time>2014-4-4T16:44:50Z</time></trkpt>
<trkpt lat="46.524292" lon="6.912287"><ele></ele><time>2014-4-4T16:44:53Z</time></trkpt>
<trkpt lat="46.524246" lon="6.912566"><ele></ele><time>2014-4-4T16:44:56Z</time></trkpt>
<trkpt lat="46.524151" lon="6.912793"><ele></ele><time>2014-4-4T16:44:59Z</time></trkpt>
<trkpt lat="46.523987" lon="6.913000"><ele></ele><time>2014-4-4T16:45:2Z</time></trkpt>
<trkpt lat="46.523827" lon="6.913154"><ele></ele><time>2014-4-4T16:45:5Z</time></trkpt>
<trkpt lat="46.523746" lon="6.913212"><ele></ele><time>2014-4-4T16:45:8Z</time></trkpt>
<trkpt lat="46.523720" lon="6.913247"><ele></ele><time>2014-4-4T16:45:11Z</time></trkpt>
<trkpt lat="46.523708" lon="6.913256"><ele></ele><time>2014-4-4T16:45:14Z</time></trkpt>
<trkpt lat="46.523716" lon="6.913253"><ele></ele><time>2014-4-4T16:45:17Z</time></trkpt>
<trkpt lat="46.523685" lon="6.913354"><ele></ele><time>2014-4-4T16:45:20Z</time></trkpt>
<trkpt lat="46.523781" lon="6.913607"><ele></ele><time>2014-4-4T16:45:23Z</time></trkpt>
<trkpt lat="46.523876" lon="6.913863"><ele></ele><time>2014-4-4T16:45:26Z</time></trkpt>
<trkpt lat="46.523987" lon="6.914091"><ele></ele><time>2014-4-4T16:45:29Z</time></trkpt>
<trkpt lat="46.524075" lon="6.914265"><ele></ele><time>2014-4-4T16:45:32Z</time></trkpt>
<trkpt lat="46.524162" lon="6.914425"><ele></ele><time>2014-4-4T16:45:35Z</time></trkpt>
<trkpt lat="46.524292" lon="6.914560"><ele></ele><time>2014-4-4T16:45:38Z</time></trkpt>
<trkpt lat="46.524395" lon="6.914673"><ele></ele><time>2014-4-4T16:45:41Z</time></trkpt>
<trkpt lat="46.524506" lon="6.914787"><ele></ele><time>2014-4-4T16:45:44Z</time></trkpt>
<trkpt lat="46.524628" lon="6.914874"><ele></ele><time>2014-4-4T16:45:47Z</time></trkpt>
<trkpt lat="46.524742" lon="6.914951"><ele></ele><time>2014-4-4T16:45:50Z</time></trkpt>
<trkpt lat="46.524834" lon="6.915041"><ele></ele><time>2014-4-4T16:45:53Z</time></trkpt>
<trkpt lat="46.524937" lon="6.915136"><ele></ele><time>2014-4-4T16:45:56Z</time></trkpt>
<trkpt lat="46.525051" lon="6.915236"><ele></ele><time>2014-4-4T16:45:59Z</time></trkpt>
<trkpt lat="46.525143" lon="6.915355"><ele></ele><time>2014-4-4T16:46:2Z</time></trkpt>
<trkpt lat="46.525192" lon="6.915504"><ele></ele><time>2014-4-4T16:46:5Z</time></trkpt>
<trkpt lat="46.525238" lon="6.915653"><ele></ele><time>2014-4-4T16:46:8Z</time></trkpt>
<trkpt lat="46.525272" lon="6.915793"><ele></ele><time>2014-4-4T16:46:11Z</time></trkpt>
<trkpt lat="46.525276" lon="6.915958"><ele></ele><time>2014-4-4T16:46:14Z</time></trkpt>
<trkpt lat="46.525295" lon="6.916126"><ele></ele><time>2014-4-4T16:46:17Z</time></trkpt>
<trkpt lat="46.525322" lon="6.916286"><ele></ele><time>2014-4-4T16:46:20Z</time></trkpt>
<trkpt lat="46.525326" lon="6.916438"><ele></ele><time>2014-4-4T16:46:23Z</time></trkpt>
<trkpt lat="46.525345" lon="6.916588"><ele></ele><time>2014-4-4T16:46:26Z</time></trkpt>
<trkpt lat="46.525349" lon="6.916740"><ele></ele><time>2014-4-4T16:46:29Z</time></trkpt>
<trkpt lat="46.525356" lon="6.916903"><ele></ele><time>2014-4-4T16:46:32Z</time></trkpt>
<trkpt lat="46.525345" lon="6.917068"><ele></ele><time>2014-4-4T16:46:35Z</time></trkpt>
<trkpt lat="46.525318" lon="6.917233"><ele></ele><time>2014-4-4T16:46:38Z</time></trkpt>
<trkpt lat="46.525276" lon="6.917397"><ele></ele><time>2014-4-4T16:46:41Z</time></trkpt>
<trkpt lat="46.525234" lon="6.917556"><ele></ele><time>2014-4-4T16:46:44Z</time></trkpt>
<trkpt lat="46.525223" lon="6.917703"><ele></ele><time>2014-4-4T16:46:47Z</time></trkpt>
<trkpt lat="46.525204" lon="6.917857"><ele></ele><time>2014-4-4T16:46:50Z</time></trkpt>
<trkpt lat="46.525200" lon="6.918014"><ele></ele><time>2014-4-4T16:46:53Z</time></trkpt>
<trkpt lat="46.525169" lon="6.918186"><ele></ele><time>2014-4-4T16:46:56Z</time></trkpt>
<trkpt lat="46.525127" lon="6.918358"><ele></ele><time>2014-4-4T16:46:59Z</time></trkpt>
<trkpt lat="46.525112" lon="6.918506"><ele></ele><time>2014-4-4T16:47:2Z</time></trkpt>
<trkpt lat="46.525085" lon="6.918664"><ele></ele><time>2014-4-4T16:47:5Z</time></trkpt>
<trkpt lat="46.525070" lon="6.918802"><ele></ele><time>2014-4-4T16:47:8Z</time></trkpt>
<trkpt lat="46.525043" lon="6.918947"><ele></ele><time>2014-4-4T16:47:11Z</time></trkpt>
<trkpt lat="46.525013" lon="6.919074"><ele></ele><time>2014-4-4T16:47:14Z</time></trkpt>
<trkpt lat="46.524990" lon="6.919223"><ele></ele><time>2014-4-4T16:47:17Z</time></trkpt>
<trkpt lat="46.524967" lon="6.919370"><ele></ele><time>2014-4-4T16:47:20Z</time></trkpt>
<trkpt lat="46.524937" lon="6.919516"><ele></ele><time>2014-4-4T16:47:23Z</time></trkpt>
<trkpt lat="46.524914" lon="6.919665"><ele></ele><time>2014-4-4T16:47:26Z</time></trkpt>
<trkpt lat="46.524891" lon="6.919826"><ele></ele><time>2014-4-4T16:47:29Z</time></trkpt>
<trkpt lat="46.524879" lon="6.919984"><ele></ele><time>2014-4-4T16:47:32Z</time></trkpt>
<trkpt lat="46.524872" lon="6.920145"><ele></ele><time>2014-4-4T16:47:35Z</time></trkpt>
<trkpt lat="46.524868" lon="6.920293"><ele></ele><time>2014-4-4T16:47:38Z</time></trkpt>
<trkpt lat="46.524849" lon="6.920444"><ele></ele><time>2014-4-4T16:47:41Z</time></trkpt>
<trkpt lat="46.524822" lon="6.920592"><ele></ele><time>2014-4-4T16:47:44Z</time></trkpt>
<trkpt lat="46.524776" lon="6.920717"><ele></ele><time>2014-4-4T16:47:47Z</time></trkpt>
<trkpt lat="46.524712" lon="6.920798"><ele></ele><time>2014-4-4T16:47:50Z</time></trkpt>
<trkpt lat="46.524632" lon="6.920807"><ele></ele><time>2014-4-4T16:47:53Z</time></trkpt>
<trkpt lat="46.524548" lon="6.920822"><ele></ele><time>2014-4-4T16:47:56Z</time></trkpt>
<trkpt lat="46.524467" lon="6.920798"><ele></ele><time>2014-4-4T16:47:59Z</time></trkpt>
<trkpt lat="46.524368" lon="6.920813"><ele></ele><time>2014-4-4T16:48:2Z</time></trkpt>
<trkpt lat="46.524284" lon="6.920847"><ele></ele><time>2014-4-4T16:48:5Z</time></trkpt>
<trkpt lat="46.524231" lon="6.920928"><ele></ele><time>2014-4-4T16:48:8Z</time></trkpt>
<trkpt lat="46.524174" lon="6.920973"><ele></ele><time>2014-4-4T16:48:11Z</time></trkpt>
<trkpt lat="46.524109" lon="6.921094"><ele></ele><time>2014-4-4T16:48:14Z</time></trkpt>
<trkpt lat="46.524075" lon="6.921179"><ele></ele><time>2014-4-4T16:48:17Z</time></trkpt>
<trkpt lat="46.524014" lon="6.921273"><ele></ele><time>2014-4-4T16:48:20Z</time></trkpt>
<trkpt lat="46.523972" lon="6.921341"><ele></ele><time>2014-4-4T16:48:23Z</time></trkpt>
<trkpt lat="46.523945" lon="6.921421"><ele></ele><time>2014-4-4T16:48:26Z</time></trkpt>
<trkpt lat="46.523926" lon="6.921522"><ele></ele><time>2014-4-4T16:48:29Z</time></trkpt>
<trkpt lat="46.523941" lon="6.921643"><ele></ele><time>2014-4-4T16:48:32Z</time></trkpt>
<trkpt lat="46.523903" lon="6.921717"><ele></ele><time>2014-4-4T16:48:35Z</time></trkpt>
<trkpt lat="46.523907" lon="6.921781"><ele></ele><time>2014-4-4T16:48:38Z</time></trkpt>
<trkpt lat="46.523907" lon="6.921843"><ele></ele><time>2014-4-4T16:48:41Z</time></trkpt>
<trkpt lat="46.523865" lon="6.921865"><ele></ele><time>2014-4-4T16:48:44Z</time></trkpt>
<trkpt lat="46.523849" lon="6.921939"><ele></ele><time>2014-4-4T16:48:47Z</time></trkpt>
<trkpt lat="46.523815" lon="6.922004"><ele></ele><time>2014-4-4T16:48:50Z</time></trkpt>
<trkpt lat="46.523758" lon="6.921996"><ele></ele><time>2014-4-4T16:48:53Z</time></trkpt>
<trkpt lat="46.523701" lon="6.922033"><ele></ele><time>2014-4-4T16:48:56Z</time></trkpt>
<trkpt lat="46.523643" lon="6.922047"><ele></ele><time>2014-4-4T16:48:59Z</time></trkpt>
<trkpt lat="46.523582" lon="6.922108"><ele></ele><time>2014-4-4T16:49:2Z</time></trkpt>
<trkpt lat="46.523525" lon="6.922119"><ele></ele><time>2014-4-4T16:49:5Z</time></trkpt>
<trkpt lat="46.523483" lon="6.922167"><ele></ele><time>2014-4-4T16:49:8Z</time></trkpt>
<trkpt lat="46.523418" lon="6.922214"><ele></ele><time>2014-4-4T16:49:11Z</time></trkpt>
<trkpt lat="46.523373" lon="6.922222"><ele></ele><time>2014-4-4T16:49:14Z</time></trkpt>
<trkpt lat="46.523338" lon="6.922270"><ele></ele><time>2014-4-4T16:49:17Z</time></trkpt>
<trkpt lat="46.523312" lon="6.922340"><ele></ele><time>2014-4-4T16:49:20Z</time></trkpt>
<trkpt lat="46.523235" lon="6.922372"><ele></ele><time>2014-4-4T16:49:23Z</time></trkpt>
<trkpt lat="46.523205" lon="6.922412"><ele></ele><time>2014-4-4T16:49:26Z</time></trkpt>
<trkpt lat="46.523174" lon="6.922421"><ele></ele><time>2014-4-4T16:49:29Z</time></trkpt>
<trkpt lat="46.523125" lon="6.922493"><ele></ele><time>2014-4-4T16:49:32Z</time></trkpt>
<trkpt lat="46.523090" lon="6.922538"><ele></ele><time>2014-4-4T16:49:35Z</time></trkpt>
<trkpt lat="46.523052" lon="6.922577"><ele></ele><time>2014-4-4T16:49:38Z</time></trkpt>
<trkpt lat="46.523026" lon="6.922638"><ele></ele><time>2014-4-4T16:49:41Z</time></trkpt>
<trkpt lat="46.522968" lon="6.922692"><ele></ele><time>2014-4-4T16:49:44Z</time></trkpt>
<trkpt lat="46.522942" lon="6.922792"><ele></ele><time>2014-4-4T16:49:47Z</time></trkpt>
<trkpt lat="46.522903" lon="6.922835"><ele></ele><time>2014-4-4T16:49:50Z</time></trkpt>
<trkpt lat="46.522907" lon="6.922945"><ele></ele><time>2014-4-4T16:49:53Z</time></trkpt>
<trkpt lat="46.522873" lon="6.922954"><ele></ele><time>2014-4-4T16:49:56Z</time></trkpt>
<trkpt lat="46.522827" lon="6.923007"><ele></ele><time>2014-4-4T16:49:59Z</time></trkpt>
<trkpt lat="46.522755" lon="6.923016"><ele></ele><time>2014-4-4T16:50:2Z</time></trkpt>
<trkpt lat="46.522739" lon="6.923062"><ele></ele><time>2014-4-4T16:50:5Z</time></trkpt>
<trkpt lat="46.522724" lon="6.923105"><ele></ele><time>2014-4-4T16:50:8Z</time></trkpt>
<trkpt lat="46.522690" lon="6.923154"><ele></ele><time>2014-4-4T16:50:11Z</time></trkpt>
<trkpt lat="46.522682" lon="6.923260"><ele></ele><time>2014-4-4T16:50:14Z</time></trkpt>
<trkpt lat="46.522655" lon="6.923311"><ele></ele><time>2014-4-4T16:50:17Z</time></trkpt>
<trkpt lat="46.522640" lon="6.923403"><ele></ele><time>2014-4-4T16:50:20Z</time></trkpt>
<trkpt lat="46.522598" lon="6.923442"><ele></ele><time>2014-4-4T16:50:23Z</time></trkpt>
<trkpt lat="46.522610" lon="6.923517"><ele></ele><time>2014-4-4T16:50:26Z</time></trkpt>
<trkpt lat="46.522564" lon="6.923579"><ele></ele><time>2014-4-4T16:50:29Z</time></trkpt>
<trkpt lat="46.522503" lon="6.923659"><ele></ele><time>2014-4-4T16:50:32Z</time></trkpt>
<trkpt lat="46.522419" lon="6.923754"><ele></ele><time>2014-4-4T16:50:35Z</time></trkpt>
<trkpt lat="46.522396" lon="6.923835"><ele></ele><time>2014-4-4T16:50:38Z</time></trkpt>
<trkpt lat="46.522385" lon="6.923875"><ele></ele><time>2014-4-4T16:50:41Z</time></trkpt>
<trkpt lat="46.522305" lon="6.923945"><ele></ele><time>2014-4-4T16:50:44Z</time></trkpt>
<trkpt lat="46.522259" lon="6.923979"><ele></ele><time>2014-4-4T16:50:47Z</time></trkpt>
<trkpt lat="46.522213" lon="6.924020"><ele></ele><time>2014-4-4T16:50:50Z</time></trkpt>
<trkpt lat="46.522095" lon="6.924054"><ele></ele><time>2014-4-4T16:50:53Z</time></trkpt>
<trkpt lat="46.522015" lon="6.924037"><ele></ele><time>2014-4-4T16:50:56Z</time></trkpt>
<trkpt lat="46.521973" lon="6.923995"><ele></ele><time>2014-4-4T16:50:59Z</time></trkpt>
<trkpt lat="46.521938" lon="6.924003"><ele></ele><time>2014-4-4T16:51:2Z</time></trkpt>
<trkpt lat="46.521862" lon="6.923956"><ele></ele><time>2014-4-4T16:51:5Z</time></trkpt>
<trkpt lat="46.521820" lon="6.923945"><ele></ele><time>2014-4-4T16:51:8Z</time></trkpt>
<trkpt lat="46.521782" lon="6.923936"><ele></ele><time>2014-4-4T16:51:11Z</time></trkpt>
<trkpt lat="46.521736" lon="6.923956"><ele></ele><time>2014-4-4T16:51:14Z</time></trkpt>
<trkpt lat="46.521683" lon="6.923932"><ele></ele><time>2014-4-4T16:51:17Z</time></trkpt>
<trkpt lat="46.521645" lon="6.923944"><ele></ele><time>2014-4-4T16:51:20Z</time></trkpt>
<trkpt lat="46.521580" lon="6.923962"><ele></ele><time>2014-4-4T16:51:23Z</time></trkpt>
<trkpt lat="46.521481" lon="6.923924"><ele></ele><time>2014-4-4T16:51:26Z</time></trkpt>
<trkpt lat="46.521427" lon="6.923944"><ele></ele><time>2014-4-4T16:51:29Z</time></trkpt>
<trkpt lat="46.521358" lon="6.923954"><ele></ele><time>2014-4-4T16:51:32Z</time></trkpt>
<trkpt lat="46.521297" lon="6.923928"><ele></ele><time>2014-4-4T16:51:35Z</time></trkpt>
<trkpt lat="46.521259" lon="6.923934"><ele></ele><time>2014-4-4T16:51:38Z</time></trkpt>
<trkpt lat="46.521210" lon="6.923892"><ele></ele><time>2014-4-4T16:51:41Z</time></trkpt>
<trkpt lat="46.521168" lon="6.923878"><ele></ele><time>2014-4-4T16:51:44Z</time></trkpt>
<trkpt lat="46.521118" lon="6.923856"><ele></ele><time>2014-4-4T16:51:47Z</time></trkpt>
<trkpt lat="46.521053" lon="6.923847"><ele></ele><time>2014-4-4T16:51:50Z</time></trkpt>
<trkpt lat="46.521004" lon="6.923852"><ele></ele><time>2014-4-4T16:51:53Z</time></trkpt>
<trkpt lat="46.520889" lon="6.923883"><ele></ele><time>2014-4-4T16:51:56Z</time></trkpt>
<trkpt lat="46.520802" lon="6.923929"><ele></ele><time>2014-4-4T16:51:59Z</time></trkpt>
<trkpt lat="46.520714" lon="6.923971"><ele></ele><time>2014-4-4T16:52:2Z</time></trkpt>
<trkpt lat="46.520626" lon="6.923999"><ele></ele><time>2014-4-4T16:52:5Z</time></trkpt>
<trkpt lat="46.520535" lon="6.924016"><ele></ele><time>2014-4-4T16:52:8Z</time></trkpt>
<trkpt lat="46.520378" lon="6.924108"><ele></ele><time>2014-4-4T16:52:11Z</time></trkpt>
<trkpt lat="46.520237" lon="6.924154"><ele></ele><time>2014-4-4T16:52:14Z</time></trkpt>
<trkpt lat="46.520145" lon="6.924192"><ele></ele><time>2014-4-4T16:52:17Z</time></trkpt>
<trkpt lat="46.520103" lon="6.924213"><ele></ele><time>2014-4-4T16:52:20Z</time></trkpt>
<trkpt lat="46.520046" lon="6.924236"><ele></ele><time>2014-4-4T16:52:23Z</time></trkpt>
<trkpt lat="46.520042" lon="6.924308"><ele></ele><time>2014-4-4T16:52:26Z</time></trkpt>
<trkpt lat="46.519993" lon="6.924329"><ele></ele><time>2014-4-4T16:52:29Z</time></trkpt>
<trkpt lat="46.519947" lon="6.924398"><ele></ele><time>2014-4-4T16:52:32Z</time></trkpt>
<trkpt lat="46.519848" lon="6.924411"><ele></ele><time>2014-4-4T16:52:35Z</time></trkpt>
<trkpt lat="46.519794" lon="6.924447"><ele></ele><time>2014-4-4T16:52:38Z</time></trkpt>
<trkpt lat="46.519760" lon="6.924430"><ele></ele><time>2014-4-4T16:52:41Z</time></trkpt>
<trkpt lat="46.519718" lon="6.924510"><ele></ele><time>2014-4-4T16:52:44Z</time></trkpt>
<trkpt lat="46.519684" lon="6.924534"><ele></ele><time>2014-4-4T16:52:47Z</time></trkpt>
<trkpt lat="46.519585" lon="6.924589"><ele></ele><time>2014-4-4T16:52:50Z</time></trkpt>
<trkpt lat="46.519527" lon="6.924615"><ele></ele><time>2014-4-4T16:52:53Z</time></trkpt>
<trkpt lat="46.519482" lon="6.924620"><ele></ele><time>2014-4-4T16:52:56Z</time></trkpt>
<trkpt lat="46.519436" lon="6.924637"><ele></ele><time>2014-4-4T16:52:59Z</time></trkpt>
<trkpt lat="46.519386" lon="6.924664"><ele></ele><time>2014-4-4T16:53:2Z</time></trkpt>
<trkpt lat="46.519314" lon="6.924655"><ele></ele><time>2014-4-4T16:53:5Z</time></trkpt>
<trkpt lat="46.519146" lon="6.924656"><ele></ele><time>2014-4-4T16:53:8Z</time></trkpt>
<trkpt lat="46.519062" lon="6.924605"><ele></ele><time>2014-4-4T16:53:11Z</time></trkpt>
<trkpt lat="46.518936" lon="6.924538"><ele></ele><time>2014-4-4T16:53:14Z</time></trkpt>
<trkpt lat="46.518810" lon="6.924460"><ele></ele><time>2014-4-4T16:53:17Z</time></trkpt>
<trkpt lat="46.518711" lon="6.924373"><ele></ele><time>2014-4-4T16:53:20Z</time></trkpt>
<trkpt lat="46.518612" lon="6.924275"><ele></ele><time>2014-4-4T16:53:23Z</time></trkpt>
<trkpt lat="46.518486" lon="6.924182"><ele></ele><time>2014-4-4T16:53:26Z</time></trkpt>
<trkpt lat="46.518356" lon="6.924107"><ele></ele><time>2014-4-4T16:53:29Z</time></trkpt>
<trkpt lat="46.518223" lon="6.924029"><ele></ele><time>2014-4-4T16:53:32Z</time></trkpt>
<trkpt lat="46.518078" lon="6.923956"><ele></ele><time>2014-4-4T16:53:35Z</time></trkpt>
<trkpt lat="46.517929" lon="6.923913"><ele></ele><time>2014-4-4T16:53:38Z</time></trkpt>
<trkpt lat="46.517769" lon="6.923842"><ele></ele><time>2014-4-4T16:53:41Z</time></trkpt>
<trkpt lat="46.517605" lon="6.923764"><ele></ele><time>2014-4-4T16:53:44Z</time></trkpt>
<trkpt lat="46.517441" lon="6.923719"><ele></ele><time>2014-4-4T16:53:47Z</time></trkpt>
<trkpt lat="46.517288" lon="6.923671"><ele></ele><time>2014-4-4T16:53:50Z</time></trkpt>
<trkpt lat="46.517109" lon="6.923624"><ele></ele><time>2014-4-4T16:53:53Z</time></trkpt>
<trkpt lat="46.516953" lon="6.923631"><ele></ele><time>2014-4-4T16:53:56Z</time></trkpt>
<trkpt lat="46.516777" lon="6.923697"><ele></ele><time>2014-4-4T16:53:59Z</time></trkpt>
<trkpt lat="46.516609" lon="6.923780"><ele></ele><time>2014-4-4T16:54:2Z</time></trkpt>
<trkpt lat="46.516449" lon="6.923800"><ele></ele><time>2014-4-4T16:54:5Z</time></trkpt>
<trkpt lat="46.516235" lon="6.923861"><ele></ele><time>2014-4-4T16:54:8Z</time></trkpt>
<trkpt lat="46.516029" lon="6.923904"><ele></ele><time>2014-4-4T16:54:11Z</time></trkpt>
<trkpt lat="46.515816" lon="6.923927"><ele></ele><time>2014-4-4T16:54:14Z</time></trkpt>
<trkpt lat="46.515579" lon="6.923968"><ele></ele><time>2014-4-4T16:54:17Z</time></trkpt>
<trkpt lat="46.515293" lon="6.924041"><ele></ele><time>2014-4-4T16:54:20Z</time></trkpt>
<trkpt lat="46.515018" lon="6.924097"><ele></ele><time>2014-4-4T16:54:23Z</time></trkpt>
<trkpt lat="46.514778" lon="6.924110"><ele></ele><time>2014-4-4T16:54:26Z</time></trkpt>
<trkpt lat="46.514538" lon="6.924097"><ele></ele><time>2014-4-4T16:54:29Z</time></trkpt>
<trkpt lat="46.514286" lon="6.924073"><ele></ele><time>2014-4-4T16:54:32Z</time></trkpt>
<trkpt lat="46.514065" lon="6.924065"><ele></ele><time>2014-4-4T16:54:35Z</time></trkpt>
<trkpt lat="46.513821" lon="6.924085"><ele></ele><time>2014-4-4T16:54:38Z</time></trkpt>
<trkpt lat="46.513592" lon="6.924046"><ele></ele><time>2014-4-4T16:54:41Z</time></trkpt>
<trkpt lat="46.513348" lon="6.924012"><ele></ele><time>2014-4-4T16:54:44Z</time></trkpt>
<trkpt lat="46.513073" lon="6.924160"><ele></ele><time>2014-4-4T16:54:47Z</time></trkpt>
<trkpt lat="46.512821" lon="6.924400"><ele></ele><time>2014-4-4T16:54:50Z</time></trkpt>
<trkpt lat="46.512558" lon="6.924636"><ele></ele><time>2014-4-4T16:54:53Z</time></trkpt>
<trkpt lat="46.512302" lon="6.924740"><ele></ele><time>2014-4-4T16:54:56Z</time></trkpt>
<trkpt lat="46.512119" lon="6.924852"><ele></ele><time>2014-4-4T16:54:59Z</time></trkpt>
<trkpt lat="46.511917" lon="6.924994"><ele></ele><time>2014-4-4T16:55:2Z</time></trkpt>
<trkpt lat="46.511776" lon="6.925077"><ele></ele><time>2014-4-4T16:55:5Z</time></trkpt>
<trkpt lat="46.511650" lon="6.925181"><ele></ele><time>2014-4-4T16:55:8Z</time></trkpt>
<trkpt lat="46.511528" lon="6.925253"><ele></ele><time>2014-4-4T16:55:11Z</time></trkpt>
<trkpt lat="46.511414" lon="6.925338"><ele></ele><time>2014-4-4T16:55:14Z</time></trkpt>
<trkpt lat="46.511322" lon="6.925481"><ele></ele><time>2014-4-4T16:55:17Z</time></trkpt>
<trkpt lat="46.511242" lon="6.925606"><ele></ele><time>2014-4-4T16:55:20Z</time></trkpt>
<trkpt lat="46.511162" lon="6.925730"><ele></ele><time>2014-4-4T16:55:23Z</time></trkpt>
<trkpt lat="46.511089" lon="6.925855"><ele></ele><time>2014-4-4T16:55:26Z</time></trkpt>
<trkpt lat="46.510994" lon="6.925955"><ele></ele><time>2014-4-4T16:55:29Z</time></trkpt>
<trkpt lat="46.510921" lon="6.926012"><ele></ele><time>2014-4-4T16:55:32Z</time></trkpt>
<trkpt lat="46.510841" lon="6.926032"><ele></ele><time>2014-4-4T16:55:35Z</time></trkpt>
<trkpt lat="46.510738" lon="6.926054"><ele></ele><time>2014-4-4T16:55:38Z</time></trkpt>
<trkpt lat="46.510616" lon="6.926126"><ele></ele><time>2014-4-4T16:55:41Z</time></trkpt>
<trkpt lat="46.510509" lon="6.926188"><ele></ele><time>2014-4-4T16:55:44Z</time></trkpt>
<trkpt lat="46.510445" lon="6.926265"><ele></ele><time>2014-4-4T16:55:47Z</time></trkpt>
<trkpt lat="46.510395" lon="6.926327"><ele></ele><time>2014-4-4T16:55:50Z</time></trkpt>
<trkpt lat="46.510296" lon="6.926370"><ele></ele><time>2014-4-4T16:55:53Z</time></trkpt>
<trkpt lat="46.510189" lon="6.926501"><ele></ele><time>2014-4-4T16:55:56Z</time></trkpt>
<trkpt lat="46.510071" lon="6.926573"><ele></ele><time>2014-4-4T16:55:59Z</time></trkpt>
<trkpt lat="46.509945" lon="6.926651"><ele></ele><time>2014-4-4T16:56:2Z</time></trkpt>
<trkpt lat="46.509838" lon="6.926731"><ele></ele><time>2014-4-4T16:56:5Z</time></trkpt>
<trkpt lat="46.509689" lon="6.926845"><ele></ele><time>2014-4-4T16:56:8Z</time></trkpt>
<trkpt lat="46.509563" lon="6.926990"><ele></ele><time>2014-4-4T16:56:11Z</time></trkpt>
<trkpt lat="46.509453" lon="6.927144"><ele></ele><time>2014-4-4T16:56:14Z</time></trkpt>
<trkpt lat="46.509396" lon="6.927280"><ele></ele><time>2014-4-4T16:56:17Z</time></trkpt>
<trkpt lat="46.509338" lon="6.927391"><ele></ele><time>2014-4-4T16:56:20Z</time></trkpt>
<trkpt lat="46.509262" lon="6.927506"><ele></ele><time>2014-4-4T16:56:23Z</time></trkpt>
<trkpt lat="46.509193" lon="6.927613"><ele></ele><time>2014-4-4T16:56:26Z</time></trkpt>
<trkpt lat="46.509060" lon="6.927629"><ele></ele><time>2014-4-4T16:56:29Z</time></trkpt>
<trkpt lat="46.509007" lon="6.927628"><ele></ele><time>2014-4-4T16:56:32Z</time></trkpt>
<trkpt lat="46.508846" lon="6.927686"><ele></ele><time>2014-4-4T16:56:35Z</time></trkpt>
<trkpt lat="46.508709" lon="6.927750"><ele></ele><time>2014-4-4T16:56:38Z</time></trkpt>
<trkpt lat="46.508640" lon="6.927863"><ele></ele><time>2014-4-4T16:56:41Z</time></trkpt>
<trkpt lat="46.508621" lon="6.927983"><ele></ele><time>2014-4-4T16:56:44Z</time></trkpt>
<trkpt lat="46.508556" lon="6.928081"><ele></ele><time>2014-4-4T16:56:47Z</time></trkpt>
<trkpt lat="46.508492" lon="6.928152"><ele></ele><time>2014-4-4T16:56:50Z</time></trkpt>
<trkpt lat="46.508484" lon="6.928236"><ele></ele><time>2014-4-4T16:56:53Z</time></trkpt>
<trkpt lat="46.508484" lon="6.928358"><ele></ele><time>2014-4-4T16:56:56Z</time></trkpt>
<trkpt lat="46.508469" lon="6.928450"><ele></ele><time>2014-4-4T16:56:59Z</time></trkpt>
<trkpt lat="46.508404" lon="6.928518"><ele></ele><time>2014-4-4T16:57:2Z</time></trkpt>
<trkpt lat="46.508358" lon="6.928642"><ele></ele><time>2014-4-4T16:57:5Z</time></trkpt>
<trkpt lat="46.508339" lon="6.928781"><ele></ele><time>2014-4-4T16:57:8Z</time></trkpt>
<trkpt lat="46.508305" lon="6.928857"><ele></ele><time>2014-4-4T16:57:11Z</time></trkpt>
<trkpt lat="46.508263" lon="6.928951"><ele></ele><time>2014-4-4T16:57:14Z</time></trkpt>
<trkpt lat="46.508217" lon="6.929038"><ele></ele><time>2014-4-4T16:57:17Z</time></trkpt>
<trkpt lat="46.508163" lon="6.929133"><ele></ele><time>2014-4-4T16:57:20Z</time></trkpt>
<trkpt lat="46.508137" lon="6.929201"><ele></ele><time>2014-4-4T16:57:23Z</time></trkpt>
<trkpt lat="46.508095" lon="6.929258"><ele></ele><time>2014-4-4T16:57:26Z</time></trkpt>
<trkpt lat="46.508045" lon="6.929311"><ele></ele><time>2014-4-4T16:57:29Z</time></trkpt>
<trkpt lat="46.508015" lon="6.929360"><ele></ele><time>2014-4-4T16:57:32Z</time></trkpt>
<trkpt lat="46.507961" lon="6.929448"><ele></ele><time>2014-4-4T16:57:35Z</time></trkpt>
<trkpt lat="46.507904" lon="6.929477"><ele></ele><time>2014-4-4T16:57:38Z</time></trkpt>
<trkpt lat="46.507896" lon="6.929532"><ele></ele><time>2014-4-4T16:57:41Z</time></trkpt>
<trkpt lat="46.507816" lon="6.929554"><ele></ele><time>2014-4-4T16:57:44Z</time></trkpt>
<trkpt lat="46.507778" lon="6.929601"><ele></ele><time>2014-4-4T16:57:47Z</time></trkpt>
<trkpt lat="46.507725" lon="6.929639"><ele></ele><time>2014-4-4T16:57:50Z</time></trkpt>
<trkpt lat="46.507675" lon="6.929704"><ele></ele><time>2014-4-4T16:57:53Z</time></trkpt>
<trkpt lat="46.507618" lon="6.929807"><ele></ele><time>2014-4-4T16:57:56Z</time></trkpt>
<trkpt lat="46.507595" lon="6.929868"><ele></ele><time>2014-4-4T16:57:59Z</time></trkpt>
<trkpt lat="46.507568" lon="6.929966"><ele></ele><time>2014-4-4T16:58:2Z</time></trkpt>
<trkpt lat="46.507553" lon="6.930040"><ele></ele><time>2014-4-4T16:58:5Z</time></trkpt>
<trkpt lat="46.507530" lon="6.930117"><ele></ele><time>2014-4-4T16:58:8Z</time></trkpt>
<trkpt lat="46.507526" lon="6.930194"><ele></ele><time>2014-4-4T16:58:11Z</time></trkpt>
<trkpt lat="46.507515" lon="6.930252"><ele></ele><time>2014-4-4T16:58:14Z</time></trkpt>
<trkpt lat="46.507462" lon="6.930286"><ele></ele><time>2014-4-4T16:58:17Z</time></trkpt>
<trkpt lat="46.507408" lon="6.930341"><ele></ele><time>2014-4-4T16:58:20Z</time></trkpt>
<trkpt lat="46.507370" lon="6.930379"><ele></ele><time>2014-4-4T16:58:23Z</time></trkpt>
<trkpt lat="46.507309" lon="6.930416"><ele></ele><time>2014-4-4T16:58:26Z</time></trkpt>
<trkpt lat="46.507256" lon="6.930460"><ele></ele><time>2014-4-4T16:58:29Z</time></trkpt>
<trkpt lat="46.507195" lon="6.930516"><ele></ele><time>2014-4-4T16:58:32Z</time></trkpt>
<trkpt lat="46.507156" lon="6.930571"><ele></ele><time>2014-4-4T16:58:35Z</time></trkpt>
<trkpt lat="46.507080" lon="6.930657"><ele></ele><time>2014-4-4T16:58:38Z</time></trkpt>
<trkpt lat="46.507004" lon="6.930714"><ele></ele><time>2014-4-4T16:58:41Z</time></trkpt>
<trkpt lat="46.506943" lon="6.930778"><ele></ele><time>2014-4-4T16:58:44Z</time></trkpt>
<trkpt lat="46.506886" lon="6.930859"><ele></ele><time>2014-4-4T16:58:47Z</time></trkpt>
<trkpt lat="46.506817" lon="6.930956"><ele></ele><time>2014-4-4T16:58:50Z</time></trkpt>
<trkpt lat="46.506763" lon="6.931026"><ele></ele><time>2014-4-4T16:58:53Z</time></trkpt>
<trkpt lat="46.506729" lon="6.931126"><ele></ele><time>2014-4-4T16:58:56Z</time></trkpt>
<trkpt lat="46.506687" lon="6.931224"><ele></ele><time>2014-4-4T16:58:59Z</time></trkpt>
<trkpt lat="46.506676" lon="6.931340"><ele></ele><time>2014-4-4T16:59:2Z</time></trkpt>
<trkpt lat="46.506634" lon="6.931452"><ele></ele><time>2014-4-4T16:59:5Z</time></trkpt>
<trkpt lat="46.506599" lon="6.931575"><ele></ele><time>2014-4-4T16:59:8Z</time></trkpt>
<trkpt lat="46.506588" lon="6.931721"><ele></ele><time>2014-4-4T16:59:11Z</time></trkpt>
<trkpt lat="46.506561" lon="6.931871"><ele></ele><time>2014-4-4T16:59:14Z</time></trkpt>
<trkpt lat="46.506527" lon="6.932011"><ele></ele><time>2014-4-4T16:59:17Z</time></trkpt>
<trkpt lat="46.506561" lon="6.932118"><ele></ele><time>2014-4-4T16:59:20Z</time></trkpt>
<trkpt lat="46.506550" lon="6.932278"><ele></ele><time>2014-4-4T16:59:23Z</time></trkpt>
<trkpt lat="46.506462" lon="6.932462"><ele></ele><time>2014-4-4T16:59:26Z</time></trkpt>
<trkpt lat="46.506336" lon="6.932691"><ele></ele><time>2014-4-4T16:59:29Z</time></trkpt>
<trkpt lat="46.506172" lon="6.933034"><ele></ele><time>2014-4-4T16:59:32Z</time></trkpt>
<trkpt lat="46.506042" lon="6.933228"><ele></ele><time>2014-4-4T16:59:35Z</time></trkpt>
<trkpt lat="46.505875" lon="6.933446"><ele></ele><time>2014-4-4T16:59:38Z</time></trkpt>
<trkpt lat="46.505733" lon="6.933616"><ele></ele><time>2014-4-4T16:59:41Z</time></trkpt>
<trkpt lat="46.505596" lon="6.933812"><ele></ele><time>2014-4-4T16:59:44Z</time></trkpt>
<trkpt lat="46.505512" lon="6.934011"><ele></ele><time>2014-4-4T16:59:47Z</time></trkpt>
<trkpt lat="46.505463" lon="6.934201"><ele></ele><time>2014-4-4T16:59:50Z</time></trkpt>
<trkpt lat="46.505444" lon="6.934356"><ele></ele><time>2014-4-4T16:59:53Z</time></trkpt>
<trkpt lat="46.505447" lon="6.934539"><ele></ele><time>2014-4-4T16:59:56Z</time></trkpt>
<trkpt lat="46.505478" lon="6.934743"><ele></ele><time>2014-4-4T16:59:59Z</time></trkpt>
<trkpt lat="46.505497" lon="6.934929"><ele></ele><time>2014-4-4T17:0:2Z</time></trkpt>
<trkpt lat="46.505516" lon="6.935116"><ele></ele><time>2014-4-4T17:0:5Z</time></trkpt>
<trkpt lat="46.505535" lon="6.935302"><ele></ele><time>2014-4-4T17:0:8Z</time></trkpt>
<trkpt lat="46.505562" lon="6.935480"><ele></ele><time>2014-4-4T17:0:11Z</time></trkpt>
<trkpt lat="46.505615" lon="6.935616"><ele></ele><time>2014-4-4T17:0:14Z</time></trkpt>
<trkpt lat="46.505665" lon="6.935705"><ele></ele><time>2014-4-4T17:0:17Z</time></trkpt>
<trkpt lat="46.505699" lon="6.935779"><ele></ele><time>2014-4-4T17:0:20Z</time></trkpt>
<trkpt lat="46.505749" lon="6.935845"><ele></ele><time>2014-4-4T17:0:23Z</time></trkpt>
<trkpt lat="46.505806" lon="6.935952"><ele></ele><time>2014-4-4T17:0:26Z</time></trkpt>
<trkpt lat="46.505840" lon="6.936048"><ele></ele><time>2014-4-4T17:0:29Z</time></trkpt>
<trkpt lat="46.505882" lon="6.936170"><ele></ele><time>2014-4-4T17:0:32Z</time></trkpt>
<trkpt lat="46.505882" lon="6.936325"><ele></ele><time>2014-4-4T17:0:35Z</time></trkpt>
<trkpt lat="46.505890" lon="6.936486"><ele></ele><time>2014-4-4T17:0:38Z</time></trkpt>
<trkpt lat="46.505886" lon="6.936618"><ele></ele><time>2014-4-4T17:0:41Z</time></trkpt>
<trkpt lat="46.505871" lon="6.936722"><ele></ele><time>2014-4-4T17:0:44Z</time></trkpt>
<trkpt lat="46.505924" lon="6.936867"><ele></ele><time>2014-4-4T17:0:47Z</time></trkpt>
<trkpt lat="46.505932" lon="6.937025"><ele></ele><time>2014-4-4T17:0:50Z</time></trkpt>
<trkpt lat="46.505974" lon="6.937188"><ele></ele><time>2014-4-4T17:0:53Z</time></trkpt>
<trkpt lat="46.505959" lon="6.937483"><ele></ele><time>2014-4-4T17:0:56Z</time></trkpt>
<trkpt lat="46.505970" lon="6.937828"><ele></ele><time>2014-4-4T17:0:59Z</time></trkpt>
<trkpt lat="46.506031" lon="6.938159"><ele></ele><time>2014-4-4T17:1:2Z</time></trkpt>
<trkpt lat="46.506134" lon="6.938460"><ele></ele><time>2014-4-4T17:1:5Z</time></trkpt>
<trkpt lat="46.506126" lon="6.938804"><ele></ele><time>2014-4-4T17:1:8Z</time></trkpt>
<trkpt lat="46.506096" lon="6.939119"><ele></ele><time>2014-4-4T17:1:11Z</time></trkpt>
<trkpt lat="46.506180" lon="6.939398"><ele></ele><time>2014-4-4T17:1:14Z</time></trkpt>
<trkpt lat="46.506340" lon="6.939614"><ele></ele><time>2014-4-4T17:1:17Z</time></trkpt>
<trkpt lat="46.506470" lon="6.939884"><ele></ele><time>2014-4-4T17:1:20Z</time></trkpt>
<trkpt lat="46.506504" lon="6.940144"><ele></ele><time>2014-4-4T17:1:23Z</time></trkpt>
<trkpt lat="46.506527" lon="6.940528"><ele></ele><time>2014-4-4T17:1:26Z</time></trkpt>
<trkpt lat="46.506706" lon="6.940907"><ele></ele><time>2014-4-4T17:1:29Z</time></trkpt>
<trkpt lat="46.506741" lon="6.941249"><ele></ele><time>2014-4-4T17:1:32Z</time></trkpt>
<trkpt lat="46.506779" lon="6.941451"><ele></ele><time>2014-4-4T17:1:35Z</time></trkpt>
<trkpt lat="46.506817" lon="6.941699"><ele></ele><time>2014-4-4T17:1:38Z</time></trkpt>
<trkpt lat="46.506855" lon="6.942035"><ele></ele><time>2014-4-4T17:1:41Z</time></trkpt>
<trkpt lat="46.506897" lon="6.942469"><ele></ele><time>2014-4-4T17:1:44Z</time></trkpt>
<trkpt lat="46.506996" lon="6.942827"><ele></ele><time>2014-4-4T17:1:47Z</time></trkpt>
<trkpt lat="46.507088" lon="6.943173"><ele></ele><time>2014-4-4T17:1:50Z</time></trkpt>
<trkpt lat="46.507214" lon="6.943640"><ele></ele><time>2014-4-4T17:1:53Z</time></trkpt>
<trkpt lat="46.507294" lon="6.944197"><ele></ele><time>2014-4-4T17:1:56Z</time></trkpt>
<trkpt lat="46.507347" lon="6.944503"><ele></ele><time>2014-4-4T17:1:59Z</time></trkpt>
<trkpt lat="46.507343" lon="6.944489"><ele></ele><time>2014-4-4T17:2:2Z</time></trkpt>
<trkpt lat="46.507343" lon="6.944489"><ele></ele><time>2014-4-4T17:2:5Z</time></trkpt>
<trkpt lat="46.507370" lon="6.944531"><ele></ele><time>2014-4-4T17:2:8Z</time></trkpt>
<trkpt lat="46.507442" lon="6.944648"><ele></ele><time>2014-4-4T17:2:11Z</time></trkpt>
<trkpt lat="46.507576" lon="6.944877"><ele></ele><time>2014-4-4T17:2:14Z</time></trkpt>
<trkpt lat="46.507599" lon="6.945251"><ele></ele><time>2014-4-4T17:2:17Z</time></trkpt>
<trkpt lat="46.507561" lon="6.945709"><ele></ele><time>2014-4-4T17:2:20Z</time></trkpt>
<trkpt lat="46.507526" lon="6.946239"><ele></ele><time>2014-4-4T17:2:23Z</time></trkpt>
<trkpt lat="46.507610" lon="6.946771"><ele></ele><time>2014-4-4T17:2:26Z</time></trkpt>
<trkpt lat="46.507557" lon="6.947049"><ele></ele><time>2014-4-4T17:2:29Z</time></trkpt>
<trkpt lat="46.507450" lon="6.947103"><ele></ele><time>2014-4-4T17:2:32Z</time></trkpt>
<trkpt lat="46.507442" lon="6.947107"><ele></ele><time>2014-4-4T17:2:35Z</time></trkpt>
<trkpt lat="46.507442" lon="6.947107"><ele></ele><time>2014-4-4T17:2:38Z</time></trkpt>
<trkpt lat="46.507442" lon="6.947107"><ele></ele><time>2014-4-4T17:2:41Z</time></trkpt>
<trkpt lat="46.507442" lon="6.947108"><ele></ele><time>2014-4-4T17:2:44Z</time></trkpt>
<trkpt lat="46.507446" lon="6.947105"><ele></ele><time>2014-4-4T17:2:47Z</time></trkpt>
<trkpt lat="46.507458" lon="6.947156"><ele></ele><time>2014-4-4T17:2:50Z</time></trkpt>
<trkpt lat="46.507500" lon="6.947184"><ele></ele><time>2014-4-4T17:2:53Z</time></trkpt>
<trkpt lat="46.507504" lon="6.947192"><ele></ele><time>2014-4-4T17:2:56Z</time></trkpt>
<trkpt lat="46.507523" lon="6.947228"><ele></ele><time>2014-4-4T17:2:59Z</time></trkpt>
<trkpt lat="46.507538" lon="6.947265"><ele></ele><time>2014-4-4T17:3:2Z</time></trkpt>
<trkpt lat="46.507565" lon="6.947280"><ele></ele><time>2014-4-4T17:3:5Z</time></trkpt>
<trkpt lat="46.507618" lon="6.947332"><ele></ele><time>2014-4-4T17:3:8Z</time></trkpt>
<trkpt lat="46.507690" lon="6.947400"><ele></ele><time>2014-4-4T17:3:11Z</time></trkpt>
<trkpt lat="46.507771" lon="6.947497"><ele></ele><time>2014-4-4T17:3:14Z</time></trkpt>
<trkpt lat="46.507851" lon="6.947554"><ele></ele><time>2014-4-4T17:3:17Z</time></trkpt>
<trkpt lat="46.507885" lon="6.947592"><ele></ele><time>2014-4-4T17:3:20Z</time></trkpt>
<trkpt lat="46.507877" lon="6.947604"><ele></ele><time>2014-4-4T17:3:23Z</time></trkpt>
<trkpt lat="46.507885" lon="6.947606"><ele></ele><time>2014-4-4T17:3:26Z</time></trkpt>
<trkpt lat="46.507885" lon="6.947609"><ele></ele><time>2014-4-4T17:3:29Z</time></trkpt>
<trkpt lat="46.507904" lon="6.947632"><ele></ele><time>2014-4-4T17:3:32Z</time></trkpt>
<trkpt lat="46.507915" lon="6.947660"><ele></ele><time>2014-4-4T17:3:35Z</time></trkpt>
<trkpt lat="46.507950" lon="6.947688"><ele></ele><time>2014-4-4T17:3:38Z</time></trkpt>
<trkpt lat="46.508026" lon="6.947766"><ele></ele><time>2014-4-4T17:3:41Z</time></trkpt>
<trkpt lat="46.508091" lon="6.947856"><ele></ele><time>2014-4-4T17:3:44Z</time></trkpt>
<trkpt lat="46.508148" lon="6.947948"><ele></ele><time>2014-4-4T17:3:47Z</time></trkpt>
<trkpt lat="46.508202" lon="6.948033"><ele></ele><time>2014-4-4T17:3:50Z</time></trkpt>
<trkpt lat="46.508205" lon="6.948054"><ele></ele><time>2014-4-4T17:3:53Z</time></trkpt>
<trkpt lat="46.508240" lon="6.948089"><ele></ele><time>2014-4-4T17:3:56Z</time></trkpt>
<trkpt lat="46.508263" lon="6.948102"><ele></ele><time>2014-4-4T17:3:59Z</time></trkpt>
<trkpt lat="46.508282" lon="6.948164"><ele></ele><time>2014-4-4T17:4:2Z</time></trkpt>
<trkpt lat="46.508316" lon="6.948216"><ele></ele><time>2014-4-4T17:4:5Z</time></trkpt>
<trkpt lat="46.508331" lon="6.948258"><ele></ele><time>2014-4-4T17:4:8Z</time></trkpt>
<trkpt lat="46.508354" lon="6.948308"><ele></ele><time>2014-4-4T17:4:11Z</time></trkpt>
<trkpt lat="46.508377" lon="6.948362"><ele></ele><time>2014-4-4T17:4:14Z</time></trkpt>
<trkpt lat="46.508385" lon="6.948377"><ele></ele><time>2014-4-4T17:4:17Z</time></trkpt>
<trkpt lat="46.508419" lon="6.948400"><ele></ele><time>2014-4-4T17:4:20Z</time></trkpt>
<trkpt lat="46.508461" lon="6.948439"><ele></ele><time>2014-4-4T17:4:23Z</time></trkpt>
<trkpt lat="46.508495" lon="6.948482"><ele></ele><time>2014-4-4T17:4:26Z</time></trkpt>
<trkpt lat="46.508545" lon="6.948499"><ele></ele><time>2014-4-4T17:4:29Z</time></trkpt>
<trkpt lat="46.508530" lon="6.948537"><ele></ele><time>2014-4-4T17:4:32Z</time></trkpt>
<trkpt lat="46.508545" lon="6.948566"><ele></ele><time>2014-4-4T17:4:35Z</time></trkpt>
<trkpt lat="46.508595" lon="6.948544"><ele></ele><time>2014-4-4T17:4:38Z</time></trkpt>
<trkpt lat="46.508591" lon="6.948544"><ele></ele><time>2014-4-4T17:4:41Z</time></trkpt>
<trkpt lat="46.508591" lon="6.948545"><ele></ele><time>2014-4-4T17:4:44Z</time></trkpt>
<trkpt lat="46.508598" lon="6.948540"><ele></ele><time>2014-4-4T17:4:47Z</time></trkpt>
<trkpt lat="46.508625" lon="6.948533"><ele></ele><time>2014-4-4T17:4:50Z</time></trkpt>
<trkpt lat="46.508656" lon="6.948566"><ele></ele><time>2014-4-4T17:4:53Z</time></trkpt>
<trkpt lat="46.508678" lon="6.948601"><ele></ele><time>2014-4-4T17:4:56Z</time></trkpt>
<trkpt lat="46.508705" lon="6.948598"><ele></ele><time>2014-4-4T17:4:59Z</time></trkpt>
<trkpt lat="46.508747" lon="6.948596"><ele></ele><time>2014-4-4T17:5:2Z</time></trkpt>
<trkpt lat="46.508804" lon="6.948615"><ele></ele><time>2014-4-4T17:5:5Z</time></trkpt>
<trkpt lat="46.508846" lon="6.948637"><ele></ele><time>2014-4-4T17:5:8Z</time></trkpt>
<trkpt lat="46.508869" lon="6.948642"><ele></ele><time>2014-4-4T17:5:11Z</time></trkpt>
<trkpt lat="46.508881" lon="6.948659"><ele></ele><time>2014-4-4T17:5:14Z</time></trkpt>
<trkpt lat="46.508888" lon="6.948679"><ele></ele><time>2014-4-4T17:5:17Z</time></trkpt>
<trkpt lat="46.508930" lon="6.948678"><ele></ele><time>2014-4-4T17:5:20Z</time></trkpt>
<trkpt lat="46.508968" lon="6.948673"><ele></ele><time>2014-4-4T17:5:23Z</time></trkpt>
<trkpt lat="46.508995" lon="6.948678"><ele></ele><time>2014-4-4T17:5:26Z</time></trkpt>
<trkpt lat="46.509033" lon="6.948730"><ele></ele><time>2014-4-4T17:5:29Z</time></trkpt>
<trkpt lat="46.509079" lon="6.948777"><ele></ele><time>2014-4-4T17:5:32Z</time></trkpt>
<trkpt lat="46.509109" lon="6.948793"><ele></ele><time>2014-4-4T17:5:35Z</time></trkpt>
<trkpt lat="46.509132" lon="6.948853"><ele></ele><time>2014-4-4T17:5:38Z</time></trkpt>
<trkpt lat="46.509178" lon="6.948888"><ele></ele><time>2014-4-4T17:5:41Z</time></trkpt>
<trkpt lat="46.509220" lon="6.948916"><ele></ele><time>2014-4-4T17:5:44Z</time></trkpt>
<trkpt lat="46.509258" lon="6.948933"><ele></ele><time>2014-4-4T17:5:47Z</time></trkpt>
<trkpt lat="46.509270" lon="6.948967"><ele></ele><time>2014-4-4T17:5:50Z</time></trkpt>
<trkpt lat="46.509239" lon="6.949009"><ele></ele><time>2014-4-4T17:5:53Z</time></trkpt>
<trkpt lat="46.509212" lon="6.949043"><ele></ele><time>2014-4-4T17:5:56Z</time></trkpt>
<trkpt lat="46.509186" lon="6.949086"><ele></ele><time>2014-4-4T17:5:59Z</time></trkpt>
<trkpt lat="46.509159" lon="6.949143"><ele></ele><time>2014-4-4T17:6:2Z</time></trkpt>
<trkpt lat="46.509125" lon="6.949206"><ele></ele><time>2014-4-4T17:6:5Z</time></trkpt>
<trkpt lat="46.509102" lon="6.949268"><ele></ele><time>2014-4-4T17:6:8Z</time></trkpt>
<trkpt lat="46.509083" lon="6.949299"><ele></ele><time>2014-4-4T17:6:11Z</time></trkpt>
<trkpt lat="46.509083" lon="6.949353"><ele></ele><time>2014-4-4T17:6:14Z</time></trkpt>
<trkpt lat="46.509068" lon="6.949393"><ele></ele><time>2014-4-4T17:6:17Z</time></trkpt>
<trkpt lat="46.509037" lon="6.949418"><ele></ele><time>2014-4-4T17:6:20Z</time></trkpt>
<trkpt lat="46.508995" lon="6.949429"><ele></ele><time>2014-4-4T17:6:23Z</time></trkpt>
<trkpt lat="46.508953" lon="6.949439"><ele></ele><time>2014-4-4T17:6:26Z</time></trkpt>
<trkpt lat="46.508896" lon="6.949438"><ele></ele><time>2014-4-4T17:6:29Z</time></trkpt>
<trkpt lat="46.508835" lon="6.949458"><ele></ele><time>2014-4-4T17:6:32Z</time></trkpt>
<trkpt lat="46.508781" lon="6.949474"><ele></ele><time>2014-4-4T17:6:35Z</time></trkpt>
<trkpt lat="46.508743" lon="6.949497"><ele></ele><time>2014-4-4T17:6:38Z</time></trkpt>
<trkpt lat="46.508759" lon="6.949508"><ele></ele><time>2014-4-4T17:6:41Z</time></trkpt>
<trkpt lat="46.508759" lon="6.949508"><ele></ele><time>2014-4-4T17:6:44Z</time></trkpt>
<trkpt lat="46.508743" lon="6.949507"><ele></ele><time>2014-4-4T17:6:47Z</time></trkpt>
<trkpt lat="46.508705" lon="6.949532"><ele></ele><time>2014-4-4T17:6:50Z</time></trkpt>
<trkpt lat="46.508690" lon="6.949544"><ele></ele><time>2014-4-4T17:6:53Z</time></trkpt>
<trkpt lat="46.508686" lon="6.949549"><ele></ele><time>2014-4-4T17:6:56Z</time></trkpt>
<trkpt lat="46.508686" lon="6.949549"><ele></ele><time>2014-4-4T17:6:59Z</time></trkpt>
<trkpt lat="46.508686" lon="6.949549"><ele></ele><time>2014-4-4T17:7:2Z</time></trkpt>
<trkpt lat="46.508686" lon="6.949548"><ele></ele><time>2014-4-4T17:7:5Z</time></trkpt>
<trkpt lat="46.508686" lon="6.949548"><ele></ele><time>2014-4-4T17:7:8Z</time></trkpt>
<trkpt lat="46.508686" lon="6.949546"><ele></ele><time>2014-4-4T17:7:11Z</time></trkpt>
<trkpt lat="46.508675" lon="6.949569"><ele></ele><time>2014-4-4T17:7:14Z</time></trkpt>
<trkpt lat="46.508621" lon="6.949620"><ele></ele><time>2014-4-4T17:7:17Z</time></trkpt>
<trkpt lat="46.508545" lon="6.949691"><ele></ele><time>2014-4-4T17:7:20Z</time></trkpt>
<trkpt lat="46.508514" lon="6.949706"><ele></ele><time>2014-4-4T17:7:23Z</time></trkpt>
<trkpt lat="46.508514" lon="6.949708"><ele></ele><time>2014-4-4T17:7:26Z</time></trkpt>
<trkpt lat="46.508480" lon="6.949761"><ele></ele><time>2014-4-4T17:7:29Z</time></trkpt>
<trkpt lat="46.508369" lon="6.949881"><ele></ele><time>2014-4-4T17:7:32Z</time></trkpt>
<trkpt lat="46.508270" lon="6.950059"><ele></ele><time>2014-4-4T17:7:35Z</time></trkpt>
<trkpt lat="46.508144" lon="6.950233"><ele></ele><time>2014-4-4T17:7:38Z</time></trkpt>
<trkpt lat="46.507992" lon="6.950371"><ele></ele><time>2014-4-4T17:7:41Z</time></trkpt>
<trkpt lat="46.507778" lon="6.950523"><ele></ele><time>2014-4-4T17:7:44Z</time></trkpt>
<trkpt lat="46.507587" lon="6.950588"><ele></ele><time>2014-4-4T17:7:47Z</time></trkpt>
<trkpt lat="46.507404" lon="6.950683"><ele></ele><time>2014-4-4T17:7:50Z</time></trkpt>
<trkpt lat="46.507244" lon="6.950781"><ele></ele><time>2014-4-4T17:7:53Z</time></trkpt>
<trkpt lat="46.507118" lon="6.950914"><ele></ele><time>2014-4-4T17:7:56Z</time></trkpt>
<trkpt lat="46.507046" lon="6.951119"><ele></ele><time>2014-4-4T17:7:59Z</time></trkpt>
<trkpt lat="46.507030" lon="6.951436"><ele></ele><time>2014-4-4T17:8:2Z</time></trkpt>
<trkpt lat="46.507122" lon="6.951735"><ele></ele><time>2014-4-4T17:8:5Z</time></trkpt>
<trkpt lat="46.507195" lon="6.952024"><ele></ele><time>2014-4-4T17:8:8Z</time></trkpt>
<trkpt lat="46.507252" lon="6.952244"><ele></ele><time>2014-4-4T17:8:11Z</time></trkpt>
<trkpt lat="46.507175" lon="6.952414"><ele></ele><time>2014-4-4T17:8:14Z</time></trkpt>
<trkpt lat="46.507053" lon="6.952538"><ele></ele><time>2014-4-4T17:8:17Z</time></trkpt>
<trkpt lat="46.506905" lon="6.952676"><ele></ele><time>2014-4-4T17:8:20Z</time></trkpt>
<trkpt lat="46.506779" lon="6.952810"><ele></ele><time>2014-4-4T17:8:23Z</time></trkpt>
<trkpt lat="46.506672" lon="6.952930"><ele></ele><time>2014-4-4T17:8:26Z</time></trkpt>
<trkpt lat="46.506603" lon="6.953031"><ele></ele><time>2014-4-4T17:8:29Z</time></trkpt>
<trkpt lat="46.506542" lon="6.953148"><ele></ele><time>2014-4-4T17:8:32Z</time></trkpt>
<trkpt lat="46.506496" lon="6.953239"><ele></ele><time>2014-4-4T17:8:35Z</time></trkpt>
<trkpt lat="46.506424" lon="6.953276"><ele></ele><time>2014-4-4T17:8:38Z</time></trkpt>
<trkpt lat="46.506413" lon="6.953282"><ele></ele><time>2014-4-4T17:8:41Z</time></trkpt>
<trkpt lat="46.506416" lon="6.953282"><ele></ele><time>2014-4-4T17:8:44Z</time></trkpt>
<trkpt lat="46.506416" lon="6.953285"><ele></ele><time>2014-4-4T17:8:47Z</time></trkpt>
<trkpt lat="46.506416" lon="6.953286"><ele></ele><time>2014-4-4T17:8:50Z</time></trkpt>
<trkpt lat="46.506416" lon="6.953288"><ele></ele><time>2014-4-4T17:8:53Z</time></trkpt>
<trkpt lat="46.506413" lon="6.953268"><ele></ele><time>2014-4-4T17:8:56Z</time></trkpt>
<trkpt lat="46.506409" lon="6.953276"><ele></ele><time>2014-4-4T17:8:59Z</time></trkpt>
<trkpt lat="46.506279" lon="6.953309"><ele></ele><time>2014-4-4T17:9:2Z</time></trkpt>
<trkpt lat="46.506187" lon="6.953375"><ele></ele><time>2014-4-4T17:9:5Z</time></trkpt>
<trkpt lat="46.506107" lon="6.953435"><ele></ele><time>2014-4-4T17:9:8Z</time></trkpt>
<trkpt lat="46.506081" lon="6.953463"><ele></ele><time>2014-4-4T17:9:11Z</time></trkpt>
<trkpt lat="46.506081" lon="6.953485"><ele></ele><time>2014-4-4T17:9:14Z</time></trkpt>
<trkpt lat="46.506077" lon="6.953511"><ele></ele><time>2014-4-4T17:9:17Z</time></trkpt>
<trkpt lat="46.506077" lon="6.953506"><ele></ele><time>2014-4-4T17:9:20Z</time></trkpt>
<trkpt lat="46.506077" lon="6.953510"><ele></ele><time>2014-4-4T17:9:23Z</time></trkpt>
<trkpt lat="46.506073" lon="6.953546"><ele></ele><time>2014-4-4T17:9:26Z</time></trkpt>
<trkpt lat="46.506008" lon="6.953640"><ele></ele><time>2014-4-4T17:9:29Z</time></trkpt>
<trkpt lat="46.505890" lon="6.953662"><ele></ele><time>2014-4-4T17:9:32Z</time></trkpt>
<trkpt lat="46.505753" lon="6.953684"><ele></ele><time>2014-4-4T17:9:35Z</time></trkpt>
<trkpt lat="46.505608" lon="6.953722"><ele></ele><time>2014-4-4T17:9:38Z</time></trkpt>
<trkpt lat="46.505474" lon="6.953917"><ele></ele><time>2014-4-4T17:9:41Z</time></trkpt>
<trkpt lat="46.505329" lon="6.954185"><ele></ele><time>2014-4-4T17:9:44Z</time></trkpt>
<trkpt lat="46.505081" lon="6.954314"><ele></ele><time>2014-4-4T17:9:47Z</time></trkpt>
<trkpt lat="46.504807" lon="6.954241"><ele></ele><time>2014-4-4T17:9:50Z</time></trkpt>
<trkpt lat="46.504475" lon="6.954155"><ele></ele><time>2014-4-4T17:9:53Z</time></trkpt>
<trkpt lat="46.504326" lon="6.954180"><ele></ele><time>2014-4-4T17:9:56Z</time></trkpt>
<trkpt lat="46.504089" lon="6.954111"><ele></ele><time>2014-4-4T17:9:59Z</time></trkpt>
<trkpt lat="46.503880" lon="6.954091"><ele></ele><time>2014-4-4T17:10:2Z</time></trkpt>
<trkpt lat="46.503674" lon="6.954011"><ele></ele><time>2014-4-4T17:10:5Z</time></trkpt>
<trkpt lat="46.503399" lon="6.953952"><ele></ele><time>2014-4-4T17:10:8Z</time></trkpt>
<trkpt lat="46.503254" lon="6.954190"><ele></ele><time>2014-4-4T17:10:11Z</time></trkpt>
<trkpt lat="46.503044" lon="6.954303"><ele></ele><time>2014-4-4T17:10:14Z</time></trkpt>
<trkpt lat="46.502789" lon="6.954507"><ele></ele><time>2014-4-4T17:10:17Z</time></trkpt>
<trkpt lat="46.502491" lon="6.954733"><ele></ele><time>2014-4-4T17:10:20Z</time></trkpt>
<trkpt lat="46.502254" lon="6.954944"><ele></ele><time>2014-4-4T17:10:23Z</time></trkpt>
<trkpt lat="46.501923" lon="6.955117"><ele></ele><time>2014-4-4T17:10:26Z</time></trkpt>
<trkpt lat="46.501610" lon="6.955525"><ele></ele><time>2014-4-4T17:10:29Z</time></trkpt>
<trkpt lat="46.501362" lon="6.955917"><ele></ele><time>2014-4-4T17:10:32Z</time></trkpt>
<trkpt lat="46.501225" lon="6.956238"><ele></ele><time>2014-4-4T17:10:35Z</time></trkpt>
<trkpt lat="46.501186" lon="6.956618"><ele></ele><time>2014-4-4T17:10:38Z</time></trkpt>
<trkpt lat="46.501221" lon="6.957098"><ele></ele><time>2014-4-4T17:10:41Z</time></trkpt>
<trkpt lat="46.501263" lon="6.957539"><ele></ele><time>2014-4-4T17:10:44Z</time></trkpt>
<trkpt lat="46.501434" lon="6.957810"><ele></ele><time>2014-4-4T17:10:47Z</time></trkpt>
<trkpt lat="46.501511" lon="6.958157"><ele></ele><time>2014-4-4T17:10:50Z</time></trkpt>
<trkpt lat="46.501156" lon="6.958364"><ele></ele><time>2014-4-4T17:10:53Z</time></trkpt>
<trkpt lat="46.500904" lon="6.958441"><ele></ele><time>2014-4-4T17:10:56Z</time></trkpt>
<trkpt lat="46.500809" lon="6.958502"><ele></ele><time>2014-4-4T17:10:59Z</time></trkpt>
<trkpt lat="46.500656" lon="6.958725"><ele></ele><time>2014-4-4T17:11:2Z</time></trkpt>
<trkpt lat="46.500374" lon="6.959052"><ele></ele><time>2014-4-4T17:11:5Z</time></trkpt>
<trkpt lat="46.500214" lon="6.959520"><ele></ele><time>2014-4-4T17:11:8Z</time></trkpt>
<trkpt lat="46.500172" lon="6.960022"><ele></ele><time>2014-4-4T17:11:11Z</time></trkpt>
<trkpt lat="46.500034" lon="6.960425"><ele></ele><time>2014-4-4T17:11:14Z</time></trkpt>
<trkpt lat="46.499905" lon="6.960778"><ele></ele><time>2014-4-4T17:11:17Z</time></trkpt>
<trkpt lat="46.499825" lon="6.960947"><ele></ele><time>2014-4-4T17:11:20Z</time></trkpt>
<trkpt lat="46.499825" lon="6.960950"><ele></ele><time>2014-4-4T17:11:23Z</time></trkpt>
<trkpt lat="46.499825" lon="6.960953"><ele></ele><time>2014-4-4T17:11:26Z</time></trkpt>
<trkpt lat="46.499828" lon="6.960954"><ele></ele><time>2014-4-4T17:11:29Z</time></trkpt>
<trkpt lat="46.499828" lon="6.960961"><ele></ele><time>2014-4-4T17:11:32Z</time></trkpt>
<trkpt lat="46.499786" lon="6.961079"><ele></ele><time>2014-4-4T17:11:35Z</time></trkpt>
<trkpt lat="46.499691" lon="6.961315"><ele></ele><time>2014-4-4T17:11:38Z</time></trkpt>
<trkpt lat="46.499584" lon="6.961544"><ele></ele><time>2014-4-4T17:11:41Z</time></trkpt>
<trkpt lat="46.499493" lon="6.961757"><ele></ele><time>2014-4-4T17:11:44Z</time></trkpt>
<trkpt lat="46.499428" lon="6.961979"><ele></ele><time>2014-4-4T17:11:47Z</time></trkpt>
<trkpt lat="46.499336" lon="6.962248"><ele></ele><time>2014-4-4T17:11:50Z</time></trkpt>
<trkpt lat="46.499184" lon="6.962534"><ele></ele><time>2014-4-4T17:11:53Z</time></trkpt>
<trkpt lat="46.499008" lon="6.962807"><ele></ele><time>2014-4-4T17:11:56Z</time></trkpt>
<trkpt lat="46.498821" lon="6.963040"><ele></ele><time>2014-4-4T17:11:59Z</time></trkpt>
<trkpt lat="46.498634" lon="6.963302"><ele></ele><time>2014-4-4T17:12:2Z</time></trkpt>
<trkpt lat="46.498451" lon="6.963558"><ele></ele><time>2014-4-4T17:12:5Z</time></trkpt>
<trkpt lat="46.498299" lon="6.963799"><ele></ele><time>2014-4-4T17:12:8Z</time></trkpt>
<trkpt lat="46.498158" lon="6.964019"><ele></ele><time>2014-4-4T17:12:11Z</time></trkpt>
<trkpt lat="46.498009" lon="6.964242"><ele></ele><time>2014-4-4T17:12:14Z</time></trkpt>
<trkpt lat="46.497852" lon="6.964459"><ele></ele><time>2014-4-4T17:12:17Z</time></trkpt>
<trkpt lat="46.497707" lon="6.964683"><ele></ele><time>2014-4-4T17:12:20Z</time></trkpt>
<trkpt lat="46.497566" lon="6.964939"><ele></ele><time>2014-4-4T17:12:23Z</time></trkpt>
<trkpt lat="46.497425" lon="6.965210"><ele></ele><time>2014-4-4T17:12:26Z</time></trkpt>
<trkpt lat="46.497299" lon="6.965477"><ele></ele><time>2014-4-4T17:12:29Z</time></trkpt>
<trkpt lat="46.497154" lon="6.965686"><ele></ele><time>2014-4-4T17:12:32Z</time></trkpt>
<trkpt lat="46.497025" lon="6.965893"><ele></ele><time>2014-4-4T17:12:35Z</time></trkpt>
<trkpt lat="46.496902" lon="6.966089"><ele></ele><time>2014-4-4T17:12:38Z</time></trkpt>
<trkpt lat="46.496784" lon="6.966244"><ele></ele><time>2014-4-4T17:12:41Z</time></trkpt>
<trkpt lat="46.496651" lon="6.966355"><ele></ele><time>2014-4-4T17:12:44Z</time></trkpt>
<trkpt lat="46.496517" lon="6.966458"><ele></ele><time>2014-4-4T17:12:47Z</time></trkpt>
<trkpt lat="46.496368" lon="6.966521"><ele></ele><time>2014-4-4T17:12:50Z</time></trkpt>
<trkpt lat="46.496262" lon="6.966565"><ele></ele><time>2014-4-4T17:12:53Z</time></trkpt>
<trkpt lat="46.496162" lon="6.966615"><ele></ele><time>2014-4-4T17:12:56Z</time></trkpt>
<trkpt lat="46.496059" lon="6.966718"><ele></ele><time>2014-4-4T17:12:59Z</time></trkpt>
<trkpt lat="46.495918" lon="6.966873"><ele></ele><time>2014-4-4T17:13:2Z</time></trkpt>
<trkpt lat="46.495754" lon="6.967065"><ele></ele><time>2014-4-4T17:13:5Z</time></trkpt>
<trkpt lat="46.495594" lon="6.967271"><ele></ele><time>2014-4-4T17:13:8Z</time></trkpt>
<trkpt lat="46.495434" lon="6.967480"><ele></ele><time>2014-4-4T17:13:11Z</time></trkpt>
<trkpt lat="46.495251" lon="6.967710"><ele></ele><time>2014-4-4T17:13:14Z</time></trkpt>
<trkpt lat="46.495087" lon="6.967920"><ele></ele><time>2014-4-4T17:13:17Z</time></trkpt>
<trkpt lat="46.494968" lon="6.968111"><ele></ele><time>2014-4-4T17:13:20Z</time></trkpt>
<trkpt lat="46.494858" lon="6.968357"><ele></ele><time>2014-4-4T17:13:23Z</time></trkpt>
<trkpt lat="46.494743" lon="6.968585"><ele></ele><time>2014-4-4T17:13:26Z</time></trkpt>
<trkpt lat="46.494633" lon="6.968803"><ele></ele><time>2014-4-4T17:13:29Z</time></trkpt>
<trkpt lat="46.494522" lon="6.968989"><ele></ele><time>2014-4-4T17:13:32Z</time></trkpt>
<trkpt lat="46.494415" lon="6.969208"><ele></ele><time>2014-4-4T17:13:35Z</time></trkpt>
<trkpt lat="46.494289" lon="6.969525"><ele></ele><time>2014-4-4T17:13:38Z</time></trkpt>
<trkpt lat="46.494175" lon="6.969970"><ele></ele><time>2014-4-4T17:13:41Z</time></trkpt>
<trkpt lat="46.493977" lon="6.970463"><ele></ele><time>2014-4-4T17:13:44Z</time></trkpt>
<trkpt lat="46.493729" lon="6.970893"><ele></ele><time>2014-4-4T17:13:47Z</time></trkpt>
<trkpt lat="46.493469" lon="6.971342"><ele></ele><time>2014-4-4T17:13:50Z</time></trkpt>
<trkpt lat="46.493156" lon="6.971448"><ele></ele><time>2014-4-4T17:13:53Z</time></trkpt>
<trkpt lat="46.493015" lon="6.970987"><ele></ele><time>2014-4-4T17:13:56Z</time></trkpt>
<trkpt lat="46.492882" lon="6.970361"><ele></ele><time>2014-4-4T17:13:59Z</time></trkpt>
<trkpt lat="46.492668" lon="6.969806"><ele></ele><time>2014-4-4T17:14:2Z</time></trkpt>
<trkpt lat="46.492352" lon="6.969517"><ele></ele><time>2014-4-4T17:14:5Z</time></trkpt>
<trkpt lat="46.492134" lon="6.969890"><ele></ele><time>2014-4-4T17:14:8Z</time></trkpt>
<trkpt lat="46.491913" lon="6.970016"><ele></ele><time>2014-4-4T17:14:11Z</time></trkpt>
<trkpt lat="46.491711" lon="6.970006"><ele></ele><time>2014-4-4T17:14:14Z</time></trkpt>
<trkpt lat="46.491577" lon="6.970018"><ele></ele><time>2014-4-4T17:14:17Z</time></trkpt>
<trkpt lat="46.491444" lon="6.969940"><ele></ele><time>2014-4-4T17:14:20Z</time></trkpt>
<trkpt lat="46.491417" lon="6.970021"><ele></ele><time>2014-4-4T17:14:23Z</time></trkpt>
<trkpt lat="46.491398" lon="6.970060"><ele></ele><time>2014-4-4T17:14:26Z</time></trkpt>
<trkpt lat="46.491379" lon="6.970064"><ele></ele><time>2014-4-4T17:14:29Z</time></trkpt>
<trkpt lat="46.491379" lon="6.970067"><ele></ele><time>2014-4-4T17:14:32Z</time></trkpt>
<trkpt lat="46.491314" lon="6.970119"><ele></ele><time>2014-4-4T17:14:35Z</time></trkpt>
<trkpt lat="46.491299" lon="6.970078"><ele></ele><time>2014-4-4T17:14:38Z</time></trkpt>
<trkpt lat="46.491333" lon="6.970158"><ele></ele><time>2014-4-4T17:14:41Z</time></trkpt>
<trkpt lat="46.491219" lon="6.970264"><ele></ele><time>2014-4-4T17:14:44Z</time></trkpt>
<trkpt lat="46.491219" lon="6.970364"><ele></ele><time>2014-4-4T17:14:47Z</time></trkpt>
<trkpt lat="46.491261" lon="6.970397"><ele></ele><time>2014-4-4T17:14:50Z</time></trkpt>
<trkpt lat="46.491261" lon="6.970446"><ele></ele><time>2014-4-4T17:14:53Z</time></trkpt>
<trkpt lat="46.491230" lon="6.970487"><ele></ele><time>2014-4-4T17:14:56Z</time></trkpt>
<trkpt lat="46.491192" lon="6.970462"><ele></ele><time>2014-4-4T17:14:59Z</time></trkpt>
<trkpt lat="46.491192" lon="6.970462"><ele></ele><time>2014-4-4T17:15:2Z</time></trkpt>
<trkpt lat="46.491192" lon="6.970463"><ele></ele><time>2014-4-4T17:15:5Z</time></trkpt>
<trkpt lat="46.491169" lon="6.970485"><ele></ele><time>2014-4-4T17:15:8Z</time></trkpt>
<trkpt lat="46.491135" lon="6.970519"><ele></ele><time>2014-4-4T17:15:11Z</time></trkpt>
<trkpt lat="46.491104" lon="6.970481"><ele></ele><time>2014-4-4T17:15:14Z</time></trkpt>
<trkpt lat="46.491070" lon="6.970434"><ele></ele><time>2014-4-4T17:15:17Z</time></trkpt>
<trkpt lat="46.491066" lon="6.970438"><ele></ele><time>2014-4-4T17:15:20Z</time></trkpt>
<trkpt lat="46.491051" lon="6.970414"><ele></ele><time>2014-4-4T17:15:23Z</time></trkpt>
<trkpt lat="46.491016" lon="6.970402"><ele></ele><time>2014-4-4T17:15:26Z</time></trkpt>
<trkpt lat="46.490978" lon="6.970378"><ele></ele><time>2014-4-4T17:15:29Z</time></trkpt>
<trkpt lat="46.490940" lon="6.970348"><ele></ele><time>2014-4-4T17:15:32Z</time></trkpt>
<trkpt lat="46.490917" lon="6.970343"><ele></ele><time>2014-4-4T17:15:35Z</time></trkpt>
<trkpt lat="46.490891" lon="6.970311"><ele></ele><time>2014-4-4T17:15:38Z</time></trkpt>
<trkpt lat="46.490871" lon="6.970279"><ele></ele><time>2014-4-4T17:15:41Z</time></trkpt>
<trkpt lat="46.490868" lon="6.970209"><ele></ele><time>2014-4-4T17:15:44Z</time></trkpt>
<trkpt lat="46.490856" lon="6.970179"><ele></ele><time>2014-4-4T17:15:47Z</time></trkpt>
<trkpt lat="46.490856" lon="6.970166"><ele></ele><time>2014-4-4T17:15:50Z</time></trkpt>
<trkpt lat="46.490845" lon="6.970204"><ele></ele><time>2014-4-4T17:15:53Z</time></trkpt>
<trkpt lat="46.490833" lon="6.970234"><ele></ele><time>2014-4-4T17:15:56Z</time></trkpt>
<trkpt lat="46.490822" lon="6.970353"><ele></ele><time>2014-4-4T17:15:59Z</time></trkpt>
<trkpt lat="46.490849" lon="6.970519"><ele></ele><time>2014-4-4T17:16:2Z</time></trkpt>
<trkpt lat="46.490841" lon="6.970648"><ele></ele><time>2014-4-4T17:16:5Z</time></trkpt>
<trkpt lat="46.490849" lon="6.970785"><ele></ele><time>2014-4-4T17:16:8Z</time></trkpt>
<trkpt lat="46.490868" lon="6.970942"><ele></ele><time>2014-4-4T17:16:11Z</time></trkpt>
<trkpt lat="46.490902" lon="6.971082"><ele></ele><time>2014-4-4T17:16:14Z</time></trkpt>
<trkpt lat="46.490902" lon="6.971233"><ele></ele><time>2014-4-4T17:16:17Z</time></trkpt>
<trkpt lat="46.490826" lon="6.971323"><ele></ele><time>2014-4-4T17:16:20Z</time></trkpt>
<trkpt lat="46.490707" lon="6.971362"><ele></ele><time>2014-4-4T17:16:23Z</time></trkpt>
<trkpt lat="46.490589" lon="6.971417"><ele></ele><time>2014-4-4T17:16:26Z</time></trkpt>
<trkpt lat="46.490456" lon="6.971411"><ele></ele><time>2014-4-4T17:16:29Z</time></trkpt>
<trkpt lat="46.490376" lon="6.971475"><ele></ele><time>2014-4-4T17:16:32Z</time></trkpt>
<trkpt lat="46.490269" lon="6.971558"><ele></ele><time>2014-4-4T17:16:35Z</time></trkpt>
<trkpt lat="46.490170" lon="6.971652"><ele></ele><time>2014-4-4T17:16:38Z</time></trkpt>
<trkpt lat="46.490086" lon="6.971755"><ele></ele><time>2014-4-4T17:16:41Z</time></trkpt>
<trkpt lat="46.490002" lon="6.971868"><ele></ele><time>2014-4-4T17:16:44Z</time></trkpt>
<trkpt lat="46.489944" lon="6.971995"><ele></ele><time>2014-4-4T17:16:47Z</time></trkpt>
<trkpt lat="46.489895" lon="6.972143"><ele></ele><time>2014-4-4T17:16:50Z</time></trkpt>
<trkpt lat="46.489796" lon="6.972232"><ele></ele><time>2014-4-4T17:16:53Z</time></trkpt>
<trkpt lat="46.489704" lon="6.972297"><ele></ele><time>2014-4-4T17:16:56Z</time></trkpt>
<trkpt lat="46.489597" lon="6.972343"><ele></ele><time>2014-4-4T17:16:59Z</time></trkpt>
<trkpt lat="46.489464" lon="6.972360"><ele></ele><time>2014-4-4T17:17:2Z</time></trkpt>
<trkpt lat="46.489357" lon="6.972435"><ele></ele><time>2014-4-4T17:17:5Z</time></trkpt>
<trkpt lat="46.489246" lon="6.972456"><ele></ele><time>2014-4-4T17:17:8Z</time></trkpt>
<trkpt lat="46.489120" lon="6.972441"><ele></ele><time>2014-4-4T17:17:11Z</time></trkpt>
<trkpt lat="46.489025" lon="6.972306"><ele></ele><time>2014-4-4T17:17:14Z</time></trkpt>
<trkpt lat="46.488914" lon="6.972217"><ele></ele><time>2014-4-4T17:17:17Z</time></trkpt>
<trkpt lat="46.488792" lon="6.972171"><ele></ele><time>2014-4-4T17:17:20Z</time></trkpt>
<trkpt lat="46.488705" lon="6.972107"><ele></ele><time>2014-4-4T17:17:23Z</time></trkpt>
<trkpt lat="46.488617" lon="6.972001"><ele></ele><time>2014-4-4T17:17:26Z</time></trkpt>
<trkpt lat="46.488567" lon="6.971840"><ele></ele><time>2014-4-4T17:17:29Z</time></trkpt>
<trkpt lat="46.488609" lon="6.971692"><ele></ele><time>2014-4-4T17:17:32Z</time></trkpt>
<trkpt lat="46.488644" lon="6.971560"><ele></ele><time>2014-4-4T17:17:35Z</time></trkpt>
<trkpt lat="46.488659" lon="6.971426"><ele></ele><time>2014-4-4T17:17:38Z</time></trkpt>
<trkpt lat="46.488659" lon="6.971282"><ele></ele><time>2014-4-4T17:17:41Z</time></trkpt>
<trkpt lat="46.488636" lon="6.971157"><ele></ele><time>2014-4-4T17:17:44Z</time></trkpt>
<trkpt lat="46.488594" lon="6.971051"><ele></ele><time>2014-4-4T17:17:47Z</time></trkpt>
<trkpt lat="46.488537" lon="6.970957"><ele></ele><time>2014-4-4T17:17:50Z</time></trkpt>
<trkpt lat="46.488487" lon="6.970871"><ele></ele><time>2014-4-4T17:17:53Z</time></trkpt>
<trkpt lat="46.488445" lon="6.970796"><ele></ele><time>2014-4-4T17:17:56Z</time></trkpt>
<trkpt lat="46.488457" lon="6.970716"><ele></ele><time>2014-4-4T17:17:59Z</time></trkpt>
<trkpt lat="46.488518" lon="6.970661"><ele></ele><time>2014-4-4T17:18:2Z</time></trkpt>
<trkpt lat="46.488575" lon="6.970588"><ele></ele><time>2014-4-4T17:18:5Z</time></trkpt>
<trkpt lat="46.488636" lon="6.970529"><ele></ele><time>2014-4-4T17:18:8Z</time></trkpt>
<trkpt lat="46.488682" lon="6.970456"><ele></ele><time>2014-4-4T17:18:11Z</time></trkpt>
<trkpt lat="46.488747" lon="6.970392"><ele></ele><time>2014-4-4T17:18:14Z</time></trkpt>
<trkpt lat="46.488811" lon="6.970334"><ele></ele><time>2014-4-4T17:18:17Z</time></trkpt>
<trkpt lat="46.488873" lon="6.970298"><ele></ele><time>2014-4-4T17:18:20Z</time></trkpt>
<trkpt lat="46.488941" lon="6.970251"><ele></ele><time>2014-4-4T17:18:23Z</time></trkpt>
<trkpt lat="46.489017" lon="6.970208"><ele></ele><time>2014-4-4T17:18:26Z</time></trkpt>
<trkpt lat="46.489094" lon="6.970170"><ele></ele><time>2014-4-4T17:18:29Z</time></trkpt>
<trkpt lat="46.489162" lon="6.970143"><ele></ele><time>2014-4-4T17:18:32Z</time></trkpt>
<trkpt lat="46.489243" lon="6.970107"><ele></ele><time>2014-4-4T17:18:35Z</time></trkpt>
<trkpt lat="46.489307" lon="6.970062"><ele></ele><time>2014-4-4T17:18:38Z</time></trkpt>
<trkpt lat="46.489376" lon="6.970019"><ele></ele><time>2014-4-4T17:18:41Z</time></trkpt>
<trkpt lat="46.489445" lon="6.969997"><ele></ele><time>2014-4-4T17:18:44Z</time></trkpt>
<trkpt lat="46.489517" lon="6.969936"><ele></ele><time>2014-4-4T17:18:47Z</time></trkpt>
<trkpt lat="46.489582" lon="6.969896"><ele></ele><time>2014-4-4T17:18:50Z</time></trkpt>
<trkpt lat="46.489639" lon="6.969832"><ele></ele><time>2014-4-4T17:18:53Z</time></trkpt>
<trkpt lat="46.489639" lon="6.969740"><ele></ele><time>2014-4-4T17:18:56Z</time></trkpt>
<trkpt lat="46.489594" lon="6.969641"><ele></ele><time>2014-4-4T17:18:59Z</time></trkpt>
<trkpt lat="46.489536" lon="6.969540"><ele></ele><time>2014-4-4T17:19:2Z</time></trkpt>
<trkpt lat="46.489460" lon="6.969511"><ele></ele><time>2014-4-4T17:19:5Z</time></trkpt>
<trkpt lat="46.489388" lon="6.969526"><ele></ele><time>2014-4-4T17:19:8Z</time></trkpt>
<trkpt lat="46.489304" lon="6.969542"><ele></ele><time>2014-4-4T17:19:11Z</time></trkpt>
<trkpt lat="46.489227" lon="6.969568"><ele></ele><time>2014-4-4T17:19:14Z</time></trkpt>
<trkpt lat="46.489159" lon="6.969564"><ele></ele><time>2014-4-4T17:19:17Z</time></trkpt>
<trkpt lat="46.489079" lon="6.969553"><ele></ele><time>2014-4-4T17:19:20Z</time></trkpt>
<trkpt lat="46.488991" lon="6.969542"><ele></ele><time>2014-4-4T17:19:23Z</time></trkpt>
<trkpt lat="46.488907" lon="6.969553"><ele></ele><time>2014-4-4T17:19:26Z</time></trkpt>
<trkpt lat="46.488827" lon="6.969553"><ele></ele><time>2014-4-4T17:19:29Z</time></trkpt>
<trkpt lat="46.488815" lon="6.969586"><ele></ele><time>2014-4-4T17:19:32Z</time></trkpt>
<trkpt lat="46.488815" lon="6.969588"><ele></ele><time>2014-4-4T17:19:35Z</time></trkpt>
<trkpt lat="46.488815" lon="6.969593"><ele></ele><time>2014-4-4T17:19:38Z</time></trkpt>
<trkpt lat="46.488815" lon="6.969597"><ele></ele><time>2014-4-4T17:19:41Z</time></trkpt>
<trkpt lat="46.488815" lon="6.969602"><ele></ele><time>2014-4-4T17:19:44Z</time></trkpt>
<trkpt lat="46.488815" lon="6.969605"><ele></ele><time>2014-4-4T17:19:47Z</time></trkpt>
<trkpt lat="46.488815" lon="6.969610"><ele></ele><time>2014-4-4T17:19:50Z</time></trkpt>
<trkpt lat="46.488808" lon="6.969611"><ele></ele><time>2014-4-4T17:19:53Z</time></trkpt>
<trkpt lat="46.488792" lon="6.969609"><ele></ele><time>2014-4-4T17:19:56Z</time></trkpt>
<trkpt lat="46.488792" lon="6.969605"><ele></ele><time>2014-4-4T17:19:59Z</time></trkpt>
<trkpt lat="46.488708" lon="6.969609"><ele></ele><time>2014-4-4T17:20:2Z</time></trkpt>
<trkpt lat="46.488583" lon="6.969608"><ele></ele><time>2014-4-4T17:20:5Z</time></trkpt>
<trkpt lat="46.488449" lon="6.969619"><ele></ele><time>2014-4-4T17:20:8Z</time></trkpt>
<trkpt lat="46.488304" lon="6.969626"><ele></ele><time>2014-4-4T17:20:11Z</time></trkpt>
<trkpt lat="46.488155" lon="6.969628"><ele></ele><time>2014-4-4T17:20:14Z</time></trkpt>
<trkpt lat="46.487991" lon="6.969605"><ele></ele><time>2014-4-4T17:20:17Z</time></trkpt>
<trkpt lat="46.487835" lon="6.969514"><ele></ele><time>2014-4-4T17:20:20Z</time></trkpt>
<trkpt lat="46.487713" lon="6.969508"><ele></ele><time>2014-4-4T17:20:23Z</time></trkpt>
<trkpt lat="46.487583" lon="6.969567"><ele></ele><time>2014-4-4T17:20:26Z</time></trkpt>
<trkpt lat="46.487465" lon="6.969541"><ele></ele><time>2014-4-4T17:20:29Z</time></trkpt>
<trkpt lat="46.487343" lon="6.969555"><ele></ele><time>2014-4-4T17:20:32Z</time></trkpt>
<trkpt lat="46.487228" lon="6.969613"><ele></ele><time>2014-4-4T17:20:35Z</time></trkpt>
<trkpt lat="46.487118" lon="6.969676"><ele></ele><time>2014-4-4T17:20:38Z</time></trkpt>
<trkpt lat="46.487015" lon="6.969724"><ele></ele><time>2014-4-4T17:20:41Z</time></trkpt>
<trkpt lat="46.486912" lon="6.969771"><ele></ele><time>2014-4-4T17:20:44Z</time></trkpt>
<trkpt lat="46.486820" lon="6.969784"><ele></ele><time>2014-4-4T17:20:47Z</time></trkpt>
<trkpt lat="46.486717" lon="6.969787"><ele></ele><time>2014-4-4T17:20:50Z</time></trkpt>
<trkpt lat="46.486633" lon="6.969814"><ele></ele><time>2014-4-4T17:20:53Z</time></trkpt>
<trkpt lat="46.486553" lon="6.969824"><ele></ele><time>2014-4-4T17:20:56Z</time></trkpt>
<trkpt lat="46.486465" lon="6.969850"><ele></ele><time>2014-4-4T17:20:59Z</time></trkpt>
<trkpt lat="46.486370" lon="6.969886"><ele></ele><time>2014-4-4T17:21:2Z</time></trkpt>
<trkpt lat="46.486282" lon="6.969922"><ele></ele><time>2014-4-4T17:21:5Z</time></trkpt>
<trkpt lat="46.486191" lon="6.969937"><ele></ele><time>2014-4-4T17:21:8Z</time></trkpt>
<trkpt lat="46.486107" lon="6.969955"><ele></ele><time>2014-4-4T17:21:11Z</time></trkpt>
<trkpt lat="46.486031" lon="6.969960"><ele></ele><time>2014-4-4T17:21:14Z</time></trkpt>
<trkpt lat="46.485950" lon="6.969966"><ele></ele><time>2014-4-4T17:21:17Z</time></trkpt>
<trkpt lat="46.485874" lon="6.969996"><ele></ele><time>2014-4-4T17:21:20Z</time></trkpt>
<trkpt lat="46.485794" lon="6.970047"><ele></ele><time>2014-4-4T17:21:23Z</time></trkpt>
<trkpt lat="46.485729" lon="6.970097"><ele></ele><time>2014-4-4T17:21:26Z</time></trkpt>
<trkpt lat="46.485664" lon="6.970170"><ele></ele><time>2014-4-4T17:21:29Z</time></trkpt>
<trkpt lat="46.485603" lon="6.970250"><ele></ele><time>2014-4-4T17:21:32Z</time></trkpt>
<trkpt lat="46.485538" lon="6.970319"><ele></ele><time>2014-4-4T17:21:35Z</time></trkpt>
<trkpt lat="46.485462" lon="6.970340"><ele></ele><time>2014-4-4T17:21:38Z</time></trkpt>
<trkpt lat="46.485386" lon="6.970327"><ele></ele><time>2014-4-4T17:21:41Z</time></trkpt>
<trkpt lat="46.485298" lon="6.970331"><ele></ele><time>2014-4-4T17:21:44Z</time></trkpt>
<trkpt lat="46.485207" lon="6.970330"><ele></ele><time>2014-4-4T17:21:47Z</time></trkpt>
<trkpt lat="46.485111" lon="6.970331"><ele></ele><time>2014-4-4T17:21:50Z</time></trkpt>
<trkpt lat="46.485016" lon="6.970305"><ele></ele><time>2014-4-4T17:21:53Z</time></trkpt>
<trkpt lat="46.484917" lon="6.970273"><ele></ele><time>2014-4-4T17:21:56Z</time></trkpt>
<trkpt lat="46.484833" lon="6.970263"><ele></ele><time>2014-4-4T17:21:59Z</time></trkpt>
<trkpt lat="46.484749" lon="6.970275"><ele></ele><time>2014-4-4T17:22:2Z</time></trkpt>
<trkpt lat="46.484669" lon="6.970268"><ele></ele><time>2014-4-4T17:22:5Z</time></trkpt>
<trkpt lat="46.484585" lon="6.970274"><ele></ele><time>2014-4-4T17:22:8Z</time></trkpt>
<trkpt lat="46.484497" lon="6.970286"><ele></ele><time>2014-4-4T17:22:11Z</time></trkpt>
<trkpt lat="46.484409" lon="6.970302"><ele></ele><time>2014-4-4T17:22:14Z</time></trkpt>
<trkpt lat="46.484322" lon="6.970311"><ele></ele><time>2014-4-4T17:22:17Z</time></trkpt>
<trkpt lat="46.484234" lon="6.970320"><ele></ele><time>2014-4-4T17:22:20Z</time></trkpt>
<trkpt lat="46.484150" lon="6.970325"><ele></ele><time>2014-4-4T17:22:23Z</time></trkpt>
<trkpt lat="46.484051" lon="6.970304"><ele></ele><time>2014-4-4T17:22:26Z</time></trkpt>
<trkpt lat="46.483963" lon="6.970297"><ele></ele><time>2014-4-4T17:22:29Z</time></trkpt>
<trkpt lat="46.483875" lon="6.970310"><ele></ele><time>2014-4-4T17:22:32Z</time></trkpt>
<trkpt lat="46.483780" lon="6.970350"><ele></ele><time>2014-4-4T17:22:35Z</time></trkpt>
<trkpt lat="46.483692" lon="6.970375"><ele></ele><time>2014-4-4T17:22:38Z</time></trkpt>
<trkpt lat="46.483612" lon="6.970400"><ele></ele><time>2014-4-4T17:22:41Z</time></trkpt>
<trkpt lat="46.483521" lon="6.970415"><ele></ele><time>2014-4-4T17:22:44Z</time></trkpt>
<trkpt lat="46.483429" lon="6.970443"><ele></ele><time>2014-4-4T17:22:47Z</time></trkpt>
<trkpt lat="46.483341" lon="6.970432"><ele></ele><time>2014-4-4T17:22:50Z</time></trkpt>
<trkpt lat="46.483238" lon="6.970425"><ele></ele><time>2014-4-4T17:22:53Z</time></trkpt>
<trkpt lat="46.483139" lon="6.970426"><ele></ele><time>2014-4-4T17:22:56Z</time></trkpt>
<trkpt lat="46.483036" lon="6.970415"><ele></ele><time>2014-4-4T17:22:59Z</time></trkpt>
<trkpt lat="46.482944" lon="6.970382"><ele></ele><time>2014-4-4T17:23:2Z</time></trkpt>
<trkpt lat="46.482868" lon="6.970309"><ele></ele><time>2014-4-4T17:23:5Z</time></trkpt>
<trkpt lat="46.482800" lon="6.970265"><ele></ele><time>2014-4-4T17:23:8Z</time></trkpt>
<trkpt lat="46.482731" lon="6.970196"><ele></ele><time>2014-4-4T17:23:11Z</time></trkpt>
<trkpt lat="46.482662" lon="6.970143"><ele></ele><time>2014-4-4T17:23:14Z</time></trkpt>
<trkpt lat="46.482574" lon="6.970093"><ele></ele><time>2014-4-4T17:23:17Z</time></trkpt>
<trkpt lat="46.482502" lon="6.970070"><ele></ele><time>2014-4-4T17:23:20Z</time></trkpt>
<trkpt lat="46.482418" lon="6.970026"><ele></ele><time>2014-4-4T17:23:23Z</time></trkpt>
<trkpt lat="46.482327" lon="6.969998"><ele></ele><time>2014-4-4T17:23:26Z</time></trkpt>
<trkpt lat="46.482235" lon="6.969987"><ele></ele><time>2014-4-4T17:23:29Z</time></trkpt>
<trkpt lat="46.482143" lon="6.969961"><ele></ele><time>2014-4-4T17:23:32Z</time></trkpt>
<trkpt lat="46.482059" lon="6.969940"><ele></ele><time>2014-4-4T17:23:35Z</time></trkpt>
<trkpt lat="46.481979" lon="6.969905"><ele></ele><time>2014-4-4T17:23:38Z</time></trkpt>
<trkpt lat="46.481899" lon="6.969873"><ele></ele><time>2014-4-4T17:23:41Z</time></trkpt>
<trkpt lat="46.481819" lon="6.969832"><ele></ele><time>2014-4-4T17:23:44Z</time></trkpt>
<trkpt lat="46.481770" lon="6.969752"><ele></ele><time>2014-4-4T17:23:47Z</time></trkpt>
<trkpt lat="46.481712" lon="6.969659"><ele></ele><time>2014-4-4T17:23:50Z</time></trkpt>
<trkpt lat="46.481678" lon="6.969566"><ele></ele><time>2014-4-4T17:23:53Z</time></trkpt>
<trkpt lat="46.481628" lon="6.969465"><ele></ele><time>2014-4-4T17:23:56Z</time></trkpt>
<trkpt lat="46.481575" lon="6.969341"><ele></ele><time>2014-4-4T17:23:59Z</time></trkpt>
<trkpt lat="46.481514" lon="6.969233"><ele></ele><time>2014-4-4T17:24:2Z</time></trkpt>
<trkpt lat="46.481449" lon="6.969171"><ele></ele><time>2014-4-4T17:24:5Z</time></trkpt>
<trkpt lat="46.481361" lon="6.969118"><ele></ele><time>2014-4-4T17:24:8Z</time></trkpt>
<trkpt lat="46.481277" lon="6.969083"><ele></ele><time>2014-4-4T17:24:11Z</time></trkpt>
<trkpt lat="46.481201" lon="6.969045"><ele></ele><time>2014-4-4T17:24:14Z</time></trkpt>
<trkpt lat="46.481121" lon="6.968989"><ele></ele><time>2014-4-4T17:24:17Z</time></trkpt>
<trkpt lat="46.481052" lon="6.968947"><ele></ele><time>2014-4-4T17:24:20Z</time></trkpt>
<trkpt lat="46.480972" lon="6.968926"><ele></ele><time>2014-4-4T17:24:23Z</time></trkpt>
<trkpt lat="46.480885" lon="6.968910"><ele></ele><time>2014-4-4T17:24:26Z</time></trkpt>
<trkpt lat="46.480793" lon="6.968884"><ele></ele><time>2014-4-4T17:24:29Z</time></trkpt>
<trkpt lat="46.480728" lon="6.968856"><ele></ele><time>2014-4-4T17:24:32Z</time></trkpt>
<trkpt lat="46.480659" lon="6.968825"><ele></ele><time>2014-4-4T17:24:35Z</time></trkpt>
<trkpt lat="46.480583" lon="6.968802"><ele></ele><time>2014-4-4T17:24:38Z</time></trkpt>
<trkpt lat="46.480480" lon="6.968807"><ele></ele><time>2014-4-4T17:24:41Z</time></trkpt>
<trkpt lat="46.480408" lon="6.968973"><ele></ele><time>2014-4-4T17:24:44Z</time></trkpt>
<trkpt lat="46.480492" lon="6.969145"><ele></ele><time>2014-4-4T17:24:47Z</time></trkpt>
<trkpt lat="46.480534" lon="6.969267"><ele></ele><time>2014-4-4T17:24:50Z</time></trkpt>
<trkpt lat="46.480553" lon="6.969392"><ele></ele><time>2014-4-4T17:24:53Z</time></trkpt>
<trkpt lat="46.480587" lon="6.969510"><ele></ele><time>2014-4-4T17:24:56Z</time></trkpt>
<trkpt lat="46.480610" lon="6.969636"><ele></ele><time>2014-4-4T17:24:59Z</time></trkpt>
<trkpt lat="46.480591" lon="6.969775"><ele></ele><time>2014-4-4T17:25:2Z</time></trkpt>
<trkpt lat="46.480545" lon="6.969997"><ele></ele><time>2014-4-4T17:25:5Z</time></trkpt>
<trkpt lat="46.480499" lon="6.970231"><ele></ele><time>2014-4-4T17:25:8Z</time></trkpt>
<trkpt lat="46.480515" lon="6.970471"><ele></ele><time>2014-4-4T17:25:11Z</time></trkpt>
<trkpt lat="46.480537" lon="6.970627"><ele></ele><time>2014-4-4T17:25:14Z</time></trkpt>
<trkpt lat="46.480511" lon="6.970760"><ele></ele><time>2014-4-4T17:25:17Z</time></trkpt>
<trkpt lat="46.480442" lon="6.970803"><ele></ele><time>2014-4-4T17:25:20Z</time></trkpt>
<trkpt lat="46.480350" lon="6.970770"><ele></ele><time>2014-4-4T17:25:23Z</time></trkpt>
<trkpt lat="46.480263" lon="6.970730"><ele></ele><time>2014-4-4T17:25:26Z</time></trkpt>
<trkpt lat="46.480179" lon="6.970699"><ele></ele><time>2014-4-4T17:25:29Z</time></trkpt>
<trkpt lat="46.480118" lon="6.970624"><ele></ele><time>2014-4-4T17:25:32Z</time></trkpt>
<trkpt lat="46.480049" lon="6.970536"><ele></ele><time>2014-4-4T17:25:35Z</time></trkpt>
<trkpt lat="46.479973" lon="6.970424"><ele></ele><time>2014-4-4T17:25:38Z</time></trkpt>
<trkpt lat="46.479904" lon="6.970365"><ele></ele><time>2014-4-4T17:25:41Z</time></trkpt>
<trkpt lat="46.479851" lon="6.970398"><ele></ele><time>2014-4-4T17:25:44Z</time></trkpt>
<trkpt lat="46.479843" lon="6.970430"><ele></ele><time>2014-4-4T17:25:47Z</time></trkpt>
<trkpt lat="46.479847" lon="6.970436"><ele></ele><time>2014-4-4T17:25:50Z</time></trkpt>
<trkpt lat="46.479851" lon="6.970446"><ele></ele><time>2014-4-4T17:25:53Z</time></trkpt>
<trkpt lat="46.479855" lon="6.970447"><ele></ele><time>2014-4-4T17:25:56Z</time></trkpt>
<trkpt lat="46.479855" lon="6.970448"><ele></ele><time>2014-4-4T17:25:59Z</time></trkpt>
<trkpt lat="46.479855" lon="6.970450"><ele></ele><time>2014-4-4T17:26:2Z</time></trkpt>
<trkpt lat="46.479851" lon="6.970457"><ele></ele><time>2014-4-4T17:26:5Z</time></trkpt>
<trkpt lat="46.479839" lon="6.970446"><ele></ele><time>2014-4-4T17:26:8Z</time></trkpt>
<trkpt lat="46.479832" lon="6.970446"><ele></ele><time>2014-4-4T17:26:11Z</time></trkpt>
<trkpt lat="46.479809" lon="6.970431"><ele></ele><time>2014-4-4T17:26:14Z</time></trkpt>
<trkpt lat="46.479763" lon="6.970425"><ele></ele><time>2014-4-4T17:26:17Z</time></trkpt>
<trkpt lat="46.479736" lon="6.970402"><ele></ele><time>2014-4-4T17:26:20Z</time></trkpt>
<trkpt lat="46.479710" lon="6.970393"><ele></ele><time>2014-4-4T17:26:23Z</time></trkpt>
<trkpt lat="46.479675" lon="6.970359"><ele></ele><time>2014-4-4T17:26:26Z</time></trkpt>
<trkpt lat="46.479645" lon="6.970360"><ele></ele><time>2014-4-4T17:26:29Z</time></trkpt>
<trkpt lat="46.479618" lon="6.970384"><ele></ele><time>2014-4-4T17:26:32Z</time></trkpt>
<trkpt lat="46.479568" lon="6.970392"><ele></ele><time>2014-4-4T17:26:35Z</time></trkpt>
<trkpt lat="46.479507" lon="6.970381"><ele></ele><time>2014-4-4T17:26:38Z</time></trkpt>
<trkpt lat="46.479450" lon="6.970376"><ele></ele><time>2014-4-4T17:26:41Z</time></trkpt>
<trkpt lat="46.479385" lon="6.970362"><ele></ele><time>2014-4-4T17:26:44Z</time></trkpt>
<trkpt lat="46.479336" lon="6.970349"><ele></ele><time>2014-4-4T17:26:47Z</time></trkpt>
<trkpt lat="46.479309" lon="6.970331"><ele></ele><time>2014-4-4T17:26:50Z</time></trkpt>
<trkpt lat="46.479279" lon="6.970326"><ele></ele><time>2014-4-4T17:26:53Z</time></trkpt>
<trkpt lat="46.479240" lon="6.970298"><ele></ele><time>2014-4-4T17:26:56Z</time></trkpt>
<trkpt lat="46.479202" lon="6.970259"><ele></ele><time>2014-4-4T17:26:59Z</time></trkpt>
<trkpt lat="46.479176" lon="6.970220"><ele></ele><time>2014-4-4T17:27:2Z</time></trkpt>
<trkpt lat="46.479153" lon="6.970186"><ele></ele><time>2014-4-4T17:27:5Z</time></trkpt>
<trkpt lat="46.479111" lon="6.970169"><ele></ele><time>2014-4-4T17:27:8Z</time></trkpt>
<trkpt lat="46.479057" lon="6.970191"><ele></ele><time>2014-4-4T17:27:11Z</time></trkpt>
<trkpt lat="46.479004" lon="6.970197"><ele></ele><time>2014-4-4T17:27:14Z</time></trkpt>
<trkpt lat="46.478954" lon="6.970212"><ele></ele><time>2014-4-4T17:27:17Z</time></trkpt>
<trkpt lat="46.478909" lon="6.970218"><ele></ele><time>2014-4-4T17:27:20Z</time></trkpt>
<trkpt lat="46.478863" lon="6.970223"><ele></ele><time>2014-4-4T17:27:23Z</time></trkpt>
<trkpt lat="46.478848" lon="6.970247"><ele></ele><time>2014-4-4T17:27:26Z</time></trkpt>
<trkpt lat="46.478802" lon="6.970250"><ele></ele><time>2014-4-4T17:27:29Z</time></trkpt>
<trkpt lat="46.478767" lon="6.970259"><ele></ele><time>2014-4-4T17:27:32Z</time></trkpt>
<trkpt lat="46.478745" lon="6.970268"><ele></ele><time>2014-4-4T17:27:35Z</time></trkpt>
<trkpt lat="46.478687" lon="6.970252"><ele></ele><time>2014-4-4T17:27:38Z</time></trkpt>
<trkpt lat="46.478649" lon="6.970273"><ele></ele><time>2014-4-4T17:27:41Z</time></trkpt>
<trkpt lat="46.478611" lon="6.970278"><ele></ele><time>2014-4-4T17:27:44Z</time></trkpt>
<trkpt lat="46.478603" lon="6.970250"><ele></ele><time>2014-4-4T17:27:47Z</time></trkpt>
<trkpt lat="46.478611" lon="6.970248"><ele></ele><time>2014-4-4T17:27:50Z</time></trkpt>
<trkpt lat="46.478600" lon="6.970249"><ele></ele><time>2014-4-4T17:27:53Z</time></trkpt>
<trkpt lat="46.478558" lon="6.970266"><ele></ele><time>2014-4-4T17:27:56Z</time></trkpt>
<trkpt lat="46.478527" lon="6.970227"><ele></ele><time>2014-4-4T17:27:59Z</time></trkpt>
<trkpt lat="46.478474" lon="6.970218"><ele></ele><time>2014-4-4T17:28:2Z</time></trkpt>
<trkpt lat="46.478439" lon="6.970204"><ele></ele><time>2014-4-4T17:28:5Z</time></trkpt>
<trkpt lat="46.478432" lon="6.970195"><ele></ele><time>2014-4-4T17:28:8Z</time></trkpt>
<trkpt lat="46.478420" lon="6.970165"><ele></ele><time>2014-4-4T17:28:11Z</time></trkpt>
<trkpt lat="46.478382" lon="6.970151"><ele></ele><time>2014-4-4T17:28:14Z</time></trkpt>
<trkpt lat="46.478367" lon="6.970140"><ele></ele><time>2014-4-4T17:28:17Z</time></trkpt>
<trkpt lat="46.478363" lon="6.970139"><ele></ele><time>2014-4-4T17:28:20Z</time></trkpt>
<trkpt lat="46.478363" lon="6.970135"><ele></ele><time>2014-4-4T17:28:23Z</time></trkpt>
<trkpt lat="46.478355" lon="6.970139"><ele></ele><time>2014-4-4T17:28:26Z</time></trkpt>
<trkpt lat="46.478310" lon="6.970133"><ele></ele><time>2014-4-4T17:28:29Z</time></trkpt>
<trkpt lat="46.478260" lon="6.970102"><ele></ele><time>2014-4-4T17:28:32Z</time></trkpt>
<trkpt lat="46.478222" lon="6.970077"><ele></ele><time>2014-4-4T17:28:35Z</time></trkpt>
<trkpt lat="46.478180" lon="6.970062"><ele></ele><time>2014-4-4T17:28:38Z</time></trkpt>
<trkpt lat="46.478153" lon="6.970036"><ele></ele><time>2014-4-4T17:28:41Z</time></trkpt>
<trkpt lat="46.478130" lon="6.970020"><ele></ele><time>2014-4-4T17:28:44Z</time></trkpt>
<trkpt lat="46.478092" lon="6.970001"><ele></ele><time>2014-4-4T17:28:47Z</time></trkpt>
<trkpt lat="46.478058" lon="6.969982"><ele></ele><time>2014-4-4T17:28:50Z</time></trkpt>
<trkpt lat="46.478024" lon="6.969985"><ele></ele><time>2014-4-4T17:28:53Z</time></trkpt>
<trkpt lat="46.478004" lon="6.969970"><ele></ele><time>2014-4-4T17:28:56Z</time></trkpt>
<trkpt lat="46.478001" lon="6.969967"><ele></ele><time>2014-4-4T17:28:59Z</time></trkpt>
<trkpt lat="46.478001" lon="6.969967"><ele></ele><time>2014-4-4T17:29:2Z</time></trkpt>
<trkpt lat="46.478001" lon="6.969969"><ele></ele><time>2014-4-4T17:29:5Z</time></trkpt>
<trkpt lat="46.478001" lon="6.969968"><ele></ele><time>2014-4-4T17:29:8Z</time></trkpt>
<trkpt lat="46.478001" lon="6.969968"><ele></ele><time>2014-4-4T17:29:11Z</time></trkpt>
<trkpt lat="46.478001" lon="6.969950"><ele></ele><time>2014-4-4T17:29:14Z</time></trkpt>
<trkpt lat="46.478008" lon="6.969917"><ele></ele><time>2014-4-4T17:29:17Z</time></trkpt>
<trkpt lat="46.478016" lon="6.969889"><ele></ele><time>2014-4-4T17:29:20Z</time></trkpt>
<trkpt lat="46.478016" lon="6.969843"><ele></ele><time>2014-4-4T17:29:23Z</time></trkpt>
<trkpt lat="46.478020" lon="6.969788"><ele></ele><time>2014-4-4T17:29:26Z</time></trkpt>
<trkpt lat="46.478016" lon="6.969739"><ele></ele><time>2014-4-4T17:29:29Z</time></trkpt>
<trkpt lat="46.478020" lon="6.969714"><ele></ele><time>2014-4-4T17:29:32Z</time></trkpt>
<trkpt lat="46.478016" lon="6.969695"><ele></ele><time>2014-4-4T17:29:35Z</time></trkpt>
<trkpt lat="46.478016" lon="6.969692"><ele></ele><time>2014-4-4T17:29:38Z</time></trkpt>
<trkpt lat="46.478012" lon="6.969690"><ele></ele><time>2014-4-4T17:29:41Z</time></trkpt>
<trkpt lat="46.478012" lon="6.969696"><ele></ele><time>2014-4-4T17:29:44Z</time></trkpt>
<trkpt lat="46.478012" lon="6.969695"><ele></ele><time>2014-4-4T17:29:47Z</time></trkpt>
<trkpt lat="46.478012" lon="6.969674"><ele></ele><time>2014-4-4T17:29:50Z</time></trkpt>
<trkpt lat="46.478008" lon="6.969639"><ele></ele><time>2014-4-4T17:29:53Z</time></trkpt>
<trkpt lat="46.477993" lon="6.969623"><ele></ele><time>2014-4-4T17:29:56Z</time></trkpt>
<trkpt lat="46.477989" lon="6.969607"><ele></ele><time>2014-4-4T17:29:59Z</time></trkpt>
<trkpt lat="46.477985" lon="6.969597"><ele></ele><time>2014-4-4T17:30:2Z</time></trkpt>
<trkpt lat="46.477959" lon="6.969557"><ele></ele><time>2014-4-4T17:30:5Z</time></trkpt>
<trkpt lat="46.477940" lon="6.969533"><ele></ele><time>2014-4-4T17:30:8Z</time></trkpt>
<trkpt lat="46.477905" lon="6.969536"><ele></ele><time>2014-4-4T17:30:11Z</time></trkpt>
<trkpt lat="46.477886" lon="6.969520"><ele></ele><time>2014-4-4T17:30:14Z</time></trkpt>
<trkpt lat="46.477867" lon="6.969475"><ele></ele><time>2014-4-4T17:30:17Z</time></trkpt>
<trkpt lat="46.477852" lon="6.969452"><ele></ele><time>2014-4-4T17:30:20Z</time></trkpt>
<trkpt lat="46.477844" lon="6.969432"><ele></ele><time>2014-4-4T17:30:23Z</time></trkpt>
<trkpt lat="46.477837" lon="6.969459"><ele></ele><time>2014-4-4T17:30:26Z</time></trkpt>
<trkpt lat="46.477818" lon="6.969481"><ele></ele><time>2014-4-4T17:30:29Z</time></trkpt>
<trkpt lat="46.477810" lon="6.969433"><ele></ele><time>2014-4-4T17:30:32Z</time></trkpt>
<trkpt lat="46.477779" lon="6.969410"><ele></ele><time>2014-4-4T17:30:35Z</time></trkpt>
<trkpt lat="46.477764" lon="6.969402"><ele></ele><time>2014-4-4T17:30:38Z</time></trkpt>
<trkpt lat="46.477737" lon="6.969386"><ele></ele><time>2014-4-4T17:30:41Z</time></trkpt>
<trkpt lat="46.477715" lon="6.969392"><ele></ele><time>2014-4-4T17:30:44Z</time></trkpt>
<trkpt lat="46.477711" lon="6.969391"><ele></ele><time>2014-4-4T17:30:47Z</time></trkpt>
<trkpt lat="46.477688" lon="6.969362"><ele></ele><time>2014-4-4T17:30:50Z</time></trkpt>
<trkpt lat="46.477650" lon="6.969352"><ele></ele><time>2014-4-4T17:30:53Z</time></trkpt>
<trkpt lat="46.477623" lon="6.969332"><ele></ele><time>2014-4-4T17:30:56Z</time></trkpt>
<trkpt lat="46.477592" lon="6.969280"><ele></ele><time>2014-4-4T17:30:59Z</time></trkpt>
<trkpt lat="46.477562" lon="6.969238"><ele></ele><time>2014-4-4T17:31:2Z</time></trkpt>
<trkpt lat="46.477570" lon="6.969242"><ele></ele><time>2014-4-4T17:31:5Z</time></trkpt>
<trkpt lat="46.477573" lon="6.969242"><ele></ele><time>2014-4-4T17:31:8Z</time></trkpt>
<trkpt lat="46.477573" lon="6.969243"><ele></ele><time>2014-4-4T17:31:11Z</time></trkpt>
<trkpt lat="46.477573" lon="6.969243"><ele></ele><time>2014-4-4T17:31:14Z</time></trkpt>
<trkpt lat="46.477573" lon="6.969243"><ele></ele><time>2014-4-4T17:31:17Z</time></trkpt>
<trkpt lat="46.477573" lon="6.969243"><ele></ele><time>2014-4-4T17:31:20Z</time></trkpt>
<trkpt lat="46.477573" lon="6.969243"><ele></ele><time>2014-4-4T17:31:23Z</time></trkpt>
<trkpt lat="46.477573" lon="6.969243"><ele></ele><time>2014-4-4T17:31:26Z</time></trkpt>
<trkpt lat="46.477570" lon="6.969229"><ele></ele><time>2014-4-4T17:31:29Z</time></trkpt>
<trkpt lat="46.477539" lon="6.969209"><ele></ele><time>2014-4-4T17:31:32Z</time></trkpt>
<trkpt lat="46.477516" lon="6.969189"><ele></ele><time>2014-4-4T17:31:35Z</time></trkpt>
<trkpt lat="46.477489" lon="6.969166"><ele></ele><time>2014-4-4T17:31:38Z</time></trkpt>
<trkpt lat="46.477470" lon="6.969137"><ele></ele><time>2014-4-4T17:31:41Z</time></trkpt>
<trkpt lat="46.477436" lon="6.969114"><ele></ele><time>2014-4-4T17:31:44Z</time></trkpt>
<trkpt lat="46.477417" lon="6.969097"><ele></ele><time>2014-4-4T17:31:47Z</time></trkpt>
<trkpt lat="46.477398" lon="6.969081"><ele></ele><time>2014-4-4T17:31:50Z</time></trkpt>
<trkpt lat="46.477386" lon="6.969070"><ele></ele><time>2014-4-4T17:31:53Z</time></trkpt>
<trkpt lat="46.477367" lon="6.969056"><ele></ele><time>2014-4-4T17:31:56Z</time></trkpt>
<trkpt lat="46.477333" lon="6.969021"><ele></ele><time>2014-4-4T17:31:59Z</time></trkpt>
<trkpt lat="46.477303" lon="6.968983"><ele></ele><time>2014-4-4T17:32:2Z</time></trkpt>
<trkpt lat="46.477257" lon="6.968945"><ele></ele><time>2014-4-4T17:32:5Z</time></trkpt>
<trkpt lat="46.477249" lon="6.968924"><ele></ele><time>2014-4-4T17:32:8Z</time></trkpt>
<trkpt lat="46.477226" lon="6.968899"><ele></ele><time>2014-4-4T17:32:11Z</time></trkpt>
<trkpt lat="46.477203" lon="6.968868"><ele></ele><time>2014-4-4T17:32:14Z</time></trkpt>
<trkpt lat="46.477177" lon="6.968831"><ele></ele><time>2014-4-4T17:32:17Z</time></trkpt>
<trkpt lat="46.477165" lon="6.968785"><ele></ele><time>2014-4-4T17:32:20Z</time></trkpt>
<trkpt lat="46.477161" lon="6.968789"><ele></ele><time>2014-4-4T17:32:23Z</time></trkpt>
<trkpt lat="46.477165" lon="6.968790"><ele></ele><time>2014-4-4T17:32:26Z</time></trkpt>
<trkpt lat="46.477165" lon="6.968790"><ele></ele><time>2014-4-4T17:32:29Z</time></trkpt>
<trkpt lat="46.477154" lon="6.968757"><ele></ele><time>2014-4-4T17:32:32Z</time></trkpt>
<trkpt lat="46.477131" lon="6.968724"><ele></ele><time>2014-4-4T17:32:35Z</time></trkpt>
<trkpt lat="46.477089" lon="6.968698"><ele></ele><time>2014-4-4T17:32:38Z</time></trkpt>
<trkpt lat="46.477066" lon="6.968664"><ele></ele><time>2014-4-4T17:32:41Z</time></trkpt>
<trkpt lat="46.477051" lon="6.968653"><ele></ele><time>2014-4-4T17:32:44Z</time></trkpt>
<trkpt lat="46.477055" lon="6.968650"><ele></ele><time>2014-4-4T17:32:47Z</time></trkpt>
<trkpt lat="46.477051" lon="6.968647"><ele></ele><time>2014-4-4T17:32:50Z</time></trkpt>
<trkpt lat="46.477047" lon="6.968645"><ele></ele><time>2014-4-4T17:32:53Z</time></trkpt>
<trkpt lat="46.477016" lon="6.968626"><ele></ele><time>2014-4-4T17:32:56Z</time></trkpt>
<trkpt lat="46.476967" lon="6.968619"><ele></ele><time>2014-4-4T17:32:59Z</time></trkpt>
<trkpt lat="46.476929" lon="6.968603"><ele></ele><time>2014-4-4T17:33:2Z</time></trkpt>
<trkpt lat="46.476894" lon="6.968584"><ele></ele><time>2014-4-4T17:33:5Z</time></trkpt>
<trkpt lat="46.476852" lon="6.968563"><ele></ele><time>2014-4-4T17:33:8Z</time></trkpt>
<trkpt lat="46.476803" lon="6.968539"><ele></ele><time>2014-4-4T17:33:11Z</time></trkpt>
<trkpt lat="46.476772" lon="6.968499"><ele></ele><time>2014-4-4T17:33:14Z</time></trkpt>
<trkpt lat="46.476719" lon="6.968472"><ele></ele><time>2014-4-4T17:33:17Z</time></trkpt>
<trkpt lat="46.476681" lon="6.968433"><ele></ele><time>2014-4-4T17:33:20Z</time></trkpt>
<trkpt lat="46.476650" lon="6.968395"><ele></ele><time>2014-4-4T17:33:23Z</time></trkpt>
<trkpt lat="46.476604" lon="6.968349"><ele></ele><time>2014-4-4T17:33:26Z</time></trkpt>
<trkpt lat="46.476566" lon="6.968303"><ele></ele><time>2014-4-4T17:33:29Z</time></trkpt>
<trkpt lat="46.476521" lon="6.968249"><ele></ele><time>2014-4-4T17:33:32Z</time></trkpt>
<trkpt lat="46.476475" lon="6.968184"><ele></ele><time>2014-4-4T17:33:35Z</time></trkpt>
<trkpt lat="46.476433" lon="6.968123"><ele></ele><time>2014-4-4T17:33:38Z</time></trkpt>
<trkpt lat="46.476414" lon="6.968025"><ele></ele><time>2014-4-4T17:33:41Z</time></trkpt>
<trkpt lat="46.476425" lon="6.967971"><ele></ele><time>2014-4-4T17:33:44Z</time></trkpt>
<trkpt lat="46.476440" lon="6.967913"><ele></ele><time>2014-4-4T17:33:47Z</time></trkpt>
<trkpt lat="46.476463" lon="6.967884"><ele></ele><time>2014-4-4T17:33:50Z</time></trkpt>
<trkpt lat="46.476513" lon="6.967864"><ele></ele><time>2014-4-4T17:33:53Z</time></trkpt>
<trkpt lat="46.476536" lon="6.967837"><ele></ele><time>2014-4-4T17:33:56Z</time></trkpt>
<trkpt lat="46.476521" lon="6.967797"><ele></ele><time>2014-4-4T17:33:59Z</time></trkpt>
<trkpt lat="46.476521" lon="6.967789"><ele></ele><time>2014-4-4T17:34:2Z</time></trkpt>
<trkpt lat="46.476517" lon="6.967785"><ele></ele><time>2014-4-4T17:34:5Z</time></trkpt>
<trkpt lat="46.476501" lon="6.967733"><ele></ele><time>2014-4-4T17:34:8Z</time></trkpt>
<trkpt lat="46.476490" lon="6.967701"><ele></ele><time>2014-4-4T17:34:11Z</time></trkpt>
<trkpt lat="46.476501" lon="6.967656"><ele></ele><time>2014-4-4T17:34:14Z</time></trkpt>
<trkpt lat="46.476475" lon="6.967629"><ele></ele><time>2014-4-4T17:34:17Z</time></trkpt>
<trkpt lat="46.476444" lon="6.967634"><ele></ele><time>2014-4-4T17:34:20Z</time></trkpt>
<trkpt lat="46.476410" lon="6.967643"><ele></ele><time>2014-4-4T17:34:23Z</time></trkpt>
<trkpt lat="46.476383" lon="6.967622"><ele></ele><time>2014-4-4T17:34:26Z</time></trkpt>
<trkpt lat="46.476379" lon="6.967616"><ele></ele><time>2014-4-4T17:34:29Z</time></trkpt>
<trkpt lat="46.476379" lon="6.967616"><ele></ele><time>2014-4-4T17:34:32Z</time></trkpt>
<trkpt lat="46.476379" lon="6.967614"><ele></ele><time>2014-4-4T17:34:35Z</time></trkpt>
<trkpt lat="46.476360" lon="6.967614"><ele></ele><time>2014-4-4T17:34:38Z</time></trkpt>
<trkpt lat="46.476353" lon="6.967621"><ele></ele><time>2014-4-4T17:34:41Z</time></trkpt>
<trkpt lat="46.476353" lon="6.967624"><ele></ele><time>2014-4-4T17:34:44Z</time></trkpt>
<trkpt lat="46.476372" lon="6.967609"><ele></ele><time>2014-4-4T17:34:47Z</time></trkpt>
<trkpt lat="46.476368" lon="6.967607"><ele></ele><time>2014-4-4T17:34:50Z</time></trkpt>
<trkpt lat="46.476368" lon="6.967607"><ele></ele><time>2014-4-4T17:34:53Z</time></trkpt>
<trkpt lat="46.476368" lon="6.967607"><ele></ele><time>2014-4-4T17:34:56Z</time></trkpt>
<trkpt lat="46.476368" lon="6.967602"><ele></ele><time>2014-4-4T17:34:59Z</time></trkpt>
<trkpt lat="46.476391" lon="6.967603"><ele></ele><time>2014-4-4T17:35:2Z</time></trkpt>
<trkpt lat="46.476379" lon="6.967644"><ele></ele><time>2014-4-4T17:35:5Z</time></trkpt>
<trkpt lat="46.476379" lon="6.967639"><ele></ele><time>2014-4-4T17:35:8Z</time></trkpt>
<trkpt lat="46.476379" lon="6.967638"><ele></ele><time>2014-4-4T17:35:11Z</time></trkpt>
<trkpt lat="46.476376" lon="6.967639"><ele></ele><time>2014-4-4T17:35:14Z</time></trkpt>
<trkpt lat="46.476383" lon="6.967614"><ele></ele><time>2014-4-4T17:35:17Z</time></trkpt>
<trkpt lat="46.476395" lon="6.967539"><ele></ele><time>2014-4-4T17:35:20Z</time></trkpt>
<trkpt lat="46.476391" lon="6.967528"><ele></ele><time>2014-4-4T17:35:23Z</time></trkpt>
<trkpt lat="46.476395" lon="6.967530"><ele></ele><time>2014-4-4T17:35:26Z</time></trkpt>
<trkpt lat="46.476398" lon="6.967531"><ele></ele><time>2014-4-4T17:35:29Z</time></trkpt>
<trkpt lat="46.476398" lon="6.967532"><ele></ele><time>2014-4-4T17:35:32Z</time></trkpt>
<trkpt lat="46.476391" lon="6.967527"><ele></ele><time>2014-4-4T17:35:35Z</time></trkpt>
<trkpt lat="46.476387" lon="6.967507"><ele></ele><time>2014-4-4T17:35:38Z</time></trkpt>
<trkpt lat="46.476448" lon="6.967361"><ele></ele><time>2014-4-4T17:35:41Z</time></trkpt>
<trkpt lat="46.476456" lon="6.967253"><ele></ele><time>2014-4-4T17:35:44Z</time></trkpt>
<trkpt lat="46.476368" lon="6.967268"><ele></ele><time>2014-4-4T17:35:47Z</time></trkpt>
<trkpt lat="46.476254" lon="6.967284"><ele></ele><time>2014-4-4T17:35:50Z</time></trkpt>
<trkpt lat="46.476070" lon="6.967298"><ele></ele><time>2014-4-4T17:35:53Z</time></trkpt>
<trkpt lat="46.475872" lon="6.967323"><ele></ele><time>2014-4-4T17:35:56Z</time></trkpt>
<trkpt lat="46.475616" lon="6.967384"><ele></ele><time>2014-4-4T17:35:59Z</time></trkpt>
<trkpt lat="46.475357" lon="6.967438"><ele></ele><time>2014-4-4T17:36:2Z</time></trkpt>
<trkpt lat="46.475082" lon="6.967549"><ele></ele><time>2014-4-4T17:36:5Z</time></trkpt>
<trkpt lat="46.474800" lon="6.967656"><ele></ele><time>2014-4-4T17:36:8Z</time></trkpt>
<trkpt lat="46.474468" lon="6.967815"><ele></ele><time>2014-4-4T17:36:11Z</time></trkpt>
<trkpt lat="46.474106" lon="6.967959"><ele></ele><time>2014-4-4T17:36:14Z</time></trkpt>
<trkpt lat="46.473759" lon="6.968132"><ele></ele><time>2014-4-4T17:36:17Z</time></trkpt>
<trkpt lat="46.473434" lon="6.968218"><ele></ele><time>2014-4-4T17:36:20Z</time></trkpt>
<trkpt lat="46.473106" lon="6.968155"><ele></ele><time>2014-4-4T17:36:23Z</time></trkpt>
<trkpt lat="46.472855" lon="6.967798"><ele></ele><time>2014-4-4T17:36:26Z</time></trkpt>
<trkpt lat="46.472630" lon="6.967440"><ele></ele><time>2014-4-4T17:36:29Z</time></trkpt>
<trkpt lat="46.472359" lon="6.967320"><ele></ele><time>2014-4-4T17:36:32Z</time></trkpt>
<trkpt lat="46.472172" lon="6.967444"><ele></ele><time>2014-4-4T17:36:35Z</time></trkpt>
<trkpt lat="46.472027" lon="6.967721"><ele></ele><time>2014-4-4T17:36:38Z</time></trkpt>
<trkpt lat="46.471935" lon="6.968040"><ele></ele><time>2014-4-4T17:36:41Z</time></trkpt>
<trkpt lat="46.472057" lon="6.968197"><ele></ele><time>2014-4-4T17:36:44Z</time></trkpt>
<trkpt lat="46.472275" lon="6.968318"><ele></ele><time>2014-4-4T17:36:47Z</time></trkpt>
<trkpt lat="46.472500" lon="6.968446"><ele></ele><time>2014-4-4T17:36:50Z</time></trkpt>
<trkpt lat="46.472713" lon="6.968637"><ele></ele><time>2014-4-4T17:36:53Z</time></trkpt>
<trkpt lat="46.472843" lon="6.968910"><ele></ele><time>2014-4-4T17:36:56Z</time></trkpt>
<trkpt lat="46.472862" lon="6.969130"><ele></ele><time>2014-4-4T17:36:59Z</time></trkpt>
<trkpt lat="46.472858" lon="6.969173"><ele></ele><time>2014-4-4T17:37:2Z</time></trkpt>
<trkpt lat="46.472855" lon="6.969175"><ele></ele><time>2014-4-4T17:37:5Z</time></trkpt>
<trkpt lat="46.472851" lon="6.969176"><ele></ele><time>2014-4-4T17:37:8Z</time></trkpt>
<trkpt lat="46.472851" lon="6.969178"><ele></ele><time>2014-4-4T17:37:11Z</time></trkpt>
<trkpt lat="46.472855" lon="6.969201"><ele></ele><time>2014-4-4T17:37:14Z</time></trkpt>
<trkpt lat="46.472855" lon="6.969200"><ele></ele><time>2014-4-4T17:37:17Z</time></trkpt>
<trkpt lat="46.472855" lon="6.969227"><ele></ele><time>2014-4-4T17:37:20Z</time></trkpt>
<trkpt lat="46.472843" lon="6.969359"><ele></ele><time>2014-4-4T17:37:23Z</time></trkpt>
<trkpt lat="46.472775" lon="6.969541"><ele></ele><time>2014-4-4T17:37:26Z</time></trkpt>
<trkpt lat="46.472679" lon="6.969729"><ele></ele><time>2014-4-4T17:37:29Z</time></trkpt>
<trkpt lat="46.472618" lon="6.969907"><ele></ele><time>2014-4-4T17:37:32Z</time></trkpt>
<trkpt lat="46.472553" lon="6.970079"><ele></ele><time>2014-4-4T17:37:35Z</time></trkpt>
<trkpt lat="46.472485" lon="6.970217"><ele></ele><time>2014-4-4T17:37:38Z</time></trkpt>
<trkpt lat="46.472416" lon="6.970303"><ele></ele><time>2014-4-4T17:37:41Z</time></trkpt>
<trkpt lat="46.472397" lon="6.970293"><ele></ele><time>2014-4-4T17:37:44Z</time></trkpt>
<trkpt lat="46.472385" lon="6.970311"><ele></ele><time>2014-4-4T17:37:47Z</time></trkpt>
<trkpt lat="46.472382" lon="6.970309"><ele></ele><time>2014-4-4T17:37:50Z</time></trkpt>
<trkpt lat="46.472389" lon="6.970341"><ele></ele><time>2014-4-4T17:37:53Z</time></trkpt>
<trkpt lat="46.472397" lon="6.970403"><ele></ele><time>2014-4-4T17:37:56Z</time></trkpt>
<trkpt lat="46.472420" lon="6.970582"><ele></ele><time>2014-4-4T17:37:59Z</time></trkpt>
<trkpt lat="46.472507" lon="6.970747"><ele></ele><time>2014-4-4T17:38:2Z</time></trkpt>
<trkpt lat="46.472534" lon="6.970994"><ele></ele><time>2014-4-4T17:38:5Z</time></trkpt>
<trkpt lat="46.472473" lon="6.971200"><ele></ele><time>2014-4-4T17:38:8Z</time></trkpt>
<trkpt lat="46.472370" lon="6.971313"><ele></ele><time>2014-4-4T17:38:11Z</time></trkpt>
<trkpt lat="46.472286" lon="6.971385"><ele></ele><time>2014-4-4T17:38:14Z</time></trkpt>
<trkpt lat="46.472218" lon="6.971578"><ele></ele><time>2014-4-4T17:38:17Z</time></trkpt>
<trkpt lat="46.472076" lon="6.971701"><ele></ele><time>2014-4-4T17:38:20Z</time></trkpt>
<trkpt lat="46.471924" lon="6.971826"><ele></ele><time>2014-4-4T17:38:23Z</time></trkpt>
<trkpt lat="46.471775" lon="6.971928"><ele></ele><time>2014-4-4T17:38:26Z</time></trkpt>
<trkpt lat="46.471622" lon="6.972025"><ele></ele><time>2014-4-4T17:38:29Z</time></trkpt>
<trkpt lat="46.471470" lon="6.972013"><ele></ele><time>2014-4-4T17:38:32Z</time></trkpt>
<trkpt lat="46.471310" lon="6.971928"><ele></ele><time>2014-4-4T17:38:35Z</time></trkpt>
<trkpt lat="46.471207" lon="6.971869"><ele></ele><time>2014-4-4T17:38:38Z</time></trkpt>
<trkpt lat="46.471115" lon="6.971921"><ele></ele><time>2014-4-4T17:38:41Z</time></trkpt>
<trkpt lat="46.471043" lon="6.972012"><ele></ele><time>2014-4-4T17:38:44Z</time></trkpt>
<trkpt lat="46.470966" lon="6.972116"><ele></ele><time>2014-4-4T17:38:47Z</time></trkpt>
<trkpt lat="46.470886" lon="6.972212"><ele></ele><time>2014-4-4T17:38:50Z</time></trkpt>
<trkpt lat="46.470802" lon="6.972317"><ele></ele><time>2014-4-4T17:38:53Z</time></trkpt>
<trkpt lat="46.470730" lon="6.972475"><ele></ele><time>2014-4-4T17:38:56Z</time></trkpt>
<trkpt lat="46.470665" lon="6.972660"><ele></ele><time>2014-4-4T17:38:59Z</time></trkpt>
<trkpt lat="46.470558" lon="6.972790"><ele></ele><time>2014-4-4T17:39:2Z</time></trkpt>
<trkpt lat="46.470421" lon="6.972836"><ele></ele><time>2014-4-4T17:39:5Z</time></trkpt>
<trkpt lat="46.470291" lon="6.972832"><ele></ele><time>2014-4-4T17:39:8Z</time></trkpt>
<trkpt lat="46.470165" lon="6.972818"><ele></ele><time>2014-4-4T17:39:11Z</time></trkpt>
<trkpt lat="46.470039" lon="6.972795"><ele></ele><time>2014-4-4T17:39:14Z</time></trkpt>
<trkpt lat="46.469910" lon="6.972773"><ele></ele><time>2014-4-4T17:39:17Z</time></trkpt>
<trkpt lat="46.469803" lon="6.972754"><ele></ele><time>2014-4-4T17:39:20Z</time></trkpt>
<trkpt lat="46.469677" lon="6.972723"><ele></ele><time>2014-4-4T17:39:23Z</time></trkpt>
<trkpt lat="46.469543" lon="6.972666"><ele></ele><time>2014-4-4T17:39:26Z</time></trkpt>
<trkpt lat="46.469398" lon="6.972567"><ele></ele><time>2014-4-4T17:39:29Z</time></trkpt>
<trkpt lat="46.469227" lon="6.972523"><ele></ele><time>2014-4-4T17:39:32Z</time></trkpt>
<trkpt lat="46.469021" lon="6.972516"><ele></ele><time>2014-4-4T17:39:35Z</time></trkpt>
<trkpt lat="46.468784" lon="6.972510"><ele></ele><time>2014-4-4T17:39:38Z</time></trkpt>
<trkpt lat="46.468624" lon="6.972537"><ele></ele><time>2014-4-4T17:39:41Z</time></trkpt>
<trkpt lat="46.468498" lon="6.972589"><ele></ele><time>2014-4-4T17:39:44Z</time></trkpt>
<trkpt lat="46.468346" lon="6.972767"><ele></ele><time>2014-4-4T17:39:47Z</time></trkpt>
<trkpt lat="46.468121" lon="6.972847"><ele></ele><time>2014-4-4T17:39:50Z</time></trkpt>
<trkpt lat="46.467896" lon="6.972910"><ele></ele><time>2014-4-4T17:39:53Z</time></trkpt>
<trkpt lat="46.467819" lon="6.973181"><ele></ele><time>2014-4-4T17:39:56Z</time></trkpt>
<trkpt lat="46.467724" lon="6.973461"><ele></ele><time>2014-4-4T17:39:59Z</time></trkpt>
<trkpt lat="46.467461" lon="6.973411"><ele></ele><time>2014-4-4T17:40:2Z</time></trkpt>
<trkpt lat="46.467171" lon="6.973352"><ele></ele><time>2014-4-4T17:40:5Z</time></trkpt>
<trkpt lat="46.466892" lon="6.973258"><ele></ele><time>2014-4-4T17:40:8Z</time></trkpt>
<trkpt lat="46.466629" lon="6.973215"><ele></ele><time>2014-4-4T17:40:11Z</time></trkpt>
<trkpt lat="46.466450" lon="6.973442"><ele></ele><time>2014-4-4T17:40:14Z</time></trkpt>
<trkpt lat="46.466194" lon="6.973498"><ele></ele><time>2014-4-4T17:40:17Z</time></trkpt>
<trkpt lat="46.465927" lon="6.973588"><ele></ele><time>2014-4-4T17:40:20Z</time></trkpt>
<trkpt lat="46.465641" lon="6.973707"><ele></ele><time>2014-4-4T17:40:23Z</time></trkpt>
<trkpt lat="46.465351" lon="6.973798"><ele></ele><time>2014-4-4T17:40:26Z</time></trkpt>
<trkpt lat="46.465145" lon="6.973869"><ele></ele><time>2014-4-4T17:40:29Z</time></trkpt>
<trkpt lat="46.464970" lon="6.973944"><ele></ele><time>2014-4-4T17:40:32Z</time></trkpt>
<trkpt lat="46.464947" lon="6.973944"><ele></ele><time>2014-4-4T17:40:35Z</time></trkpt>
<trkpt lat="46.464943" lon="6.973941"><ele></ele><time>2014-4-4T17:40:38Z</time></trkpt>
<trkpt lat="46.464943" lon="6.973939"><ele></ele><time>2014-4-4T17:40:41Z</time></trkpt>
<trkpt lat="46.464943" lon="6.973938"><ele></ele><time>2014-4-4T17:40:44Z</time></trkpt>
<trkpt lat="46.464943" lon="6.973937"><ele></ele><time>2014-4-4T17:40:47Z</time></trkpt>
<trkpt lat="46.464909" lon="6.973967"><ele></ele><time>2014-4-4T17:40:50Z</time></trkpt>
<trkpt lat="46.464775" lon="6.974092"><ele></ele><time>2014-4-4T17:40:53Z</time></trkpt>
<trkpt lat="46.464542" lon="6.974109"><ele></ele><time>2014-4-4T17:40:56Z</time></trkpt>
<trkpt lat="46.464268" lon="6.974115"><ele></ele><time>2014-4-4T17:40:59Z</time></trkpt>
<trkpt lat="46.463947" lon="6.974174"><ele></ele><time>2014-4-4T17:41:2Z</time></trkpt>
<trkpt lat="46.463593" lon="6.974186"><ele></ele><time>2014-4-4T17:41:5Z</time></trkpt>
<trkpt lat="46.463207" lon="6.974333"><ele></ele><time>2014-4-4T17:41:8Z</time></trkpt>
<trkpt lat="46.462791" lon="6.974463"><ele></ele><time>2014-4-4T17:41:11Z</time></trkpt>
<trkpt lat="46.462399" lon="6.974560"><ele></ele><time>2014-4-4T17:41:14Z</time></trkpt>
<trkpt lat="46.462044" lon="6.974632"><ele></ele><time>2014-4-4T17:41:17Z</time></trkpt>
<trkpt lat="46.461784" lon="6.974909"><ele></ele><time>2014-4-4T17:41:20Z</time></trkpt>
<trkpt lat="46.461487" lon="6.975083"><ele></ele><time>2014-4-4T17:41:23Z</time></trkpt>
<trkpt lat="46.461327" lon="6.975231"><ele></ele><time>2014-4-4T17:41:26Z</time></trkpt>
<trkpt lat="46.461182" lon="6.975351"><ele></ele><time>2014-4-4T17:41:29Z</time></trkpt>
<trkpt lat="46.461021" lon="6.975574"><ele></ele><time>2014-4-4T17:41:32Z</time></trkpt>
<trkpt lat="46.460720" lon="6.975671"><ele></ele><time>2014-4-4T17:41:35Z</time></trkpt>
<trkpt lat="46.460518" lon="6.975589"><ele></ele><time>2014-4-4T17:41:38Z</time></trkpt>
<trkpt lat="46.460293" lon="6.975605"><ele></ele><time>2014-4-4T17:41:41Z</time></trkpt>
<trkpt lat="46.460037" lon="6.975639"><ele></ele><time>2014-4-4T17:41:44Z</time></trkpt>
<trkpt lat="46.459778" lon="6.975764"><ele></ele><time>2014-4-4T17:41:47Z</time></trkpt>
<trkpt lat="46.459614" lon="6.975576"><ele></ele><time>2014-4-4T17:41:50Z</time></trkpt>
<trkpt lat="46.459496" lon="6.975658"><ele></ele><time>2014-4-4T17:41:53Z</time></trkpt>
<trkpt lat="46.459282" lon="6.975747"><ele></ele><time>2014-4-4T17:41:56Z</time></trkpt>
<trkpt lat="46.459084" lon="6.975636"><ele></ele><time>2014-4-4T17:41:59Z</time></trkpt>
<trkpt lat="46.458855" lon="6.975682"><ele></ele><time>2014-4-4T17:42:2Z</time></trkpt>
<trkpt lat="46.458599" lon="6.975777"><ele></ele><time>2014-4-4T17:42:5Z</time></trkpt>
<trkpt lat="46.458324" lon="6.975646"><ele></ele><time>2014-4-4T17:42:8Z</time></trkpt>
<trkpt lat="46.458115" lon="6.975598"><ele></ele><time>2014-4-4T17:42:11Z</time></trkpt>
<trkpt lat="46.457874" lon="6.975677"><ele></ele><time>2014-4-4T17:42:14Z</time></trkpt>
<trkpt lat="46.457752" lon="6.975679"><ele></ele><time>2014-4-4T17:42:17Z</time></trkpt>
<trkpt lat="46.457737" lon="6.975677"><ele></ele><time>2014-4-4T17:42:20Z</time></trkpt>
<trkpt lat="46.457737" lon="6.975678"><ele></ele><time>2014-4-4T17:42:23Z</time></trkpt>
<trkpt lat="46.457737" lon="6.975679"><ele></ele><time>2014-4-4T17:42:26Z</time></trkpt>
<trkpt lat="46.457737" lon="6.975679"><ele></ele><time>2014-4-4T17:42:29Z</time></trkpt>
<trkpt lat="46.457737" lon="6.975748"><ele></ele><time>2014-4-4T17:42:32Z</time></trkpt>
<trkpt lat="46.457642" lon="6.975902"><ele></ele><time>2014-4-4T17:42:35Z</time></trkpt>
<trkpt lat="46.457443" lon="6.975879"><ele></ele><time>2014-4-4T17:42:38Z</time></trkpt>
<trkpt lat="46.457169" lon="6.975773"><ele></ele><time>2014-4-4T17:42:41Z</time></trkpt>
<trkpt lat="46.456966" lon="6.975509"><ele></ele><time>2014-4-4T17:42:44Z</time></trkpt>
<trkpt lat="46.456676" lon="6.975326"><ele></ele><time>2014-4-4T17:42:47Z</time></trkpt>
<trkpt lat="46.456379" lon="6.975225"><ele></ele><time>2014-4-4T17:42:50Z</time></trkpt>
<trkpt lat="46.456135" lon="6.975299"><ele></ele><time>2014-4-4T17:42:53Z</time></trkpt>
<trkpt lat="46.455940" lon="6.975355"><ele></ele><time>2014-4-4T17:42:56Z</time></trkpt>
<trkpt lat="46.455917" lon="6.975351"><ele></ele><time>2014-4-4T17:42:59Z</time></trkpt>
<trkpt lat="46.455917" lon="6.975356"><ele></ele><time>2014-4-4T17:43:2Z</time></trkpt>
<trkpt lat="46.455921" lon="6.975355"><ele></ele><time>2014-4-4T17:43:5Z</time></trkpt>
<trkpt lat="46.455921" lon="6.975355"><ele></ele><time>2014-4-4T17:43:8Z</time></trkpt>
<trkpt lat="46.455921" lon="6.975356"><ele></ele><time>2014-4-4T17:43:11Z</time></trkpt>
<trkpt lat="46.455921" lon="6.975357"><ele></ele><time>2014-4-4T17:43:14Z</time></trkpt>
<trkpt lat="46.455925" lon="6.975358"><ele></ele><time>2014-4-4T17:43:17Z</time></trkpt>
<trkpt lat="46.455925" lon="6.975359"><ele></ele><time>2014-4-4T17:43:20Z</time></trkpt>
<trkpt lat="46.455830" lon="6.975339"><ele></ele><time>2014-4-4T17:43:23Z</time></trkpt>
<trkpt lat="46.455631" lon="6.975280"><ele></ele><time>2014-4-4T17:43:26Z</time></trkpt>
<trkpt lat="46.455349" lon="6.975289"><ele></ele><time>2014-4-4T17:43:29Z</time></trkpt>
<trkpt lat="46.455032" lon="6.974998"><ele></ele><time>2014-4-4T17:43:32Z</time></trkpt>
<trkpt lat="46.454746" lon="6.974586"><ele></ele><time>2014-4-4T17:43:35Z</time></trkpt>
<trkpt lat="46.454567" lon="6.974233"><ele></ele><time>2014-4-4T17:43:38Z</time></trkpt>
<trkpt lat="46.454319" lon="6.973951"><ele></ele><time>2014-4-4T17:43:41Z</time></trkpt>
<trkpt lat="46.454128" lon="6.973501"><ele></ele><time>2014-4-4T17:43:44Z</time></trkpt>
<trkpt lat="46.453892" lon="6.973104"><ele></ele><time>2014-4-4T17:43:47Z</time></trkpt>
<trkpt lat="46.453758" lon="6.972862"><ele></ele><time>2014-4-4T17:43:50Z</time></trkpt>
<trkpt lat="46.453690" lon="6.972857"><ele></ele><time>2014-4-4T17:43:53Z</time></trkpt>
<trkpt lat="46.453590" lon="6.972799"><ele></ele><time>2014-4-4T17:43:56Z</time></trkpt>
<trkpt lat="46.453465" lon="6.972806"><ele></ele><time>2014-4-4T17:43:59Z</time></trkpt>
<trkpt lat="46.453365" lon="6.972866"><ele></ele><time>2014-4-4T17:44:2Z</time></trkpt>
<trkpt lat="46.453297" lon="6.972954"><ele></ele><time>2014-4-4T17:44:5Z</time></trkpt>
<trkpt lat="46.453224" lon="6.973032"><ele></ele><time>2014-4-4T17:44:8Z</time></trkpt>
<trkpt lat="46.453140" lon="6.973111"><ele></ele><time>2014-4-4T17:44:11Z</time></trkpt>
<trkpt lat="46.453049" lon="6.973166"><ele></ele><time>2014-4-4T17:44:14Z</time></trkpt>
<trkpt lat="46.452950" lon="6.973214"><ele></ele><time>2014-4-4T17:44:17Z</time></trkpt>
<trkpt lat="46.452862" lon="6.973290"><ele></ele><time>2014-4-4T17:44:20Z</time></trkpt>
<trkpt lat="46.452789" lon="6.973354"><ele></ele><time>2014-4-4T17:44:23Z</time></trkpt>
<trkpt lat="46.452717" lon="6.973441"><ele></ele><time>2014-4-4T17:44:26Z</time></trkpt>
<trkpt lat="46.452637" lon="6.973527"><ele></ele><time>2014-4-4T17:44:29Z</time></trkpt>
<trkpt lat="46.452560" lon="6.973639"><ele></ele><time>2014-4-4T17:44:32Z</time></trkpt>
<trkpt lat="46.452480" lon="6.973748"><ele></ele><time>2014-4-4T17:44:35Z</time></trkpt>
<trkpt lat="46.452435" lon="6.973856"><ele></ele><time>2014-4-4T17:44:38Z</time></trkpt>
<trkpt lat="46.452370" lon="6.973966"><ele></ele><time>2014-4-4T17:44:41Z</time></trkpt>
<trkpt lat="46.452339" lon="6.974072"><ele></ele><time>2014-4-4T17:44:44Z</time></trkpt>
<trkpt lat="46.452328" lon="6.974226"><ele></ele><time>2014-4-4T17:44:47Z</time></trkpt>
<trkpt lat="46.452301" lon="6.974377"><ele></ele><time>2014-4-4T17:44:50Z</time></trkpt>
<trkpt lat="46.452293" lon="6.974517"><ele></ele><time>2014-4-4T17:44:53Z</time></trkpt>
<trkpt lat="46.452286" lon="6.974641"><ele></ele><time>2014-4-4T17:44:56Z</time></trkpt>
<trkpt lat="46.452271" lon="6.974769"><ele></ele><time>2014-4-4T17:44:59Z</time></trkpt>
<trkpt lat="46.452232" lon="6.974885"><ele></ele><time>2014-4-4T17:45:2Z</time></trkpt>
<trkpt lat="46.452217" lon="6.975010"><ele></ele><time>2014-4-4T17:45:5Z</time></trkpt>
<trkpt lat="46.452194" lon="6.975127"><ele></ele><time>2014-4-4T17:45:8Z</time></trkpt>
<trkpt lat="46.452179" lon="6.975248"><ele></ele><time>2014-4-4T17:45:11Z</time></trkpt>
<trkpt lat="46.452152" lon="6.975374"><ele></ele><time>2014-4-4T17:45:14Z</time></trkpt>
<trkpt lat="46.452122" lon="6.975492"><ele></ele><time>2014-4-4T17:45:17Z</time></trkpt>
<trkpt lat="46.452103" lon="6.975616"><ele></ele><time>2014-4-4T17:45:20Z</time></trkpt>
<trkpt lat="46.452068" lon="6.975751"><ele></ele><time>2014-4-4T17:45:23Z</time></trkpt>
<trkpt lat="46.452026" lon="6.975888"><ele></ele><time>2014-4-4T17:45:26Z</time></trkpt>
<trkpt lat="46.451984" lon="6.976042"><ele></ele><time>2014-4-4T17:45:29Z</time></trkpt>
<trkpt lat="46.451939" lon="6.976184"><ele></ele><time>2014-4-4T17:45:32Z</time></trkpt>
<trkpt lat="46.451900" lon="6.976332"><ele></ele><time>2014-4-4T17:45:35Z</time></trkpt>
<trkpt lat="46.451859" lon="6.976470"><ele></ele><time>2014-4-4T17:45:38Z</time></trkpt>
<trkpt lat="46.451805" lon="6.976617"><ele></ele><time>2014-4-4T17:45:41Z</time></trkpt>
<trkpt lat="46.451759" lon="6.976765"><ele></ele><time>2014-4-4T17:45:44Z</time></trkpt>
<trkpt lat="46.451725" lon="6.976915"><ele></ele><time>2014-4-4T17:45:47Z</time></trkpt>
<trkpt lat="46.451710" lon="6.977047"><ele></ele><time>2014-4-4T17:45:50Z</time></trkpt>
<trkpt lat="46.451679" lon="6.977129"><ele></ele><time>2014-4-4T17:45:53Z</time></trkpt>
<trkpt lat="46.451603" lon="6.977141"><ele></ele><time>2014-4-4T17:45:56Z</time></trkpt>
<trkpt lat="46.451561" lon="6.977200"><ele></ele><time>2014-4-4T17:45:59Z</time></trkpt>
<trkpt lat="46.451561" lon="6.977215"><ele></ele><time>2014-4-4T17:46:2Z</time></trkpt>
<trkpt lat="46.451561" lon="6.977214"><ele></ele><time>2014-4-4T17:46:5Z</time></trkpt>
<trkpt lat="46.451561" lon="6.977214"><ele></ele><time>2014-4-4T17:46:8Z</time></trkpt>
<trkpt lat="46.451561" lon="6.977215"><ele></ele><time>2014-4-4T17:46:11Z</time></trkpt>
<trkpt lat="46.451561" lon="6.977216"><ele></ele><time>2014-4-4T17:46:14Z</time></trkpt>
<trkpt lat="46.451546" lon="6.977255"><ele></ele><time>2014-4-4T17:46:17Z</time></trkpt>
<trkpt lat="46.451447" lon="6.977267"><ele></ele><time>2014-4-4T17:46:20Z</time></trkpt>
<trkpt lat="46.451374" lon="6.977265"><ele></ele><time>2014-4-4T17:46:23Z</time></trkpt>
<trkpt lat="46.451374" lon="6.977264"><ele></ele><time>2014-4-4T17:46:26Z</time></trkpt>
<trkpt lat="46.451374" lon="6.977264"><ele></ele><time>2014-4-4T17:46:29Z</time></trkpt>
<trkpt lat="46.451374" lon="6.977264"><ele></ele><time>2014-4-4T17:46:32Z</time></trkpt>
<trkpt lat="46.451374" lon="6.977265"><ele></ele><time>2014-4-4T17:46:35Z</time></trkpt>
<trkpt lat="46.451374" lon="6.977265"><ele></ele><time>2014-4-4T17:46:38Z</time></trkpt>
<trkpt lat="46.451374" lon="6.977264"><ele></ele><time>2014-4-4T17:46:41Z</time></trkpt>
<trkpt lat="46.451340" lon="6.977265"><ele></ele><time>2014-4-4T17:46:44Z</time></trkpt>
<trkpt lat="46.451138" lon="6.977451"><ele></ele><time>2014-4-4T17:46:47Z</time></trkpt>
<trkpt lat="46.451122" lon="6.977844"><ele></ele><time>2014-4-4T17:46:50Z</time></trkpt>
<trkpt lat="46.450974" lon="6.978044"><ele></ele><time>2014-4-4T17:46:53Z</time></trkpt>
<trkpt lat="46.450676" lon="6.978018"><ele></ele><time>2014-4-4T17:46:56Z</time></trkpt>
<trkpt lat="46.450356" lon="6.977948"><ele></ele><time>2014-4-4T17:46:59Z</time></trkpt>
<trkpt lat="46.450081" lon="6.977753"><ele></ele><time>2014-4-4T17:47:2Z</time></trkpt>
<trkpt lat="46.449959" lon="6.977646"><ele></ele><time>2014-4-4T17:47:5Z</time></trkpt>
<trkpt lat="46.449745" lon="6.977442"><ele></ele><time>2014-4-4T17:47:8Z</time></trkpt>
<trkpt lat="46.449455" lon="6.977478"><ele></ele><time>2014-4-4T17:47:11Z</time></trkpt>
<trkpt lat="46.449371" lon="6.977857"><ele></ele><time>2014-4-4T17:47:14Z</time></trkpt>
<trkpt lat="46.449345" lon="6.978320"><ele></ele><time>2014-4-4T17:47:17Z</time></trkpt>
<trkpt lat="46.449196" lon="6.978757"><ele></ele><time>2014-4-4T17:47:20Z</time></trkpt>
<trkpt lat="46.449020" lon="6.979159"><ele></ele><time>2014-4-4T17:47:23Z</time></trkpt>
<trkpt lat="46.448921" lon="6.979571"><ele></ele><time>2014-4-4T17:47:26Z</time></trkpt>
<trkpt lat="46.449070" lon="6.979796"><ele></ele><time>2014-4-4T17:47:29Z</time></trkpt>
<trkpt lat="46.449291" lon="6.980127"><ele></ele><time>2014-4-4T17:47:32Z</time></trkpt>
<trkpt lat="46.449238" lon="6.980458"><ele></ele><time>2014-4-4T17:47:35Z</time></trkpt>
<trkpt lat="46.449070" lon="6.980703"><ele></ele><time>2014-4-4T17:47:38Z</time></trkpt>
<trkpt lat="46.448963" lon="6.980891"><ele></ele><time>2014-4-4T17:47:41Z</time></trkpt>
<trkpt lat="46.448872" lon="6.981248"><ele></ele><time>2014-4-4T17:47:44Z</time></trkpt>
<trkpt lat="46.448765" lon="6.981603"><ele></ele><time>2014-4-4T17:47:47Z</time></trkpt>
<trkpt lat="46.448559" lon="6.981834"><ele></ele><time>2014-4-4T17:47:50Z</time></trkpt>
<trkpt lat="46.448490" lon="6.982090"><ele></ele><time>2014-4-4T17:47:53Z</time></trkpt>
<trkpt lat="46.448479" lon="6.982094"><ele></ele><time>2014-4-4T17:47:56Z</time></trkpt>
<trkpt lat="46.448456" lon="6.982079"><ele></ele><time>2014-4-4T17:47:59Z</time></trkpt>
<trkpt lat="46.448456" lon="6.982078"><ele></ele><time>2014-4-4T17:48:2Z</time></trkpt>
<trkpt lat="46.448456" lon="6.982078"><ele></ele><time>2014-4-4T17:48:5Z</time></trkpt>
<trkpt lat="46.448456" lon="6.982078"><ele></ele><time>2014-4-4T17:48:8Z</time></trkpt>
<trkpt lat="46.448452" lon="6.982078"><ele></ele><time>2014-4-4T17:48:11Z</time></trkpt>
<trkpt lat="46.448452" lon="6.982078"><ele></ele><time>2014-4-4T17:48:14Z</time></trkpt>
<trkpt lat="46.448452" lon="6.982078"><ele></ele><time>2014-4-4T17:48:17Z</time></trkpt>
<trkpt lat="46.448452" lon="6.982080"><ele></ele><time>2014-4-4T17:48:20Z</time></trkpt>
<trkpt lat="46.448452" lon="6.982079"><ele></ele><time>2014-4-4T17:48:23Z</time></trkpt>
<trkpt lat="46.448448" lon="6.982079"><ele></ele><time>2014-4-4T17:48:26Z</time></trkpt>
<trkpt lat="46.448448" lon="6.982080"><ele></ele><time>2014-4-4T17:48:29Z</time></trkpt>
<trkpt lat="46.448448" lon="6.982080"><ele></ele><time>2014-4-4T17:48:32Z</time></trkpt>
<trkpt lat="46.448448" lon="6.982080"><ele></ele><time>2014-4-4T17:48:35Z</time></trkpt>
<trkpt lat="46.448448" lon="6.982080"><ele></ele><time>2014-4-4T17:48:38Z</time></trkpt>
<trkpt lat="46.448448" lon="6.982080"><ele></ele><time>2014-4-4T17:48:41Z</time></trkpt>
<trkpt lat="46.448448" lon="6.982080"><ele></ele><time>2014-4-4T17:48:44Z</time></trkpt>
<trkpt lat="46.448448" lon="6.982080"><ele></ele><time>2014-4-4T17:48:47Z</time></trkpt>
<trkpt lat="46.448448" lon="6.982081"><ele></ele><time>2014-4-4T17:48:50Z</time></trkpt>
<trkpt lat="46.448444" lon="6.982081"><ele></ele><time>2014-4-4T17:48:53Z</time></trkpt>
<trkpt lat="46.448444" lon="6.982081"><ele></ele><time>2014-4-4T17:48:56Z</time></trkpt>
<trkpt lat="46.448444" lon="6.982081"><ele></ele><time>2014-4-4T17:48:59Z</time></trkpt>
<trkpt lat="46.448444" lon="6.982082"><ele></ele><time>2014-4-4T17:49:2Z</time></trkpt>
<trkpt lat="46.448444" lon="6.982083"><ele></ele><time>2014-4-4T17:49:5Z</time></trkpt>
<trkpt lat="46.448444" lon="6.982083"><ele></ele><time>2014-4-4T17:49:8Z</time></trkpt>
<trkpt lat="46.448444" lon="6.982084"><ele></ele><time>2014-4-4T17:49:11Z</time></trkpt>
<trkpt lat="46.448444" lon="6.982084"><ele></ele><time>2014-4-4T17:49:14Z</time></trkpt>
<trkpt lat="46.448444" lon="6.982084"><ele></ele><time>2014-4-4T17:49:17Z</time></trkpt>
<trkpt lat="46.448444" lon="6.982085"><ele></ele><time>2014-4-4T17:49:20Z</time></trkpt>
<trkpt lat="46.448444" lon="6.982085"><ele></ele><time>2014-4-4T17:49:23Z</time></trkpt>
<trkpt lat="46.448444" lon="6.982086"><ele></ele><time>2014-4-4T17:49:26Z</time></trkpt>
<trkpt lat="46.448444" lon="6.982086"><ele></ele><time>2014-4-4T17:49:29Z</time></trkpt>
<trkpt lat="46.448444" lon="6.982087"><ele></ele><time>2014-4-4T17:49:32Z</time></trkpt>
<trkpt lat="46.448441" lon="6.982088"><ele></ele><time>2014-4-4T17:49:35Z</time></trkpt>
<trkpt lat="46.448441" lon="6.982089"><ele></ele><time>2014-4-4T17:49:38Z</time></trkpt>
<trkpt lat="46.448441" lon="6.982090"><ele></ele><time>2014-4-4T17:49:41Z</time></trkpt>
<trkpt lat="46.448441" lon="6.982091"><ele></ele><time>2014-4-4T17:49:44Z</time></trkpt>
<trkpt lat="46.448441" lon="6.982092"><ele></ele><time>2014-4-4T17:49:47Z</time></trkpt>
<trkpt lat="46.448441" lon="6.982093"><ele></ele><time>2014-4-4T17:49:50Z</time></trkpt>
<trkpt lat="46.448441" lon="6.982094"><ele></ele><time>2014-4-4T17:49:53Z</time></trkpt>
<trkpt lat="46.448441" lon="6.982095"><ele></ele><time>2014-4-4T17:49:56Z</time></trkpt>
<trkpt lat="46.448437" lon="6.982095"><ele></ele><time>2014-4-4T17:49:59Z</time></trkpt>
<trkpt lat="46.448437" lon="6.982096"><ele></ele><time>2014-4-4T17:50:2Z</time></trkpt>
<trkpt lat="46.448437" lon="6.982095"><ele></ele><time>2014-4-4T17:50:5Z</time></trkpt>
<trkpt lat="46.448437" lon="6.982095"><ele></ele><time>2014-4-4T17:50:8Z</time></trkpt>
<trkpt lat="46.448437" lon="6.982096"><ele></ele><time>2014-4-4T17:50:11Z</time></trkpt>
<trkpt lat="46.448437" lon="6.982095"><ele></ele><time>2014-4-4T17:50:14Z</time></trkpt>
<trkpt lat="46.448437" lon="6.982096"><ele></ele><time>2014-4-4T17:50:17Z</time></trkpt>
<trkpt lat="46.448437" lon="6.982096"><ele></ele><time>2014-4-4T17:50:20Z</time></trkpt>
<trkpt lat="46.448437" lon="6.982096"><ele></ele><time>2014-4-4T17:50:23Z</time></trkpt>
<trkpt lat="46.448437" lon="6.982096"><ele></ele><time>2014-4-4T17:50:26Z</time></trkpt>
<trkpt lat="46.448437" lon="6.982096"><ele></ele><time>2014-4-4T17:50:29Z</time></trkpt>
<trkpt lat="46.448437" lon="6.982096"><ele></ele><time>2014-4-4T17:50:32Z</time></trkpt>
<trkpt lat="46.448437" lon="6.982096"><ele></ele><time>2014-4-4T17:50:35Z</time></trkpt>
<trkpt lat="46.448437" lon="6.982096"><ele></ele><time>2014-4-4T17:50:38Z</time></trkpt>
<trkpt lat="46.448437" lon="6.982096"><ele></ele><time>2014-4-4T17:50:41Z</time></trkpt>
<trkpt lat="46.448437" lon="6.982096"><ele></ele><time>2014-4-4T17:50:44Z</time></trkpt>
<trkpt lat="46.448437" lon="6.982096"><ele></ele><time>2014-4-4T17:50:47Z</time></trkpt>
<trkpt lat="46.448437" lon="6.982095"><ele></ele><time>2014-4-4T17:50:50Z</time></trkpt>
<trkpt lat="46.448437" lon="6.982095"><ele></ele><time>2014-4-4T17:50:53Z</time></trkpt>
<trkpt lat="46.448437" lon="6.982095"><ele></ele><time>2014-4-4T17:50:56Z</time></trkpt>
<trkpt lat="46.448437" lon="6.982095"><ele></ele><time>2014-4-4T17:50:59Z</time></trkpt>
<trkpt lat="46.448437" lon="6.982095"><ele></ele><time>2014-4-4T17:51:2Z</time></trkpt>
<trkpt lat="46.448437" lon="6.982095"><ele></ele><time>2014-4-4T17:51:5Z</time></trkpt>
<trkpt lat="46.448444" lon="6.982101"><ele></ele><time>2014-4-4T17:51:8Z</time></trkpt>
<trkpt lat="46.448448" lon="6.982088"><ele></ele><time>2014-4-4T17:51:11Z</time></trkpt>
<trkpt lat="46.448452" lon="6.982088"><ele></ele><time>2014-4-4T17:51:14Z</time></trkpt>
<trkpt lat="46.448460" lon="6.982092"><ele></ele><time>2014-4-4T17:51:17Z</time></trkpt>
<trkpt lat="46.448490" lon="6.982103"><ele></ele><time>2014-4-4T17:51:20Z</time></trkpt>
<trkpt lat="46.448490" lon="6.982090"><ele></ele><time>2014-4-4T17:51:23Z</time></trkpt>
<trkpt lat="46.448437" lon="6.982114"><ele></ele><time>2014-4-4T17:51:26Z</time></trkpt>
<trkpt lat="46.448418" lon="6.982123"><ele></ele><time>2014-4-4T17:51:29Z</time></trkpt>
<trkpt lat="46.448410" lon="6.982119"><ele></ele><time>2014-4-4T17:51:32Z</time></trkpt>
<trkpt lat="46.448410" lon="6.982120"><ele></ele><time>2014-4-4T17:51:35Z</time></trkpt>
<trkpt lat="46.448410" lon="6.982119"><ele></ele><time>2014-4-4T17:51:38Z</time></trkpt>
<trkpt lat="46.448410" lon="6.982118"><ele></ele><time>2014-4-4T17:51:41Z</time></trkpt>
<trkpt lat="46.448475" lon="6.982109"><ele></ele><time>2014-4-4T17:51:44Z</time></trkpt>
<trkpt lat="46.448673" lon="6.982244"><ele></ele><time>2014-4-4T17:51:47Z</time></trkpt>
<trkpt lat="46.448883" lon="6.982280"><ele></ele><time>2014-4-4T17:51:50Z</time></trkpt>
<trkpt lat="46.448971" lon="6.981982"><ele></ele><time>2014-4-4T17:51:53Z</time></trkpt>
<trkpt lat="46.449181" lon="6.981504"><ele></ele><time>2014-4-4T17:51:56Z</time></trkpt>
<trkpt lat="46.449474" lon="6.981084"><ele></ele><time>2014-4-4T17:51:59Z</time></trkpt>
<trkpt lat="46.449722" lon="6.980783"><ele></ele><time>2014-4-4T17:52:2Z</time></trkpt>
<trkpt lat="46.450096" lon="6.980561"><ele></ele><time>2014-4-4T17:52:5Z</time></trkpt>
<trkpt lat="46.450329" lon="6.980307"><ele></ele><time>2014-4-4T17:52:8Z</time></trkpt>
<trkpt lat="46.450573" lon="6.980061"><ele></ele><time>2014-4-4T17:52:11Z</time></trkpt>
<trkpt lat="46.450760" lon="6.980087"><ele></ele><time>2014-4-4T17:52:14Z</time></trkpt>
<trkpt lat="46.450924" lon="6.980376"><ele></ele><time>2014-4-4T17:52:17Z</time></trkpt>
<trkpt lat="46.451210" lon="6.980573"><ele></ele><time>2014-4-4T17:52:20Z</time></trkpt>
<trkpt lat="46.451466" lon="6.980794"><ele></ele><time>2014-4-4T17:52:23Z</time></trkpt>
<trkpt lat="46.451389" lon="6.981037"><ele></ele><time>2014-4-4T17:52:26Z</time></trkpt>
<trkpt lat="46.451157" lon="6.980939"><ele></ele><time>2014-4-4T17:52:29Z</time></trkpt>
<trkpt lat="46.450871" lon="6.980862"><ele></ele><time>2014-4-4T17:52:32Z</time></trkpt>
<trkpt lat="46.450661" lon="6.981015"><ele></ele><time>2014-4-4T17:52:35Z</time></trkpt>
<trkpt lat="46.450474" lon="6.981401"><ele></ele><time>2014-4-4T17:52:38Z</time></trkpt>
<trkpt lat="46.450462" lon="6.981811"><ele></ele><time>2014-4-4T17:52:41Z</time></trkpt>
<trkpt lat="46.450466" lon="6.982069"><ele></ele><time>2014-4-4T17:52:44Z</time></trkpt>
<trkpt lat="46.450294" lon="6.982288"><ele></ele><time>2014-4-4T17:52:47Z</time></trkpt>
<trkpt lat="46.450180" lon="6.982614"><ele></ele><time>2014-4-4T17:52:50Z</time></trkpt>
<trkpt lat="46.450146" lon="6.982695"><ele></ele><time>2014-4-4T17:52:53Z</time></trkpt>
<trkpt lat="46.450142" lon="6.982698"><ele></ele><time>2014-4-4T17:52:56Z</time></trkpt>
<trkpt lat="46.450142" lon="6.982700"><ele></ele><time>2014-4-4T17:52:59Z</time></trkpt>
<trkpt lat="46.450142" lon="6.982701"><ele></ele><time>2014-4-4T17:53:2Z</time></trkpt>
<trkpt lat="46.450142" lon="6.982702"><ele></ele><time>2014-4-4T17:53:5Z</time></trkpt>
<trkpt lat="46.450142" lon="6.982698"><ele></ele><time>2014-4-4T17:53:8Z</time></trkpt>
<trkpt lat="46.450146" lon="6.982694"><ele></ele><time>2014-4-4T17:53:11Z</time></trkpt>
<trkpt lat="46.450134" lon="6.982735"><ele></ele><time>2014-4-4T17:53:14Z</time></trkpt>
<trkpt lat="46.450203" lon="6.982949"><ele></ele><time>2014-4-4T17:53:17Z</time></trkpt>
<trkpt lat="46.450481" lon="6.982917"><ele></ele><time>2014-4-4T17:53:20Z</time></trkpt>
<trkpt lat="46.450768" lon="6.982864"><ele></ele><time>2014-4-4T17:53:23Z</time></trkpt>
<trkpt lat="46.450890" lon="6.983061"><ele></ele><time>2014-4-4T17:53:26Z</time></trkpt>
<trkpt lat="46.450737" lon="6.983376"><ele></ele><time>2014-4-4T17:53:29Z</time></trkpt>
<trkpt lat="46.450523" lon="6.983662"><ele></ele><time>2014-4-4T17:53:32Z</time></trkpt>
<trkpt lat="46.450287" lon="6.983824"><ele></ele><time>2014-4-4T17:53:35Z</time></trkpt>
<trkpt lat="46.450363" lon="6.983994"><ele></ele><time>2014-4-4T17:53:38Z</time></trkpt>
<trkpt lat="46.450592" lon="6.984031"><ele></ele><time>2014-4-4T17:53:41Z</time></trkpt>
<trkpt lat="46.450817" lon="6.983964"><ele></ele><time>2014-4-4T17:53:44Z</time></trkpt>
<trkpt lat="46.451023" lon="6.983723"><ele></ele><time>2014-4-4T17:53:47Z</time></trkpt>
<trkpt lat="46.451389" lon="6.983734"><ele></ele><time>2014-4-4T17:53:50Z</time></trkpt>
<trkpt lat="46.451530" lon="6.983906"><ele></ele><time>2014-4-4T17:53:53Z</time></trkpt>
<trkpt lat="46.451340" lon="6.984171"><ele></ele><time>2014-4-4T17:53:56Z</time></trkpt>
<trkpt lat="46.451054" lon="6.984452"><ele></ele><time>2014-4-4T17:53:59Z</time></trkpt>
<trkpt lat="46.450836" lon="6.984795"><ele></ele><time>2014-4-4T17:54:2Z</time></trkpt>
<trkpt lat="46.450897" lon="6.985229"><ele></ele><time>2014-4-4T17:54:5Z</time></trkpt>
<trkpt lat="46.451080" lon="6.985632"><ele></ele><time>2014-4-4T17:54:8Z</time></trkpt>
<trkpt lat="46.451275" lon="6.985969"><ele></ele><time>2014-4-4T17:54:11Z</time></trkpt>
<trkpt lat="46.451477" lon="6.985945"><ele></ele><time>2014-4-4T17:54:14Z</time></trkpt>
<trkpt lat="46.451649" lon="6.985637"><ele></ele><time>2014-4-4T17:54:17Z</time></trkpt>
<trkpt lat="46.451969" lon="6.985480"><ele></ele><time>2014-4-4T17:54:20Z</time></trkpt>
<trkpt lat="46.452248" lon="6.985317"><ele></ele><time>2014-4-4T17:54:23Z</time></trkpt>
<trkpt lat="46.452347" lon="6.985615"><ele></ele><time>2014-4-4T17:54:26Z</time></trkpt>
<trkpt lat="46.452213" lon="6.986036"><ele></ele><time>2014-4-4T17:54:29Z</time></trkpt>
<trkpt lat="46.452244" lon="6.986523"><ele></ele><time>2014-4-4T17:54:32Z</time></trkpt>
<trkpt lat="46.452271" lon="6.987094"><ele></ele><time>2014-4-4T17:54:35Z</time></trkpt>
<trkpt lat="46.452232" lon="6.987614"><ele></ele><time>2014-4-4T17:54:38Z</time></trkpt>
<trkpt lat="46.452190" lon="6.988113"><ele></ele><time>2014-4-4T17:54:41Z</time></trkpt>
<trkpt lat="46.452339" lon="6.988167"><ele></ele><time>2014-4-4T17:54:44Z</time></trkpt>
<trkpt lat="46.452499" lon="6.987824"><ele></ele><time>2014-4-4T17:54:47Z</time></trkpt>
<trkpt lat="46.452824" lon="6.987729"><ele></ele><time>2014-4-4T17:54:50Z</time></trkpt>
<trkpt lat="46.453003" lon="6.987902"><ele></ele><time>2014-4-4T17:54:53Z</time></trkpt>
<trkpt lat="46.452847" lon="6.988176"><ele></ele><time>2014-4-4T17:54:56Z</time></trkpt>
<trkpt lat="46.452679" lon="6.988594"><ele></ele><time>2014-4-4T17:54:59Z</time></trkpt>
<trkpt lat="46.452614" lon="6.988883"><ele></ele><time>2014-4-4T17:55:2Z</time></trkpt>
<trkpt lat="46.452827" lon="6.988880"><ele></ele><time>2014-4-4T17:55:5Z</time></trkpt>
<trkpt lat="46.453136" lon="6.988836"><ele></ele><time>2014-4-4T17:55:8Z</time></trkpt>
<trkpt lat="46.453445" lon="6.988622"><ele></ele><time>2014-4-4T17:55:11Z</time></trkpt>
<trkpt lat="46.453606" lon="6.988782"><ele></ele><time>2014-4-4T17:55:14Z</time></trkpt>
<trkpt lat="46.453751" lon="6.989155"><ele></ele><time>2014-4-4T17:55:17Z</time></trkpt>
<trkpt lat="46.453892" lon="6.989506"><ele></ele><time>2014-4-4T17:55:20Z</time></trkpt>
<trkpt lat="46.454021" lon="6.989852"><ele></ele><time>2014-4-4T17:55:23Z</time></trkpt>
<trkpt lat="46.454105" lon="6.990257"><ele></ele><time>2014-4-4T17:55:26Z</time></trkpt>
<trkpt lat="46.454159" lon="6.990667"><ele></ele><time>2014-4-4T17:55:29Z</time></trkpt>
<trkpt lat="46.454266" lon="6.991063"><ele></ele><time>2014-4-4T17:55:32Z</time></trkpt>
<trkpt lat="46.454525" lon="6.991330"><ele></ele><time>2014-4-4T17:55:35Z</time></trkpt>
<trkpt lat="46.454639" lon="6.991740"><ele></ele><time>2014-4-4T17:55:38Z</time></trkpt>
<trkpt lat="46.454746" lon="6.992044"><ele></ele><time>2014-4-4T17:55:41Z</time></trkpt>
<trkpt lat="46.454762" lon="6.992179"><ele></ele><time>2014-4-4T17:55:44Z</time></trkpt>
<trkpt lat="46.454792" lon="6.992167"><ele></ele><time>2014-4-4T17:55:47Z</time></trkpt>
<trkpt lat="46.454659" lon="6.991972"><ele></ele><time>2014-4-4T17:55:50Z</time></trkpt>
<trkpt lat="46.454380" lon="6.991727"><ele></ele><time>2014-4-4T17:55:53Z</time></trkpt>
<trkpt lat="46.454044" lon="6.991576"><ele></ele><time>2014-4-4T17:55:56Z</time></trkpt>
<trkpt lat="46.453888" lon="6.991619"><ele></ele><time>2014-4-4T17:55:59Z</time></trkpt>
<trkpt lat="46.454105" lon="6.991913"><ele></ele><time>2014-4-4T17:56:2Z</time></trkpt>
<trkpt lat="46.454277" lon="6.992369"><ele></ele><time>2014-4-4T17:56:5Z</time></trkpt>
<trkpt lat="46.454483" lon="6.992919"><ele></ele><time>2014-4-4T17:56:8Z</time></trkpt>
<trkpt lat="46.454655" lon="6.993388"><ele></ele><time>2014-4-4T17:56:11Z</time></trkpt>
<trkpt lat="46.454681" lon="6.993460"><ele></ele><time>2014-4-4T17:56:14Z</time></trkpt>
<trkpt lat="46.454685" lon="6.993459"><ele></ele><time>2014-4-4T17:56:17Z</time></trkpt>
<trkpt lat="46.454685" lon="6.993459"><ele></ele><time>2014-4-4T17:56:20Z</time></trkpt>
<trkpt lat="46.454681" lon="6.993461"><ele></ele><time>2014-4-4T17:56:23Z</time></trkpt>
<trkpt lat="46.454681" lon="6.993460"><ele></ele><time>2014-4-4T17:56:26Z</time></trkpt>
<trkpt lat="46.454685" lon="6.993461"><ele></ele><time>2014-4-4T17:56:29Z</time></trkpt>
<trkpt lat="46.454739" lon="6.993554"><ele></ele><time>2014-4-4T17:56:32Z</time></trkpt>
<trkpt lat="46.454948" lon="6.993894"><ele></ele><time>2014-4-4T17:56:35Z</time></trkpt>
<trkpt lat="46.455097" lon="6.994345"><ele></ele><time>2014-4-4T17:56:38Z</time></trkpt>
<trkpt lat="46.455276" lon="6.994752"><ele></ele><time>2014-4-4T17:56:41Z</time></trkpt>
<trkpt lat="46.455570" lon="6.995274"><ele></ele><time>2014-4-4T17:56:44Z</time></trkpt>
<trkpt lat="46.455864" lon="6.995780"><ele></ele><time>2014-4-4T17:56:47Z</time></trkpt>
<trkpt lat="46.456089" lon="6.996174"><ele></ele><time>2014-4-4T17:56:50Z</time></trkpt>
<trkpt lat="46.456268" lon="6.996506"><ele></ele><time>2014-4-4T17:56:53Z</time></trkpt>
<trkpt lat="46.456516" lon="6.996673"><ele></ele><time>2014-4-4T17:56:56Z</time></trkpt>
<trkpt lat="46.456493" lon="6.996786"><ele></ele><time>2014-4-4T17:56:59Z</time></trkpt>
<trkpt lat="46.456226" lon="6.996611"><ele></ele><time>2014-4-4T17:57:2Z</time></trkpt>
<trkpt lat="46.455925" lon="6.996449"><ele></ele><time>2014-4-4T17:57:5Z</time></trkpt>
<trkpt lat="46.455593" lon="6.996247"><ele></ele><time>2014-4-4T17:57:8Z</time></trkpt>
<trkpt lat="46.455261" lon="6.996070"><ele></ele><time>2014-4-4T17:57:11Z</time></trkpt>
<trkpt lat="46.455040" lon="6.995981"><ele></ele><time>2014-4-4T17:57:14Z</time></trkpt>
<trkpt lat="46.455086" lon="6.996215"><ele></ele><time>2014-4-4T17:57:17Z</time></trkpt>
<trkpt lat="46.455311" lon="6.996494"><ele></ele><time>2014-4-4T17:57:20Z</time></trkpt>
<trkpt lat="46.455547" lon="6.996886"><ele></ele><time>2014-4-4T17:57:23Z</time></trkpt>
<trkpt lat="46.455875" lon="6.997223"><ele></ele><time>2014-4-4T17:57:26Z</time></trkpt>
<trkpt lat="46.456188" lon="6.997608"><ele></ele><time>2014-4-4T17:57:29Z</time></trkpt>
<trkpt lat="46.456459" lon="6.998090"><ele></ele><time>2014-4-4T17:57:32Z</time></trkpt>
<trkpt lat="46.456661" lon="6.998320"><ele></ele><time>2014-4-4T17:57:35Z</time></trkpt>
<trkpt lat="46.456654" lon="6.998301"><ele></ele><time>2014-4-4T17:57:38Z</time></trkpt>
<trkpt lat="46.456654" lon="6.998300"><ele></ele><time>2014-4-4T17:57:41Z</time></trkpt>
<trkpt lat="46.456661" lon="6.998293"><ele></ele><time>2014-4-4T17:57:44Z</time></trkpt>
<trkpt lat="46.456661" lon="6.998297"><ele></ele><time>2014-4-4T17:57:47Z</time></trkpt>
<trkpt lat="46.456669" lon="6.998302"><ele></ele><time>2014-4-4T17:57:50Z</time></trkpt>
<trkpt lat="46.456669" lon="6.998303"><ele></ele><time>2014-4-4T17:57:53Z</time></trkpt>
<trkpt lat="46.456673" lon="6.998311"><ele></ele><time>2014-4-4T17:57:56Z</time></trkpt>
<trkpt lat="46.456863" lon="6.998518"><ele></ele><time>2014-4-4T17:57:59Z</time></trkpt>
<trkpt lat="46.457165" lon="6.998911"><ele></ele><time>2014-4-4T17:58:2Z</time></trkpt>
<trkpt lat="46.457523" lon="6.999256"><ele></ele><time>2014-4-4T17:58:5Z</time></trkpt>
<trkpt lat="46.457619" lon="6.999454"><ele></ele><time>2014-4-4T17:58:8Z</time></trkpt>
<trkpt lat="46.457443" lon="6.999407"><ele></ele><time>2014-4-4T17:58:11Z</time></trkpt>
<trkpt lat="46.457088" lon="6.999289"><ele></ele><time>2014-4-4T17:58:14Z</time></trkpt>
<trkpt lat="46.456715" lon="6.999212"><ele></ele><time>2014-4-4T17:58:17Z</time></trkpt>
<trkpt lat="46.456467" lon="6.999272"><ele></ele><time>2014-4-4T17:58:20Z</time></trkpt>
<trkpt lat="46.456264" lon="6.999390"><ele></ele><time>2014-4-4T17:58:23Z</time></trkpt>
<trkpt lat="46.456318" lon="6.999681"><ele></ele><time>2014-4-4T17:58:26Z</time></trkpt>
<trkpt lat="46.456532" lon="7.000119"><ele></ele><time>2014-4-4T17:58:29Z</time></trkpt>
<trkpt lat="46.456886" lon="7.000397"><ele></ele><time>2014-4-4T17:58:32Z</time></trkpt>
<trkpt lat="46.457134" lon="7.000716"><ele></ele><time>2014-4-4T17:58:35Z</time></trkpt>
<trkpt lat="46.457005" lon="7.001050"><ele></ele><time>2014-4-4T17:58:38Z</time></trkpt>
<trkpt lat="46.457405" lon="7.001463"><ele></ele><time>2014-4-4T17:58:41Z</time></trkpt>
<trkpt lat="46.457851" lon="7.001932"><ele></ele><time>2014-4-4T17:58:44Z</time></trkpt>
<trkpt lat="46.458191" lon="7.002464"><ele></ele><time>2014-4-4T17:58:47Z</time></trkpt>
<trkpt lat="46.458439" lon="7.002919"><ele></ele><time>2014-4-4T17:58:50Z</time></trkpt>
<trkpt lat="46.458775" lon="7.003243"><ele></ele><time>2014-4-4T17:58:53Z</time></trkpt>
<trkpt lat="46.459206" lon="7.003569"><ele></ele><time>2014-4-4T17:58:56Z</time></trkpt>
<trkpt lat="46.459579" lon="7.003712"><ele></ele><time>2014-4-4T17:58:59Z</time></trkpt>
<trkpt lat="46.459869" lon="7.004168"><ele></ele><time>2014-4-4T17:59:2Z</time></trkpt>
<trkpt lat="46.460052" lon="7.004462"><ele></ele><time>2014-4-4T17:59:5Z</time></trkpt>
<trkpt lat="46.459991" lon="7.004525"><ele></ele><time>2014-4-4T17:59:8Z</time></trkpt>
<trkpt lat="46.459881" lon="7.004472"><ele></ele><time>2014-4-4T17:59:11Z</time></trkpt>
<trkpt lat="46.459896" lon="7.004447"><ele></ele><time>2014-4-4T17:59:14Z</time></trkpt>
<trkpt lat="46.459957" lon="7.004477"><ele></ele><time>2014-4-4T17:59:17Z</time></trkpt>
<trkpt lat="46.460136" lon="7.004524"><ele></ele><time>2014-4-4T17:59:20Z</time></trkpt>
<trkpt lat="46.460361" lon="7.004595"><ele></ele><time>2014-4-4T17:59:23Z</time></trkpt>
<trkpt lat="46.460571" lon="7.004828"><ele></ele><time>2014-4-4T17:59:26Z</time></trkpt>
<trkpt lat="46.460785" lon="7.005075"><ele></ele><time>2014-4-4T17:59:29Z</time></trkpt>
<trkpt lat="46.461071" lon="7.005165"><ele></ele><time>2014-4-4T17:59:32Z</time></trkpt>
<trkpt lat="46.461407" lon="7.005158"><ele></ele><time>2014-4-4T17:59:35Z</time></trkpt>
<trkpt lat="46.461765" lon="7.005065"><ele></ele><time>2014-4-4T17:59:38Z</time></trkpt>
<trkpt lat="46.462101" lon="7.004953"><ele></ele><time>2014-4-4T17:59:41Z</time></trkpt>
<trkpt lat="46.462444" lon="7.005034"><ele></ele><time>2014-4-4T17:59:44Z</time></trkpt>
<trkpt lat="46.462784" lon="7.005150"><ele></ele><time>2014-4-4T17:59:47Z</time></trkpt>
<trkpt lat="46.463123" lon="7.005281"><ele></ele><time>2014-4-4T17:59:50Z</time></trkpt>
<trkpt lat="46.463467" lon="7.005395"><ele></ele><time>2014-4-4T17:59:53Z</time></trkpt>
<trkpt lat="46.463810" lon="7.005408"><ele></ele><time>2014-4-4T17:59:56Z</time></trkpt>
<trkpt lat="46.464001" lon="7.005213"><ele></ele><time>2014-4-4T17:59:59Z</time></trkpt>
<trkpt lat="46.464024" lon="7.005194"><ele></ele><time>2014-4-4T18:0:2Z</time></trkpt>
<trkpt lat="46.464024" lon="7.005195"><ele></ele><time>2014-4-4T18:0:5Z</time></trkpt>
<trkpt lat="46.464050" lon="7.005207"><ele></ele><time>2014-4-4T18:0:8Z</time></trkpt>
<trkpt lat="46.464046" lon="7.005206"><ele></ele><time>2014-4-4T18:0:11Z</time></trkpt>
<trkpt lat="46.464046" lon="7.005207"><ele></ele><time>2014-4-4T18:0:14Z</time></trkpt>
<trkpt lat="46.464050" lon="7.005204"><ele></ele><time>2014-4-4T18:0:17Z</time></trkpt>
<trkpt lat="46.464050" lon="7.005202"><ele></ele><time>2014-4-4T18:0:20Z</time></trkpt>
<trkpt lat="46.464050" lon="7.005202"><ele></ele><time>2014-4-4T18:0:23Z</time></trkpt>
<trkpt lat="46.464050" lon="7.005201"><ele></ele><time>2014-4-4T18:0:26Z</time></trkpt>
<trkpt lat="46.464050" lon="7.005200"><ele></ele><time>2014-4-4T18:0:29Z</time></trkpt>
<trkpt lat="46.464050" lon="7.005200"><ele></ele><time>2014-4-4T18:0:32Z</time></trkpt>
<trkpt lat="46.464050" lon="7.005200"><ele></ele><time>2014-4-4T18:0:35Z</time></trkpt>
<trkpt lat="46.464050" lon="7.005200"><ele></ele><time>2014-4-4T18:0:38Z</time></trkpt>
<trkpt lat="46.464050" lon="7.005200"><ele></ele><time>2014-4-4T18:0:41Z</time></trkpt>
<trkpt lat="46.464050" lon="7.005200"><ele></ele><time>2014-4-4T18:0:44Z</time></trkpt>
<trkpt lat="46.464050" lon="7.005200"><ele></ele><time>2014-4-4T18:0:47Z</time></trkpt>
<trkpt lat="46.464050" lon="7.005200"><ele></ele><time>2014-4-4T18:0:50Z</time></trkpt>
<trkpt lat="46.464050" lon="7.005199"><ele></ele><time>2014-4-4T18:0:53Z</time></trkpt>
<trkpt lat="46.464050" lon="7.005199"><ele></ele><time>2014-4-4T18:0:56Z</time></trkpt>
<trkpt lat="46.464050" lon="7.005199"><ele></ele><time>2014-4-4T18:0:59Z</time></trkpt>
<trkpt lat="46.464050" lon="7.005199"><ele></ele><time>2014-4-4T18:1:2Z</time></trkpt>
<trkpt lat="46.464050" lon="7.005199"><ele></ele><time>2014-4-4T18:1:5Z</time></trkpt>
<trkpt lat="46.464050" lon="7.005199"><ele></ele><time>2014-4-4T18:1:8Z</time></trkpt>
<trkpt lat="46.464050" lon="7.005199"><ele></ele><time>2014-4-4T18:1:11Z</time></trkpt>
<trkpt lat="46.464050" lon="7.005199"><ele></ele><time>2014-4-4T18:1:14Z</time></trkpt>
<trkpt lat="46.464050" lon="7.005199"><ele></ele><time>2014-4-4T18:1:17Z</time></trkpt>
<trkpt lat="46.464050" lon="7.005199"><ele></ele><time>2014-4-4T18:1:20Z</time></trkpt>
<trkpt lat="46.464050" lon="7.005200"><ele></ele><time>2014-4-4T18:1:23Z</time></trkpt>
<trkpt lat="46.464050" lon="7.005200"><ele></ele><time>2014-4-4T18:1:26Z</time></trkpt>
<trkpt lat="46.464050" lon="7.005200"><ele></ele><time>2014-4-4T18:1:29Z</time></trkpt>
<trkpt lat="46.464050" lon="7.005200"><ele></ele><time>2014-4-4T18:1:32Z</time></trkpt>
<trkpt lat="46.464050" lon="7.005200"><ele></ele><time>2014-4-4T18:1:35Z</time></trkpt>
<trkpt lat="46.464050" lon="7.005200"><ele></ele><time>2014-4-4T18:1:38Z</time></trkpt>
<trkpt lat="46.464050" lon="7.005200"><ele></ele><time>2014-4-4T18:1:41Z</time></trkpt>
<trkpt lat="46.464050" lon="7.005200"><ele></ele><time>2014-4-4T18:1:44Z</time></trkpt>
<trkpt lat="46.464050" lon="7.005198"><ele></ele><time>2014-4-4T18:1:47Z</time></trkpt>
<trkpt lat="46.464069" lon="7.005139"><ele></ele><time>2014-4-4T18:1:50Z</time></trkpt>
<trkpt lat="46.464169" lon="7.005060"><ele></ele><time>2014-4-4T18:1:53Z</time></trkpt>
<trkpt lat="46.464386" lon="7.005030"><ele></ele><time>2014-4-4T18:1:56Z</time></trkpt>
<trkpt lat="46.464581" lon="7.005236"><ele></ele><time>2014-4-4T18:1:59Z</time></trkpt>
<trkpt lat="46.464729" lon="7.005491"><ele></ele><time>2014-4-4T18:2:2Z</time></trkpt>
<trkpt lat="46.464897" lon="7.005739"><ele></ele><time>2014-4-4T18:2:5Z</time></trkpt>
<trkpt lat="46.465115" lon="7.005733"><ele></ele><time>2014-4-4T18:2:8Z</time></trkpt>
<trkpt lat="46.465347" lon="7.005664"><ele></ele><time>2014-4-4T18:2:11Z</time></trkpt>
<trkpt lat="46.465603" lon="7.005774"><ele></ele><time>2014-4-4T18:2:14Z</time></trkpt>
<trkpt lat="46.465878" lon="7.005943"><ele></ele><time>2014-4-4T18:2:17Z</time></trkpt>
<trkpt lat="46.466164" lon="7.006102"><ele></ele><time>2014-4-4T18:2:20Z</time></trkpt>
<trkpt lat="46.466442" lon="7.006188"><ele></ele><time>2014-4-4T18:2:23Z</time></trkpt>
<trkpt lat="46.466694" lon="7.006345"><ele></ele><time>2014-4-4T18:2:26Z</time></trkpt>
<trkpt lat="46.466949" lon="7.006549"><ele></ele><time>2014-4-4T18:2:29Z</time></trkpt>
<trkpt lat="46.467236" lon="7.006762"><ele></ele><time>2014-4-4T18:2:32Z</time></trkpt>
<trkpt lat="46.467529" lon="7.006988"><ele></ele><time>2014-4-4T18:2:35Z</time></trkpt>
<trkpt lat="46.467834" lon="7.007205"><ele></ele><time>2014-4-4T18:2:38Z</time></trkpt>
<trkpt lat="46.468143" lon="7.007418"><ele></ele><time>2014-4-4T18:2:41Z</time></trkpt>
<trkpt lat="46.468468" lon="7.007592"><ele></ele><time>2014-4-4T18:2:44Z</time></trkpt>
<trkpt lat="46.468853" lon="7.007632"><ele></ele><time>2014-4-4T18:2:47Z</time></trkpt>
<trkpt lat="46.469215" lon="7.007720"><ele></ele><time>2014-4-4T18:2:50Z</time></trkpt>
<trkpt lat="46.469460" lon="7.007909"><ele></ele><time>2014-4-4T18:2:53Z</time></trkpt>
<trkpt lat="46.469559" lon="7.008109"><ele></ele><time>2014-4-4T18:2:56Z</time></trkpt>
<trkpt lat="46.469738" lon="7.008355"><ele></ele><time>2014-4-4T18:2:59Z</time></trkpt>
<trkpt lat="46.470020" lon="7.008567"><ele></ele><time>2014-4-4T18:3:2Z</time></trkpt>
<trkpt lat="46.470341" lon="7.008844"><ele></ele><time>2014-4-4T18:3:5Z</time></trkpt>
<trkpt lat="46.470501" lon="7.009398"><ele></ele><time>2014-4-4T18:3:8Z</time></trkpt>
<trkpt lat="46.470737" lon="7.009904"><ele></ele><time>2014-4-4T18:3:11Z</time></trkpt>
<trkpt lat="46.470993" lon="7.010415"><ele></ele><time>2014-4-4T18:3:14Z</time></trkpt>
<trkpt lat="46.471291" lon="7.010933"><ele></ele><time>2014-4-4T18:3:17Z</time></trkpt>
<trkpt lat="46.471645" lon="7.011430"><ele></ele><time>2014-4-4T18:3:20Z</time></trkpt>
<trkpt lat="46.471928" lon="7.011981"><ele></ele><time>2014-4-4T18:3:23Z</time></trkpt>
<trkpt lat="46.472141" lon="7.012492"><ele></ele><time>2014-4-4T18:3:26Z</time></trkpt>
<trkpt lat="46.472450" lon="7.012904"><ele></ele><time>2014-4-4T18:3:29Z</time></trkpt>
<trkpt lat="46.472878" lon="7.013276"><ele></ele><time>2014-4-4T18:3:32Z</time></trkpt>
<trkpt lat="46.473309" lon="7.013661"><ele></ele><time>2014-4-4T18:3:35Z</time></trkpt>
<trkpt lat="46.473690" lon="7.014216"><ele></ele><time>2014-4-4T18:3:38Z</time></trkpt>
<trkpt lat="46.474094" lon="7.014632"><ele></ele><time>2014-4-4T18:3:41Z</time></trkpt>
<trkpt lat="46.474545" lon="7.014662"><ele></ele><time>2014-4-4T18:3:44Z</time></trkpt>
<trkpt lat="46.474754" lon="7.015058"><ele></ele><time>2014-4-4T18:3:47Z</time></trkpt>
<trkpt lat="46.474842" lon="7.015712"><ele></ele><time>2014-4-4T18:3:50Z</time></trkpt>
<trkpt lat="46.475056" lon="7.016181"><ele></ele><time>2014-4-4T18:3:53Z</time></trkpt>
<trkpt lat="46.475151" lon="7.016445"><ele></ele><time>2014-4-4T18:3:56Z</time></trkpt>
<trkpt lat="46.475201" lon="7.016524"><ele></ele><time>2014-4-4T18:3:59Z</time></trkpt>
<trkpt lat="46.475155" lon="7.016519"><ele></ele><time>2014-4-4T18:4:2Z</time></trkpt>
<trkpt lat="46.475124" lon="7.016487"><ele></ele><time>2014-4-4T18:4:5Z</time></trkpt>
<trkpt lat="46.475121" lon="7.016486"><ele></ele><time>2014-4-4T18:4:8Z</time></trkpt>
<trkpt lat="46.475121" lon="7.016488"><ele></ele><time>2014-4-4T18:4:11Z</time></trkpt>
<trkpt lat="46.475121" lon="7.016489"><ele></ele><time>2014-4-4T18:4:14Z</time></trkpt>
<trkpt lat="46.475121" lon="7.016489"><ele></ele><time>2014-4-4T18:4:17Z</time></trkpt>
<trkpt lat="46.475121" lon="7.016489"><ele></ele><time>2014-4-4T18:4:20Z</time></trkpt>
<trkpt lat="46.475121" lon="7.016488"><ele></ele><time>2014-4-4T18:4:23Z</time></trkpt>
<trkpt lat="46.475121" lon="7.016488"><ele></ele><time>2014-4-4T18:4:26Z</time></trkpt>
<trkpt lat="46.475121" lon="7.016488"><ele></ele><time>2014-4-4T18:4:29Z</time></trkpt>
<trkpt lat="46.475121" lon="7.016489"><ele></ele><time>2014-4-4T18:4:32Z</time></trkpt>
<trkpt lat="46.475121" lon="7.016489"><ele></ele><time>2014-4-4T18:4:35Z</time></trkpt>
<trkpt lat="46.475121" lon="7.016489"><ele></ele><time>2014-4-4T18:4:38Z</time></trkpt>
<trkpt lat="46.475121" lon="7.016489"><ele></ele><time>2014-4-4T18:4:41Z</time></trkpt>
<trkpt lat="46.475121" lon="7.016487"><ele></ele><time>2014-4-4T18:4:44Z</time></trkpt>
<trkpt lat="46.475121" lon="7.016485"><ele></ele><time>2014-4-4T18:4:47Z</time></trkpt>
<trkpt lat="46.475121" lon="7.016485"><ele></ele><time>2014-4-4T18:4:50Z</time></trkpt>
<trkpt lat="46.475121" lon="7.016484"><ele></ele><time>2014-4-4T18:4:53Z</time></trkpt>
<trkpt lat="46.475121" lon="7.016484"><ele></ele><time>2014-4-4T18:4:56Z</time></trkpt>
<trkpt lat="46.475121" lon="7.016484"><ele></ele><time>2014-4-4T18:4:59Z</time></trkpt>
<trkpt lat="46.475121" lon="7.016484"><ele></ele><time>2014-4-4T18:5:2Z</time></trkpt>
<trkpt lat="46.475121" lon="7.016484"><ele></ele><time>2014-4-4T18:5:5Z</time></trkpt>
<trkpt lat="46.475121" lon="7.016484"><ele></ele><time>2014-4-4T18:5:8Z</time></trkpt>
<trkpt lat="46.475121" lon="7.016484"><ele></ele><time>2014-4-4T18:5:11Z</time></trkpt>
<trkpt lat="46.475121" lon="7.016484"><ele></ele><time>2014-4-4T18:5:14Z</time></trkpt>
<trkpt lat="46.475121" lon="7.016484"><ele></ele><time>2014-4-4T18:5:17Z</time></trkpt>
<trkpt lat="46.475121" lon="7.016484"><ele></ele><time>2014-4-4T18:5:20Z</time></trkpt>
<trkpt lat="46.475121" lon="7.016485"><ele></ele><time>2014-4-4T18:5:23Z</time></trkpt>
<trkpt lat="46.475121" lon="7.016486"><ele></ele><time>2014-4-4T18:5:26Z</time></trkpt>
<trkpt lat="46.475121" lon="7.016486"><ele></ele><time>2014-4-4T18:5:29Z</time></trkpt>
<trkpt lat="46.475121" lon="7.016486"><ele></ele><time>2014-4-4T18:5:32Z</time></trkpt>
<trkpt lat="46.475109" lon="7.016505"><ele></ele><time>2014-4-4T18:5:35Z</time></trkpt>
<trkpt lat="46.475040" lon="7.016457"><ele></ele><time>2014-4-4T18:5:38Z</time></trkpt>
<trkpt lat="46.474907" lon="7.016296"><ele></ele><time>2014-4-4T18:5:41Z</time></trkpt>
<trkpt lat="46.474854" lon="7.016171"><ele></ele><time>2014-4-4T18:5:44Z</time></trkpt>
<trkpt lat="46.474796" lon="7.016145"><ele></ele><time>2014-4-4T18:5:47Z</time></trkpt>
<trkpt lat="46.474781" lon="7.016268"><ele></ele><time>2014-4-4T18:5:50Z</time></trkpt>
<trkpt lat="46.474808" lon="7.016460"><ele></ele><time>2014-4-4T18:5:53Z</time></trkpt>
<trkpt lat="46.474934" lon="7.016621"><ele></ele><time>2014-4-4T18:5:56Z</time></trkpt>
<trkpt lat="46.474903" lon="7.016841"><ele></ele><time>2014-4-4T18:5:59Z</time></trkpt>
<trkpt lat="46.474884" lon="7.017075"><ele></ele><time>2014-4-4T18:6:2Z</time></trkpt>
<trkpt lat="46.474846" lon="7.017211"><ele></ele><time>2014-4-4T18:6:5Z</time></trkpt>
<trkpt lat="46.474823" lon="7.017286"><ele></ele><time>2014-4-4T18:6:8Z</time></trkpt>
<trkpt lat="46.474781" lon="7.017367"><ele></ele><time>2014-4-4T18:6:11Z</time></trkpt>
<trkpt lat="46.474770" lon="7.017440"><ele></ele><time>2014-4-4T18:6:14Z</time></trkpt>
<trkpt lat="46.474716" lon="7.017616"><ele></ele><time>2014-4-4T18:6:17Z</time></trkpt>
<trkpt lat="46.474697" lon="7.017650"><ele></ele><time>2014-4-4T18:6:20Z</time></trkpt>
<trkpt lat="46.474720" lon="7.017674"><ele></ele><time>2014-4-4T18:6:23Z</time></trkpt>
<trkpt lat="46.474773" lon="7.017686"><ele></ele><time>2014-4-4T18:6:26Z</time></trkpt>
<trkpt lat="46.474838" lon="7.017896"><ele></ele><time>2014-4-4T18:6:29Z</time></trkpt>
<trkpt lat="46.474884" lon="7.017992"><ele></ele><time>2014-4-4T18:6:32Z</time></trkpt>
<trkpt lat="46.474857" lon="7.018069"><ele></ele><time>2014-4-4T18:6:35Z</time></trkpt>
<trkpt lat="46.474892" lon="7.018120"><ele></ele><time>2014-4-4T18:6:38Z</time></trkpt>
<trkpt lat="46.474865" lon="7.018121"><ele></ele><time>2014-4-4T18:6:41Z</time></trkpt>
<trkpt lat="46.474773" lon="7.018142"><ele></ele><time>2014-4-4T18:6:44Z</time></trkpt>
<trkpt lat="46.474770" lon="7.018143"><ele></ele><time>2014-4-4T18:6:47Z</time></trkpt>
<trkpt lat="46.474873" lon="7.018228"><ele></ele><time>2014-4-4T18:6:50Z</time></trkpt>
<trkpt lat="46.475231" lon="7.018270"><ele></ele><time>2014-4-4T18:6:53Z</time></trkpt>
<trkpt lat="46.475479" lon="7.018275"><ele></ele><time>2014-4-4T18:6:56Z</time></trkpt>
<trkpt lat="46.475727" lon="7.018285"><ele></ele><time>2014-4-4T18:6:59Z</time></trkpt>
<trkpt lat="46.475937" lon="7.018287"><ele></ele><time>2014-4-4T18:7:2Z</time></trkpt>
<trkpt lat="46.476261" lon="7.018372"><ele></ele><time>2014-4-4T18:7:5Z</time></trkpt>
<trkpt lat="46.476418" lon="7.018379"><ele></ele><time>2014-4-4T18:7:8Z</time></trkpt>
<trkpt lat="46.476578" lon="7.018336"><ele></ele><time>2014-4-4T18:7:11Z</time></trkpt>
<trkpt lat="46.476681" lon="7.018299"><ele></ele><time>2014-4-4T18:7:14Z</time></trkpt>
<trkpt lat="46.476742" lon="7.018384"><ele></ele><time>2014-4-4T18:7:17Z</time></trkpt>
<trkpt lat="46.476650" lon="7.018415"><ele></ele><time>2014-4-4T18:7:20Z</time></trkpt>
<trkpt lat="46.476574" lon="7.018471"><ele></ele><time>2014-4-4T18:7:23Z</time></trkpt>
<trkpt lat="46.476494" lon="7.018512"><ele></ele><time>2014-4-4T18:7:26Z</time></trkpt>
<trkpt lat="46.476406" lon="7.018529"><ele></ele><time>2014-4-4T18:7:29Z</time></trkpt>
<trkpt lat="46.476322" lon="7.018523"><ele></ele><time>2014-4-4T18:7:32Z</time></trkpt>
<trkpt lat="46.476238" lon="7.018536"><ele></ele><time>2014-4-4T18:7:35Z</time></trkpt>
<trkpt lat="46.476151" lon="7.018541"><ele></ele><time>2014-4-4T18:7:38Z</time></trkpt>
<trkpt lat="46.476070" lon="7.018537"><ele></ele><time>2014-4-4T18:7:41Z</time></trkpt>
<trkpt lat="46.475998" lon="7.018545"><ele></ele><time>2014-4-4T18:7:44Z</time></trkpt>
<trkpt lat="46.475933" lon="7.018595"><ele></ele><time>2014-4-4T18:7:47Z</time></trkpt>
<trkpt lat="46.475941" lon="7.018671"><ele></ele><time>2014-4-4T18:7:50Z</time></trkpt>
<trkpt lat="46.476017" lon="7.018689"><ele></ele><time>2014-4-4T18:7:53Z</time></trkpt>
<trkpt lat="46.476070" lon="7.018695"><ele></ele><time>2014-4-4T18:7:56Z</time></trkpt>
<trkpt lat="46.476109" lon="7.018699"><ele></ele><time>2014-4-4T18:7:59Z</time></trkpt>
<trkpt lat="46.476196" lon="7.018723"><ele></ele><time>2014-4-4T18:8:2Z</time></trkpt>
<trkpt lat="46.476265" lon="7.018737"><ele></ele><time>2014-4-4T18:8:5Z</time></trkpt>
<trkpt lat="46.476345" lon="7.018752"><ele></ele><time>2014-4-4T18:8:8Z</time></trkpt>
<trkpt lat="46.476425" lon="7.018767"><ele></ele><time>2014-4-4T18:8:11Z</time></trkpt>
<trkpt lat="46.476509" lon="7.018778"><ele></ele><time>2014-4-4T18:8:14Z</time></trkpt>
<trkpt lat="46.476593" lon="7.018773"><ele></ele><time>2014-4-4T18:8:17Z</time></trkpt>
<trkpt lat="46.476662" lon="7.018781"><ele></ele><time>2014-4-4T18:8:20Z</time></trkpt>
<trkpt lat="46.476738" lon="7.018769"><ele></ele><time>2014-4-4T18:8:23Z</time></trkpt>
<trkpt lat="46.476807" lon="7.018747"><ele></ele><time>2014-4-4T18:8:26Z</time></trkpt>
<trkpt lat="46.476906" lon="7.018763"><ele></ele><time>2014-4-4T18:8:29Z</time></trkpt>
<trkpt lat="46.476997" lon="7.018780"><ele></ele><time>2014-4-4T18:8:32Z</time></trkpt>
<trkpt lat="46.477077" lon="7.018806"><ele></ele><time>2014-4-4T18:8:35Z</time></trkpt>
<trkpt lat="46.477158" lon="7.018849"><ele></ele><time>2014-4-4T18:8:38Z</time></trkpt>
<trkpt lat="46.477226" lon="7.018888"><ele></ele><time>2014-4-4T18:8:41Z</time></trkpt>
<trkpt lat="46.477314" lon="7.018926"><ele></ele><time>2014-4-4T18:8:44Z</time></trkpt>
<trkpt lat="46.477402" lon="7.018976"><ele></ele><time>2014-4-4T18:8:47Z</time></trkpt>
<trkpt lat="46.477489" lon="7.019004"><ele></ele><time>2014-4-4T18:8:50Z</time></trkpt>
<trkpt lat="46.477562" lon="7.019071"><ele></ele><time>2014-4-4T18:8:53Z</time></trkpt>
<trkpt lat="46.477654" lon="7.019100"><ele></ele><time>2014-4-4T18:8:56Z</time></trkpt>
<trkpt lat="46.477745" lon="7.019119"><ele></ele><time>2014-4-4T18:8:59Z</time></trkpt>
<trkpt lat="46.477840" lon="7.019125"><ele></ele><time>2014-4-4T18:9:2Z</time></trkpt>
<trkpt lat="46.477905" lon="7.019116"><ele></ele><time>2014-4-4T18:9:5Z</time></trkpt>
<trkpt lat="46.478001" lon="7.019204"><ele></ele><time>2014-4-4T18:9:8Z</time></trkpt>
<trkpt lat="46.478149" lon="7.019308"><ele></ele><time>2014-4-4T18:9:11Z</time></trkpt>
<trkpt lat="46.478283" lon="7.019382"><ele></ele><time>2014-4-4T18:9:14Z</time></trkpt>
<trkpt lat="46.478394" lon="7.019458"><ele></ele><time>2014-4-4T18:9:17Z</time></trkpt>
<trkpt lat="46.478504" lon="7.019473"><ele></ele><time>2014-4-4T18:9:20Z</time></trkpt>
<trkpt lat="46.478600" lon="7.019467"><ele></ele><time>2014-4-4T18:9:23Z</time></trkpt>
<trkpt lat="46.478668" lon="7.019539"><ele></ele><time>2014-4-4T18:9:26Z</time></trkpt>
<trkpt lat="46.478764" lon="7.019547"><ele></ele><time>2014-4-4T18:9:29Z</time></trkpt>
<trkpt lat="46.478783" lon="7.019596"><ele></ele><time>2014-4-4T18:9:32Z</time></trkpt>
<trkpt lat="46.478905" lon="7.019604"><ele></ele><time>2014-4-4T18:9:35Z</time></trkpt>
<trkpt lat="46.479034" lon="7.019623"><ele></ele><time>2014-4-4T18:9:38Z</time></trkpt>
<trkpt lat="46.479145" lon="7.019650"><ele></ele><time>2014-4-4T18:9:41Z</time></trkpt>
<trkpt lat="46.479267" lon="7.019686"><ele></ele><time>2014-4-4T18:9:44Z</time></trkpt>
<trkpt lat="46.479378" lon="7.019711"><ele></ele><time>2014-4-4T18:9:47Z</time></trkpt>
<trkpt lat="46.479446" lon="7.019718"><ele></ele><time>2014-4-4T18:9:50Z</time></trkpt>
<trkpt lat="46.479664" lon="7.019753"><ele></ele><time>2014-4-4T18:9:53Z</time></trkpt>
<trkpt lat="46.479771" lon="7.019801"><ele></ele><time>2014-4-4T18:9:56Z</time></trkpt>
<trkpt lat="46.479855" lon="7.019905"><ele></ele><time>2014-4-4T18:9:59Z</time></trkpt>
<trkpt lat="46.479847" lon="7.019985"><ele></ele><time>2014-4-4T18:10:2Z</time></trkpt>
<trkpt lat="46.479866" lon="7.020063"><ele></ele><time>2014-4-4T18:10:5Z</time></trkpt>
<trkpt lat="46.479912" lon="7.020099"><ele></ele><time>2014-4-4T18:10:8Z</time></trkpt>
<trkpt lat="46.479958" lon="7.020108"><ele></ele><time>2014-4-4T18:10:11Z</time></trkpt>
<trkpt lat="46.480007" lon="7.020133"><ele></ele><time>2014-4-4T18:10:14Z</time></trkpt>
<trkpt lat="46.480011" lon="7.020144"><ele></ele><time>2014-4-4T18:10:17Z</time></trkpt>
<trkpt lat="46.480064" lon="7.020202"><ele></ele><time>2014-4-4T18:10:20Z</time></trkpt>
<trkpt lat="46.480114" lon="7.020256"><ele></ele><time>2014-4-4T18:10:23Z</time></trkpt>
<trkpt lat="46.480198" lon="7.020325"><ele></ele><time>2014-4-4T18:10:26Z</time></trkpt>
<trkpt lat="46.480247" lon="7.020370"><ele></ele><time>2014-4-4T18:10:29Z</time></trkpt>
<trkpt lat="46.480297" lon="7.020432"><ele></ele><time>2014-4-4T18:10:32Z</time></trkpt>
<trkpt lat="46.480358" lon="7.020484"><ele></ele><time>2014-4-4T18:10:35Z</time></trkpt>
<trkpt lat="46.480427" lon="7.020539"><ele></ele><time>2014-4-4T18:10:38Z</time></trkpt>
<trkpt lat="46.480457" lon="7.020613"><ele></ele><time>2014-4-4T18:10:41Z</time></trkpt>
<trkpt lat="46.480545" lon="7.020620"><ele></ele><time>2014-4-4T18:10:44Z</time></trkpt>
<trkpt lat="46.480640" lon="7.020625"><ele></ele><time>2014-4-4T18:10:47Z</time></trkpt>
<trkpt lat="46.480694" lon="7.020666"><ele></ele><time>2014-4-4T18:10:50Z</time></trkpt>
<trkpt lat="46.480759" lon="7.020688"><ele></ele><time>2014-4-4T18:10:53Z</time></trkpt>
<trkpt lat="46.480804" lon="7.020714"><ele></ele><time>2014-4-4T18:10:56Z</time></trkpt>
<trkpt lat="46.480858" lon="7.020759"><ele></ele><time>2014-4-4T18:10:59Z</time></trkpt>
<trkpt lat="46.480911" lon="7.020798"><ele></ele><time>2014-4-4T18:11:2Z</time></trkpt>
<trkpt lat="46.480972" lon="7.020832"><ele></ele><time>2014-4-4T18:11:5Z</time></trkpt>
<trkpt lat="46.481060" lon="7.020854"><ele></ele><time>2014-4-4T18:11:8Z</time></trkpt>
<trkpt lat="46.481110" lon="7.020875"><ele></ele><time>2014-4-4T18:11:11Z</time></trkpt>
<trkpt lat="46.481167" lon="7.020930"><ele></ele><time>2014-4-4T18:11:14Z</time></trkpt>
<trkpt lat="46.481285" lon="7.020966"><ele></ele><time>2014-4-4T18:11:17Z</time></trkpt>
<trkpt lat="46.481365" lon="7.020969"><ele></ele><time>2014-4-4T18:11:20Z</time></trkpt>
<trkpt lat="46.481407" lon="7.021012"><ele></ele><time>2014-4-4T18:11:23Z</time></trkpt>
<trkpt lat="46.481419" lon="7.021059"><ele></ele><time>2014-4-4T18:11:26Z</time></trkpt>
<trkpt lat="46.481468" lon="7.021105"><ele></ele><time>2014-4-4T18:11:29Z</time></trkpt>
<trkpt lat="46.481522" lon="7.021165"><ele></ele><time>2014-4-4T18:11:32Z</time></trkpt>
<trkpt lat="46.481598" lon="7.021201"><ele></ele><time>2014-4-4T18:11:35Z</time></trkpt>
<trkpt lat="46.481667" lon="7.021245"><ele></ele><time>2014-4-4T18:11:38Z</time></trkpt>
<trkpt lat="46.481640" lon="7.021229"><ele></ele><time>2014-4-4T18:11:41Z</time></trkpt>
<trkpt lat="46.481674" lon="7.021221"><ele></ele><time>2014-4-4T18:11:44Z</time></trkpt>
<trkpt lat="46.481712" lon="7.021234"><ele></ele><time>2014-4-4T18:11:47Z</time></trkpt>
<trkpt lat="46.481728" lon="7.021267"><ele></ele><time>2014-4-4T18:11:50Z</time></trkpt>
<trkpt lat="46.481731" lon="7.021255"><ele></ele><time>2014-4-4T18:11:53Z</time></trkpt>
<trkpt lat="46.481731" lon="7.021257"><ele></ele><time>2014-4-4T18:11:56Z</time></trkpt>
<trkpt lat="46.481735" lon="7.021260"><ele></ele><time>2014-4-4T18:11:59Z</time></trkpt>
<trkpt lat="46.481735" lon="7.021263"><ele></ele><time>2014-4-4T18:12:2Z</time></trkpt>
<trkpt lat="46.481735" lon="7.021267"><ele></ele><time>2014-4-4T18:12:5Z</time></trkpt>
<trkpt lat="46.481739" lon="7.021272"><ele></ele><time>2014-4-4T18:12:8Z</time></trkpt>
<trkpt lat="46.481739" lon="7.021276"><ele></ele><time>2014-4-4T18:12:11Z</time></trkpt>
<trkpt lat="46.481739" lon="7.021281"><ele></ele><time>2014-4-4T18:12:14Z</time></trkpt>
<trkpt lat="46.481743" lon="7.021285"><ele></ele><time>2014-4-4T18:12:17Z</time></trkpt>
<trkpt lat="46.481743" lon="7.021289"><ele></ele><time>2014-4-4T18:12:20Z</time></trkpt>
<trkpt lat="46.481743" lon="7.021293"><ele></ele><time>2014-4-4T18:12:23Z</time></trkpt>
<trkpt lat="46.481747" lon="7.021297"><ele></ele><time>2014-4-4T18:12:26Z</time></trkpt>
<trkpt lat="46.481747" lon="7.021300"><ele></ele><time>2014-4-4T18:12:29Z</time></trkpt>
<trkpt lat="46.481747" lon="7.021304"><ele></ele><time>2014-4-4T18:12:32Z</time></trkpt>
<trkpt lat="46.481747" lon="7.021308"><ele></ele><time>2014-4-4T18:12:35Z</time></trkpt>
<trkpt lat="46.481750" lon="7.021313"><ele></ele><time>2014-4-4T18:12:38Z</time></trkpt>
<trkpt lat="46.481750" lon="7.021316"><ele></ele><time>2014-4-4T18:12:41Z</time></trkpt>
<trkpt lat="46.481754" lon="7.021319"><ele></ele><time>2014-4-4T18:12:44Z</time></trkpt>
<trkpt lat="46.481754" lon="7.021324"><ele></ele><time>2014-4-4T18:12:47Z</time></trkpt>
<trkpt lat="46.481754" lon="7.021327"><ele></ele><time>2014-4-4T18:12:50Z</time></trkpt>
<trkpt lat="46.481754" lon="7.021330"><ele></ele><time>2014-4-4T18:12:53Z</time></trkpt>
<trkpt lat="46.481758" lon="7.021312"><ele></ele><time>2014-4-4T18:12:56Z</time></trkpt>
<trkpt lat="46.481777" lon="7.021300"><ele></ele><time>2014-4-4T18:12:59Z</time></trkpt>
<trkpt lat="46.481777" lon="7.021301"><ele></ele><time>2014-4-4T18:13:2Z</time></trkpt>
<trkpt lat="46.481777" lon="7.021301"><ele></ele><time>2014-4-4T18:13:5Z</time></trkpt>
<trkpt lat="46.481777" lon="7.021304"><ele></ele><time>2014-4-4T18:13:8Z</time></trkpt>
<trkpt lat="46.481773" lon="7.021303"><ele></ele><time>2014-4-4T18:13:11Z</time></trkpt>
<trkpt lat="46.481777" lon="7.021310"><ele></ele><time>2014-4-4T18:13:14Z</time></trkpt>
<trkpt lat="46.481789" lon="7.021321"><ele></ele><time>2014-4-4T18:13:17Z</time></trkpt>
<trkpt lat="46.481831" lon="7.021335"><ele></ele><time>2014-4-4T18:13:20Z</time></trkpt>
<trkpt lat="46.481861" lon="7.021354"><ele></ele><time>2014-4-4T18:13:23Z</time></trkpt>
<trkpt lat="46.481907" lon="7.021396"><ele></ele><time>2014-4-4T18:13:26Z</time></trkpt>
<trkpt lat="46.481976" lon="7.021454"><ele></ele><time>2014-4-4T18:13:29Z</time></trkpt>
<trkpt lat="46.482002" lon="7.021519"><ele></ele><time>2014-4-4T18:13:32Z</time></trkpt>
<trkpt lat="46.482079" lon="7.021563"><ele></ele><time>2014-4-4T18:13:35Z</time></trkpt>
<trkpt lat="46.482128" lon="7.021590"><ele></ele><time>2014-4-4T18:13:38Z</time></trkpt>
<trkpt lat="46.482185" lon="7.021635"><ele></ele><time>2014-4-4T18:13:41Z</time></trkpt>
<trkpt lat="46.482296" lon="7.021662"><ele></ele><time>2014-4-4T18:13:44Z</time></trkpt>
<trkpt lat="46.482349" lon="7.021707"><ele></ele><time>2014-4-4T18:13:47Z</time></trkpt>
<trkpt lat="46.482426" lon="7.021755"><ele></ele><time>2014-4-4T18:13:50Z</time></trkpt>
<trkpt lat="46.482487" lon="7.021767"><ele></ele><time>2014-4-4T18:13:53Z</time></trkpt>
<trkpt lat="46.482555" lon="7.021785"><ele></ele><time>2014-4-4T18:13:56Z</time></trkpt>
<trkpt lat="46.482643" lon="7.021823"><ele></ele><time>2014-4-4T18:13:59Z</time></trkpt>
<trkpt lat="46.482750" lon="7.021911"><ele></ele><time>2014-4-4T18:14:2Z</time></trkpt>
<trkpt lat="46.482811" lon="7.021966"><ele></ele><time>2014-4-4T18:14:5Z</time></trkpt>
<trkpt lat="46.482910" lon="7.021968"><ele></ele><time>2014-4-4T18:14:8Z</time></trkpt>
<trkpt lat="46.482990" lon="7.022051"><ele></ele><time>2014-4-4T18:14:11Z</time></trkpt>
<trkpt lat="46.483105" lon="7.022169"><ele></ele><time>2014-4-4T18:14:14Z</time></trkpt>
<trkpt lat="46.483215" lon="7.022279"><ele></ele><time>2014-4-4T18:14:17Z</time></trkpt>
<trkpt lat="46.483280" lon="7.022314"><ele></ele><time>2014-4-4T18:14:20Z</time></trkpt>
<trkpt lat="46.483383" lon="7.022382"><ele></ele><time>2014-4-4T18:14:23Z</time></trkpt>
<trkpt lat="46.483475" lon="7.022524"><ele></ele><time>2014-4-4T18:14:26Z</time></trkpt>
<trkpt lat="46.483528" lon="7.022665"><ele></ele><time>2014-4-4T18:14:29Z</time></trkpt>
<trkpt lat="46.483570" lon="7.022849"><ele></ele><time>2014-4-4T18:14:32Z</time></trkpt>
<trkpt lat="46.483601" lon="7.023016"><ele></ele><time>2014-4-4T18:14:35Z</time></trkpt>
<trkpt lat="46.483650" lon="7.023188"><ele></ele><time>2014-4-4T18:14:38Z</time></trkpt>
<trkpt lat="46.483719" lon="7.023376"><ele></ele><time>2014-4-4T18:14:41Z</time></trkpt>
<trkpt lat="46.483795" lon="7.023575"><ele></ele><time>2014-4-4T18:14:44Z</time></trkpt>
<trkpt lat="46.483826" lon="7.023723"><ele></ele><time>2014-4-4T18:14:47Z</time></trkpt>
<trkpt lat="46.483891" lon="7.023858"><ele></ele><time>2014-4-4T18:14:50Z</time></trkpt>
<trkpt lat="46.483906" lon="7.024096"><ele></ele><time>2014-4-4T18:14:53Z</time></trkpt>
<trkpt lat="46.483967" lon="7.024511"><ele></ele><time>2014-4-4T18:14:56Z</time></trkpt>
<trkpt lat="46.484077" lon="7.024838"><ele></ele><time>2014-4-4T18:14:59Z</time></trkpt>
<trkpt lat="46.484276" lon="7.025043"><ele></ele><time>2014-4-4T18:15:2Z</time></trkpt>
<trkpt lat="46.484470" lon="7.025176"><ele></ele><time>2014-4-4T18:15:5Z</time></trkpt>
<trkpt lat="46.484570" lon="7.025256"><ele></ele><time>2014-4-4T18:15:8Z</time></trkpt>
<trkpt lat="46.484627" lon="7.025401"><ele></ele><time>2014-4-4T18:15:11Z</time></trkpt>
<trkpt lat="46.484612" lon="7.025656"><ele></ele><time>2014-4-4T18:15:14Z</time></trkpt>
<trkpt lat="46.484550" lon="7.025939"><ele></ele><time>2014-4-4T18:15:17Z</time></trkpt>
<trkpt lat="46.484516" lon="7.026141"><ele></ele><time>2014-4-4T18:15:20Z</time></trkpt>
<trkpt lat="46.484550" lon="7.026356"><ele></ele><time>2014-4-4T18:15:23Z</time></trkpt>
<trkpt lat="46.484554" lon="7.026638"><ele></ele><time>2014-4-4T18:15:26Z</time></trkpt>
<trkpt lat="46.484596" lon="7.026908"><ele></ele><time>2014-4-4T18:15:29Z</time></trkpt>
<trkpt lat="46.484642" lon="7.027314"><ele></ele><time>2014-4-4T18:15:32Z</time></trkpt>
<trkpt lat="46.484676" lon="7.027755"><ele></ele><time>2014-4-4T18:15:35Z</time></trkpt>
<trkpt lat="46.484684" lon="7.027962"><ele></ele><time>2014-4-4T18:15:38Z</time></trkpt>
<trkpt lat="46.484756" lon="7.028107"><ele></ele><time>2014-4-4T18:15:41Z</time></trkpt>
<trkpt lat="46.484840" lon="7.028233"><ele></ele><time>2014-4-4T18:15:44Z</time></trkpt>
<trkpt lat="46.484871" lon="7.028304"><ele></ele><time>2014-4-4T18:15:47Z</time></trkpt>
<trkpt lat="46.484875" lon="7.028304"><ele></ele><time>2014-4-4T18:15:50Z</time></trkpt>
<trkpt lat="46.484875" lon="7.028264"><ele></ele><time>2014-4-4T18:15:53Z</time></trkpt>
<trkpt lat="46.484867" lon="7.028257"><ele></ele><time>2014-4-4T18:15:56Z</time></trkpt>
<trkpt lat="46.484867" lon="7.028258"><ele></ele><time>2014-4-4T18:15:59Z</time></trkpt>
<trkpt lat="46.484863" lon="7.028260"><ele></ele><time>2014-4-4T18:16:2Z</time></trkpt>
<trkpt lat="46.484863" lon="7.028261"><ele></ele><time>2014-4-4T18:16:5Z</time></trkpt>
<trkpt lat="46.484863" lon="7.028261"><ele></ele><time>2014-4-4T18:16:8Z</time></trkpt>
<trkpt lat="46.484863" lon="7.028261"><ele></ele><time>2014-4-4T18:16:11Z</time></trkpt>
<trkpt lat="46.484863" lon="7.028261"><ele></ele><time>2014-4-4T18:16:14Z</time></trkpt>
<trkpt lat="46.484863" lon="7.028261"><ele></ele><time>2014-4-4T18:16:17Z</time></trkpt>
<trkpt lat="46.484863" lon="7.028261"><ele></ele><time>2014-4-4T18:16:20Z</time></trkpt>
<trkpt lat="46.484863" lon="7.028262"><ele></ele><time>2014-4-4T18:16:23Z</time></trkpt>
<trkpt lat="46.484863" lon="7.028262"><ele></ele><time>2014-4-4T18:16:26Z</time></trkpt>
<trkpt lat="46.484863" lon="7.028262"><ele></ele><time>2014-4-4T18:16:29Z</time></trkpt>
<trkpt lat="46.484863" lon="7.028262"><ele></ele><time>2014-4-4T18:16:32Z</time></trkpt>
<trkpt lat="46.484863" lon="7.028262"><ele></ele><time>2014-4-4T18:16:35Z</time></trkpt>
<trkpt lat="46.484863" lon="7.028262"><ele></ele><time>2014-4-4T18:16:38Z</time></trkpt>
<trkpt lat="46.484863" lon="7.028263"><ele></ele><time>2014-4-4T18:16:41Z</time></trkpt>
<trkpt lat="46.484863" lon="7.028262"><ele></ele><time>2014-4-4T18:16:44Z</time></trkpt>
<trkpt lat="46.484863" lon="7.028262"><ele></ele><time>2014-4-4T18:16:47Z</time></trkpt>
<trkpt lat="46.484863" lon="7.028262"><ele></ele><time>2014-4-4T18:16:50Z</time></trkpt>
<trkpt lat="46.484863" lon="7.028262"><ele></ele><time>2014-4-4T18:16:53Z</time></trkpt>
<trkpt lat="46.484863" lon="7.028263"><ele></ele><time>2014-4-4T18:16:56Z</time></trkpt>
<trkpt lat="46.484863" lon="7.028264"><ele></ele><time>2014-4-4T18:16:59Z</time></trkpt>
<trkpt lat="46.484863" lon="7.028264"><ele></ele><time>2014-4-4T18:17:2Z</time></trkpt>
<trkpt lat="46.484863" lon="7.028264"><ele></ele><time>2014-4-4T18:17:5Z</time></trkpt>
<trkpt lat="46.484863" lon="7.028264"><ele></ele><time>2014-4-4T18:17:8Z</time></trkpt>
<trkpt lat="46.484863" lon="7.028265"><ele></ele><time>2014-4-4T18:17:11Z</time></trkpt>
<trkpt lat="46.484863" lon="7.028265"><ele></ele><time>2014-4-4T18:17:14Z</time></trkpt>
<trkpt lat="46.484863" lon="7.028265"><ele></ele><time>2014-4-4T18:17:17Z</time></trkpt>
<trkpt lat="46.484863" lon="7.028265"><ele></ele><time>2014-4-4T18:17:20Z</time></trkpt>
<trkpt lat="46.484863" lon="7.028265"><ele></ele><time>2014-4-4T18:17:23Z</time></trkpt>
<trkpt lat="46.484863" lon="7.028265"><ele></ele><time>2014-4-4T18:17:26Z</time></trkpt>
<trkpt lat="46.484863" lon="7.028265"><ele></ele><time>2014-4-4T18:17:29Z</time></trkpt>
<trkpt lat="46.484863" lon="7.028265"><ele></ele><time>2014-4-4T18:17:32Z</time></trkpt>
<trkpt lat="46.484863" lon="7.028266"><ele></ele><time>2014-4-4T18:17:35Z</time></trkpt>
<trkpt lat="46.484863" lon="7.028265"><ele></ele><time>2014-4-4T18:17:38Z</time></trkpt>
<trkpt lat="46.484863" lon="7.028265"><ele></ele><time>2014-4-4T18:17:41Z</time></trkpt>
<trkpt lat="46.484863" lon="7.028265"><ele></ele><time>2014-4-4T18:17:44Z</time></trkpt>
<trkpt lat="46.484863" lon="7.028265"><ele></ele><time>2014-4-4T18:17:47Z</time></trkpt>
<trkpt lat="46.484863" lon="7.028266"><ele></ele><time>2014-4-4T18:17:50Z</time></trkpt>
<trkpt lat="46.484863" lon="7.028266"><ele></ele><time>2014-4-4T18:17:53Z</time></trkpt>
<trkpt lat="46.484863" lon="7.028266"><ele></ele><time>2014-4-4T18:17:56Z</time></trkpt>
<trkpt lat="46.484863" lon="7.028266"><ele></ele><time>2014-4-4T18:17:59Z</time></trkpt>
<trkpt lat="46.484863" lon="7.028266"><ele></ele><time>2014-4-4T18:18:2Z</time></trkpt>
<trkpt lat="46.484863" lon="7.028266"><ele></ele><time>2014-4-4T18:18:5Z</time></trkpt>
<trkpt lat="46.484863" lon="7.028266"><ele></ele><time>2014-4-4T18:18:8Z</time></trkpt>
<trkpt lat="46.484863" lon="7.028266"><ele></ele><time>2014-4-4T18:18:11Z</time></trkpt>
<trkpt lat="46.484859" lon="7.028266"><ele></ele><time>2014-4-4T18:18:14Z</time></trkpt>
<trkpt lat="46.484859" lon="7.028265"><ele></ele><time>2014-4-4T18:18:17Z</time></trkpt>
<trkpt lat="46.484859" lon="7.028265"><ele></ele><time>2014-4-4T18:18:20Z</time></trkpt>
<trkpt lat="46.484859" lon="7.028265"><ele></ele><time>2014-4-4T18:18:23Z</time></trkpt>
<trkpt lat="46.484859" lon="7.028265"><ele></ele><time>2014-4-4T18:18:26Z</time></trkpt>
<trkpt lat="46.484859" lon="7.028265"><ele></ele><time>2014-4-4T18:18:29Z</time></trkpt>
<trkpt lat="46.484859" lon="7.028265"><ele></ele><time>2014-4-4T18:18:32Z</time></trkpt>
<trkpt lat="46.484859" lon="7.028265"><ele></ele><time>2014-4-4T18:18:35Z</time></trkpt>
<trkpt lat="46.484859" lon="7.028265"><ele></ele><time>2014-4-4T18:18:38Z</time></trkpt>
<trkpt lat="46.484859" lon="7.028265"><ele></ele><time>2014-4-4T18:18:41Z</time></trkpt>
<trkpt lat="46.484859" lon="7.028265"><ele></ele><time>2014-4-4T18:18:44Z</time></trkpt>
<trkpt lat="46.484859" lon="7.028266"><ele></ele><time>2014-4-4T18:18:47Z</time></trkpt>
<trkpt lat="46.484859" lon="7.028266"><ele></ele><time>2014-4-4T18:18:50Z</time></trkpt>
<trkpt lat="46.484859" lon="7.028266"><ele></ele><time>2014-4-4T18:18:53Z</time></trkpt>
<trkpt lat="46.484859" lon="7.028266"><ele></ele><time>2014-4-4T18:18:56Z</time></trkpt>
<trkpt lat="46.484859" lon="7.028266"><ele></ele><time>2014-4-4T18:18:59Z</time></trkpt>
<trkpt lat="46.484859" lon="7.028266"><ele></ele><time>2014-4-4T18:19:2Z</time></trkpt>
<trkpt lat="46.484859" lon="7.028266"><ele></ele><time>2014-4-4T18:19:5Z</time></trkpt>
<trkpt lat="46.484859" lon="7.028267"><ele></ele><time>2014-4-4T18:19:8Z</time></trkpt>
<trkpt lat="46.484859" lon="7.028267"><ele></ele><time>2014-4-4T18:19:11Z</time></trkpt>
<trkpt lat="46.484859" lon="7.028267"><ele></ele><time>2014-4-4T18:19:14Z</time></trkpt>
<trkpt lat="46.484859" lon="7.028267"><ele></ele><time>2014-4-4T18:19:17Z</time></trkpt>
<trkpt lat="46.484859" lon="7.028268"><ele></ele><time>2014-4-4T18:19:20Z</time></trkpt>
<trkpt lat="46.484859" lon="7.028268"><ele></ele><time>2014-4-4T18:19:23Z</time></trkpt>
<trkpt lat="46.484859" lon="7.028268"><ele></ele><time>2014-4-4T18:19:26Z</time></trkpt>
<trkpt lat="46.484859" lon="7.028268"><ele></ele><time>2014-4-4T18:19:29Z</time></trkpt>
<trkpt lat="46.484859" lon="7.028269"><ele></ele><time>2014-4-4T18:19:32Z</time></trkpt>
<trkpt lat="46.484859" lon="7.028269"><ele></ele><time>2014-4-4T18:19:35Z</time></trkpt>
<trkpt lat="46.484859" lon="7.028270"><ele></ele><time>2014-4-4T18:19:38Z</time></trkpt>
<trkpt lat="46.484859" lon="7.028270"><ele></ele><time>2014-4-4T18:19:41Z</time></trkpt>
<trkpt lat="46.484859" lon="7.028270"><ele></ele><time>2014-4-4T18:19:44Z</time></trkpt>
<trkpt lat="46.484859" lon="7.028270"><ele></ele><time>2014-4-4T18:19:47Z</time></trkpt>
<trkpt lat="46.484859" lon="7.028270"><ele></ele><time>2014-4-4T18:19:50Z</time></trkpt>
<trkpt lat="46.484859" lon="7.028270"><ele></ele><time>2014-4-4T18:19:53Z</time></trkpt>
<trkpt lat="46.484859" lon="7.028270"><ele></ele><time>2014-4-4T18:19:56Z</time></trkpt>
<trkpt lat="46.484859" lon="7.028270"><ele></ele><time>2014-4-4T18:19:59Z</time></trkpt>
<trkpt lat="46.484859" lon="7.028270"><ele></ele><time>2014-4-4T18:20:2Z</time></trkpt>
<trkpt lat="46.484859" lon="7.028270"><ele></ele><time>2014-4-4T18:20:5Z</time></trkpt>
<trkpt lat="46.484859" lon="7.028270"><ele></ele><time>2014-4-4T18:20:8Z</time></trkpt>
<trkpt lat="46.484859" lon="7.028270"><ele></ele><time>2014-4-4T18:20:11Z</time></trkpt>
<trkpt lat="46.484859" lon="7.028271"><ele></ele><time>2014-4-4T18:20:14Z</time></trkpt>
<trkpt lat="46.484859" lon="7.028271"><ele></ele><time>2014-4-4T18:20:17Z</time></trkpt>
<trkpt lat="46.484859" lon="7.028271"><ele></ele><time>2014-4-4T18:20:20Z</time></trkpt>
<trkpt lat="46.484859" lon="7.028271"><ele></ele><time>2014-4-4T18:20:23Z</time></trkpt>
<trkpt lat="46.484859" lon="7.028271"><ele></ele><time>2014-4-4T18:20:26Z</time></trkpt>
<trkpt lat="46.484859" lon="7.028271"><ele></ele><time>2014-4-4T18:20:29Z</time></trkpt>
<trkpt lat="46.484859" lon="7.028271"><ele></ele><time>2014-4-4T18:20:32Z</time></trkpt>
<trkpt lat="46.484859" lon="7.028271"><ele></ele><time>2014-4-4T18:20:35Z</time></trkpt>
<trkpt lat="46.484859" lon="7.028270"><ele></ele><time>2014-4-4T18:20:38Z</time></trkpt>
<trkpt lat="46.484859" lon="7.028271"><ele></ele><time>2014-4-4T18:20:41Z</time></trkpt>
<trkpt lat="46.484859" lon="7.028271"><ele></ele><time>2014-4-4T18:20:44Z</time></trkpt>
<trkpt lat="46.484859" lon="7.028271"><ele></ele><time>2014-4-4T18:20:47Z</time></trkpt>
<trkpt lat="46.484859" lon="7.028271"><ele></ele><time>2014-4-4T18:20:50Z</time></trkpt>
<trkpt lat="46.484859" lon="7.028272"><ele></ele><time>2014-4-4T18:20:53Z</time></trkpt>
<trkpt lat="46.484859" lon="7.028272"><ele></ele><time>2014-4-4T18:20:56Z</time></trkpt>
<trkpt lat="46.484859" lon="7.028272"><ele></ele><time>2014-4-4T18:20:59Z</time></trkpt>
<trkpt lat="46.484859" lon="7.028272"><ele></ele><time>2014-4-4T18:21:2Z</time></trkpt>
<trkpt lat="46.484859" lon="7.028273"><ele></ele><time>2014-4-4T18:21:5Z</time></trkpt>
<trkpt lat="46.484859" lon="7.028273"><ele></ele><time>2014-4-4T18:21:8Z</time></trkpt>
<trkpt lat="46.484856" lon="7.028274"><ele></ele><time>2014-4-4T18:21:11Z</time></trkpt>
<trkpt lat="46.484856" lon="7.028274"><ele></ele><time>2014-4-4T18:21:14Z</time></trkpt>
<trkpt lat="46.484856" lon="7.028275"><ele></ele><time>2014-4-4T18:21:17Z</time></trkpt>
<trkpt lat="46.484856" lon="7.028275"><ele></ele><time>2014-4-4T18:21:20Z</time></trkpt>
<trkpt lat="46.484856" lon="7.028275"><ele></ele><time>2014-4-4T18:21:23Z</time></trkpt>
<trkpt lat="46.484859" lon="7.028276"><ele></ele><time>2014-4-4T18:21:26Z</time></trkpt>
<trkpt lat="46.484859" lon="7.028277"><ele></ele><time>2014-4-4T18:21:29Z</time></trkpt>
<trkpt lat="46.484859" lon="7.028276"><ele></ele><time>2014-4-4T18:21:32Z</time></trkpt>
<trkpt lat="46.484859" lon="7.028276"><ele></ele><time>2014-4-4T18:21:35Z</time></trkpt>
<trkpt lat="46.484859" lon="7.028276"><ele></ele><time>2014-4-4T18:21:38Z</time></trkpt>
<trkpt lat="46.484859" lon="7.028275"><ele></ele><time>2014-4-4T18:21:41Z</time></trkpt>
<trkpt lat="46.484859" lon="7.028275"><ele></ele><time>2014-4-4T18:21:44Z</time></trkpt>
<trkpt lat="46.484859" lon="7.028274"><ele></ele><time>2014-4-4T18:21:47Z</time></trkpt>
<trkpt lat="46.484859" lon="7.028274"><ele></ele><time>2014-4-4T18:21:50Z</time></trkpt>
<trkpt lat="46.484859" lon="7.028273"><ele></ele><time>2014-4-4T18:21:53Z</time></trkpt>
<trkpt lat="46.484859" lon="7.028273"><ele></ele><time>2014-4-4T18:21:56Z</time></trkpt>
<trkpt lat="46.484859" lon="7.028273"><ele></ele><time>2014-4-4T18:21:59Z</time></trkpt>
<trkpt lat="46.484859" lon="7.028273"><ele></ele><time>2014-4-4T18:22:2Z</time></trkpt>
<trkpt lat="46.484859" lon="7.028272"><ele></ele><time>2014-4-4T18:22:5Z</time></trkpt>
<trkpt lat="46.484859" lon="7.028272"><ele></ele><time>2014-4-4T18:22:8Z</time></trkpt>
<trkpt lat="46.484859" lon="7.028273"><ele></ele><time>2014-4-4T18:22:11Z</time></trkpt>
<trkpt lat="46.484859" lon="7.028272"><ele></ele><time>2014-4-4T18:22:14Z</time></trkpt>
<trkpt lat="46.484859" lon="7.028272"><ele></ele><time>2014-4-4T18:22:17Z</time></trkpt>
<trkpt lat="46.484859" lon="7.028272"><ele></ele><time>2014-4-4T18:22:20Z</time></trkpt>
<trkpt lat="46.484859" lon="7.028272"><ele></ele><time>2014-4-4T18:22:23Z</time></trkpt>
<trkpt lat="46.484859" lon="7.028272"><ele></ele><time>2014-4-4T18:22:26Z</time></trkpt>
<trkpt lat="46.484859" lon="7.028272"><ele></ele><time>2014-4-4T18:22:29Z</time></trkpt>
<trkpt lat="46.484859" lon="7.028272"><ele></ele><time>2014-4-4T18:22:32Z</time></trkpt>
<trkpt lat="46.484859" lon="7.028272"><ele></ele><time>2014-4-4T18:22:35Z</time></trkpt>
<trkpt lat="46.484859" lon="7.028272"><ele></ele><time>2014-4-4T18:22:38Z</time></trkpt>
<trkpt lat="46.484859" lon="7.028272"><ele></ele><time>2014-4-4T18:22:41Z</time></trkpt>
<trkpt lat="46.484856" lon="7.028272"><ele></ele><time>2014-4-4T18:22:44Z</time></trkpt>
<trkpt lat="46.484856" lon="7.028273"><ele></ele><time>2014-4-4T18:22:47Z</time></trkpt>
<trkpt lat="46.484856" lon="7.028273"><ele></ele><time>2014-4-4T18:22:50Z</time></trkpt>
<trkpt lat="46.484856" lon="7.028273"><ele></ele><time>2014-4-4T18:22:53Z</time></trkpt>
<trkpt lat="46.484856" lon="7.028273"><ele></ele><time>2014-4-4T18:22:56Z</time></trkpt>
<trkpt lat="46.484856" lon="7.028273"><ele></ele><time>2014-4-4T18:22:59Z</time></trkpt>
<trkpt lat="46.484856" lon="7.028273"><ele></ele><time>2014-4-4T18:23:2Z</time></trkpt>
<trkpt lat="46.484856" lon="7.028273"><ele></ele><time>2014-4-4T18:23:5Z</time></trkpt>
<trkpt lat="46.484856" lon="7.028273"><ele></ele><time>2014-4-4T18:23:8Z</time></trkpt>
<trkpt lat="46.484856" lon="7.028272"><ele></ele><time>2014-4-4T18:23:11Z</time></trkpt>
<trkpt lat="46.484856" lon="7.028271"><ele></ele><time>2014-4-4T18:23:14Z</time></trkpt>
<trkpt lat="46.484856" lon="7.028271"><ele></ele><time>2014-4-4T18:23:17Z</time></trkpt>
<trkpt lat="46.484856" lon="7.028270"><ele></ele><time>2014-4-4T18:23:20Z</time></trkpt>
<trkpt lat="46.484856" lon="7.028270"><ele></ele><time>2014-4-4T18:23:23Z</time></trkpt>
<trkpt lat="46.484856" lon="7.028270"><ele></ele><time>2014-4-4T18:23:26Z</time></trkpt>
<trkpt lat="46.484852" lon="7.028271"><ele></ele><time>2014-4-4T18:23:29Z</time></trkpt>
<trkpt lat="46.484852" lon="7.028271"><ele></ele><time>2014-4-4T18:23:32Z</time></trkpt>
<trkpt lat="46.484852" lon="7.028272"><ele></ele><time>2014-4-4T18:23:35Z</time></trkpt>
<trkpt lat="46.484852" lon="7.028272"><ele></ele><time>2014-4-4T18:23:38Z</time></trkpt>
<trkpt lat="46.484852" lon="7.028272"><ele></ele><time>2014-4-4T18:23:41Z</time></trkpt>
<trkpt lat="46.484852" lon="7.028273"><ele></ele><time>2014-4-4T18:23:44Z</time></trkpt>
<trkpt lat="46.484852" lon="7.028272"><ele></ele><time>2014-4-4T18:23:47Z</time></trkpt>
<trkpt lat="46.484852" lon="7.028272"><ele></ele><time>2014-4-4T18:23:50Z</time></trkpt>
<trkpt lat="46.484852" lon="7.028271"><ele></ele><time>2014-4-4T18:23:53Z</time></trkpt>
<trkpt lat="46.484852" lon="7.028270"><ele></ele><time>2014-4-4T18:23:56Z</time></trkpt>
<trkpt lat="46.484852" lon="7.028270"><ele></ele><time>2014-4-4T18:23:59Z</time></trkpt>
<trkpt lat="46.484852" lon="7.028269"><ele></ele><time>2014-4-4T18:24:2Z</time></trkpt>
<trkpt lat="46.484852" lon="7.028269"><ele></ele><time>2014-4-4T18:24:5Z</time></trkpt>
<trkpt lat="46.484852" lon="7.028268"><ele></ele><time>2014-4-4T18:24:8Z</time></trkpt>
<trkpt lat="46.484852" lon="7.028268"><ele></ele><time>2014-4-4T18:24:11Z</time></trkpt>
<trkpt lat="46.484852" lon="7.028268"><ele></ele><time>2014-4-4T18:24:14Z</time></trkpt>
<trkpt lat="46.484852" lon="7.028269"><ele></ele><time>2014-4-4T18:24:17Z</time></trkpt>
<trkpt lat="46.484852" lon="7.028269"><ele></ele><time>2014-4-4T18:24:20Z</time></trkpt>
<trkpt lat="46.484852" lon="7.028268"><ele></ele><time>2014-4-4T18:24:23Z</time></trkpt>
<trkpt lat="46.484852" lon="7.028268"><ele></ele><time>2014-4-4T18:24:26Z</time></trkpt>
<trkpt lat="46.484852" lon="7.028268"><ele></ele><time>2014-4-4T18:24:29Z</time></trkpt>
<trkpt lat="46.484852" lon="7.028268"><ele></ele><time>2014-4-4T18:24:32Z</time></trkpt>
<trkpt lat="46.484852" lon="7.028268"><ele></ele><time>2014-4-4T18:24:35Z</time></trkpt>
<trkpt lat="46.484852" lon="7.028268"><ele></ele><time>2014-4-4T18:24:38Z</time></trkpt>
<trkpt lat="46.484852" lon="7.028268"><ele></ele><time>2014-4-4T18:24:41Z</time></trkpt>
<trkpt lat="46.484852" lon="7.028269"><ele></ele><time>2014-4-4T18:24:44Z</time></trkpt>
<trkpt lat="46.484852" lon="7.028269"><ele></ele><time>2014-4-4T18:24:47Z</time></trkpt>
<trkpt lat="46.484852" lon="7.028270"><ele></ele><time>2014-4-4T18:24:50Z</time></trkpt>
<trkpt lat="46.484852" lon="7.028271"><ele></ele><time>2014-4-4T18:24:53Z</time></trkpt>
<trkpt lat="46.484852" lon="7.028271"><ele></ele><time>2014-4-4T18:24:56Z</time></trkpt>
<trkpt lat="46.484852" lon="7.028271"><ele></ele><time>2014-4-4T18:24:59Z</time></trkpt>
<trkpt lat="46.484852" lon="7.028271"><ele></ele><time>2014-4-4T18:25:2Z</time></trkpt>
<trkpt lat="46.484852" lon="7.028270"><ele></ele><time>2014-4-4T18:25:5Z</time></trkpt>
<trkpt lat="46.484852" lon="7.028270"><ele></ele><time>2014-4-4T18:25:8Z</time></trkpt>
<trkpt lat="46.484852" lon="7.028269"><ele></ele><time>2014-4-4T18:25:11Z</time></trkpt>
<trkpt lat="46.484852" lon="7.028268"><ele></ele><time>2014-4-4T18:25:14Z</time></trkpt>
<trkpt lat="46.484852" lon="7.028267"><ele></ele><time>2014-4-4T18:25:17Z</time></trkpt>
<trkpt lat="46.484852" lon="7.028267"><ele></ele><time>2014-4-4T18:25:20Z</time></trkpt>
<trkpt lat="46.484852" lon="7.028267"><ele></ele><time>2014-4-4T18:25:23Z</time></trkpt>
<trkpt lat="46.484852" lon="7.028268"><ele></ele><time>2014-4-4T18:25:26Z</time></trkpt>
<trkpt lat="46.484852" lon="7.028268"><ele></ele><time>2014-4-4T18:25:29Z</time></trkpt>
<trkpt lat="46.484852" lon="7.028268"><ele></ele><time>2014-4-4T18:25:32Z</time></trkpt>
<trkpt lat="46.484852" lon="7.028269"><ele></ele><time>2014-4-4T18:25:35Z</time></trkpt>
<trkpt lat="46.484848" lon="7.028269"><ele></ele><time>2014-4-4T18:25:38Z</time></trkpt>
<trkpt lat="46.484848" lon="7.028269"><ele></ele><time>2014-4-4T18:25:41Z</time></trkpt>
<trkpt lat="46.484848" lon="7.028269"><ele></ele><time>2014-4-4T18:25:44Z</time></trkpt>
<trkpt lat="46.484848" lon="7.028269"><ele></ele><time>2014-4-4T18:25:47Z</time></trkpt>
<trkpt lat="46.484848" lon="7.028270"><ele></ele><time>2014-4-4T18:25:50Z</time></trkpt>
<trkpt lat="46.484852" lon="7.028269"><ele></ele><time>2014-4-4T18:25:53Z</time></trkpt>
<trkpt lat="46.484848" lon="7.028269"><ele></ele><time>2014-4-4T18:25:56Z</time></trkpt>
<trkpt lat="46.484848" lon="7.028269"><ele></ele><time>2014-4-4T18:25:59Z</time></trkpt>
<trkpt lat="46.484852" lon="7.028269"><ele></ele><time>2014-4-4T18:26:2Z</time></trkpt>
<trkpt lat="46.484852" lon="7.028268"><ele></ele><time>2014-4-4T18:26:5Z</time></trkpt>
<trkpt lat="46.484852" lon="7.028268"><ele></ele><time>2014-4-4T18:26:8Z</time></trkpt>
<trkpt lat="46.484852" lon="7.028291"><ele></ele><time>2014-4-4T18:26:11Z</time></trkpt>
<trkpt lat="46.484783" lon="7.028483"><ele></ele><time>2014-4-4T18:26:14Z</time></trkpt>
<trkpt lat="46.484657" lon="7.028608"><ele></ele><time>2014-4-4T18:26:17Z</time></trkpt>
<trkpt lat="46.484692" lon="7.028682"><ele></ele><time>2014-4-4T18:26:20Z</time></trkpt>
<trkpt lat="46.484680" lon="7.028832"><ele></ele><time>2014-4-4T18:26:23Z</time></trkpt>
<trkpt lat="46.484634" lon="7.028996"><ele></ele><time>2014-4-4T18:26:26Z</time></trkpt>
<trkpt lat="46.484585" lon="7.029406"><ele></ele><time>2014-4-4T18:26:29Z</time></trkpt>
<trkpt lat="46.484528" lon="7.029872"><ele></ele><time>2014-4-4T18:26:32Z</time></trkpt>
<trkpt lat="46.484509" lon="7.030112"><ele></ele><time>2014-4-4T18:26:35Z</time></trkpt>
<trkpt lat="46.484665" lon="7.030327"><ele></ele><time>2014-4-4T18:26:38Z</time></trkpt>
<trkpt lat="46.484901" lon="7.030643"><ele></ele><time>2014-4-4T18:26:41Z</time></trkpt>
<trkpt lat="46.485081" lon="7.031044"><ele></ele><time>2014-4-4T18:26:44Z</time></trkpt>
<trkpt lat="46.485123" lon="7.031411"><ele></ele><time>2014-4-4T18:26:47Z</time></trkpt>
<trkpt lat="46.485046" lon="7.031695"><ele></ele><time>2014-4-4T18:26:50Z</time></trkpt>
<trkpt lat="46.484924" lon="7.031893"><ele></ele><time>2014-4-4T18:26:53Z</time></trkpt>
<trkpt lat="46.484791" lon="7.032039"><ele></ele><time>2014-4-4T18:26:56Z</time></trkpt>
<trkpt lat="46.484730" lon="7.032232"><ele></ele><time>2014-4-4T18:26:59Z</time></trkpt>
<trkpt lat="46.484707" lon="7.032425"><ele></ele><time>2014-4-4T18:27:2Z</time></trkpt>
<trkpt lat="46.484680" lon="7.032580"><ele></ele><time>2014-4-4T18:27:5Z</time></trkpt>
<trkpt lat="46.484688" lon="7.032587"><ele></ele><time>2014-4-4T18:27:8Z</time></trkpt>
<trkpt lat="46.484688" lon="7.032589"><ele></ele><time>2014-4-4T18:27:11Z</time></trkpt>
<trkpt lat="46.484688" lon="7.032590"><ele></ele><time>2014-4-4T18:27:14Z</time></trkpt>
<trkpt lat="46.484692" lon="7.032593"><ele></ele><time>2014-4-4T18:27:17Z</time></trkpt>
<trkpt lat="46.484692" lon="7.032595"><ele></ele><time>2014-4-4T18:27:20Z</time></trkpt>
<trkpt lat="46.484692" lon="7.032596"><ele></ele><time>2014-4-4T18:27:23Z</time></trkpt>
<trkpt lat="46.484692" lon="7.032597"><ele></ele><time>2014-4-4T18:27:26Z</time></trkpt>
<trkpt lat="46.484692" lon="7.032598"><ele></ele><time>2014-4-4T18:27:29Z</time></trkpt>
<trkpt lat="46.484692" lon="7.032598"><ele></ele><time>2014-4-4T18:27:32Z</time></trkpt>
<trkpt lat="46.484692" lon="7.032598"><ele></ele><time>2014-4-4T18:27:35Z</time></trkpt>
<trkpt lat="46.484695" lon="7.032599"><ele></ele><time>2014-4-4T18:27:38Z</time></trkpt>
<trkpt lat="46.484695" lon="7.032599"><ele></ele><time>2014-4-4T18:27:41Z</time></trkpt>
<trkpt lat="46.484695" lon="7.032598"><ele></ele><time>2014-4-4T18:27:44Z</time></trkpt>
<trkpt lat="46.484695" lon="7.032598"><ele></ele><time>2014-4-4T18:27:47Z</time></trkpt>
<trkpt lat="46.484695" lon="7.032599"><ele></ele><time>2014-4-4T18:27:50Z</time></trkpt>
<trkpt lat="46.484695" lon="7.032600"><ele></ele><time>2014-4-4T18:27:53Z</time></trkpt>
<trkpt lat="46.484650" lon="7.032716"><ele></ele><time>2014-4-4T18:27:56Z</time></trkpt>
<trkpt lat="46.484592" lon="7.032965"><ele></ele><time>2014-4-4T18:27:59Z</time></trkpt>
<trkpt lat="46.484604" lon="7.033249"><ele></ele><time>2014-4-4T18:28:2Z</time></trkpt>
<trkpt lat="46.484699" lon="7.033381"><ele></ele><time>2014-4-4T18:28:5Z</time></trkpt>
<trkpt lat="46.484806" lon="7.033605"><ele></ele><time>2014-4-4T18:28:8Z</time></trkpt>
<trkpt lat="46.484905" lon="7.033870"><ele></ele><time>2014-4-4T18:28:11Z</time></trkpt>
<trkpt lat="46.485058" lon="7.034142"><ele></ele><time>2014-4-4T18:28:14Z</time></trkpt>
<trkpt lat="46.485138" lon="7.034367"><ele></ele><time>2014-4-4T18:28:17Z</time></trkpt>
<trkpt lat="46.485321" lon="7.034563"><ele></ele><time>2014-4-4T18:28:20Z</time></trkpt>
<trkpt lat="46.485458" lon="7.034871"><ele></ele><time>2014-4-4T18:28:23Z</time></trkpt>
<trkpt lat="46.485565" lon="7.035086"><ele></ele><time>2014-4-4T18:28:26Z</time></trkpt>
<trkpt lat="46.485809" lon="7.035225"><ele></ele><time>2014-4-4T18:28:29Z</time></trkpt>
<trkpt lat="46.486000" lon="7.035365"><ele></ele><time>2014-4-4T18:28:32Z</time></trkpt>
<trkpt lat="46.485996" lon="7.035719"><ele></ele><time>2014-4-4T18:28:35Z</time></trkpt>
<trkpt lat="46.485954" lon="7.036046"><ele></ele><time>2014-4-4T18:28:38Z</time></trkpt>
<trkpt lat="46.486130" lon="7.036347"><ele></ele><time>2014-4-4T18:28:41Z</time></trkpt>
<trkpt lat="46.486267" lon="7.036573"><ele></ele><time>2014-4-4T18:28:44Z</time></trkpt>
<trkpt lat="46.486473" lon="7.036840"><ele></ele><time>2014-4-4T18:28:47Z</time></trkpt>
<trkpt lat="46.486576" lon="7.037214"><ele></ele><time>2014-4-4T18:28:50Z</time></trkpt>
<trkpt lat="46.486691" lon="7.037384"><ele></ele><time>2014-4-4T18:28:53Z</time></trkpt>
<trkpt lat="46.486790" lon="7.037492"><ele></ele><time>2014-4-4T18:28:56Z</time></trkpt>
<trkpt lat="46.486877" lon="7.037539"><ele></ele><time>2014-4-4T18:28:59Z</time></trkpt>
<trkpt lat="46.486912" lon="7.037508"><ele></ele><time>2014-4-4T18:29:2Z</time></trkpt>
<trkpt lat="46.486912" lon="7.037504"><ele></ele><time>2014-4-4T18:29:5Z</time></trkpt>
<trkpt lat="46.486912" lon="7.037503"><ele></ele><time>2014-4-4T18:29:8Z</time></trkpt>
<trkpt lat="46.486916" lon="7.037501"><ele></ele><time>2014-4-4T18:29:11Z</time></trkpt>
<trkpt lat="46.486916" lon="7.037501"><ele></ele><time>2014-4-4T18:29:14Z</time></trkpt>
<trkpt lat="46.486919" lon="7.037498"><ele></ele><time>2014-4-4T18:29:17Z</time></trkpt>
<trkpt lat="46.486919" lon="7.037499"><ele></ele><time>2014-4-4T18:29:20Z</time></trkpt>
<trkpt lat="46.486954" lon="7.037521"><ele></ele><time>2014-4-4T18:29:23Z</time></trkpt>
<trkpt lat="46.487129" lon="7.037634"><ele></ele><time>2014-4-4T18:29:26Z</time></trkpt>
<trkpt lat="46.487366" lon="7.037632"><ele></ele><time>2014-4-4T18:29:29Z</time></trkpt>
<trkpt lat="46.487671" lon="7.037190"><ele></ele><time>2014-4-4T18:29:32Z</time></trkpt>
<trkpt lat="46.487957" lon="7.036709"><ele></ele><time>2014-4-4T18:29:35Z</time></trkpt>
<trkpt lat="46.488258" lon="7.036451"><ele></ele><time>2014-4-4T18:29:38Z</time></trkpt>
<trkpt lat="46.488605" lon="7.036898"><ele></ele><time>2014-4-4T18:29:41Z</time></trkpt>
<trkpt lat="46.488949" lon="7.037317"><ele></ele><time>2014-4-4T18:29:44Z</time></trkpt>
<trkpt lat="46.489132" lon="7.037518"><ele></ele><time>2014-4-4T18:29:47Z</time></trkpt>
<trkpt lat="46.489281" lon="7.037758"><ele></ele><time>2014-4-4T18:29:50Z</time></trkpt>
<trkpt lat="46.489517" lon="7.038020"><ele></ele><time>2014-4-4T18:29:53Z</time></trkpt>
<trkpt lat="46.489754" lon="7.038368"><ele></ele><time>2014-4-4T18:29:56Z</time></trkpt>
<trkpt lat="46.489944" lon="7.038704"><ele></ele><time>2014-4-4T18:29:59Z</time></trkpt>
<trkpt lat="46.490044" lon="7.038815"><ele></ele><time>2014-4-4T18:30:2Z</time></trkpt>
<trkpt lat="46.490013" lon="7.039171"><ele></ele><time>2014-4-4T18:30:5Z</time></trkpt>
<trkpt lat="46.489861" lon="7.039470"><ele></ele><time>2014-4-4T18:30:8Z</time></trkpt>
<trkpt lat="46.489689" lon="7.039724"><ele></ele><time>2014-4-4T18:30:11Z</time></trkpt>
<trkpt lat="46.489738" lon="7.040051"><ele></ele><time>2014-4-4T18:30:14Z</time></trkpt>
<trkpt lat="46.489784" lon="7.040253"><ele></ele><time>2014-4-4T18:30:17Z</time></trkpt>
<trkpt lat="46.489777" lon="7.040160"><ele></ele><time>2014-4-4T18:30:20Z</time></trkpt>
<trkpt lat="46.489765" lon="7.040078"><ele></ele><time>2014-4-4T18:30:23Z</time></trkpt>
<trkpt lat="46.489815" lon="7.040270"><ele></ele><time>2014-4-4T18:30:26Z</time></trkpt>
<trkpt lat="46.489857" lon="7.040579"><ele></ele><time>2014-4-4T18:30:29Z</time></trkpt>
<trkpt lat="46.489880" lon="7.040853"><ele></ele><time>2014-4-4T18:30:32Z</time></trkpt>
<trkpt lat="46.489803" lon="7.041092"><ele></ele><time>2014-4-4T18:30:35Z</time></trkpt>
<trkpt lat="46.489750" lon="7.041274"><ele></ele><time>2014-4-4T18:30:38Z</time></trkpt>
<trkpt lat="46.489735" lon="7.041280"><ele></ele><time>2014-4-4T18:30:41Z</time></trkpt>
<trkpt lat="46.489731" lon="7.041281"><ele></ele><time>2014-4-4T18:30:44Z</time></trkpt>
<trkpt lat="46.489735" lon="7.041281"><ele></ele><time>2014-4-4T18:30:47Z</time></trkpt>
<trkpt lat="46.489735" lon="7.041282"><ele></ele><time>2014-4-4T18:30:50Z</time></trkpt>
<trkpt lat="46.489716" lon="7.041436"><ele></ele><time>2014-4-4T18:30:53Z</time></trkpt>
<trkpt lat="46.489677" lon="7.041611"><ele></ele><time>2014-4-4T18:30:56Z</time></trkpt>
<trkpt lat="46.489666" lon="7.041811"><ele></ele><time>2014-4-4T18:30:59Z</time></trkpt>
<trkpt lat="46.489647" lon="7.041996"><ele></ele><time>2014-4-4T18:31:2Z</time></trkpt>
<trkpt lat="46.489693" lon="7.042174"><ele></ele><time>2014-4-4T18:31:5Z</time></trkpt>
<trkpt lat="46.489956" lon="7.042534"><ele></ele><time>2014-4-4T18:31:8Z</time></trkpt>
<trkpt lat="46.490246" lon="7.042790"><ele></ele><time>2014-4-4T18:31:11Z</time></trkpt>
<trkpt lat="46.490471" lon="7.042997"><ele></ele><time>2014-4-4T18:31:14Z</time></trkpt>
<trkpt lat="46.490650" lon="7.043058"><ele></ele><time>2014-4-4T18:31:17Z</time></trkpt>
<trkpt lat="46.490711" lon="7.043024"><ele></ele><time>2014-4-4T18:31:20Z</time></trkpt>
<trkpt lat="46.490795" lon="7.042902"><ele></ele><time>2014-4-4T18:31:23Z</time></trkpt>
<trkpt lat="46.490993" lon="7.042679"><ele></ele><time>2014-4-4T18:31:26Z</time></trkpt>
<trkpt lat="46.491135" lon="7.042642"><ele></ele><time>2014-4-4T18:31:29Z</time></trkpt>
<trkpt lat="46.491264" lon="7.042681"><ele></ele><time>2014-4-4T18:31:32Z</time></trkpt>
<trkpt lat="46.491375" lon="7.042747"><ele></ele><time>2014-4-4T18:31:35Z</time></trkpt>
<trkpt lat="46.491463" lon="7.042797"><ele></ele><time>2014-4-4T18:31:38Z</time></trkpt>
<trkpt lat="46.491554" lon="7.042849"><ele></ele><time>2014-4-4T18:31:41Z</time></trkpt>
<trkpt lat="46.491642" lon="7.042904"><ele></ele><time>2014-4-4T18:31:44Z</time></trkpt>
<trkpt lat="46.491734" lon="7.042962"><ele></ele><time>2014-4-4T18:31:47Z</time></trkpt>
<trkpt lat="46.491856" lon="7.042983"><ele></ele><time>2014-4-4T18:31:50Z</time></trkpt>
<trkpt lat="46.491924" lon="7.042966"><ele></ele><time>2014-4-4T18:31:53Z</time></trkpt>
<trkpt lat="46.491974" lon="7.042921"><ele></ele><time>2014-4-4T18:31:56Z</time></trkpt>
<trkpt lat="46.491955" lon="7.042988"><ele></ele><time>2014-4-4T18:31:59Z</time></trkpt>
<trkpt lat="46.491928" lon="7.043026"><ele></ele><time>2014-4-4T18:32:2Z</time></trkpt>
<trkpt lat="46.491936" lon="7.043032"><ele></ele><time>2014-4-4T18:32:5Z</time></trkpt>
<trkpt lat="46.491936" lon="7.043033"><ele></ele><time>2014-4-4T18:32:8Z</time></trkpt>
<trkpt lat="46.491936" lon="7.043035"><ele></ele><time>2014-4-4T18:32:11Z</time></trkpt>
<trkpt lat="46.491936" lon="7.043036"><ele></ele><time>2014-4-4T18:32:14Z</time></trkpt>
<trkpt lat="46.491936" lon="7.043037"><ele></ele><time>2014-4-4T18:32:17Z</time></trkpt>
<trkpt lat="46.491936" lon="7.043039"><ele></ele><time>2014-4-4T18:32:20Z</time></trkpt>
<trkpt lat="46.491936" lon="7.043042"><ele></ele><time>2014-4-4T18:32:23Z</time></trkpt>
<trkpt lat="46.491936" lon="7.043044"><ele></ele><time>2014-4-4T18:32:26Z</time></trkpt>
<trkpt lat="46.491936" lon="7.043045"><ele></ele><time>2014-4-4T18:32:29Z</time></trkpt>
<trkpt lat="46.491940" lon="7.043046"><ele></ele><time>2014-4-4T18:32:32Z</time></trkpt>
<trkpt lat="46.491940" lon="7.043047"><ele></ele><time>2014-4-4T18:32:35Z</time></trkpt>
<trkpt lat="46.491940" lon="7.043048"><ele></ele><time>2014-4-4T18:32:38Z</time></trkpt>
<trkpt lat="46.491940" lon="7.043049"><ele></ele><time>2014-4-4T18:32:41Z</time></trkpt>
<trkpt lat="46.491940" lon="7.043050"><ele></ele><time>2014-4-4T18:32:44Z</time></trkpt>
<trkpt lat="46.491940" lon="7.043051"><ele></ele><time>2014-4-4T18:32:47Z</time></trkpt>
<trkpt lat="46.491940" lon="7.043052"><ele></ele><time>2014-4-4T18:32:50Z</time></trkpt>
<trkpt lat="46.491936" lon="7.043053"><ele></ele><time>2014-4-4T18:32:53Z</time></trkpt>
<trkpt lat="46.491936" lon="7.043054"><ele></ele><time>2014-4-4T18:32:56Z</time></trkpt>
<trkpt lat="46.491936" lon="7.043055"><ele></ele><time>2014-4-4T18:32:59Z</time></trkpt>
<trkpt lat="46.491936" lon="7.043056"><ele></ele><time>2014-4-4T18:33:2Z</time></trkpt>
<trkpt lat="46.491936" lon="7.043058"><ele></ele><time>2014-4-4T18:33:5Z</time></trkpt>
<trkpt lat="46.491936" lon="7.043059"><ele></ele><time>2014-4-4T18:33:8Z</time></trkpt>
<trkpt lat="46.491936" lon="7.043060"><ele></ele><time>2014-4-4T18:33:11Z</time></trkpt>
<trkpt lat="46.491955" lon="7.043050"><ele></ele><time>2014-4-4T18:33:14Z</time></trkpt>
<trkpt lat="46.492027" lon="7.043032"><ele></ele><time>2014-4-4T18:33:17Z</time></trkpt>
<trkpt lat="46.492134" lon="7.043140"><ele></ele><time>2014-4-4T18:33:20Z</time></trkpt>
<trkpt lat="46.492279" lon="7.043350"><ele></ele><time>2014-4-4T18:33:23Z</time></trkpt>
<trkpt lat="46.492474" lon="7.043604"><ele></ele><time>2014-4-4T18:33:26Z</time></trkpt>
<trkpt lat="46.492699" lon="7.043889"><ele></ele><time>2014-4-4T18:33:29Z</time></trkpt>
<trkpt lat="46.492947" lon="7.044225"><ele></ele><time>2014-4-4T18:33:32Z</time></trkpt>
<trkpt lat="46.493195" lon="7.044572"><ele></ele><time>2014-4-4T18:33:35Z</time></trkpt>
<trkpt lat="46.493454" lon="7.044904"><ele></ele><time>2014-4-4T18:33:38Z</time></trkpt>
<trkpt lat="46.493740" lon="7.045259"><ele></ele><time>2014-4-4T18:33:41Z</time></trkpt>
<trkpt lat="46.494015" lon="7.045605"><ele></ele><time>2014-4-4T18:33:44Z</time></trkpt>
<trkpt lat="46.494278" lon="7.045945"><ele></ele><time>2014-4-4T18:33:47Z</time></trkpt>
<trkpt lat="46.494591" lon="7.046347"><ele></ele><time>2014-4-4T18:33:50Z</time></trkpt>
<trkpt lat="46.494843" lon="7.046659"><ele></ele><time>2014-4-4T18:33:53Z</time></trkpt>
<trkpt lat="46.495083" lon="7.046988"><ele></ele><time>2014-4-4T18:33:56Z</time></trkpt>
<trkpt lat="46.495354" lon="7.047329"><ele></ele><time>2014-4-4T18:33:59Z</time></trkpt>
<trkpt lat="46.495617" lon="7.047678"><ele></ele><time>2014-4-4T18:34:2Z</time></trkpt>
<trkpt lat="46.495781" lon="7.048118"><ele></ele><time>2014-4-4T18:34:5Z</time></trkpt>
<trkpt lat="46.495853" lon="7.048619"><ele></ele><time>2014-4-4T18:34:8Z</time></trkpt>
<trkpt lat="46.495968" lon="7.048940"><ele></ele><time>2014-4-4T18:34:11Z</time></trkpt>
<trkpt lat="46.496075" lon="7.049001"><ele></ele><time>2014-4-4T18:34:14Z</time></trkpt>
<trkpt lat="46.496300" lon="7.048713"><ele></ele><time>2014-4-4T18:34:17Z</time></trkpt>
<trkpt lat="46.496559" lon="7.048415"><ele></ele><time>2014-4-4T18:34:20Z</time></trkpt>
<trkpt lat="46.496861" lon="7.048204"><ele></ele><time>2014-4-4T18:34:23Z</time></trkpt>
<trkpt lat="46.497189" lon="7.048113"><ele></ele><time>2014-4-4T18:34:26Z</time></trkpt>
<trkpt lat="46.497551" lon="7.048154"><ele></ele><time>2014-4-4T18:34:29Z</time></trkpt>
<trkpt lat="46.497898" lon="7.048316"><ele></ele><time>2014-4-4T18:34:32Z</time></trkpt>
<trkpt lat="46.498226" lon="7.048500"><ele></ele><time>2014-4-4T18:34:35Z</time></trkpt>
<trkpt lat="46.498581" lon="7.048617"><ele></ele><time>2014-4-4T18:34:38Z</time></trkpt>
<trkpt lat="46.498924" lon="7.048737"><ele></ele><time>2014-4-4T18:34:41Z</time></trkpt>
<trkpt lat="46.499268" lon="7.048857"><ele></ele><time>2014-4-4T18:34:44Z</time></trkpt>
<trkpt lat="46.499592" lon="7.048997"><ele></ele><time>2014-4-4T18:34:47Z</time></trkpt>
<trkpt lat="46.499920" lon="7.049156"><ele></ele><time>2014-4-4T18:34:50Z</time></trkpt>
<trkpt lat="46.500252" lon="7.049310"><ele></ele><time>2014-4-4T18:34:53Z</time></trkpt>
<trkpt lat="46.500580" lon="7.049468"><ele></ele><time>2014-4-4T18:34:56Z</time></trkpt>
<trkpt lat="46.500889" lon="7.049650"><ele></ele><time>2014-4-4T18:34:59Z</time></trkpt>
<trkpt lat="46.501202" lon="7.049846"><ele></ele><time>2014-4-4T18:35:2Z</time></trkpt>
<trkpt lat="46.501507" lon="7.050076"><ele></ele><time>2014-4-4T18:35:5Z</time></trkpt>
<trkpt lat="46.501816" lon="7.050284"><ele></ele><time>2014-4-4T18:35:8Z</time></trkpt>
<trkpt lat="46.502117" lon="7.050506"><ele></ele><time>2014-4-4T18:35:11Z</time></trkpt>
<trkpt lat="46.502430" lon="7.050686"><ele></ele><time>2014-4-4T18:35:14Z</time></trkpt>
<trkpt lat="46.502777" lon="7.050777"><ele></ele><time>2014-4-4T18:35:17Z</time></trkpt>
<trkpt lat="46.503178" lon="7.050757"><ele></ele><time>2014-4-4T18:35:20Z</time></trkpt>
<trkpt lat="46.503647" lon="7.050686"><ele></ele><time>2014-4-4T18:35:23Z</time></trkpt>
<trkpt lat="46.504124" lon="7.050745"><ele></ele><time>2014-4-4T18:35:26Z</time></trkpt>
<trkpt lat="46.504597" lon="7.050965"><ele></ele><time>2014-4-4T18:35:29Z</time></trkpt>
<trkpt lat="46.505051" lon="7.051232"><ele></ele><time>2014-4-4T18:35:32Z</time></trkpt>
<trkpt lat="46.505486" lon="7.051533"><ele></ele><time>2014-4-4T18:35:35Z</time></trkpt>
<trkpt lat="46.505898" lon="7.051818"><ele></ele><time>2014-4-4T18:35:38Z</time></trkpt>
<trkpt lat="46.506325" lon="7.052057"><ele></ele><time>2014-4-4T18:35:41Z</time></trkpt>
<trkpt lat="46.506786" lon="7.052225"><ele></ele><time>2014-4-4T18:35:44Z</time></trkpt>
<trkpt lat="46.507259" lon="7.052331"><ele></ele><time>2014-4-4T18:35:47Z</time></trkpt>
<trkpt lat="46.507721" lon="7.052409"><ele></ele><time>2014-4-4T18:35:50Z</time></trkpt>
<trkpt lat="46.508163" lon="7.052500"><ele></ele><time>2014-4-4T18:35:53Z</time></trkpt>
<trkpt lat="46.508591" lon="7.052594"><ele></ele><time>2014-4-4T18:35:56Z</time></trkpt>
<trkpt lat="46.509003" lon="7.052715"><ele></ele><time>2014-4-4T18:35:59Z</time></trkpt>
<trkpt lat="46.509365" lon="7.052895"><ele></ele><time>2014-4-4T18:36:2Z</time></trkpt>
<trkpt lat="46.509731" lon="7.053101"><ele></ele><time>2014-4-4T18:36:5Z</time></trkpt>
<trkpt lat="46.510109" lon="7.053264"><ele></ele><time>2014-4-4T18:36:8Z</time></trkpt>
<trkpt lat="46.510498" lon="7.053363"><ele></ele><time>2014-4-4T18:36:11Z</time></trkpt>
<trkpt lat="46.510899" lon="7.053420"><ele></ele><time>2014-4-4T18:36:14Z</time></trkpt>
<trkpt lat="46.511307" lon="7.053455"><ele></ele><time>2014-4-4T18:36:17Z</time></trkpt>
<trkpt lat="46.511726" lon="7.053516"><ele></ele><time>2014-4-4T18:36:20Z</time></trkpt>
<trkpt lat="46.512142" lon="7.053563"><ele></ele><time>2014-4-4T18:36:23Z</time></trkpt>
<trkpt lat="46.512569" lon="7.053627"><ele></ele><time>2014-4-4T18:36:26Z</time></trkpt>
<trkpt lat="46.513000" lon="7.053729"><ele></ele><time>2014-4-4T18:36:29Z</time></trkpt>
<trkpt lat="46.513401" lon="7.053875"><ele></ele><time>2014-4-4T18:36:32Z</time></trkpt>
<trkpt lat="46.513821" lon="7.053979"><ele></ele><time>2014-4-4T18:36:35Z</time></trkpt>
<trkpt lat="46.514244" lon="7.053966"><ele></ele><time>2014-4-4T18:36:38Z</time></trkpt>
<trkpt lat="46.514671" lon="7.053891"><ele></ele><time>2014-4-4T18:36:41Z</time></trkpt>
<trkpt lat="46.515091" lon="7.053821"><ele></ele><time>2014-4-4T18:36:44Z</time></trkpt>
<trkpt lat="46.515514" lon="7.053782"><ele></ele><time>2014-4-4T18:36:47Z</time></trkpt>
<trkpt lat="46.515938" lon="7.053784"><ele></ele><time>2014-4-4T18:36:50Z</time></trkpt>
<trkpt lat="46.516335" lon="7.053801"><ele></ele><time>2014-4-4T18:36:53Z</time></trkpt>
<trkpt lat="46.516705" lon="7.053820"><ele></ele><time>2014-4-4T18:36:56Z</time></trkpt>
<trkpt lat="46.517052" lon="7.053944"><ele></ele><time>2014-4-4T18:36:59Z</time></trkpt>
<trkpt lat="46.517334" lon="7.054166"><ele></ele><time>2014-4-4T18:37:2Z</time></trkpt>
<trkpt lat="46.517582" lon="7.054460"><ele></ele><time>2014-4-4T18:37:5Z</time></trkpt>
<trkpt lat="46.517788" lon="7.054821"><ele></ele><time>2014-4-4T18:37:8Z</time></trkpt>
<trkpt lat="46.517956" lon="7.055202"><ele></ele><time>2014-4-4T18:37:11Z</time></trkpt>
<trkpt lat="46.518124" lon="7.055526"><ele></ele><time>2014-4-4T18:37:14Z</time></trkpt>
<trkpt lat="46.518326" lon="7.055808"><ele></ele><time>2014-4-4T18:37:17Z</time></trkpt>
<trkpt lat="46.518532" lon="7.056029"><ele></ele><time>2014-4-4T18:37:20Z</time></trkpt>
<trkpt lat="46.518749" lon="7.056194"><ele></ele><time>2014-4-4T18:37:23Z</time></trkpt>
<trkpt lat="46.518948" lon="7.056243"><ele></ele><time>2014-4-4T18:37:26Z</time></trkpt>
<trkpt lat="46.519028" lon="7.056078"><ele></ele><time>2014-4-4T18:37:29Z</time></trkpt>
<trkpt lat="46.518986" lon="7.056075"><ele></ele><time>2014-4-4T18:37:32Z</time></trkpt>
<trkpt lat="46.518997" lon="7.056117"><ele></ele><time>2014-4-4T18:37:35Z</time></trkpt>
<trkpt lat="46.518997" lon="7.056106"><ele></ele><time>2014-4-4T18:37:38Z</time></trkpt>
<trkpt lat="46.519005" lon="7.056107"><ele></ele><time>2014-4-4T18:37:41Z</time></trkpt>
<trkpt lat="46.519005" lon="7.056106"><ele></ele><time>2014-4-4T18:37:44Z</time></trkpt>
<trkpt lat="46.519009" lon="7.056106"><ele></ele><time>2014-4-4T18:37:47Z</time></trkpt>
<trkpt lat="46.519009" lon="7.056107"><ele></ele><time>2014-4-4T18:37:50Z</time></trkpt>
<trkpt lat="46.519009" lon="7.056108"><ele></ele><time>2014-4-4T18:37:53Z</time></trkpt>
<trkpt lat="46.519009" lon="7.056108"><ele></ele><time>2014-4-4T18:37:56Z</time></trkpt>
<trkpt lat="46.519009" lon="7.056108"><ele></ele><time>2014-4-4T18:37:59Z</time></trkpt>
<trkpt lat="46.519012" lon="7.056109"><ele></ele><time>2014-4-4T18:38:2Z</time></trkpt>
<trkpt lat="46.519012" lon="7.056110"><ele></ele><time>2014-4-4T18:38:5Z</time></trkpt>
<trkpt lat="46.519012" lon="7.056110"><ele></ele><time>2014-4-4T18:38:8Z</time></trkpt>
<trkpt lat="46.519012" lon="7.056111"><ele></ele><time>2014-4-4T18:38:11Z</time></trkpt>
<trkpt lat="46.519016" lon="7.056111"><ele></ele><time>2014-4-4T18:38:14Z</time></trkpt>
<trkpt lat="46.519012" lon="7.056114"><ele></ele><time>2014-4-4T18:38:17Z</time></trkpt>
<trkpt lat="46.518986" lon="7.056159"><ele></ele><time>2014-4-4T18:38:20Z</time></trkpt>
<trkpt lat="46.519020" lon="7.056219"><ele></ele><time>2014-4-4T18:38:23Z</time></trkpt>
<trkpt lat="46.519104" lon="7.056257"><ele></ele><time>2014-4-4T18:38:26Z</time></trkpt>
<trkpt lat="46.519169" lon="7.056281"><ele></ele><time>2014-4-4T18:38:29Z</time></trkpt>
<trkpt lat="46.519234" lon="7.056308"><ele></ele><time>2014-4-4T18:38:32Z</time></trkpt>
<trkpt lat="46.519268" lon="7.056324"><ele></ele><time>2014-4-4T18:38:35Z</time></trkpt>
<trkpt lat="46.519279" lon="7.056332"><ele></ele><time>2014-4-4T18:38:38Z</time></trkpt>
<trkpt lat="46.519283" lon="7.056335"><ele></ele><time>2014-4-4T18:38:41Z</time></trkpt>
<trkpt lat="46.519283" lon="7.056334"><ele></ele><time>2014-4-4T18:38:44Z</time></trkpt>
<trkpt lat="46.519283" lon="7.056335"><ele></ele><time>2014-4-4T18:38:47Z</time></trkpt>
<trkpt lat="46.519283" lon="7.056334"><ele></ele><time>2014-4-4T18:38:50Z</time></trkpt>
<trkpt lat="46.519283" lon="7.056334"><ele></ele><time>2014-4-4T18:38:53Z</time></trkpt>
<trkpt lat="46.519283" lon="7.056334"><ele></ele><time>2014-4-4T18:38:56Z</time></trkpt>
<trkpt lat="46.519283" lon="7.056334"><ele></ele><time>2014-4-4T18:38:59Z</time></trkpt>
<trkpt lat="46.519283" lon="7.056334"><ele></ele><time>2014-4-4T18:39:2Z</time></trkpt>
<trkpt lat="46.519283" lon="7.056334"><ele></ele><time>2014-4-4T18:39:5Z</time></trkpt>
<trkpt lat="46.519283" lon="7.056334"><ele></ele><time>2014-4-4T18:39:8Z</time></trkpt>
<trkpt lat="46.519283" lon="7.056334"><ele></ele><time>2014-4-4T18:39:11Z</time></trkpt>
<trkpt lat="46.519279" lon="7.056334"><ele></ele><time>2014-4-4T18:39:14Z</time></trkpt>
<trkpt lat="46.519279" lon="7.056334"><ele></ele><time>2014-4-4T18:39:17Z</time></trkpt>
<trkpt lat="46.519279" lon="7.056334"><ele></ele><time>2014-4-4T18:39:20Z</time></trkpt>
<trkpt lat="46.519279" lon="7.056334"><ele></ele><time>2014-4-4T18:39:23Z</time></trkpt>
<trkpt lat="46.519279" lon="7.056334"><ele></ele><time>2014-4-4T18:39:26Z</time></trkpt>
<trkpt lat="46.519283" lon="7.056334"><ele></ele><time>2014-4-4T18:39:29Z</time></trkpt>
<trkpt lat="46.519279" lon="7.056317"><ele></ele><time>2014-4-4T18:39:32Z</time></trkpt>
<trkpt lat="46.519279" lon="7.056275"><ele></ele><time>2014-4-4T18:39:35Z</time></trkpt>
<trkpt lat="46.519325" lon="7.056110"><ele></ele><time>2014-4-4T18:39:38Z</time></trkpt>
<trkpt lat="46.519402" lon="7.055870"><ele></ele><time>2014-4-4T18:39:41Z</time></trkpt>
<trkpt lat="46.519470" lon="7.055610"><ele></ele><time>2014-4-4T18:39:44Z</time></trkpt>
<trkpt lat="46.519527" lon="7.055363"><ele></ele><time>2014-4-4T18:39:47Z</time></trkpt>
<trkpt lat="46.519619" lon="7.055150"><ele></ele><time>2014-4-4T18:39:50Z</time></trkpt>
<trkpt lat="46.519680" lon="7.054968"><ele></ele><time>2014-4-4T18:39:53Z</time></trkpt>
<trkpt lat="46.519615" lon="7.054819"><ele></ele><time>2014-4-4T18:39:56Z</time></trkpt>
<trkpt lat="46.519688" lon="7.054592"><ele></ele><time>2014-4-4T18:39:59Z</time></trkpt>
<trkpt lat="46.519714" lon="7.054444"><ele></ele><time>2014-4-4T18:40:2Z</time></trkpt>
<trkpt lat="46.519733" lon="7.054327"><ele></ele><time>2014-4-4T18:40:5Z</time></trkpt>
<trkpt lat="46.519707" lon="7.054150"><ele></ele><time>2014-4-4T18:40:8Z</time></trkpt>
<trkpt lat="46.519726" lon="7.054129"><ele></ele><time>2014-4-4T18:40:11Z</time></trkpt>
<trkpt lat="46.519745" lon="7.054102"><ele></ele><time>2014-4-4T18:40:14Z</time></trkpt>
<trkpt lat="46.519741" lon="7.054136"><ele></ele><time>2014-4-4T18:40:17Z</time></trkpt>
<trkpt lat="46.519726" lon="7.054276"><ele></ele><time>2014-4-4T18:40:20Z</time></trkpt>
<trkpt lat="46.519669" lon="7.054418"><ele></ele><time>2014-4-4T18:40:23Z</time></trkpt>
<trkpt lat="46.519608" lon="7.054683"><ele></ele><time>2014-4-4T18:40:26Z</time></trkpt>
<trkpt lat="46.519665" lon="7.054861"><ele></ele><time>2014-4-4T18:40:29Z</time></trkpt>
<trkpt lat="46.519726" lon="7.054798"><ele></ele><time>2014-4-4T18:40:32Z</time></trkpt>
<trkpt lat="46.519775" lon="7.054646"><ele></ele><time>2014-4-4T18:40:35Z</time></trkpt>
<trkpt lat="46.519806" lon="7.054530"><ele></ele><time>2014-4-4T18:40:38Z</time></trkpt>
<trkpt lat="46.519844" lon="7.054423"><ele></ele><time>2014-4-4T18:40:41Z</time></trkpt>
<trkpt lat="46.519886" lon="7.054348"><ele></ele><time>2014-4-4T18:40:44Z</time></trkpt>
<trkpt lat="46.519894" lon="7.054321"><ele></ele><time>2014-4-4T18:40:47Z</time></trkpt>
<trkpt lat="46.519901" lon="7.054292"><ele></ele><time>2014-4-4T18:40:50Z</time></trkpt>
<trkpt lat="46.519955" lon="7.054276"><ele></ele><time>2014-4-4T18:40:53Z</time></trkpt>
<trkpt lat="46.519981" lon="7.054269"><ele></ele><time>2014-4-4T18:40:56Z</time></trkpt>
<trkpt lat="46.520027" lon="7.054230"><ele></ele><time>2014-4-4T18:40:59Z</time></trkpt>
<trkpt lat="46.520058" lon="7.054129"><ele></ele><time>2014-4-4T18:41:2Z</time></trkpt>
<trkpt lat="46.520073" lon="7.054029"><ele></ele><time>2014-4-4T18:41:5Z</time></trkpt>
<trkpt lat="46.520134" lon="7.053900"><ele></ele><time>2014-4-4T18:41:8Z</time></trkpt>
<trkpt lat="46.520092" lon="7.053813"><ele></ele><time>2014-4-4T18:41:11Z</time></trkpt>
<trkpt lat="46.520107" lon="7.053726"><ele></ele><time>2014-4-4T18:41:14Z</time></trkpt>
<trkpt lat="46.520149" lon="7.053742"><ele></ele><time>2014-4-4T18:41:17Z</time></trkpt>
<trkpt lat="46.520172" lon="7.053837"><ele></ele><time>2014-4-4T18:41:20Z</time></trkpt>
<trkpt lat="46.520229" lon="7.053884"><ele></ele><time>2014-4-4T18:41:23Z</time></trkpt>
<trkpt lat="46.520241" lon="7.053780"><ele></ele><time>2014-4-4T18:41:26Z</time></trkpt>
<trkpt lat="46.520290" lon="7.053657"><ele></ele><time>2014-4-4T18:41:29Z</time></trkpt>
<trkpt lat="46.520283" lon="7.053540"><ele></ele><time>2014-4-4T18:41:32Z</time></trkpt>
<trkpt lat="46.520267" lon="7.053411"><ele></ele><time>2014-4-4T18:41:35Z</time></trkpt>
<trkpt lat="46.520233" lon="7.053274"><ele></ele><time>2014-4-4T18:41:38Z</time></trkpt>
<trkpt lat="46.520206" lon="7.053148"><ele></ele><time>2014-4-4T18:41:41Z</time></trkpt>
<trkpt lat="46.520172" lon="7.053025"><ele></ele><time>2014-4-4T18:41:44Z</time></trkpt>
<trkpt lat="46.520134" lon="7.052905"><ele></ele><time>2014-4-4T18:41:47Z</time></trkpt>
<trkpt lat="46.520134" lon="7.052773"><ele></ele><time>2014-4-4T18:41:50Z</time></trkpt>
<trkpt lat="46.520161" lon="7.052661"><ele></ele><time>2014-4-4T18:41:53Z</time></trkpt>
<trkpt lat="46.520187" lon="7.052527"><ele></ele><time>2014-4-4T18:41:56Z</time></trkpt>
<trkpt lat="46.520241" lon="7.052414"><ele></ele><time>2014-4-4T18:41:59Z</time></trkpt>
<trkpt lat="46.520287" lon="7.052310"><ele></ele><time>2014-4-4T18:42:2Z</time></trkpt>
<trkpt lat="46.520321" lon="7.052188"><ele></ele><time>2014-4-4T18:42:5Z</time></trkpt>
<trkpt lat="46.520359" lon="7.052086"><ele></ele><time>2014-4-4T18:42:8Z</time></trkpt>
<trkpt lat="46.520390" lon="7.051974"><ele></ele><time>2014-4-4T18:42:11Z</time></trkpt>
<trkpt lat="46.520428" lon="7.051853"><ele></ele><time>2014-4-4T18:42:14Z</time></trkpt>
<trkpt lat="46.520435" lon="7.051724"><ele></ele><time>2014-4-4T18:42:17Z</time></trkpt>
<trkpt lat="46.520439" lon="7.051599"><ele></ele><time>2014-4-4T18:42:20Z</time></trkpt>
<trkpt lat="46.520462" lon="7.051476"><ele></ele><time>2014-4-4T18:42:23Z</time></trkpt>
<trkpt lat="46.520515" lon="7.051366"><ele></ele><time>2014-4-4T18:42:26Z</time></trkpt>
<trkpt lat="46.520607" lon="7.051290"><ele></ele><time>2014-4-4T18:42:29Z</time></trkpt>
<trkpt lat="46.520672" lon="7.051208"><ele></ele><time>2014-4-4T18:42:32Z</time></trkpt>
<trkpt lat="46.520752" lon="7.051226"><ele></ele><time>2014-4-4T18:42:35Z</time></trkpt>
<trkpt lat="46.520824" lon="7.051165"><ele></ele><time>2014-4-4T18:42:38Z</time></trkpt>
<trkpt lat="46.520901" lon="7.051224"><ele></ele><time>2014-4-4T18:42:41Z</time></trkpt>
<trkpt lat="46.520977" lon="7.051259"><ele></ele><time>2014-4-4T18:42:44Z</time></trkpt>
<trkpt lat="46.521057" lon="7.051303"><ele></ele><time>2014-4-4T18:42:47Z</time></trkpt>
<trkpt lat="46.521141" lon="7.051300"><ele></ele><time>2014-4-4T18:42:50Z</time></trkpt>
<trkpt lat="46.521229" lon="7.051245"><ele></ele><time>2014-4-4T18:42:53Z</time></trkpt>
<trkpt lat="46.521244" lon="7.051134"><ele></ele><time>2014-4-4T18:42:56Z</time></trkpt>
<trkpt lat="46.521202" lon="7.051028"><ele></ele><time>2014-4-4T18:42:59Z</time></trkpt>
<trkpt lat="46.521126" lon="7.050953"><ele></ele><time>2014-4-4T18:43:2Z</time></trkpt>
<trkpt lat="46.521061" lon="7.050875"><ele></ele><time>2014-4-4T18:43:5Z</time></trkpt>
<trkpt lat="46.520981" lon="7.050824"><ele></ele><time>2014-4-4T18:43:8Z</time></trkpt>
<trkpt lat="46.520905" lon="7.050757"><ele></ele><time>2014-4-4T18:43:11Z</time></trkpt>
<trkpt lat="46.520817" lon="7.050714"><ele></ele><time>2014-4-4T18:43:14Z</time></trkpt>
<trkpt lat="46.520741" lon="7.050682"><ele></ele><time>2014-4-4T18:43:17Z</time></trkpt>
<trkpt lat="46.520660" lon="7.050654"><ele></ele><time>2014-4-4T18:43:20Z</time></trkpt>
<trkpt lat="46.520588" lon="7.050596"><ele></ele><time>2014-4-4T18:43:23Z</time></trkpt>
<trkpt lat="46.520512" lon="7.050562"><ele></ele><time>2014-4-4T18:43:26Z</time></trkpt>
<trkpt lat="46.520439" lon="7.050508"><ele></ele><time>2014-4-4T18:43:29Z</time></trkpt>
<trkpt lat="46.520374" lon="7.050445"><ele></ele><time>2014-4-4T18:43:32Z</time></trkpt>
<trkpt lat="46.520309" lon="7.050384"><ele></ele><time>2014-4-4T18:43:35Z</time></trkpt>
<trkpt lat="46.520267" lon="7.050309"><ele></ele><time>2014-4-4T18:43:38Z</time></trkpt>
<trkpt lat="46.520237" lon="7.050208"><ele></ele><time>2014-4-4T18:43:41Z</time></trkpt>
<trkpt lat="46.520195" lon="7.050125"><ele></ele><time>2014-4-4T18:43:44Z</time></trkpt>
<trkpt lat="46.520161" lon="7.050045"><ele></ele><time>2014-4-4T18:43:47Z</time></trkpt>
<trkpt lat="46.520126" lon="7.049950"><ele></ele><time>2014-4-4T18:43:50Z</time></trkpt>
<trkpt lat="46.520088" lon="7.049857"><ele></ele><time>2014-4-4T18:43:53Z</time></trkpt>
<trkpt lat="46.520050" lon="7.049762"><ele></ele><time>2014-4-4T18:43:56Z</time></trkpt>
<trkpt lat="46.520016" lon="7.049664"><ele></ele><time>2014-4-4T18:43:59Z</time></trkpt>
<trkpt lat="46.519993" lon="7.049560"><ele></ele><time>2014-4-4T18:44:2Z</time></trkpt>
<trkpt lat="46.519943" lon="7.049468"><ele></ele><time>2014-4-4T18:44:5Z</time></trkpt>
<trkpt lat="46.519890" lon="7.049374"><ele></ele><time>2014-4-4T18:44:8Z</time></trkpt>
<trkpt lat="46.519875" lon="7.049267"><ele></ele><time>2014-4-4T18:44:11Z</time></trkpt>
<trkpt lat="46.519859" lon="7.049159"><ele></ele><time>2014-4-4T18:44:14Z</time></trkpt>
<trkpt lat="46.519829" lon="7.049050"><ele></ele><time>2014-4-4T18:44:17Z</time></trkpt>
<trkpt lat="46.519814" lon="7.048949"><ele></ele><time>2014-4-4T18:44:20Z</time></trkpt>
<trkpt lat="46.519798" lon="7.048845"><ele></ele><time>2014-4-4T18:44:23Z</time></trkpt>
<trkpt lat="46.519787" lon="7.048737"><ele></ele><time>2014-4-4T18:44:26Z</time></trkpt>
<trkpt lat="46.519775" lon="7.048631"><ele></ele><time>2014-4-4T18:44:29Z</time></trkpt>
<trkpt lat="46.519768" lon="7.048519"><ele></ele><time>2014-4-4T18:44:32Z</time></trkpt>
<trkpt lat="46.519779" lon="7.048413"><ele></ele><time>2014-4-4T18:44:35Z</time></trkpt>
<trkpt lat="46.519779" lon="7.048316"><ele></ele><time>2014-4-4T18:44:38Z</time></trkpt>
<trkpt lat="46.519756" lon="7.048226"><ele></ele><time>2014-4-4T18:44:41Z</time></trkpt>
<trkpt lat="46.519737" lon="7.048131"><ele></ele><time>2014-4-4T18:44:44Z</time></trkpt>
<trkpt lat="46.519737" lon="7.048041"><ele></ele><time>2014-4-4T18:44:47Z</time></trkpt>
<trkpt lat="46.519718" lon="7.047949"><ele></ele><time>2014-4-4T18:44:50Z</time></trkpt>
<trkpt lat="46.519714" lon="7.047838"><ele></ele><time>2014-4-4T18:44:53Z</time></trkpt>
<trkpt lat="46.519688" lon="7.047738"><ele></ele><time>2014-4-4T18:44:56Z</time></trkpt>
<trkpt lat="46.519676" lon="7.047627"><ele></ele><time>2014-4-4T18:44:59Z</time></trkpt>
<trkpt lat="46.519661" lon="7.047514"><ele></ele><time>2014-4-4T18:45:2Z</time></trkpt>
<trkpt lat="46.519638" lon="7.047404"><ele></ele><time>2014-4-4T18:45:5Z</time></trkpt>
<trkpt lat="46.519623" lon="7.047288"><ele></ele><time>2014-4-4T18:45:8Z</time></trkpt>
<trkpt lat="46.519634" lon="7.047175"><ele></ele><time>2014-4-4T18:45:11Z</time></trkpt>
<trkpt lat="46.519630" lon="7.047073"><ele></ele><time>2014-4-4T18:45:14Z</time></trkpt>
<trkpt lat="46.519611" lon="7.046962"><ele></ele><time>2014-4-4T18:45:17Z</time></trkpt>
<trkpt lat="46.519608" lon="7.046854"><ele></ele><time>2014-4-4T18:45:20Z</time></trkpt>
<trkpt lat="46.519623" lon="7.046735"><ele></ele><time>2014-4-4T18:45:23Z</time></trkpt>
<trkpt lat="46.519642" lon="7.046600"><ele></ele><time>2014-4-4T18:45:26Z</time></trkpt>
<trkpt lat="46.519688" lon="7.046473"><ele></ele><time>2014-4-4T18:45:29Z</time></trkpt>
<trkpt lat="46.519733" lon="7.046340"><ele></ele><time>2014-4-4T18:45:32Z</time></trkpt>
<trkpt lat="46.519756" lon="7.046180"><ele></ele><time>2014-4-4T18:45:35Z</time></trkpt>
<trkpt lat="46.519745" lon="7.045998"><ele></ele><time>2014-4-4T18:45:38Z</time></trkpt>
<trkpt lat="46.519764" lon="7.045796"><ele></ele><time>2014-4-4T18:45:41Z</time></trkpt>
<trkpt lat="46.519829" lon="7.045650"><ele></ele><time>2014-4-4T18:45:44Z</time></trkpt>
<trkpt lat="46.519947" lon="7.045490"><ele></ele><time>2014-4-4T18:45:47Z</time></trkpt>
<trkpt lat="46.520008" lon="7.045301"><ele></ele><time>2014-4-4T18:45:50Z</time></trkpt>
<trkpt lat="46.520035" lon="7.045125"><ele></ele><time>2014-4-4T18:45:53Z</time></trkpt>
<trkpt lat="46.520039" lon="7.045117"><ele></ele><time>2014-4-4T18:45:56Z</time></trkpt>
<trkpt lat="46.520031" lon="7.045118"><ele></ele><time>2014-4-4T18:45:59Z</time></trkpt>
<trkpt lat="46.520027" lon="7.045123"><ele></ele><time>2014-4-4T18:46:2Z</time></trkpt>
<trkpt lat="46.520023" lon="7.045121"><ele></ele><time>2014-4-4T18:46:5Z</time></trkpt>
<trkpt lat="46.520020" lon="7.045122"><ele></ele><time>2014-4-4T18:46:8Z</time></trkpt>
<trkpt lat="46.520023" lon="7.045125"><ele></ele><time>2014-4-4T18:46:11Z</time></trkpt>
<trkpt lat="46.520031" lon="7.045120"><ele></ele><time>2014-4-4T18:46:14Z</time></trkpt>
<trkpt lat="46.520130" lon="7.045153"><ele></ele><time>2014-4-4T18:46:17Z</time></trkpt>
<trkpt lat="46.520134" lon="7.045154"><ele></ele><time>2014-4-4T18:46:20Z</time></trkpt>
<trkpt lat="46.520130" lon="7.045156"><ele></ele><time>2014-4-4T18:46:23Z</time></trkpt>
<trkpt lat="46.520130" lon="7.045160"><ele></ele><time>2014-4-4T18:46:26Z</time></trkpt>
<trkpt lat="46.520130" lon="7.045160"><ele></ele><time>2014-4-4T18:46:29Z</time></trkpt>
<trkpt lat="46.520130" lon="7.045159"><ele></ele><time>2014-4-4T18:46:32Z</time></trkpt>
<trkpt lat="46.520130" lon="7.045159"><ele></ele><time>2014-4-4T18:46:35Z</time></trkpt>
<trkpt lat="46.520130" lon="7.045159"><ele></ele><time>2014-4-4T18:46:38Z</time></trkpt>
<trkpt lat="46.520130" lon="7.045159"><ele></ele><time>2014-4-4T18:46:41Z</time></trkpt>
<trkpt lat="46.520130" lon="7.045159"><ele></ele><time>2014-4-4T18:46:44Z</time></trkpt>
<trkpt lat="46.520130" lon="7.045158"><ele></ele><time>2014-4-4T18:46:47Z</time></trkpt>
<trkpt lat="46.520130" lon="7.045159"><ele></ele><time>2014-4-4T18:46:50Z</time></trkpt>
<trkpt lat="46.520130" lon="7.045159"><ele></ele><time>2014-4-4T18:46:53Z</time></trkpt>
<trkpt lat="46.520126" lon="7.045159"><ele></ele><time>2014-4-4T18:46:56Z</time></trkpt>
<trkpt lat="46.520126" lon="7.045160"><ele></ele><time>2014-4-4T18:46:59Z</time></trkpt>
<trkpt lat="46.520126" lon="7.045160"><ele></ele><time>2014-4-4T18:47:2Z</time></trkpt>
<trkpt lat="46.520126" lon="7.045160"><ele></ele><time>2014-4-4T18:47:5Z</time></trkpt>
<trkpt lat="46.520126" lon="7.045160"><ele></ele><time>2014-4-4T18:47:8Z</time></trkpt>
<trkpt lat="46.520123" lon="7.045160"><ele></ele><time>2014-4-4T18:47:11Z</time></trkpt>
<trkpt lat="46.520123" lon="7.045161"><ele></ele><time>2014-4-4T18:47:14Z</time></trkpt>
<trkpt lat="46.520126" lon="7.045131"><ele></ele><time>2014-4-4T18:47:17Z</time></trkpt>
<trkpt lat="46.520172" lon="7.045001"><ele></ele><time>2014-4-4T18:47:20Z</time></trkpt>
<trkpt lat="46.520245" lon="7.044812"><ele></ele><time>2014-4-4T18:47:23Z</time></trkpt>
<trkpt lat="46.520283" lon="7.044592"><ele></ele><time>2014-4-4T18:47:26Z</time></trkpt>
<trkpt lat="46.520359" lon="7.044311"><ele></ele><time>2014-4-4T18:47:29Z</time></trkpt>
<trkpt lat="46.520454" lon="7.044022"><ele></ele><time>2014-4-4T18:47:32Z</time></trkpt>
<trkpt lat="46.520596" lon="7.043712"><ele></ele><time>2014-4-4T18:47:35Z</time></trkpt>
<trkpt lat="46.520668" lon="7.043367"><ele></ele><time>2014-4-4T18:47:38Z</time></trkpt>
<trkpt lat="46.520733" lon="7.043111"><ele></ele><time>2014-4-4T18:47:41Z</time></trkpt>
<trkpt lat="46.520763" lon="7.042861"><ele></ele><time>2014-4-4T18:47:44Z</time></trkpt>
<trkpt lat="46.520771" lon="7.042657"><ele></ele><time>2014-4-4T18:47:47Z</time></trkpt>
<trkpt lat="46.520782" lon="7.042431"><ele></ele><time>2014-4-4T18:47:50Z</time></trkpt>
<trkpt lat="46.520775" lon="7.042197"><ele></ele><time>2014-4-4T18:47:53Z</time></trkpt>
<trkpt lat="46.521015" lon="7.042001"><ele></ele><time>2014-4-4T18:47:56Z</time></trkpt>
<trkpt lat="46.521202" lon="7.041852"><ele></ele><time>2014-4-4T18:47:59Z</time></trkpt>
<trkpt lat="46.521355" lon="7.041726"><ele></ele><time>2014-4-4T18:48:2Z</time></trkpt>
<trkpt lat="46.521420" lon="7.041587"><ele></ele><time>2014-4-4T18:48:5Z</time></trkpt>
<trkpt lat="46.521450" lon="7.041478"><ele></ele><time>2014-4-4T18:48:8Z</time></trkpt>
<trkpt lat="46.521446" lon="7.041412"><ele></ele><time>2014-4-4T18:48:11Z</time></trkpt>
<trkpt lat="46.521465" lon="7.041216"><ele></ele><time>2014-4-4T18:48:14Z</time></trkpt>
<trkpt lat="46.521477" lon="7.041012"><ele></ele><time>2014-4-4T18:48:17Z</time></trkpt>
<trkpt lat="46.521561" lon="7.040834"><ele></ele><time>2014-4-4T18:48:20Z</time></trkpt>
<trkpt lat="46.521664" lon="7.040685"><ele></ele><time>2014-4-4T18:48:23Z</time></trkpt>
<trkpt lat="46.521862" lon="7.040481"><ele></ele><time>2014-4-4T18:48:26Z</time></trkpt>
<trkpt lat="46.521946" lon="7.040340"><ele></ele><time>2014-4-4T18:48:29Z</time></trkpt>
<trkpt lat="46.522007" lon="7.040249"><ele></ele><time>2014-4-4T18:48:32Z</time></trkpt>
<trkpt lat="46.522091" lon="7.040208"><ele></ele><time>2014-4-4T18:48:35Z</time></trkpt>
<trkpt lat="46.522373" lon="7.040223"><ele></ele><time>2014-4-4T18:48:38Z</time></trkpt>
<trkpt lat="46.522427" lon="7.040166"><ele></ele><time>2014-4-4T18:48:41Z</time></trkpt>
<trkpt lat="46.522545" lon="7.040175"><ele></ele><time>2014-4-4T18:48:44Z</time></trkpt>
<trkpt lat="46.522659" lon="7.040151"><ele></ele><time>2014-4-4T18:48:47Z</time></trkpt>
<trkpt lat="46.522717" lon="7.040072"><ele></ele><time>2014-4-4T18:48:50Z</time></trkpt>
<trkpt lat="46.522831" lon="7.040107"><ele></ele><time>2014-4-4T18:48:53Z</time></trkpt>
<trkpt lat="46.522884" lon="7.040071"><ele></ele><time>2014-4-4T18:48:56Z</time></trkpt>
<trkpt lat="46.522915" lon="7.039996"><ele></ele><time>2014-4-4T18:48:59Z</time></trkpt>
<trkpt lat="46.522972" lon="7.039899"><ele></ele><time>2014-4-4T18:49:2Z</time></trkpt>
<trkpt lat="46.523045" lon="7.039765"><ele></ele><time>2014-4-4T18:49:5Z</time></trkpt>
<trkpt lat="46.523109" lon="7.039657"><ele></ele><time>2014-4-4T18:49:8Z</time></trkpt>
<trkpt lat="46.523182" lon="7.039543"><ele></ele><time>2014-4-4T18:49:11Z</time></trkpt>
<trkpt lat="46.523247" lon="7.039450"><ele></ele><time>2014-4-4T18:49:14Z</time></trkpt>
<trkpt lat="46.523308" lon="7.039373"><ele></ele><time>2014-4-4T18:49:17Z</time></trkpt>
<trkpt lat="46.523357" lon="7.039282"><ele></ele><time>2014-4-4T18:49:20Z</time></trkpt>
<trkpt lat="46.523396" lon="7.039212"><ele></ele><time>2014-4-4T18:49:23Z</time></trkpt>
<trkpt lat="46.523521" lon="7.039168"><ele></ele><time>2014-4-4T18:49:26Z</time></trkpt>
<trkpt lat="46.523735" lon="7.039055"><ele></ele><time>2014-4-4T18:49:29Z</time></trkpt>
<trkpt lat="46.523769" lon="7.038929"><ele></ele><time>2014-4-4T18:49:32Z</time></trkpt>
<trkpt lat="46.523739" lon="7.038791"><ele></ele><time>2014-4-4T18:49:35Z</time></trkpt>
<trkpt lat="46.523716" lon="7.038671"><ele></ele><time>2014-4-4T18:49:38Z</time></trkpt>
<trkpt lat="46.523777" lon="7.038620"><ele></ele><time>2014-4-4T18:49:41Z</time></trkpt>
<trkpt lat="46.524643" lon="7.039528"><ele></ele><time>2014-4-4T18:49:44Z</time></trkpt>
<trkpt lat="46.525230" lon="7.038768"><ele></ele><time>2014-4-4T18:49:47Z</time></trkpt>
<trkpt lat="46.525185" lon="7.038410"><ele></ele><time>2014-4-4T18:49:50Z</time></trkpt>
<trkpt lat="46.525238" lon="7.038375"><ele></ele><time>2014-4-4T18:49:53Z</time></trkpt>
<trkpt lat="46.525291" lon="7.038327"><ele></ele><time>2014-4-4T18:49:56Z</time></trkpt>
<trkpt lat="46.525299" lon="7.038282"><ele></ele><time>2014-4-4T18:49:59Z</time></trkpt>
<trkpt lat="46.525345" lon="7.038210"><ele></ele><time>2014-4-4T18:50:2Z</time></trkpt>
<trkpt lat="46.525375" lon="7.038137"><ele></ele><time>2014-4-4T18:50:5Z</time></trkpt>
<trkpt lat="46.525414" lon="7.038036"><ele></ele><time>2014-4-4T18:50:8Z</time></trkpt>
<trkpt lat="46.525444" lon="7.037935"><ele></ele><time>2014-4-4T18:50:11Z</time></trkpt>
<trkpt lat="46.525467" lon="7.037860"><ele></ele><time>2014-4-4T18:50:14Z</time></trkpt>
<trkpt lat="46.525417" lon="7.037778"><ele></ele><time>2014-4-4T18:50:17Z</time></trkpt>
<trkpt lat="46.525406" lon="7.037697"><ele></ele><time>2014-4-4T18:50:20Z</time></trkpt>
<trkpt lat="46.525379" lon="7.037606"><ele></ele><time>2014-4-4T18:50:23Z</time></trkpt>
<trkpt lat="46.525368" lon="7.037538"><ele></ele><time>2014-4-4T18:50:26Z</time></trkpt>
<trkpt lat="46.525349" lon="7.037513"><ele></ele><time>2014-4-4T18:50:29Z</time></trkpt>
<trkpt lat="46.525459" lon="7.037508"><ele></ele><time>2014-4-4T18:50:32Z</time></trkpt>
<trkpt lat="46.525555" lon="7.037572"><ele></ele><time>2014-4-4T18:50:35Z</time></trkpt>
<trkpt lat="46.525635" lon="7.037618"><ele></ele><time>2014-4-4T18:50:38Z</time></trkpt>
<trkpt lat="46.525658" lon="7.037615"><ele></ele><time>2014-4-4T18:50:41Z</time></trkpt>
<trkpt lat="46.525677" lon="7.037603"><ele></ele><time>2014-4-4T18:50:44Z</time></trkpt>
<trkpt lat="46.525848" lon="7.037588"><ele></ele><time>2014-4-4T18:50:47Z</time></trkpt>
<trkpt lat="46.526176" lon="7.037571"><ele></ele><time>2014-4-4T18:50:50Z</time></trkpt>
<trkpt lat="46.526337" lon="7.037530"><ele></ele><time>2014-4-4T18:50:53Z</time></trkpt>
<trkpt lat="46.526398" lon="7.037416"><ele></ele><time>2014-4-4T18:50:56Z</time></trkpt>
<trkpt lat="46.526443" lon="7.037303"><ele></ele><time>2014-4-4T18:50:59Z</time></trkpt>
<trkpt lat="46.526482" lon="7.037190"><ele></ele><time>2014-4-4T18:51:2Z</time></trkpt>
<trkpt lat="46.526546" lon="7.037157"><ele></ele><time>2014-4-4T18:51:5Z</time></trkpt>
<trkpt lat="46.526508" lon="7.037081"><ele></ele><time>2014-4-4T18:51:8Z</time></trkpt>
<trkpt lat="46.526501" lon="7.036977"><ele></ele><time>2014-4-4T18:51:11Z</time></trkpt>
<trkpt lat="46.526497" lon="7.036868"><ele></ele><time>2014-4-4T18:51:14Z</time></trkpt>
<trkpt lat="46.526489" lon="7.036762"><ele></ele><time>2014-4-4T18:51:17Z</time></trkpt>
<trkpt lat="46.526497" lon="7.036656"><ele></ele><time>2014-4-4T18:51:20Z</time></trkpt>
<trkpt lat="46.526527" lon="7.036570"><ele></ele><time>2014-4-4T18:51:23Z</time></trkpt>
<trkpt lat="46.526546" lon="7.036466"><ele></ele><time>2014-4-4T18:51:26Z</time></trkpt>
<trkpt lat="46.526581" lon="7.036361"><ele></ele><time>2014-4-4T18:51:29Z</time></trkpt>
<trkpt lat="46.526592" lon="7.036255"><ele></ele><time>2014-4-4T18:51:32Z</time></trkpt>
<trkpt lat="46.526600" lon="7.036151"><ele></ele><time>2014-4-4T18:51:35Z</time></trkpt>
<trkpt lat="46.526592" lon="7.036065"><ele></ele><time>2014-4-4T18:51:38Z</time></trkpt>
<trkpt lat="46.526611" lon="7.035998"><ele></ele><time>2014-4-4T18:51:41Z</time></trkpt>
<trkpt lat="46.526684" lon="7.035959"><ele></ele><time>2014-4-4T18:51:44Z</time></trkpt>
<trkpt lat="46.526707" lon="7.035899"><ele></ele><time>2014-4-4T18:51:47Z</time></trkpt>
<trkpt lat="46.526718" lon="7.035851"><ele></ele><time>2014-4-4T18:51:50Z</time></trkpt>
<trkpt lat="46.526764" lon="7.035810"><ele></ele><time>2014-4-4T18:51:53Z</time></trkpt>
<trkpt lat="46.526794" lon="7.035754"><ele></ele><time>2014-4-4T18:51:56Z</time></trkpt>
<trkpt lat="46.526840" lon="7.035739"><ele></ele><time>2014-4-4T18:51:59Z</time></trkpt>
<trkpt lat="46.526962" lon="7.035709"><ele></ele><time>2014-4-4T18:52:2Z</time></trkpt>
<trkpt lat="46.527008" lon="7.035651"><ele></ele><time>2014-4-4T18:52:5Z</time></trkpt>
<trkpt lat="46.527008" lon="7.035558"><ele></ele><time>2014-4-4T18:52:8Z</time></trkpt>
<trkpt lat="46.527050" lon="7.035479"><ele></ele><time>2014-4-4T18:52:11Z</time></trkpt>
<trkpt lat="46.527050" lon="7.035401"><ele></ele><time>2014-4-4T18:52:14Z</time></trkpt>
<trkpt lat="46.527050" lon="7.035327"><ele></ele><time>2014-4-4T18:52:17Z</time></trkpt>
<trkpt lat="46.527004" lon="7.035247"><ele></ele><time>2014-4-4T18:52:20Z</time></trkpt>
<trkpt lat="46.527088" lon="7.035165"><ele></ele><time>2014-4-4T18:52:23Z</time></trkpt>
<trkpt lat="46.527073" lon="7.035089"><ele></ele><time>2014-4-4T18:52:26Z</time></trkpt>
<trkpt lat="46.527073" lon="7.035000"><ele></ele><time>2014-4-4T18:52:29Z</time></trkpt>
<trkpt lat="46.527096" lon="7.034919"><ele></ele><time>2014-4-4T18:52:32Z</time></trkpt>
<trkpt lat="46.527100" lon="7.034847"><ele></ele><time>2014-4-4T18:52:35Z</time></trkpt>
<trkpt lat="46.527126" lon="7.034781"><ele></ele><time>2014-4-4T18:52:38Z</time></trkpt>
<trkpt lat="46.527142" lon="7.034712"><ele></ele><time>2014-4-4T18:52:41Z</time></trkpt>
<trkpt lat="46.527111" lon="7.034652"><ele></ele><time>2014-4-4T18:52:44Z</time></trkpt>
<trkpt lat="46.527096" lon="7.034602"><ele></ele><time>2014-4-4T18:52:47Z</time></trkpt>
<trkpt lat="46.527050" lon="7.034537"><ele></ele><time>2014-4-4T18:52:50Z</time></trkpt>
<trkpt lat="46.527073" lon="7.034465"><ele></ele><time>2014-4-4T18:52:53Z</time></trkpt>
<trkpt lat="46.527111" lon="7.034408"><ele></ele><time>2014-4-4T18:52:56Z</time></trkpt>
<trkpt lat="46.527115" lon="7.034359"><ele></ele><time>2014-4-4T18:52:59Z</time></trkpt>
<trkpt lat="46.527145" lon="7.034333"><ele></ele><time>2014-4-4T18:53:2Z</time></trkpt>
<trkpt lat="46.527157" lon="7.034309"><ele></ele><time>2014-4-4T18:53:5Z</time></trkpt>
<trkpt lat="46.527184" lon="7.034281"><ele></ele><time>2014-4-4T18:53:8Z</time></trkpt>
<trkpt lat="46.527225" lon="7.034244"><ele></ele><time>2014-4-4T18:53:11Z</time></trkpt>
<trkpt lat="46.527283" lon="7.034241"><ele></ele><time>2014-4-4T18:53:14Z</time></trkpt>
<trkpt lat="46.527313" lon="7.034210"><ele></ele><time>2014-4-4T18:53:17Z</time></trkpt>
<trkpt lat="46.527260" lon="7.034198"><ele></ele><time>2014-4-4T18:53:20Z</time></trkpt>
<trkpt lat="46.527336" lon="7.034200"><ele></ele><time>2014-4-4T18:53:23Z</time></trkpt>
<trkpt lat="46.527405" lon="7.034211"><ele></ele><time>2014-4-4T18:53:26Z</time></trkpt>
<trkpt lat="46.527573" lon="7.034238"><ele></ele><time>2014-4-4T18:53:29Z</time></trkpt>
<trkpt lat="46.527946" lon="7.034259"><ele></ele><time>2014-4-4T18:53:32Z</time></trkpt>
<trkpt lat="46.528011" lon="7.034278"><ele></ele><time>2014-4-4T18:53:35Z</time></trkpt>
<trkpt lat="46.528057" lon="7.034320"><ele></ele><time>2014-4-4T18:53:38Z</time></trkpt>
<trkpt lat="46.528027" lon="7.034348"><ele></ele><time>2014-4-4T18:53:41Z</time></trkpt>
<trkpt lat="46.528072" lon="7.034370"><ele></ele><time>2014-4-4T18:53:44Z</time></trkpt>
<trkpt lat="46.528214" lon="7.034399"><ele></ele><time>2014-4-4T18:53:47Z</time></trkpt>
<trkpt lat="46.528275" lon="7.034365"><ele></ele><time>2014-4-4T18:53:50Z</time></trkpt>
<trkpt lat="46.528255" lon="7.034286"><ele></ele><time>2014-4-4T18:53:53Z</time></trkpt>
<trkpt lat="46.528255" lon="7.034202"><ele></ele><time>2014-4-4T18:53:56Z</time></trkpt>
<trkpt lat="46.528233" lon="7.034115"><ele></ele><time>2014-4-4T18:53:59Z</time></trkpt>
<trkpt lat="46.528255" lon="7.034024"><ele></ele><time>2014-4-4T18:54:2Z</time></trkpt>
<trkpt lat="46.528255" lon="7.033942"><ele></ele><time>2014-4-4T18:54:5Z</time></trkpt>
<trkpt lat="46.528236" lon="7.033847"><ele></ele><time>2014-4-4T18:54:8Z</time></trkpt>
<trkpt lat="46.528202" lon="7.033780"><ele></ele><time>2014-4-4T18:54:11Z</time></trkpt>
<trkpt lat="46.528156" lon="7.033730"><ele></ele><time>2014-4-4T18:54:14Z</time></trkpt>
<trkpt lat="46.528099" lon="7.033699"><ele></ele><time>2014-4-4T18:54:17Z</time></trkpt>
<trkpt lat="46.528042" lon="7.033723"><ele></ele><time>2014-4-4T18:54:20Z</time></trkpt>
<trkpt lat="46.527973" lon="7.033732"><ele></ele><time>2014-4-4T18:54:23Z</time></trkpt>
<trkpt lat="46.527912" lon="7.033714"><ele></ele><time>2014-4-4T18:54:26Z</time></trkpt>
<trkpt lat="46.527843" lon="7.033719"><ele></ele><time>2014-4-4T18:54:29Z</time></trkpt>
<trkpt lat="46.527782" lon="7.033721"><ele></ele><time>2014-4-4T18:54:32Z</time></trkpt>
<trkpt lat="46.527679" lon="7.033721"><ele></ele><time>2014-4-4T18:54:35Z</time></trkpt>
<trkpt lat="46.527599" lon="7.033727"><ele></ele><time>2014-4-4T18:54:38Z</time></trkpt>
<trkpt lat="46.527504" lon="7.033713"><ele></ele><time>2014-4-4T18:54:41Z</time></trkpt>
<trkpt lat="46.527428" lon="7.033724"><ele></ele><time>2014-4-4T18:54:44Z</time></trkpt>
<trkpt lat="46.527367" lon="7.033733"><ele></ele><time>2014-4-4T18:54:47Z</time></trkpt>
<trkpt lat="46.527233" lon="7.033721"><ele></ele><time>2014-4-4T18:54:50Z</time></trkpt>
<trkpt lat="46.527176" lon="7.033641"><ele></ele><time>2014-4-4T18:54:53Z</time></trkpt>
<trkpt lat="46.527149" lon="7.033545"><ele></ele><time>2014-4-4T18:54:56Z</time></trkpt>
<trkpt lat="46.527195" lon="7.033500"><ele></ele><time>2014-4-4T18:54:59Z</time></trkpt>
<trkpt lat="46.527203" lon="7.033423"><ele></ele><time>2014-4-4T18:55:2Z</time></trkpt>
<trkpt lat="46.527287" lon="7.033349"><ele></ele><time>2014-4-4T18:55:5Z</time></trkpt>
<trkpt lat="46.527355" lon="7.033259"><ele></ele><time>2014-4-4T18:55:8Z</time></trkpt>
<trkpt lat="46.527454" lon="7.033210"><ele></ele><time>2014-4-4T18:55:11Z</time></trkpt>
<trkpt lat="46.527489" lon="7.033141"><ele></ele><time>2014-4-4T18:55:14Z</time></trkpt>
<trkpt lat="46.527554" lon="7.033078"><ele></ele><time>2014-4-4T18:55:17Z</time></trkpt>
<trkpt lat="46.527561" lon="7.032988"><ele></ele><time>2014-4-4T18:55:20Z</time></trkpt>
<trkpt lat="46.527603" lon="7.032909"><ele></ele><time>2014-4-4T18:55:23Z</time></trkpt>
<trkpt lat="46.527668" lon="7.032849"><ele></ele><time>2014-4-4T18:55:26Z</time></trkpt>
<trkpt lat="46.527691" lon="7.032757"><ele></ele><time>2014-4-4T18:55:29Z</time></trkpt>
<trkpt lat="46.527699" lon="7.032660"><ele></ele><time>2014-4-4T18:55:32Z</time></trkpt>
<trkpt lat="46.527718" lon="7.032585"><ele></ele><time>2014-4-4T18:55:35Z</time></trkpt>
<trkpt lat="46.527706" lon="7.032484"><ele></ele><time>2014-4-4T18:55:38Z</time></trkpt>
<trkpt lat="46.527756" lon="7.032378"><ele></ele><time>2014-4-4T18:55:41Z</time></trkpt>
<trkpt lat="46.527802" lon="7.032290"><ele></ele><time>2014-4-4T18:55:44Z</time></trkpt>
<trkpt lat="46.527824" lon="7.032193"><ele></ele><time>2014-4-4T18:55:47Z</time></trkpt>
<trkpt lat="46.527832" lon="7.032106"><ele></ele><time>2014-4-4T18:55:50Z</time></trkpt>
<trkpt lat="46.527832" lon="7.032002"><ele></ele><time>2014-4-4T18:55:53Z</time></trkpt>
<trkpt lat="46.527859" lon="7.031913"><ele></ele><time>2014-4-4T18:55:56Z</time></trkpt>
<trkpt lat="46.527893" lon="7.031826"><ele></ele><time>2014-4-4T18:55:59Z</time></trkpt>
<trkpt lat="46.527912" lon="7.031741"><ele></ele><time>2014-4-4T18:56:2Z</time></trkpt>
<trkpt lat="46.527874" lon="7.031664"><ele></ele><time>2014-4-4T18:56:5Z</time></trkpt>
<trkpt lat="46.527832" lon="7.031611"><ele></ele><time>2014-4-4T18:56:8Z</time></trkpt>
<trkpt lat="46.527794" lon="7.031538"><ele></ele><time>2014-4-4T18:56:11Z</time></trkpt>
<trkpt lat="46.527794" lon="7.031465"><ele></ele><time>2014-4-4T18:56:14Z</time></trkpt>
<trkpt lat="46.527744" lon="7.031404"><ele></ele><time>2014-4-4T18:56:17Z</time></trkpt>
<trkpt lat="46.527710" lon="7.031335"><ele></ele><time>2014-4-4T18:56:20Z</time></trkpt>
<trkpt lat="46.527657" lon="7.031274"><ele></ele><time>2014-4-4T18:56:23Z</time></trkpt>
<trkpt lat="46.527626" lon="7.031207"><ele></ele><time>2014-4-4T18:56:26Z</time></trkpt>
<trkpt lat="46.527592" lon="7.031139"><ele></ele><time>2014-4-4T18:56:29Z</time></trkpt>
<trkpt lat="46.527569" lon="7.031071"><ele></ele><time>2014-4-4T18:56:32Z</time></trkpt>
<trkpt lat="46.527550" lon="7.030974"><ele></ele><time>2014-4-4T18:56:35Z</time></trkpt>
<trkpt lat="46.527531" lon="7.030885"><ele></ele><time>2014-4-4T18:56:38Z</time></trkpt>
<trkpt lat="46.527534" lon="7.030792"><ele></ele><time>2014-4-4T18:56:41Z</time></trkpt>
<trkpt lat="46.527519" lon="7.030713"><ele></ele><time>2014-4-4T18:56:44Z</time></trkpt>
<trkpt lat="46.527489" lon="7.030663"><ele></ele><time>2014-4-4T18:56:47Z</time></trkpt>
<trkpt lat="46.527470" lon="7.030585"><ele></ele><time>2014-4-4T18:56:50Z</time></trkpt>
<trkpt lat="46.527454" lon="7.030501"><ele></ele><time>2014-4-4T18:56:53Z</time></trkpt>
<trkpt lat="46.527451" lon="7.030428"><ele></ele><time>2014-4-4T18:56:56Z</time></trkpt>
<trkpt lat="46.527447" lon="7.030339"><ele></ele><time>2014-4-4T18:56:59Z</time></trkpt>
<trkpt lat="46.527447" lon="7.030253"><ele></ele><time>2014-4-4T18:57:2Z</time></trkpt>
<trkpt lat="46.527473" lon="7.030175"><ele></ele><time>2014-4-4T18:57:5Z</time></trkpt>
<trkpt lat="46.527485" lon="7.030107"><ele></ele><time>2014-4-4T18:57:8Z</time></trkpt>
<trkpt lat="46.527512" lon="7.030028"><ele></ele><time>2014-4-4T18:57:11Z</time></trkpt>
<trkpt lat="46.527527" lon="7.029942"><ele></ele><time>2014-4-4T18:57:14Z</time></trkpt>
<trkpt lat="46.527557" lon="7.029861"><ele></ele><time>2014-4-4T18:57:17Z</time></trkpt>
<trkpt lat="46.527584" lon="7.029778"><ele></ele><time>2014-4-4T18:57:20Z</time></trkpt>
<trkpt lat="46.527599" lon="7.029700"><ele></ele><time>2014-4-4T18:57:23Z</time></trkpt>
<trkpt lat="46.527615" lon="7.029625"><ele></ele><time>2014-4-4T18:57:26Z</time></trkpt>
<trkpt lat="46.527634" lon="7.029556"><ele></ele><time>2014-4-4T18:57:29Z</time></trkpt>
<trkpt lat="46.527603" lon="7.029466"><ele></ele><time>2014-4-4T18:57:32Z</time></trkpt>
<trkpt lat="46.527500" lon="7.029346"><ele></ele><time>2014-4-4T18:57:35Z</time></trkpt>
<trkpt lat="46.527485" lon="7.029260"><ele></ele><time>2014-4-4T18:57:38Z</time></trkpt>
<trkpt lat="46.527481" lon="7.029163"><ele></ele><time>2014-4-4T18:57:41Z</time></trkpt>
<trkpt lat="46.527431" lon="7.029061"><ele></ele><time>2014-4-4T18:57:44Z</time></trkpt>
<trkpt lat="46.527496" lon="7.028962"><ele></ele><time>2014-4-4T18:57:47Z</time></trkpt>
<trkpt lat="46.527592" lon="7.028867"><ele></ele><time>2014-4-4T18:57:50Z</time></trkpt>
<trkpt lat="46.527599" lon="7.028775"><ele></ele><time>2014-4-4T18:57:53Z</time></trkpt>
<trkpt lat="46.527607" lon="7.028696"><ele></ele><time>2014-4-4T18:57:56Z</time></trkpt>
<trkpt lat="46.527618" lon="7.028600"><ele></ele><time>2014-4-4T18:57:59Z</time></trkpt>
<trkpt lat="46.527626" lon="7.028527"><ele></ele><time>2014-4-4T18:58:2Z</time></trkpt>
<trkpt lat="46.527653" lon="7.028431"><ele></ele><time>2014-4-4T18:58:5Z</time></trkpt>
<trkpt lat="46.527695" lon="7.028362"><ele></ele><time>2014-4-4T18:58:8Z</time></trkpt>
<trkpt lat="46.527710" lon="7.028284"><ele></ele><time>2014-4-4T18:58:11Z</time></trkpt>
<trkpt lat="46.527729" lon="7.028201"><ele></ele><time>2014-4-4T18:58:14Z</time></trkpt>
<trkpt lat="46.527771" lon="7.028129"><ele></ele><time>2014-4-4T18:58:17Z</time></trkpt>
<trkpt lat="46.527782" lon="7.028055"><ele></ele><time>2014-4-4T18:58:20Z</time></trkpt>
<trkpt lat="46.527821" lon="7.027976"><ele></ele><time>2014-4-4T18:58:23Z</time></trkpt>
<trkpt lat="46.527866" lon="7.027918"><ele></ele><time>2014-4-4T18:58:26Z</time></trkpt>
<trkpt lat="46.527905" lon="7.027855"><ele></ele><time>2014-4-4T18:58:29Z</time></trkpt>
<trkpt lat="46.527950" lon="7.027802"><ele></ele><time>2014-4-4T18:58:32Z</time></trkpt>
<trkpt lat="46.527988" lon="7.027767"><ele></ele><time>2014-4-4T18:58:35Z</time></trkpt>
<trkpt lat="46.528027" lon="7.027702"><ele></ele><time>2014-4-4T18:58:38Z</time></trkpt>
<trkpt lat="46.528065" lon="7.027653"><ele></ele><time>2014-4-4T18:58:41Z</time></trkpt>
<trkpt lat="46.528107" lon="7.027616"><ele></ele><time>2014-4-4T18:58:44Z</time></trkpt>
<trkpt lat="46.528141" lon="7.027577"><ele></ele><time>2014-4-4T18:58:47Z</time></trkpt>
<trkpt lat="46.528175" lon="7.027516"><ele></ele><time>2014-4-4T18:58:50Z</time></trkpt>
<trkpt lat="46.528214" lon="7.027453"><ele></ele><time>2014-4-4T18:58:53Z</time></trkpt>
<trkpt lat="46.528248" lon="7.027381"><ele></ele><time>2014-4-4T18:58:56Z</time></trkpt>
<trkpt lat="46.528271" lon="7.027322"><ele></ele><time>2014-4-4T18:58:59Z</time></trkpt>
<trkpt lat="46.528301" lon="7.027273"><ele></ele><time>2014-4-4T18:59:2Z</time></trkpt>
<trkpt lat="46.528324" lon="7.027224"><ele></ele><time>2014-4-4T18:59:5Z</time></trkpt>
<trkpt lat="46.528358" lon="7.027148"><ele></ele><time>2014-4-4T18:59:8Z</time></trkpt>
<trkpt lat="46.528389" lon="7.027097"><ele></ele><time>2014-4-4T18:59:11Z</time></trkpt>
<trkpt lat="46.528427" lon="7.027050"><ele></ele><time>2014-4-4T18:59:14Z</time></trkpt>
<trkpt lat="46.528465" lon="7.026982"><ele></ele><time>2014-4-4T18:59:17Z</time></trkpt>
<trkpt lat="46.528484" lon="7.026906"><ele></ele><time>2014-4-4T18:59:20Z</time></trkpt>
<trkpt lat="46.528511" lon="7.026806"><ele></ele><time>2014-4-4T18:59:23Z</time></trkpt>
<trkpt lat="46.528542" lon="7.026700"><ele></ele><time>2014-4-4T18:59:26Z</time></trkpt>
<trkpt lat="46.528561" lon="7.026595"><ele></ele><time>2014-4-4T18:59:29Z</time></trkpt>
<trkpt lat="46.528572" lon="7.026498"><ele></ele><time>2014-4-4T18:59:32Z</time></trkpt>
<trkpt lat="46.528587" lon="7.026397"><ele></ele><time>2014-4-4T18:59:35Z</time></trkpt>
<trkpt lat="46.528606" lon="7.026296"><ele></ele><time>2014-4-4T18:59:38Z</time></trkpt>
<trkpt lat="46.528645" lon="7.026194"><ele></ele><time>2014-4-4T18:59:41Z</time></trkpt>
<trkpt lat="46.528687" lon="7.026121"><ele></ele><time>2014-4-4T18:59:44Z</time></trkpt>
<trkpt lat="46.528725" lon="7.026034"><ele></ele><time>2014-4-4T18:59:47Z</time></trkpt>
<trkpt lat="46.528736" lon="7.025928"><ele></ele><time>2014-4-4T18:59:50Z</time></trkpt>
<trkpt lat="46.528721" lon="7.025817"><ele></ele><time>2014-4-4T18:59:53Z</time></trkpt>
<trkpt lat="46.528713" lon="7.025718"><ele></ele><time>2014-4-4T18:59:56Z</time></trkpt>
<trkpt lat="46.528702" lon="7.025593"><ele></ele><time>2014-4-4T18:59:59Z</time></trkpt>
<trkpt lat="46.528702" lon="7.025465"><ele></ele><time>2014-4-4T19:0:2Z</time></trkpt>
<trkpt lat="46.528687" lon="7.025337"><ele></ele><time>2014-4-4T19:0:5Z</time></trkpt>
<trkpt lat="46.528687" lon="7.025207"><ele></ele><time>2014-4-4T19:0:8Z</time></trkpt>
<trkpt lat="46.528667" lon="7.025062"><ele></ele><time>2014-4-4T19:0:11Z</time></trkpt>
<trkpt lat="46.528568" lon="7.024924"><ele></ele><time>2014-4-4T19:0:14Z</time></trkpt>
<trkpt lat="46.528404" lon="7.024761"><ele></ele><time>2014-4-4T19:0:17Z</time></trkpt>
<trkpt lat="46.528221" lon="7.024578"><ele></ele><time>2014-4-4T19:0:20Z</time></trkpt>
<trkpt lat="46.528034" lon="7.024372"><ele></ele><time>2014-4-4T19:0:23Z</time></trkpt>
<trkpt lat="46.527843" lon="7.024205"><ele></ele><time>2014-4-4T19:0:26Z</time></trkpt>
<trkpt lat="46.527687" lon="7.024079"><ele></ele><time>2014-4-4T19:0:29Z</time></trkpt>
<trkpt lat="46.527557" lon="7.023935"><ele></ele><time>2014-4-4T19:0:32Z</time></trkpt>
<trkpt lat="46.527473" lon="7.023741"><ele></ele><time>2014-4-4T19:0:35Z</time></trkpt>
<trkpt lat="46.527409" lon="7.023530"><ele></ele><time>2014-4-4T19:0:38Z</time></trkpt>
<trkpt lat="46.527344" lon="7.023315"><ele></ele><time>2014-4-4T19:0:41Z</time></trkpt>
<trkpt lat="46.527287" lon="7.023105"><ele></ele><time>2014-4-4T19:0:44Z</time></trkpt>
<trkpt lat="46.527241" lon="7.022823"><ele></ele><time>2014-4-4T19:0:47Z</time></trkpt>
<trkpt lat="46.527130" lon="7.022594"><ele></ele><time>2014-4-4T19:0:50Z</time></trkpt>
<trkpt lat="46.527073" lon="7.022327"><ele></ele><time>2014-4-4T19:0:53Z</time></trkpt>
<trkpt lat="46.527096" lon="7.021989"><ele></ele><time>2014-4-4T19:0:56Z</time></trkpt>
<trkpt lat="46.527054" lon="7.021720"><ele></ele><time>2014-4-4T19:0:59Z</time></trkpt>
<trkpt lat="46.527020" lon="7.021455"><ele></ele><time>2014-4-4T19:1:2Z</time></trkpt>
<trkpt lat="46.526966" lon="7.021154"><ele></ele><time>2014-4-4T19:1:5Z</time></trkpt>
<trkpt lat="46.526890" lon="7.020878"><ele></ele><time>2014-4-4T19:1:8Z</time></trkpt>
<trkpt lat="46.526932" lon="7.020647"><ele></ele><time>2014-4-4T19:1:11Z</time></trkpt>
<trkpt lat="46.527004" lon="7.020548"><ele></ele><time>2014-4-4T19:1:14Z</time></trkpt>
<trkpt lat="46.527069" lon="7.020579"><ele></ele><time>2014-4-4T19:1:17Z</time></trkpt>
<trkpt lat="46.527145" lon="7.020645"><ele></ele><time>2014-4-4T19:1:20Z</time></trkpt>
<trkpt lat="46.527260" lon="7.020707"><ele></ele><time>2014-4-4T19:1:23Z</time></trkpt>
<trkpt lat="46.527344" lon="7.020751"><ele></ele><time>2014-4-4T19:1:26Z</time></trkpt>
<trkpt lat="46.527477" lon="7.020734"><ele></ele><time>2014-4-4T19:1:29Z</time></trkpt>
<trkpt lat="46.527615" lon="7.020715"><ele></ele><time>2014-4-4T19:1:32Z</time></trkpt>
<trkpt lat="46.527725" lon="7.020681"><ele></ele><time>2014-4-4T19:1:35Z</time></trkpt>
<trkpt lat="46.527863" lon="7.020625"><ele></ele><time>2014-4-4T19:1:38Z</time></trkpt>
<trkpt lat="46.527939" lon="7.020504"><ele></ele><time>2014-4-4T19:1:41Z</time></trkpt>
<trkpt lat="46.527992" lon="7.020390"><ele></ele><time>2014-4-4T19:1:44Z</time></trkpt>
<trkpt lat="46.527897" lon="7.020305"><ele></ele><time>2014-4-4T19:1:47Z</time></trkpt>
<trkpt lat="46.527843" lon="7.020240"><ele></ele><time>2014-4-4T19:1:50Z</time></trkpt>
<trkpt lat="46.527790" lon="7.020197"><ele></ele><time>2014-4-4T19:1:53Z</time></trkpt>
<trkpt lat="46.527763" lon="7.020201"><ele></ele><time>2014-4-4T19:1:56Z</time></trkpt>
<trkpt lat="46.527702" lon="7.020158"><ele></ele><time>2014-4-4T19:1:59Z</time></trkpt>
<trkpt lat="46.527573" lon="7.020090"><ele></ele><time>2014-4-4T19:2:2Z</time></trkpt>
<trkpt lat="46.527565" lon="7.020027"><ele></ele><time>2014-4-4T19:2:5Z</time></trkpt>
<trkpt lat="46.527588" lon="7.019924"><ele></ele><time>2014-4-4T19:2:8Z</time></trkpt>
<trkpt lat="46.527637" lon="7.019900"><ele></ele><time>2014-4-4T19:2:11Z</time></trkpt>
<trkpt lat="46.527649" lon="7.019848"><ele></ele><time>2014-4-4T19:2:14Z</time></trkpt>
<trkpt lat="46.527668" lon="7.019816"><ele></ele><time>2014-4-4T19:2:17Z</time></trkpt>
<trkpt lat="46.527733" lon="7.019755"><ele></ele><time>2014-4-4T19:2:20Z</time></trkpt>
<trkpt lat="46.527782" lon="7.019694"><ele></ele><time>2014-4-4T19:2:23Z</time></trkpt>
<trkpt lat="46.527840" lon="7.019645"><ele></ele><time>2014-4-4T19:2:26Z</time></trkpt>
<trkpt lat="46.527893" lon="7.019591"><ele></ele><time>2014-4-4T19:2:29Z</time></trkpt>
<trkpt lat="46.527958" lon="7.019567"><ele></ele><time>2014-4-4T19:2:32Z</time></trkpt>
<trkpt lat="46.528038" lon="7.019561"><ele></ele><time>2014-4-4T19:2:35Z</time></trkpt>
<trkpt lat="46.528080" lon="7.019563"><ele></ele><time>2014-4-4T19:2:38Z</time></trkpt>
<trkpt lat="46.528072" lon="7.019547"><ele></ele><time>2014-4-4T19:2:41Z</time></trkpt>
<trkpt lat="46.528088" lon="7.019535"><ele></ele><time>2014-4-4T19:2:44Z</time></trkpt>
<trkpt lat="46.528122" lon="7.019489"><ele></ele><time>2014-4-4T19:2:47Z</time></trkpt>
<trkpt lat="46.528130" lon="7.019430"><ele></ele><time>2014-4-4T19:2:50Z</time></trkpt>
<trkpt lat="46.528118" lon="7.019373"><ele></ele><time>2014-4-4T19:2:53Z</time></trkpt>
<trkpt lat="46.528152" lon="7.019330"><ele></ele><time>2014-4-4T19:2:56Z</time></trkpt>
<trkpt lat="46.528133" lon="7.019283"><ele></ele><time>2014-4-4T19:2:59Z</time></trkpt>
<trkpt lat="46.528114" lon="7.019214"><ele></ele><time>2014-4-4T19:3:2Z</time></trkpt>
<trkpt lat="46.528072" lon="7.019161"><ele></ele><time>2014-4-4T19:3:5Z</time></trkpt>
<trkpt lat="46.528034" lon="7.019083"><ele></ele><time>2014-4-4T19:3:8Z</time></trkpt>
<trkpt lat="46.528034" lon="7.019055"><ele></ele><time>2014-4-4T19:3:11Z</time></trkpt>
<trkpt lat="46.528049" lon="7.019013"><ele></ele><time>2014-4-4T19:3:14Z</time></trkpt>
<trkpt lat="46.528019" lon="7.018975"><ele></ele><time>2014-4-4T19:3:17Z</time></trkpt>
<trkpt lat="46.527939" lon="7.018868"><ele></ele><time>2014-4-4T19:3:20Z</time></trkpt>
<trkpt lat="46.527874" lon="7.018799"><ele></ele><time>2014-4-4T19:3:23Z</time></trkpt>
<trkpt lat="46.527843" lon="7.018739"><ele></ele><time>2014-4-4T19:3:26Z</time></trkpt>
<trkpt lat="46.527813" lon="7.018698"><ele></ele><time>2014-4-4T19:3:29Z</time></trkpt>
<trkpt lat="46.527782" lon="7.018664"><ele></ele><time>2014-4-4T19:3:32Z</time></trkpt>
<trkpt lat="46.527775" lon="7.018615"><ele></ele><time>2014-4-4T19:3:35Z</time></trkpt>
<trkpt lat="46.527760" lon="7.018536"><ele></ele><time>2014-4-4T19:3:38Z</time></trkpt>
<trkpt lat="46.527767" lon="7.018445"><ele></ele><time>2014-4-4T19:3:41Z</time></trkpt>
<trkpt lat="46.527817" lon="7.018381"><ele></ele><time>2014-4-4T19:3:44Z</time></trkpt>
<trkpt lat="46.527855" lon="7.018318"><ele></ele><time>2014-4-4T19:3:47Z</time></trkpt>
<trkpt lat="46.527893" lon="7.018258"><ele></ele><time>2014-4-4T19:3:50Z</time></trkpt>
<trkpt lat="46.527931" lon="7.018192"><ele></ele><time>2014-4-4T19:3:53Z</time></trkpt>
<trkpt lat="46.527985" lon="7.018126"><ele></ele><time>2014-4-4T19:3:56Z</time></trkpt>
<trkpt lat="46.528046" lon="7.018040"><ele></ele><time>2014-4-4T19:3:59Z</time></trkpt>
<trkpt lat="46.528137" lon="7.017949"><ele></ele><time>2014-4-4T19:4:2Z</time></trkpt>
<trkpt lat="46.528229" lon="7.017845"><ele></ele><time>2014-4-4T19:4:5Z</time></trkpt>
<trkpt lat="46.528336" lon="7.017728"><ele></ele><time>2014-4-4T19:4:8Z</time></trkpt>
<trkpt lat="46.528450" lon="7.017597"><ele></ele><time>2014-4-4T19:4:11Z</time></trkpt>
<trkpt lat="46.528500" lon="7.017425"><ele></ele><time>2014-4-4T19:4:14Z</time></trkpt>
<trkpt lat="46.528461" lon="7.017279"><ele></ele><time>2014-4-4T19:4:17Z</time></trkpt>
<trkpt lat="46.528400" lon="7.017171"><ele></ele><time>2014-4-4T19:4:20Z</time></trkpt>
<trkpt lat="46.528328" lon="7.017071"><ele></ele><time>2014-4-4T19:4:23Z</time></trkpt>
<trkpt lat="46.528267" lon="7.016981"><ele></ele><time>2014-4-4T19:4:26Z</time></trkpt>
<trkpt lat="46.528210" lon="7.016889"><ele></ele><time>2014-4-4T19:4:29Z</time></trkpt>
<trkpt lat="46.528149" lon="7.016788"><ele></ele><time>2014-4-4T19:4:32Z</time></trkpt>
<trkpt lat="46.528126" lon="7.016681"><ele></ele><time>2014-4-4T19:4:35Z</time></trkpt>
<trkpt lat="46.528107" lon="7.016584"><ele></ele><time>2014-4-4T19:4:38Z</time></trkpt>
<trkpt lat="46.528076" lon="7.016477"><ele></ele><time>2014-4-4T19:4:41Z</time></trkpt>
<trkpt lat="46.528030" lon="7.016357"><ele></ele><time>2014-4-4T19:4:44Z</time></trkpt>
<trkpt lat="46.527992" lon="7.016258"><ele></ele><time>2014-4-4T19:4:47Z</time></trkpt>
<trkpt lat="46.527977" lon="7.016168"><ele></ele><time>2014-4-4T19:4:50Z</time></trkpt>
<trkpt lat="46.527943" lon="7.016088"><ele></ele><time>2014-4-4T19:4:53Z</time></trkpt>
<trkpt lat="46.527893" lon="7.016003"><ele></ele><time>2014-4-4T19:4:56Z</time></trkpt>
<trkpt lat="46.527840" lon="7.015889"><ele></ele><time>2014-4-4T19:4:59Z</time></trkpt>
<trkpt lat="46.527805" lon="7.015802"><ele></ele><time>2014-4-4T19:5:2Z</time></trkpt>
<trkpt lat="46.527767" lon="7.015684"><ele></ele><time>2014-4-4T19:5:5Z</time></trkpt>
<trkpt lat="46.527737" lon="7.015591"><ele></ele><time>2014-4-4T19:5:8Z</time></trkpt>
<trkpt lat="46.527718" lon="7.015495"><ele></ele><time>2014-4-4T19:5:11Z</time></trkpt>
<trkpt lat="46.527691" lon="7.015397"><ele></ele><time>2014-4-4T19:5:14Z</time></trkpt>
<trkpt lat="46.527668" lon="7.015288"><ele></ele><time>2014-4-4T19:5:17Z</time></trkpt>
<trkpt lat="46.527649" lon="7.015191"><ele></ele><time>2014-4-4T19:5:20Z</time></trkpt>
<trkpt lat="46.527630" lon="7.015096"><ele></ele><time>2014-4-4T19:5:23Z</time></trkpt>
<trkpt lat="46.527611" lon="7.014978"><ele></ele><time>2014-4-4T19:5:26Z</time></trkpt>
<trkpt lat="46.527607" lon="7.014904"><ele></ele><time>2014-4-4T19:5:29Z</time></trkpt>
<trkpt lat="46.527588" lon="7.014818"><ele></ele><time>2014-4-4T19:5:32Z</time></trkpt>
<trkpt lat="46.527573" lon="7.014743"><ele></ele><time>2014-4-4T19:5:35Z</time></trkpt>
<trkpt lat="46.527576" lon="7.014731"><ele></ele><time>2014-4-4T19:5:38Z</time></trkpt>
<trkpt lat="46.527576" lon="7.014731"><ele></ele><time>2014-4-4T19:5:41Z</time></trkpt>
<trkpt lat="46.527573" lon="7.014732"><ele></ele><time>2014-4-4T19:5:44Z</time></trkpt>
<trkpt lat="46.527576" lon="7.014736"><ele></ele><time>2014-4-4T19:5:47Z</time></trkpt>
<trkpt lat="46.527584" lon="7.014735"><ele></ele><time>2014-4-4T19:5:50Z</time></trkpt>
<trkpt lat="46.527584" lon="7.014736"><ele></ele><time>2014-4-4T19:5:53Z</time></trkpt>
<trkpt lat="46.527584" lon="7.014735"><ele></ele><time>2014-4-4T19:5:56Z</time></trkpt>
<trkpt lat="46.527584" lon="7.014735"><ele></ele><time>2014-4-4T19:5:59Z</time></trkpt>
<trkpt lat="46.527584" lon="7.014736"><ele></ele><time>2014-4-4T19:6:2Z</time></trkpt>
<trkpt lat="46.527580" lon="7.014736"><ele></ele><time>2014-4-4T19:6:5Z</time></trkpt>
<trkpt lat="46.527580" lon="7.014736"><ele></ele><time>2014-4-4T19:6:8Z</time></trkpt>
<trkpt lat="46.527576" lon="7.014736"><ele></ele><time>2014-4-4T19:6:11Z</time></trkpt>
<trkpt lat="46.527576" lon="7.014736"><ele></ele><time>2014-4-4T19:6:14Z</time></trkpt>
<trkpt lat="46.527576" lon="7.014737"><ele></ele><time>2014-4-4T19:6:17Z</time></trkpt>
<trkpt lat="46.527573" lon="7.014737"><ele></ele><time>2014-4-4T19:6:20Z</time></trkpt>
<trkpt lat="46.527573" lon="7.014737"><ele></ele><time>2014-4-4T19:6:23Z</time></trkpt>
<trkpt lat="46.527573" lon="7.014737"><ele></ele><time>2014-4-4T19:6:26Z</time></trkpt>
<trkpt lat="46.527569" lon="7.014737"><ele></ele><time>2014-4-4T19:6:29Z</time></trkpt>
<trkpt lat="46.527569" lon="7.014738"><ele></ele><time>2014-4-4T19:6:32Z</time></trkpt>
<trkpt lat="46.527565" lon="7.014738"><ele></ele><time>2014-4-4T19:6:35Z</time></trkpt>
<trkpt lat="46.527565" lon="7.014738"><ele></ele><time>2014-4-4T19:6:38Z</time></trkpt>
<trkpt lat="46.527565" lon="7.014739"><ele></ele><time>2014-4-4T19:6:41Z</time></trkpt>
<trkpt lat="46.527561" lon="7.014739"><ele></ele><time>2014-4-4T19:6:44Z</time></trkpt>
<trkpt lat="46.527561" lon="7.014739"><ele></ele><time>2014-4-4T19:6:47Z</time></trkpt>
<trkpt lat="46.527561" lon="7.014739"><ele></ele><time>2014-4-4T19:6:50Z</time></trkpt>
<trkpt lat="46.527557" lon="7.014740"><ele></ele><time>2014-4-4T19:6:53Z</time></trkpt>
<trkpt lat="46.527557" lon="7.014740"><ele></ele><time>2014-4-4T19:6:56Z</time></trkpt>
<trkpt lat="46.527557" lon="7.014740"><ele></ele><time>2014-4-4T19:6:59Z</time></trkpt>
<trkpt lat="46.527557" lon="7.014741"><ele></ele><time>2014-4-4T19:7:2Z</time></trkpt>
<trkpt lat="46.527557" lon="7.014741"><ele></ele><time>2014-4-4T19:7:5Z</time></trkpt>
<trkpt lat="46.527557" lon="7.014741"><ele></ele><time>2014-4-4T19:7:8Z</time></trkpt>
<trkpt lat="46.527557" lon="7.014742"><ele></ele><time>2014-4-4T19:7:11Z</time></trkpt>
<trkpt lat="46.527557" lon="7.014743"><ele></ele><time>2014-4-4T19:7:14Z</time></trkpt>
<trkpt lat="46.527557" lon="7.014744"><ele></ele><time>2014-4-4T19:7:17Z</time></trkpt>
<trkpt lat="46.527557" lon="7.014744"><ele></ele><time>2014-4-4T19:7:20Z</time></trkpt>
<trkpt lat="46.527557" lon="7.014745"><ele></ele><time>2014-4-4T19:7:23Z</time></trkpt>
<trkpt lat="46.527557" lon="7.014745"><ele></ele><time>2014-4-4T19:7:26Z</time></trkpt>
<trkpt lat="46.527557" lon="7.014746"><ele></ele><time>2014-4-4T19:7:29Z</time></trkpt>
<trkpt lat="46.527557" lon="7.014746"><ele></ele><time>2014-4-4T19:7:32Z</time></trkpt>
<trkpt lat="46.527557" lon="7.014747"><ele></ele><time>2014-4-4T19:7:35Z</time></trkpt>
<trkpt lat="46.527557" lon="7.014748"><ele></ele><time>2014-4-4T19:7:38Z</time></trkpt>
<trkpt lat="46.527557" lon="7.014749"><ele></ele><time>2014-4-4T19:7:41Z</time></trkpt>
<trkpt lat="46.527557" lon="7.014749"><ele></ele><time>2014-4-4T19:7:44Z</time></trkpt>
<trkpt lat="46.527557" lon="7.014749"><ele></ele><time>2014-4-4T19:7:47Z</time></trkpt>
<trkpt lat="46.527557" lon="7.014749"><ele></ele><time>2014-4-4T19:7:50Z</time></trkpt>
<trkpt lat="46.527557" lon="7.014748"><ele></ele><time>2014-4-4T19:7:53Z</time></trkpt>
<trkpt lat="46.527557" lon="7.014748"><ele></ele><time>2014-4-4T19:7:56Z</time></trkpt>
<trkpt lat="46.527557" lon="7.014748"><ele></ele><time>2014-4-4T19:7:59Z</time></trkpt>
<trkpt lat="46.527557" lon="7.014748"><ele></ele><time>2014-4-4T19:8:2Z</time></trkpt>
<trkpt lat="46.527557" lon="7.014747"><ele></ele><time>2014-4-4T19:8:5Z</time></trkpt>
<trkpt lat="46.527557" lon="7.014747"><ele></ele><time>2014-4-4T19:8:8Z</time></trkpt>
<trkpt lat="46.527554" lon="7.014747"><ele></ele><time>2014-4-4T19:8:11Z</time></trkpt>
<trkpt lat="46.527554" lon="7.014747"><ele></ele><time>2014-4-4T19:8:14Z</time></trkpt>
<trkpt lat="46.527554" lon="7.014747"><ele></ele><time>2014-4-4T19:8:17Z</time></trkpt>
<trkpt lat="46.527557" lon="7.014746"><ele></ele><time>2014-4-4T19:8:20Z</time></trkpt>
<trkpt lat="46.527554" lon="7.014746"><ele></ele><time>2014-4-4T19:8:23Z</time></trkpt>
<trkpt lat="46.527554" lon="7.014746"><ele></ele><time>2014-4-4T19:8:26Z</time></trkpt>
<trkpt lat="46.527554" lon="7.014746"><ele></ele><time>2014-4-4T19:8:29Z</time></trkpt>
<trkpt lat="46.527554" lon="7.014745"><ele></ele><time>2014-4-4T19:8:32Z</time></trkpt>
<trkpt lat="46.527554" lon="7.014745"><ele></ele><time>2014-4-4T19:8:35Z</time></trkpt>
<trkpt lat="46.527554" lon="7.014745"><ele></ele><time>2014-4-4T19:8:38Z</time></trkpt>
<trkpt lat="46.527554" lon="7.014745"><ele></ele><time>2014-4-4T19:8:41Z</time></trkpt>
<trkpt lat="46.527554" lon="7.014744"><ele></ele><time>2014-4-4T19:8:44Z</time></trkpt>
<trkpt lat="46.527550" lon="7.014725"><ele></ele><time>2014-4-4T19:8:47Z</time></trkpt>
<trkpt lat="46.527554" lon="7.014723"><ele></ele><time>2014-4-4T19:8:50Z</time></trkpt>
<trkpt lat="46.527538" lon="7.014657"><ele></ele><time>2014-4-4T19:8:53Z</time></trkpt>
<trkpt lat="46.527515" lon="7.014567"><ele></ele><time>2014-4-4T19:8:56Z</time></trkpt>
<trkpt lat="46.527481" lon="7.014472"><ele></ele><time>2014-4-4T19:8:59Z</time></trkpt>
<trkpt lat="46.527447" lon="7.014383"><ele></ele><time>2014-4-4T19:9:2Z</time></trkpt>
<trkpt lat="46.527412" lon="7.014284"><ele></ele><time>2014-4-4T19:9:5Z</time></trkpt>
<trkpt lat="46.527382" lon="7.014188"><ele></ele><time>2014-4-4T19:9:8Z</time></trkpt>
<trkpt lat="46.527332" lon="7.014114"><ele></ele><time>2014-4-4T19:9:11Z</time></trkpt>
<trkpt lat="46.527309" lon="7.014018"><ele></ele><time>2014-4-4T19:9:14Z</time></trkpt>
<trkpt lat="46.527271" lon="7.013931"><ele></ele><time>2014-4-4T19:9:17Z</time></trkpt>
<trkpt lat="46.527225" lon="7.013844"><ele></ele><time>2014-4-4T19:9:20Z</time></trkpt>
<trkpt lat="46.527203" lon="7.013751"><ele></ele><time>2014-4-4T19:9:23Z</time></trkpt>
<trkpt lat="46.527153" lon="7.013659"><ele></ele><time>2014-4-4T19:9:26Z</time></trkpt>
<trkpt lat="46.527107" lon="7.013570"><ele></ele><time>2014-4-4T19:9:29Z</time></trkpt>
<trkpt lat="46.527084" lon="7.013487"><ele></ele><time>2014-4-4T19:9:32Z</time></trkpt>
<trkpt lat="46.527046" lon="7.013401"><ele></ele><time>2014-4-4T19:9:35Z</time></trkpt>
<trkpt lat="46.527023" lon="7.013314"><ele></ele><time>2014-4-4T19:9:38Z</time></trkpt>
<trkpt lat="46.527012" lon="7.013224"><ele></ele><time>2014-4-4T19:9:41Z</time></trkpt>
<trkpt lat="46.527016" lon="7.013121"><ele></ele><time>2014-4-4T19:9:44Z</time></trkpt>
<trkpt lat="46.527016" lon="7.013025"><ele></ele><time>2014-4-4T19:9:47Z</time></trkpt>
<trkpt lat="46.527016" lon="7.012926"><ele></ele><time>2014-4-4T19:9:50Z</time></trkpt>
<trkpt lat="46.527016" lon="7.012837"><ele></ele><time>2014-4-4T19:9:53Z</time></trkpt>
<trkpt lat="46.527027" lon="7.012736"><ele></ele><time>2014-4-4T19:9:56Z</time></trkpt>
<trkpt lat="46.527050" lon="7.012630"><ele></ele><time>2014-4-4T19:9:59Z</time></trkpt>
<trkpt lat="46.527107" lon="7.012525"><ele></ele><time>2014-4-4T19:10:2Z</time></trkpt>
<trkpt lat="46.527248" lon="7.012385"><ele></ele><time>2014-4-4T19:10:5Z</time></trkpt>
<trkpt lat="46.527386" lon="7.012182"><ele></ele><time>2014-4-4T19:10:8Z</time></trkpt>
<trkpt lat="46.527149" lon="7.011998"><ele></ele><time>2014-4-4T19:10:11Z</time></trkpt>
<trkpt lat="46.527016" lon="7.011981"><ele></ele><time>2014-4-4T19:10:14Z</time></trkpt>
<trkpt lat="46.526897" lon="7.011908"><ele></ele><time>2014-4-4T19:10:17Z</time></trkpt>
<trkpt lat="46.526840" lon="7.011782"><ele></ele><time>2014-4-4T19:10:20Z</time></trkpt>
<trkpt lat="46.526772" lon="7.011658"><ele></ele><time>2014-4-4T19:10:23Z</time></trkpt>
<trkpt lat="46.526707" lon="7.011532"><ele></ele><time>2014-4-4T19:10:26Z</time></trkpt>
<trkpt lat="46.526638" lon="7.011421"><ele></ele><time>2014-4-4T19:10:29Z</time></trkpt>
<trkpt lat="46.526573" lon="7.011294"><ele></ele><time>2014-4-4T19:10:32Z</time></trkpt>
<trkpt lat="46.526512" lon="7.011172"><ele></ele><time>2014-4-4T19:10:35Z</time></trkpt>
<trkpt lat="46.526463" lon="7.011058"><ele></ele><time>2014-4-4T19:10:38Z</time></trkpt>
<trkpt lat="46.526402" lon="7.010965"><ele></ele><time>2014-4-4T19:10:41Z</time></trkpt>
<trkpt lat="46.526344" lon="7.010857"><ele></ele><time>2014-4-4T19:10:44Z</time></trkpt>
<trkpt lat="46.526295" lon="7.010767"><ele></ele><time>2014-4-4T19:10:47Z</time></trkpt>
<trkpt lat="46.526230" lon="7.010684"><ele></ele><time>2014-4-4T19:10:50Z</time></trkpt>
<trkpt lat="46.526188" lon="7.010590"><ele></ele><time>2014-4-4T19:10:53Z</time></trkpt>
<trkpt lat="46.526142" lon="7.010484"><ele></ele><time>2014-4-4T19:10:56Z</time></trkpt>
<trkpt lat="46.526089" lon="7.010386"><ele></ele><time>2014-4-4T19:10:59Z</time></trkpt>
<trkpt lat="46.526051" lon="7.010270"><ele></ele><time>2014-4-4T19:11:2Z</time></trkpt>
<trkpt lat="46.526020" lon="7.010151"><ele></ele><time>2014-4-4T19:11:5Z</time></trkpt>
<trkpt lat="46.525978" lon="7.010043"><ele></ele><time>2014-4-4T19:11:8Z</time></trkpt>
<trkpt lat="46.525940" lon="7.009928"><ele></ele><time>2014-4-4T19:11:11Z</time></trkpt>
<trkpt lat="46.525890" lon="7.009820"><ele></ele><time>2014-4-4T19:11:14Z</time></trkpt>
<trkpt lat="46.525852" lon="7.009696"><ele></ele><time>2014-4-4T19:11:17Z</time></trkpt>
<trkpt lat="46.525784" lon="7.009584"><ele></ele><time>2014-4-4T19:11:20Z</time></trkpt>
<trkpt lat="46.525738" lon="7.009465"><ele></ele><time>2014-4-4T19:11:23Z</time></trkpt>
<trkpt lat="46.525696" lon="7.009355"><ele></ele><time>2014-4-4T19:11:26Z</time></trkpt>
<trkpt lat="46.525642" lon="7.009246"><ele></ele><time>2014-4-4T19:11:29Z</time></trkpt>
<trkpt lat="46.525589" lon="7.009134"><ele></ele><time>2014-4-4T19:11:32Z</time></trkpt>
<trkpt lat="46.525517" lon="7.009030"><ele></ele><time>2014-4-4T19:11:35Z</time></trkpt>
<trkpt lat="46.525467" lon="7.008903"><ele></ele><time>2014-4-4T19:11:38Z</time></trkpt>
<trkpt lat="46.525425" lon="7.008783"><ele></ele><time>2014-4-4T19:11:41Z</time></trkpt>
<trkpt lat="46.525368" lon="7.008664"><ele></ele><time>2014-4-4T19:11:44Z</time></trkpt>
<trkpt lat="46.525314" lon="7.008547"><ele></ele><time>2014-4-4T19:11:47Z</time></trkpt>
<trkpt lat="46.525269" lon="7.008439"><ele></ele><time>2014-4-4T19:11:50Z</time></trkpt>
<trkpt lat="46.525230" lon="7.008298"><ele></ele><time>2014-4-4T19:11:53Z</time></trkpt>
<trkpt lat="46.525227" lon="7.008084"><ele></ele><time>2014-4-4T19:11:56Z</time></trkpt>
<trkpt lat="46.525238" lon="7.007794"><ele></ele><time>2014-4-4T19:11:59Z</time></trkpt>
<trkpt lat="46.525230" lon="7.007490"><ele></ele><time>2014-4-4T19:12:2Z</time></trkpt>
<trkpt lat="46.525108" lon="7.007482"><ele></ele><time>2014-4-4T19:12:5Z</time></trkpt>
<trkpt lat="46.524982" lon="7.007624"><ele></ele><time>2014-4-4T19:12:8Z</time></trkpt>
<trkpt lat="46.524883" lon="7.007734"><ele></ele><time>2014-4-4T19:12:11Z</time></trkpt>
<trkpt lat="46.524796" lon="7.007823"><ele></ele><time>2014-4-4T19:12:14Z</time></trkpt>
<trkpt lat="46.524677" lon="7.007825"><ele></ele><time>2014-4-4T19:12:17Z</time></trkpt>
<trkpt lat="46.524567" lon="7.007786"><ele></ele><time>2014-4-4T19:12:20Z</time></trkpt>
<trkpt lat="46.524467" lon="7.007742"><ele></ele><time>2014-4-4T19:12:23Z</time></trkpt>
<trkpt lat="46.524361" lon="7.007717"><ele></ele><time>2014-4-4T19:12:26Z</time></trkpt>
<trkpt lat="46.524265" lon="7.007665"><ele></ele><time>2014-4-4T19:12:29Z</time></trkpt>
<trkpt lat="46.524170" lon="7.007624"><ele></ele><time>2014-4-4T19:12:32Z</time></trkpt>
<trkpt lat="46.524071" lon="7.007628"><ele></ele><time>2014-4-4T19:12:35Z</time></trkpt>
<trkpt lat="46.523979" lon="7.007668"><ele></ele><time>2014-4-4T19:12:38Z</time></trkpt>
<trkpt lat="46.523888" lon="7.007737"><ele></ele><time>2014-4-4T19:12:41Z</time></trkpt>
<trkpt lat="46.523800" lon="7.007778"><ele></ele><time>2014-4-4T19:12:44Z</time></trkpt>
<trkpt lat="46.523701" lon="7.007804"><ele></ele><time>2014-4-4T19:12:47Z</time></trkpt>
<trkpt lat="46.523605" lon="7.007762"><ele></ele><time>2014-4-4T19:12:50Z</time></trkpt>
<trkpt lat="46.523510" lon="7.007698"><ele></ele><time>2014-4-4T19:12:53Z</time></trkpt>
<trkpt lat="46.523438" lon="7.007614"><ele></ele><time>2014-4-4T19:12:56Z</time></trkpt>
<trkpt lat="46.523357" lon="7.007524"><ele></ele><time>2014-4-4T19:12:59Z</time></trkpt>
<trkpt lat="46.523277" lon="7.007453"><ele></ele><time>2014-4-4T19:13:2Z</time></trkpt>
<trkpt lat="46.523182" lon="7.007439"><ele></ele><time>2014-4-4T19:13:5Z</time></trkpt>
<trkpt lat="46.523087" lon="7.007449"><ele></ele><time>2014-4-4T19:13:8Z</time></trkpt>
<trkpt lat="46.523018" lon="7.007380"><ele></ele><time>2014-4-4T19:13:11Z</time></trkpt>
<trkpt lat="46.523064" lon="7.007283"><ele></ele><time>2014-4-4T19:13:14Z</time></trkpt>
<trkpt lat="46.523151" lon="7.007271"><ele></ele><time>2014-4-4T19:13:17Z</time></trkpt>
<trkpt lat="46.523247" lon="7.007263"><ele></ele><time>2014-4-4T19:13:20Z</time></trkpt>
<trkpt lat="46.523327" lon="7.007215"><ele></ele><time>2014-4-4T19:13:23Z</time></trkpt>
<trkpt lat="46.523403" lon="7.007159"><ele></ele><time>2014-4-4T19:13:26Z</time></trkpt>
<trkpt lat="46.523487" lon="7.007099"><ele></ele><time>2014-4-4T19:13:29Z</time></trkpt>
<trkpt lat="46.523533" lon="7.007028"><ele></ele><time>2014-4-4T19:13:32Z</time></trkpt>
<trkpt lat="46.523571" lon="7.006930"><ele></ele><time>2014-4-4T19:13:35Z</time></trkpt>
<trkpt lat="46.523609" lon="7.006847"><ele></ele><time>2014-4-4T19:13:38Z</time></trkpt>
<trkpt lat="46.523651" lon="7.006755"><ele></ele><time>2014-4-4T19:13:41Z</time></trkpt>
<trkpt lat="46.523705" lon="7.006688"><ele></ele><time>2014-4-4T19:13:44Z</time></trkpt>
<trkpt lat="46.523766" lon="7.006610"><ele></ele><time>2014-4-4T19:13:47Z</time></trkpt>
<trkpt lat="46.523811" lon="7.006520"><ele></ele><time>2014-4-4T19:13:50Z</time></trkpt>
<trkpt lat="46.523834" lon="7.006418"><ele></ele><time>2014-4-4T19:13:53Z</time></trkpt>
<trkpt lat="46.523857" lon="7.006307"><ele></ele><time>2014-4-4T19:13:56Z</time></trkpt>
<trkpt lat="46.523884" lon="7.006196"><ele></ele><time>2014-4-4T19:13:59Z</time></trkpt>
<trkpt lat="46.523922" lon="7.006090"><ele></ele><time>2014-4-4T19:14:2Z</time></trkpt>
<trkpt lat="46.523994" lon="7.006042"><ele></ele><time>2014-4-4T19:14:5Z</time></trkpt>
<trkpt lat="46.524075" lon="7.006010"><ele></ele><time>2014-4-4T19:14:8Z</time></trkpt>
<trkpt lat="46.524158" lon="7.005990"><ele></ele><time>2014-4-4T19:14:11Z</time></trkpt>
<trkpt lat="46.524239" lon="7.005971"><ele></ele><time>2014-4-4T19:14:14Z</time></trkpt>
<trkpt lat="46.524323" lon="7.005922"><ele></ele><time>2014-4-4T19:14:17Z</time></trkpt>
<trkpt lat="46.524376" lon="7.005830"><ele></ele><time>2014-4-4T19:14:20Z</time></trkpt>
<trkpt lat="46.524403" lon="7.005709"><ele></ele><time>2014-4-4T19:14:23Z</time></trkpt>
<trkpt lat="46.524448" lon="7.005623"><ele></ele><time>2014-4-4T19:14:26Z</time></trkpt>
<trkpt lat="46.524567" lon="7.005544"><ele></ele><time>2014-4-4T19:14:29Z</time></trkpt>
<trkpt lat="46.524677" lon="7.005424"><ele></ele><time>2014-4-4T19:14:32Z</time></trkpt>
<trkpt lat="46.524731" lon="7.005335"><ele></ele><time>2014-4-4T19:14:35Z</time></trkpt>
<trkpt lat="46.524803" lon="7.005262"><ele></ele><time>2014-4-4T19:14:38Z</time></trkpt>
<trkpt lat="46.524883" lon="7.005194"><ele></ele><time>2014-4-4T19:14:41Z</time></trkpt>
<trkpt lat="46.524963" lon="7.005163"><ele></ele><time>2014-4-4T19:14:44Z</time></trkpt>
<trkpt lat="46.525070" lon="7.005131"><ele></ele><time>2014-4-4T19:14:47Z</time></trkpt>
<trkpt lat="46.525154" lon="7.005126"><ele></ele><time>2014-4-4T19:14:50Z</time></trkpt>
<trkpt lat="46.525238" lon="7.005120"><ele></ele><time>2014-4-4T19:14:53Z</time></trkpt>
<trkpt lat="46.525318" lon="7.005114"><ele></ele><time>2014-4-4T19:14:56Z</time></trkpt>
<trkpt lat="46.525410" lon="7.005120"><ele></ele><time>2014-4-4T19:14:59Z</time></trkpt>
<trkpt lat="46.525494" lon="7.005121"><ele></ele><time>2014-4-4T19:15:2Z</time></trkpt>
<trkpt lat="46.525574" lon="7.005122"><ele></ele><time>2014-4-4T19:15:5Z</time></trkpt>
<trkpt lat="46.525646" lon="7.005113"><ele></ele><time>2014-4-4T19:15:8Z</time></trkpt>
<trkpt lat="46.525719" lon="7.005111"><ele></ele><time>2014-4-4T19:15:11Z</time></trkpt>
<trkpt lat="46.525784" lon="7.005099"><ele></ele><time>2014-4-4T19:15:14Z</time></trkpt>
<trkpt lat="46.525848" lon="7.005050"><ele></ele><time>2014-4-4T19:15:17Z</time></trkpt>
<trkpt lat="46.525902" lon="7.004981"><ele></ele><time>2014-4-4T19:15:20Z</time></trkpt>
<trkpt lat="46.525936" lon="7.004884"><ele></ele><time>2014-4-4T19:15:23Z</time></trkpt>
<trkpt lat="46.525955" lon="7.004773"><ele></ele><time>2014-4-4T19:15:26Z</time></trkpt>
<trkpt lat="46.526009" lon="7.004708"><ele></ele><time>2014-4-4T19:15:29Z</time></trkpt>
<trkpt lat="46.526081" lon="7.004686"><ele></ele><time>2014-4-4T19:15:32Z</time></trkpt>
<trkpt lat="46.526169" lon="7.004701"><ele></ele><time>2014-4-4T19:15:35Z</time></trkpt>
<trkpt lat="46.526276" lon="7.004702"><ele></ele><time>2014-4-4T19:15:38Z</time></trkpt>
<trkpt lat="46.526367" lon="7.004679"><ele></ele><time>2014-4-4T19:15:41Z</time></trkpt>
<trkpt lat="46.526455" lon="7.004663"><ele></ele><time>2014-4-4T19:15:44Z</time></trkpt>
<trkpt lat="46.526569" lon="7.004674"><ele></ele><time>2014-4-4T19:15:47Z</time></trkpt>
<trkpt lat="46.526657" lon="7.004726"><ele></ele><time>2014-4-4T19:15:50Z</time></trkpt>
<trkpt lat="46.526718" lon="7.004768"><ele></ele><time>2014-4-4T19:15:53Z</time></trkpt>
<trkpt lat="46.526794" lon="7.004810"><ele></ele><time>2014-4-4T19:15:56Z</time></trkpt>
<trkpt lat="46.526833" lon="7.004884"><ele></ele><time>2014-4-4T19:15:59Z</time></trkpt>
<trkpt lat="46.526855" lon="7.004973"><ele></ele><time>2014-4-4T19:16:2Z</time></trkpt>
<trkpt lat="46.526878" lon="7.005070"><ele></ele><time>2014-4-4T19:16:5Z</time></trkpt>
<trkpt lat="46.526909" lon="7.005169"><ele></ele><time>2014-4-4T19:16:8Z</time></trkpt>
<trkpt lat="46.526936" lon="7.005266"><ele></ele><time>2014-4-4T19:16:11Z</time></trkpt>
<trkpt lat="46.526985" lon="7.005389"><ele></ele><time>2014-4-4T19:16:14Z</time></trkpt>
<trkpt lat="46.527027" lon="7.005487"><ele></ele><time>2014-4-4T19:16:17Z</time></trkpt>
<trkpt lat="46.527050" lon="7.005596"><ele></ele><time>2014-4-4T19:16:20Z</time></trkpt>
<trkpt lat="46.527077" lon="7.005707"><ele></ele><time>2014-4-4T19:16:23Z</time></trkpt>
<trkpt lat="46.527111" lon="7.005813"><ele></ele><time>2014-4-4T19:16:26Z</time></trkpt>
<trkpt lat="46.527126" lon="7.005915"><ele></ele><time>2014-4-4T19:16:29Z</time></trkpt>
<trkpt lat="46.527149" lon="7.006024"><ele></ele><time>2014-4-4T19:16:32Z</time></trkpt>
<trkpt lat="46.527164" lon="7.006144"><ele></ele><time>2014-4-4T19:16:35Z</time></trkpt>
<trkpt lat="46.527210" lon="7.006248"><ele></ele><time>2014-4-4T19:16:38Z</time></trkpt>
<trkpt lat="46.527241" lon="7.006360"><ele></ele><time>2014-4-4T19:16:41Z</time></trkpt>
<trkpt lat="46.527271" lon="7.006466"><ele></ele><time>2014-4-4T19:16:44Z</time></trkpt>
<trkpt lat="46.527313" lon="7.006566"><ele></ele><time>2014-4-4T19:16:47Z</time></trkpt>
<trkpt lat="46.527348" lon="7.006658"><ele></ele><time>2014-4-4T19:16:50Z</time></trkpt>
<trkpt lat="46.527401" lon="7.006755"><ele></ele><time>2014-4-4T19:16:53Z</time></trkpt>
<trkpt lat="46.527451" lon="7.006851"><ele></ele><time>2014-4-4T19:16:56Z</time></trkpt>
<trkpt lat="46.527496" lon="7.006948"><ele></ele><time>2014-4-4T19:16:59Z</time></trkpt>
<trkpt lat="46.527527" lon="7.007060"><ele></ele><time>2014-4-4T19:17:2Z</time></trkpt>
<trkpt lat="46.527519" lon="7.007181"><ele></ele><time>2014-4-4T19:17:5Z</time></trkpt>
<trkpt lat="46.527523" lon="7.007322"><ele></ele><time>2014-4-4T19:17:8Z</time></trkpt>
<trkpt lat="46.527527" lon="7.007464"><ele></ele><time>2014-4-4T19:17:11Z</time></trkpt>
<trkpt lat="46.527538" lon="7.007608"><ele></ele><time>2014-4-4T19:17:14Z</time></trkpt>
<trkpt lat="46.527584" lon="7.007733"><ele></ele><time>2014-4-4T19:17:17Z</time></trkpt>
<trkpt lat="46.527653" lon="7.007853"><ele></ele><time>2014-4-4T19:17:20Z</time></trkpt>
<trkpt lat="46.527729" lon="7.007879"><ele></ele><time>2014-4-4T19:17:23Z</time></trkpt>
<trkpt lat="46.527756" lon="7.007876"><ele></ele><time>2014-4-4T19:17:26Z</time></trkpt>
<trkpt lat="46.527752" lon="7.007866"><ele></ele><time>2014-4-4T19:17:29Z</time></trkpt>
<trkpt lat="46.527668" lon="7.007847"><ele></ele><time>2014-4-4T19:17:32Z</time></trkpt>
<trkpt lat="46.527592" lon="7.007766"><ele></ele><time>2014-4-4T19:17:35Z</time></trkpt>
<trkpt lat="46.527527" lon="7.007676"><ele></ele><time>2014-4-4T19:17:38Z</time></trkpt>
<trkpt lat="46.527504" lon="7.007629"><ele></ele><time>2014-4-4T19:17:41Z</time></trkpt>
<trkpt lat="46.527493" lon="7.007634"><ele></ele><time>2014-4-4T19:17:44Z</time></trkpt>
<trkpt lat="46.527496" lon="7.007641"><ele></ele><time>2014-4-4T19:17:47Z</time></trkpt>
<trkpt lat="46.527496" lon="7.007642"><ele></ele><time>2014-4-4T19:17:50Z</time></trkpt>
<trkpt lat="46.527496" lon="7.007643"><ele></ele><time>2014-4-4T19:17:53Z</time></trkpt>
<trkpt lat="46.527496" lon="7.007643"><ele></ele><time>2014-4-4T19:17:56Z</time></trkpt>
<trkpt lat="46.527496" lon="7.007643"><ele></ele><time>2014-4-4T19:17:59Z</time></trkpt>
<trkpt lat="46.527496" lon="7.007644"><ele></ele><time>2014-4-4T19:18:2Z</time></trkpt>
<trkpt lat="46.527496" lon="7.007644"><ele></ele><time>2014-4-4T19:18:5Z</time></trkpt>
<trkpt lat="46.527496" lon="7.007644"><ele></ele><time>2014-4-4T19:18:8Z</time></trkpt>
<trkpt lat="46.527496" lon="7.007644"><ele></ele><time>2014-4-4T19:18:11Z</time></trkpt>
<trkpt lat="46.527496" lon="7.007644"><ele></ele><time>2014-4-4T19:18:14Z</time></trkpt>
<trkpt lat="46.527496" lon="7.007644"><ele></ele><time>2014-4-4T19:18:17Z</time></trkpt>
<trkpt lat="46.527496" lon="7.007645"><ele></ele><time>2014-4-4T19:18:20Z</time></trkpt>
<trkpt lat="46.527496" lon="7.007645"><ele></ele><time>2014-4-4T19:18:23Z</time></trkpt>
<trkpt lat="46.527508" lon="7.007666"><ele></ele><time>2014-4-4T19:18:26Z</time></trkpt>
<trkpt lat="46.527554" lon="7.007712"><ele></ele><time>2014-4-4T19:18:29Z</time></trkpt>
<trkpt lat="46.527622" lon="7.007815"><ele></ele><time>2014-4-4T19:18:32Z</time></trkpt>
<trkpt lat="46.527786" lon="7.007814"><ele></ele><time>2014-4-4T19:18:35Z</time></trkpt>
<trkpt lat="46.527908" lon="7.007758"><ele></ele><time>2014-4-4T19:18:38Z</time></trkpt>
<trkpt lat="46.527958" lon="7.007648"><ele></ele><time>2014-4-4T19:18:41Z</time></trkpt>
<trkpt lat="46.527935" lon="7.007558"><ele></ele><time>2014-4-4T19:18:44Z</time></trkpt>
<trkpt lat="46.527943" lon="7.007493"><ele></ele><time>2014-4-4T19:18:47Z</time></trkpt>
<trkpt lat="46.527950" lon="7.007486"><ele></ele><time>2014-4-4T19:18:50Z</time></trkpt>
<trkpt lat="46.527946" lon="7.007467"><ele></ele><time>2014-4-4T19:18:53Z</time></trkpt>
<trkpt lat="46.527939" lon="7.007454"><ele></ele><time>2014-4-4T19:18:56Z</time></trkpt>
<trkpt lat="46.527950" lon="7.007361"><ele></ele><time>2014-4-4T19:18:59Z</time></trkpt>
<trkpt lat="46.527962" lon="7.007300"><ele></ele><time>2014-4-4T19:19:2Z</time></trkpt>
<trkpt lat="46.527958" lon="7.007271"><ele></ele><time>2014-4-4T19:19:5Z</time></trkpt>
<trkpt lat="46.527966" lon="7.007212"><ele></ele><time>2014-4-4T19:19:8Z</time></trkpt>
<trkpt lat="46.527931" lon="7.007255"><ele></ele><time>2014-4-4T19:19:11Z</time></trkpt>
<trkpt lat="46.527927" lon="7.007254"><ele></ele><time>2014-4-4T19:19:14Z</time></trkpt>
<trkpt lat="46.527931" lon="7.007255"><ele></ele><time>2014-4-4T19:19:17Z</time></trkpt>
<trkpt lat="46.527927" lon="7.007254"><ele></ele><time>2014-4-4T19:19:20Z</time></trkpt>
<trkpt lat="46.527920" lon="7.007215"><ele></ele><time>2014-4-4T19:19:23Z</time></trkpt>
<trkpt lat="46.527908" lon="7.007174"><ele></ele><time>2014-4-4T19:19:26Z</time></trkpt>
<trkpt lat="46.527897" lon="7.007120"><ele></ele><time>2014-4-4T19:19:29Z</time></trkpt>
<trkpt lat="46.527885" lon="7.007034"><ele></ele><time>2014-4-4T19:19:32Z</time></trkpt>
<trkpt lat="46.527874" lon="7.006963"><ele></ele><time>2014-4-4T19:19:35Z</time></trkpt>
<trkpt lat="46.527859" lon="7.006873"><ele></ele><time>2014-4-4T19:19:38Z</time></trkpt>
<trkpt lat="46.527836" lon="7.006793"><ele></ele><time>2014-4-4T19:19:41Z</time></trkpt>
<trkpt lat="46.527821" lon="7.006730"><ele></ele><time>2014-4-4T19:19:44Z</time></trkpt>
<trkpt lat="46.527817" lon="7.006672"><ele></ele><time>2014-4-4T19:19:47Z</time></trkpt>
<trkpt lat="46.527817" lon="7.006664"><ele></ele><time>2014-4-4T19:19:50Z</time></trkpt>
<trkpt lat="46.527817" lon="7.006665"><ele></ele><time>2014-4-4T19:19:53Z</time></trkpt>
<trkpt lat="46.527817" lon="7.006654"><ele></ele><time>2014-4-4T19:19:56Z</time></trkpt>
<trkpt lat="46.527817" lon="7.006638"><ele></ele><time>2014-4-4T19:19:59Z</time></trkpt>
<trkpt lat="46.527813" lon="7.006536"><ele></ele><time>2014-4-4T19:20:2Z</time></trkpt>
<trkpt lat="46.527802" lon="7.006458"><ele></ele><time>2014-4-4T19:20:5Z</time></trkpt>
<trkpt lat="46.527763" lon="7.006361"><ele></ele><time>2014-4-4T19:20:8Z</time></trkpt>
<trkpt lat="46.527763" lon="7.006255"><ele></ele><time>2014-4-4T19:20:11Z</time></trkpt>
<trkpt lat="46.527756" lon="7.006163"><ele></ele><time>2014-4-4T19:20:14Z</time></trkpt>
<trkpt lat="46.527752" lon="7.006066"><ele></ele><time>2014-4-4T19:20:17Z</time></trkpt>
<trkpt lat="46.527748" lon="7.005969"><ele></ele><time>2014-4-4T19:20:20Z</time></trkpt>
<trkpt lat="46.527733" lon="7.005855"><ele></ele><time>2014-4-4T19:20:23Z</time></trkpt>
<trkpt lat="46.527729" lon="7.005743"><ele></ele><time>2014-4-4T19:20:26Z</time></trkpt>
<trkpt lat="46.527725" lon="7.005627"><ele></ele><time>2014-4-4T19:20:29Z</time></trkpt>
<trkpt lat="46.527737" lon="7.005520"><ele></ele><time>2014-4-4T19:20:32Z</time></trkpt>
<trkpt lat="46.527752" lon="7.005431"><ele></ele><time>2014-4-4T19:20:35Z</time></trkpt>
<trkpt lat="46.527756" lon="7.005423"><ele></ele><time>2014-4-4T19:20:38Z</time></trkpt>
<trkpt lat="46.527763" lon="7.005404"><ele></ele><time>2014-4-4T19:20:41Z</time></trkpt>
<trkpt lat="46.527786" lon="7.005341"><ele></ele><time>2014-4-4T19:20:44Z</time></trkpt>
<trkpt lat="46.527798" lon="7.005276"><ele></ele><time>2014-4-4T19:20:47Z</time></trkpt>
<trkpt lat="46.527809" lon="7.005203"><ele></ele><time>2014-4-4T19:20:50Z</time></trkpt>
<trkpt lat="46.527821" lon="7.005124"><ele></ele><time>2014-4-4T19:20:53Z</time></trkpt>
<trkpt lat="46.527817" lon="7.005059"><ele></ele><time>2014-4-4T19:20:56Z</time></trkpt>
<trkpt lat="46.527817" lon="7.004995"><ele></ele><time>2014-4-4T19:20:59Z</time></trkpt>
<trkpt lat="46.527828" lon="7.004944"><ele></ele><time>2014-4-4T19:21:2Z</time></trkpt>
<trkpt lat="46.527836" lon="7.004878"><ele></ele><time>2014-4-4T19:21:5Z</time></trkpt>
<trkpt lat="46.527828" lon="7.004813"><ele></ele><time>2014-4-4T19:21:8Z</time></trkpt>
<trkpt lat="46.527813" lon="7.004750"><ele></ele><time>2014-4-4T19:21:11Z</time></trkpt>
<trkpt lat="46.527813" lon="7.004737"><ele></ele><time>2014-4-4T19:21:14Z</time></trkpt>
<trkpt lat="46.527798" lon="7.004676"><ele></ele><time>2014-4-4T19:21:17Z</time></trkpt>
<trkpt lat="46.527779" lon="7.004601"><ele></ele><time>2014-4-4T19:21:20Z</time></trkpt>
<trkpt lat="46.527744" lon="7.004515"><ele></ele><time>2014-4-4T19:21:23Z</time></trkpt>
<trkpt lat="46.527699" lon="7.004431"><ele></ele><time>2014-4-4T19:21:26Z</time></trkpt>
<trkpt lat="46.527672" lon="7.004348"><ele></ele><time>2014-4-4T19:21:29Z</time></trkpt>
<trkpt lat="46.527653" lon="7.004260"><ele></ele><time>2014-4-4T19:21:32Z</time></trkpt>
<trkpt lat="46.527645" lon="7.004175"><ele></ele><time>2014-4-4T19:21:35Z</time></trkpt>
<trkpt lat="46.527637" lon="7.004082"><ele></ele><time>2014-4-4T19:21:38Z</time></trkpt>
<trkpt lat="46.527664" lon="7.003995"><ele></ele><time>2014-4-4T19:21:41Z</time></trkpt>
<trkpt lat="46.527687" lon="7.003884"><ele></ele><time>2014-4-4T19:21:44Z</time></trkpt>
<trkpt lat="46.527714" lon="7.003759"><ele></ele><time>2014-4-4T19:21:47Z</time></trkpt>
<trkpt lat="46.527767" lon="7.003622"><ele></ele><time>2014-4-4T19:21:50Z</time></trkpt>
<trkpt lat="46.527790" lon="7.003509"><ele></ele><time>2014-4-4T19:21:53Z</time></trkpt>
<trkpt lat="46.527802" lon="7.003397"><ele></ele><time>2014-4-4T19:21:56Z</time></trkpt>
<trkpt lat="46.527748" lon="7.003312"><ele></ele><time>2014-4-4T19:21:59Z</time></trkpt>
<trkpt lat="46.527687" lon="7.003239"><ele></ele><time>2014-4-4T19:22:2Z</time></trkpt>
<trkpt lat="46.527691" lon="7.003182"><ele></ele><time>2014-4-4T19:22:5Z</time></trkpt>
<trkpt lat="46.527710" lon="7.003181"><ele></ele><time>2014-4-4T19:22:8Z</time></trkpt>
<trkpt lat="46.527710" lon="7.003180"><ele></ele><time>2014-4-4T19:22:11Z</time></trkpt>
<trkpt lat="46.527710" lon="7.003181"><ele></ele><time>2014-4-4T19:22:14Z</time></trkpt>
<trkpt lat="46.527710" lon="7.003180"><ele></ele><time>2014-4-4T19:22:17Z</time></trkpt>
<trkpt lat="46.527714" lon="7.003177"><ele></ele><time>2014-4-4T19:22:20Z</time></trkpt>
<trkpt lat="46.527706" lon="7.003167"><ele></ele><time>2014-4-4T19:22:23Z</time></trkpt>
<trkpt lat="46.527718" lon="7.003169"><ele></ele><time>2014-4-4T19:22:26Z</time></trkpt>
<trkpt lat="46.527763" lon="7.003174"><ele></ele><time>2014-4-4T19:22:29Z</time></trkpt>
<trkpt lat="46.527802" lon="7.003148"><ele></ele><time>2014-4-4T19:22:32Z</time></trkpt>
<trkpt lat="46.527809" lon="7.003110"><ele></ele><time>2014-4-4T19:22:35Z</time></trkpt>
<trkpt lat="46.527813" lon="7.003052"><ele></ele><time>2014-4-4T19:22:38Z</time></trkpt>
<trkpt lat="46.527817" lon="7.002980"><ele></ele><time>2014-4-4T19:22:41Z</time></trkpt>
<trkpt lat="46.527809" lon="7.002920"><ele></ele><time>2014-4-4T19:22:44Z</time></trkpt>
<trkpt lat="46.527794" lon="7.002851"><ele></ele><time>2014-4-4T19:22:47Z</time></trkpt>
<trkpt lat="46.527824" lon="7.002784"><ele></ele><time>2014-4-4T19:22:50Z</time></trkpt>
<trkpt lat="46.527828" lon="7.002731"><ele></ele><time>2014-4-4T19:22:53Z</time></trkpt>
<trkpt lat="46.527855" lon="7.002685"><ele></ele><time>2014-4-4T19:22:56Z</time></trkpt>
<trkpt lat="46.527889" lon="7.002643"><ele></ele><time>2014-4-4T19:22:59Z</time></trkpt>
<trkpt lat="46.527935" lon="7.002604"><ele></ele><time>2014-4-4T19:23:2Z</time></trkpt>
<trkpt lat="46.527966" lon="7.002567"><ele></ele><time>2014-4-4T19:23:5Z</time></trkpt>
<trkpt lat="46.527992" lon="7.002531"><ele></ele><time>2014-4-4T19:23:8Z</time></trkpt>
<trkpt lat="46.528015" lon="7.002499"><ele></ele><time>2014-4-4T19:23:11Z</time></trkpt>
<trkpt lat="46.528034" lon="7.002466"><ele></ele><time>2014-4-4T19:23:14Z</time></trkpt>
<trkpt lat="46.528038" lon="7.002466"><ele></ele><time>2014-4-4T19:23:17Z</time></trkpt>
<trkpt lat="46.528038" lon="7.002468"><ele></ele><time>2014-4-4T19:23:20Z</time></trkpt>
<trkpt lat="46.528049" lon="7.002449"><ele></ele><time>2014-4-4T19:23:23Z</time></trkpt>
<trkpt lat="46.528072" lon="7.002421"><ele></ele><time>2014-4-4T19:23:26Z</time></trkpt>
<trkpt lat="46.528088" lon="7.002431"><ele></ele><time>2014-4-4T19:23:29Z</time></trkpt>
<trkpt lat="46.528107" lon="7.002440"><ele></ele><time>2014-4-4T19:23:32Z</time></trkpt>
<trkpt lat="46.528137" lon="7.002415"><ele></ele><time>2014-4-4T19:23:35Z</time></trkpt>
<trkpt lat="46.528168" lon="7.002400"><ele></ele><time>2014-4-4T19:23:38Z</time></trkpt>
<trkpt lat="46.528202" lon="7.002415"><ele></ele><time>2014-4-4T19:23:41Z</time></trkpt>
<trkpt lat="46.528240" lon="7.002420"><ele></ele><time>2014-4-4T19:23:44Z</time></trkpt>
<trkpt lat="46.528278" lon="7.002400"><ele></ele><time>2014-4-4T19:23:47Z</time></trkpt>
<trkpt lat="46.528301" lon="7.002399"><ele></ele><time>2014-4-4T19:23:50Z</time></trkpt>
<trkpt lat="46.528301" lon="7.002399"><ele></ele><time>2014-4-4T19:23:53Z</time></trkpt>
<trkpt lat="46.528301" lon="7.002399"><ele></ele><time>2014-4-4T19:23:56Z</time></trkpt>
<trkpt lat="46.528370" lon="7.002375"><ele></ele><time>2014-4-4T19:23:59Z</time></trkpt>
<trkpt lat="46.528427" lon="7.002341"><ele></ele><time>2014-4-4T19:24:2Z</time></trkpt>
<trkpt lat="46.528469" lon="7.002364"><ele></ele><time>2014-4-4T19:24:5Z</time></trkpt>
<trkpt lat="46.528488" lon="7.002363"><ele></ele><time>2014-4-4T19:24:8Z</time></trkpt>
<trkpt lat="46.528507" lon="7.002374"><ele></ele><time>2014-4-4T19:24:11Z</time></trkpt>
<trkpt lat="46.528568" lon="7.002381"><ele></ele><time>2014-4-4T19:24:14Z</time></trkpt>
<trkpt lat="46.528645" lon="7.002381"><ele></ele><time>2014-4-4T19:24:17Z</time></trkpt>
<trkpt lat="46.528725" lon="7.002403"><ele></ele><time>2014-4-4T19:24:20Z</time></trkpt>
<trkpt lat="46.528801" lon="7.002443"><ele></ele><time>2014-4-4T19:24:23Z</time></trkpt>
<trkpt lat="46.528847" lon="7.002445"><ele></ele><time>2014-4-4T19:24:26Z</time></trkpt>
<trkpt lat="46.528881" lon="7.002444"><ele></ele><time>2014-4-4T19:24:29Z</time></trkpt>
<trkpt lat="46.528919" lon="7.002448"><ele></ele><time>2014-4-4T19:24:32Z</time></trkpt>
<trkpt lat="46.528957" lon="7.002459"><ele></ele><time>2014-4-4T19:24:35Z</time></trkpt>
<trkpt lat="46.529007" lon="7.002468"><ele></ele><time>2014-4-4T19:24:38Z</time></trkpt>
<trkpt lat="46.529041" lon="7.002475"><ele></ele><time>2014-4-4T19:24:41Z</time></trkpt>
<trkpt lat="46.529072" lon="7.002515"><ele></ele><time>2014-4-4T19:24:44Z</time></trkpt>
<trkpt lat="46.529083" lon="7.002556"><ele></ele><time>2014-4-4T19:24:47Z</time></trkpt>
<trkpt lat="46.529099" lon="7.002608"><ele></ele><time>2014-4-4T19:24:50Z</time></trkpt>
<trkpt lat="46.529114" lon="7.002656"><ele></ele><time>2014-4-4T19:24:53Z</time></trkpt>
<trkpt lat="46.529121" lon="7.002732"><ele></ele><time>2014-4-4T19:24:56Z</time></trkpt>
<trkpt lat="46.529133" lon="7.002807"><ele></ele><time>2014-4-4T19:24:59Z</time></trkpt>
<trkpt lat="46.529137" lon="7.002867"><ele></ele><time>2014-4-4T19:25:2Z</time></trkpt>
<trkpt lat="46.529140" lon="7.002919"><ele></ele><time>2014-4-4T19:25:5Z</time></trkpt>
<trkpt lat="46.529160" lon="7.002972"><ele></ele><time>2014-4-4T19:25:8Z</time></trkpt>
<trkpt lat="46.529171" lon="7.003026"><ele></ele><time>2014-4-4T19:25:11Z</time></trkpt>
<trkpt lat="46.529186" lon="7.003051"><ele></ele><time>2014-4-4T19:25:14Z</time></trkpt>
<trkpt lat="46.529190" lon="7.003057"><ele></ele><time>2014-4-4T19:25:17Z</time></trkpt>
<trkpt lat="46.529198" lon="7.003083"><ele></ele><time>2014-4-4T19:25:20Z</time></trkpt>
<trkpt lat="46.529198" lon="7.003146"><ele></ele><time>2014-4-4T19:25:23Z</time></trkpt>
<trkpt lat="46.529205" lon="7.003201"><ele></ele><time>2014-4-4T19:25:26Z</time></trkpt>
<trkpt lat="46.529209" lon="7.003261"><ele></ele><time>2014-4-4T19:25:29Z</time></trkpt>
<trkpt lat="46.529221" lon="7.003308"><ele></ele><time>2014-4-4T19:25:32Z</time></trkpt>
<trkpt lat="46.529247" lon="7.003350"><ele></ele><time>2014-4-4T19:25:35Z</time></trkpt>
<trkpt lat="46.529293" lon="7.003355"><ele></ele><time>2014-4-4T19:25:38Z</time></trkpt>
<trkpt lat="46.529343" lon="7.003331"><ele></ele><time>2014-4-4T19:25:41Z</time></trkpt>
<trkpt lat="46.529377" lon="7.003290"><ele></ele><time>2014-4-4T19:25:44Z</time></trkpt>
<trkpt lat="46.529381" lon="7.003255"><ele></ele><time>2014-4-4T19:25:47Z</time></trkpt>
<trkpt lat="46.529381" lon="7.003253"><ele></ele><time>2014-4-4T19:25:50Z</time></trkpt>
<trkpt lat="46.529381" lon="7.003227"><ele></ele><time>2014-4-4T19:25:53Z</time></trkpt>
<trkpt lat="46.529385" lon="7.003191"><ele></ele><time>2014-4-4T19:25:56Z</time></trkpt>
<trkpt lat="46.529400" lon="7.003111"><ele></ele><time>2014-4-4T19:25:59Z</time></trkpt>
<trkpt lat="46.529408" lon="7.003047"><ele></ele><time>2014-4-4T19:26:2Z</time></trkpt>
<trkpt lat="46.529415" lon="7.002885"><ele></ele><time>2014-4-4T19:26:5Z</time></trkpt>
<trkpt lat="46.529427" lon="7.002754"><ele></ele><time>2014-4-4T19:26:8Z</time></trkpt>
<trkpt lat="46.529442" lon="7.002641"><ele></ele><time>2014-4-4T19:26:11Z</time></trkpt>
<trkpt lat="46.529461" lon="7.002518"><ele></ele><time>2014-4-4T19:26:14Z</time></trkpt>
<trkpt lat="46.529480" lon="7.002408"><ele></ele><time>2014-4-4T19:26:17Z</time></trkpt>
<trkpt lat="46.529491" lon="7.002276"><ele></ele><time>2014-4-4T19:26:20Z</time></trkpt>
<trkpt lat="46.529491" lon="7.002163"><ele></ele><time>2014-4-4T19:26:23Z</time></trkpt>
<trkpt lat="46.529480" lon="7.002059"><ele></ele><time>2014-4-4T19:26:26Z</time></trkpt>
<trkpt lat="46.529472" lon="7.001956"><ele></ele><time>2014-4-4T19:26:29Z</time></trkpt>
<trkpt lat="46.529457" lon="7.001855"><ele></ele><time>2014-4-4T19:26:32Z</time></trkpt>
<trkpt lat="46.529449" lon="7.001750"><ele></ele><time>2014-4-4T19:26:35Z</time></trkpt>
<trkpt lat="46.529427" lon="7.001647"><ele></ele><time>2014-4-4T19:26:38Z</time></trkpt>
<trkpt lat="46.529400" lon="7.001544"><ele></ele><time>2014-4-4T19:26:41Z</time></trkpt>
<trkpt lat="46.529381" lon="7.001436"><ele></ele><time>2014-4-4T19:26:44Z</time></trkpt>
<trkpt lat="46.529358" lon="7.001330"><ele></ele><time>2014-4-4T19:26:47Z</time></trkpt>
<trkpt lat="46.529346" lon="7.001231"><ele></ele><time>2014-4-4T19:26:50Z</time></trkpt>
<trkpt lat="46.529350" lon="7.001144"><ele></ele><time>2014-4-4T19:26:53Z</time></trkpt>
<trkpt lat="46.529354" lon="7.001052"><ele></ele><time>2014-4-4T19:26:56Z</time></trkpt>
<trkpt lat="46.529358" lon="7.000967"><ele></ele><time>2014-4-4T19:26:59Z</time></trkpt>
<trkpt lat="46.529366" lon="7.000885"><ele></ele><time>2014-4-4T19:27:2Z</time></trkpt>
<trkpt lat="46.529381" lon="7.000802"><ele></ele><time>2014-4-4T19:27:5Z</time></trkpt>
<trkpt lat="46.529388" lon="7.000706"><ele></ele><time>2014-4-4T19:27:8Z</time></trkpt>
<trkpt lat="46.529369" lon="7.000612"><ele></ele><time>2014-4-4T19:27:11Z</time></trkpt>
<trkpt lat="46.529343" lon="7.000500"><ele></ele><time>2014-4-4T19:27:14Z</time></trkpt>
<trkpt lat="46.529335" lon="7.000405"><ele></ele><time>2014-4-4T19:27:17Z</time></trkpt>
<trkpt lat="46.529320" lon="7.000303"><ele></ele><time>2014-4-4T19:27:20Z</time></trkpt>
<trkpt lat="46.529282" lon="7.000210"><ele></ele><time>2014-4-4T19:27:23Z</time></trkpt>
<trkpt lat="46.529247" lon="7.000128"><ele></ele><time>2014-4-4T19:27:26Z</time></trkpt>
<trkpt lat="46.529213" lon="7.000028"><ele></ele><time>2014-4-4T19:27:29Z</time></trkpt>
<trkpt lat="46.529175" lon="6.999941"><ele></ele><time>2014-4-4T19:27:32Z</time></trkpt>
<trkpt lat="46.529144" lon="6.999856"><ele></ele><time>2014-4-4T19:27:35Z</time></trkpt>
<trkpt lat="46.529114" lon="6.999759"><ele></ele><time>2014-4-4T19:27:38Z</time></trkpt>
<trkpt lat="46.529072" lon="6.999655"><ele></ele><time>2014-4-4T19:27:41Z</time></trkpt>
<trkpt lat="46.529018" lon="6.999553"><ele></ele><time>2014-4-4T19:27:44Z</time></trkpt>
<trkpt lat="46.528965" lon="6.999469"><ele></ele><time>2014-4-4T19:27:47Z</time></trkpt>
<trkpt lat="46.528912" lon="6.999378"><ele></ele><time>2014-4-4T19:27:50Z</time></trkpt>
<trkpt lat="46.528854" lon="6.999282"><ele></ele><time>2014-4-4T19:27:53Z</time></trkpt>
<trkpt lat="46.528809" lon="6.999183"><ele></ele><time>2014-4-4T19:27:56Z</time></trkpt>
<trkpt lat="46.528755" lon="6.999092"><ele></ele><time>2014-4-4T19:27:59Z</time></trkpt>
<trkpt lat="46.528660" lon="6.998966"><ele></ele><time>2014-4-4T19:28:2Z</time></trkpt>
<trkpt lat="46.528526" lon="6.998801"><ele></ele><time>2014-4-4T19:28:5Z</time></trkpt>
<trkpt lat="46.528397" lon="6.998703"><ele></ele><time>2014-4-4T19:28:8Z</time></trkpt>
<trkpt lat="46.528301" lon="6.998599"><ele></ele><time>2014-4-4T19:28:11Z</time></trkpt>
<trkpt lat="46.528229" lon="6.998492"><ele></ele><time>2014-4-4T19:28:14Z</time></trkpt>
<trkpt lat="46.528187" lon="6.998367"><ele></ele><time>2014-4-4T19:28:17Z</time></trkpt>
<trkpt lat="46.528156" lon="6.998242"><ele></ele><time>2014-4-4T19:28:20Z</time></trkpt>
<trkpt lat="46.528114" lon="6.998116"><ele></ele><time>2014-4-4T19:28:23Z</time></trkpt>
<trkpt lat="46.528065" lon="6.997992"><ele></ele><time>2014-4-4T19:28:26Z</time></trkpt>
<trkpt lat="46.528023" lon="6.997873"><ele></ele><time>2014-4-4T19:28:29Z</time></trkpt>
<trkpt lat="46.527966" lon="6.997759"><ele></ele><time>2014-4-4T19:28:32Z</time></trkpt>
<trkpt lat="46.527889" lon="6.997673"><ele></ele><time>2014-4-4T19:28:35Z</time></trkpt>
<trkpt lat="46.527798" lon="6.997609"><ele></ele><time>2014-4-4T19:28:38Z</time></trkpt>
<trkpt lat="46.527729" lon="6.997538"><ele></ele><time>2014-4-4T19:28:41Z</time></trkpt>
<trkpt lat="46.527664" lon="6.997461"><ele></ele><time>2014-4-4T19:28:44Z</time></trkpt>
<trkpt lat="46.527657" lon="6.997434"><ele></ele><time>2014-4-4T19:28:47Z</time></trkpt>
<trkpt lat="46.527657" lon="6.997436"><ele></ele><time>2014-4-4T19:28:50Z</time></trkpt>
<trkpt lat="46.527657" lon="6.997437"><ele></ele><time>2014-4-4T19:28:53Z</time></trkpt>
<trkpt lat="46.527657" lon="6.997437"><ele></ele><time>2014-4-4T19:28:56Z</time></trkpt>
<trkpt lat="46.527653" lon="6.997439"><ele></ele><time>2014-4-4T19:28:59Z</time></trkpt>
<trkpt lat="46.527653" lon="6.997440"><ele></ele><time>2014-4-4T19:29:2Z</time></trkpt>
<trkpt lat="46.527653" lon="6.997442"><ele></ele><time>2014-4-4T19:29:5Z</time></trkpt>
<trkpt lat="46.527657" lon="6.997432"><ele></ele><time>2014-4-4T19:29:8Z</time></trkpt>
<trkpt lat="46.527660" lon="6.997320"><ele></ele><time>2014-4-4T19:29:11Z</time></trkpt>
<trkpt lat="46.527657" lon="6.997158"><ele></ele><time>2014-4-4T19:29:14Z</time></trkpt>
<trkpt lat="46.527607" lon="6.997038"><ele></ele><time>2014-4-4T19:29:17Z</time></trkpt>
<trkpt lat="46.527481" lon="6.996992"><ele></ele><time>2014-4-4T19:29:20Z</time></trkpt>
<trkpt lat="46.527367" lon="6.996989"><ele></ele><time>2014-4-4T19:29:23Z</time></trkpt>
<trkpt lat="46.527363" lon="6.996988"><ele></ele><time>2014-4-4T19:29:26Z</time></trkpt>
<trkpt lat="46.527363" lon="6.996990"><ele></ele><time>2014-4-4T19:29:29Z</time></trkpt>
<trkpt lat="46.527363" lon="6.996992"><ele></ele><time>2014-4-4T19:29:32Z</time></trkpt>
<trkpt lat="46.527363" lon="6.996992"><ele></ele><time>2014-4-4T19:29:35Z</time></trkpt>
<trkpt lat="46.527363" lon="6.996992"><ele></ele><time>2014-4-4T19:29:38Z</time></trkpt>
<trkpt lat="46.527359" lon="6.997001"><ele></ele><time>2014-4-4T19:29:41Z</time></trkpt>
<trkpt lat="46.527344" lon="6.996995"><ele></ele><time>2014-4-4T19:29:44Z</time></trkpt>
<trkpt lat="46.527340" lon="6.996968"><ele></ele><time>2014-4-4T19:29:47Z</time></trkpt>
<trkpt lat="46.527348" lon="6.996902"><ele></ele><time>2014-4-4T19:29:50Z</time></trkpt>
<trkpt lat="46.527374" lon="6.996847"><ele></ele><time>2014-4-4T19:29:53Z</time></trkpt>
<trkpt lat="46.527416" lon="6.996796"><ele></ele><time>2014-4-4T19:29:56Z</time></trkpt>
<trkpt lat="46.527439" lon="6.996772"><ele></ele><time>2014-4-4T19:29:59Z</time></trkpt>
<trkpt lat="46.527443" lon="6.996767"><ele></ele><time>2014-4-4T19:30:2Z</time></trkpt>
<trkpt lat="46.527443" lon="6.996767"><ele></ele><time>2014-4-4T19:30:5Z</time></trkpt>
<trkpt lat="46.527443" lon="6.996767"><ele></ele><time>2014-4-4T19:30:8Z</time></trkpt>
<trkpt lat="46.527443" lon="6.996767"><ele></ele><time>2014-4-4T19:30:11Z</time></trkpt>
<trkpt lat="46.527443" lon="6.996767"><ele></ele><time>2014-4-4T19:30:14Z</time></trkpt>
<trkpt lat="46.527443" lon="6.996767"><ele></ele><time>2014-4-4T19:30:17Z</time></trkpt>
<trkpt lat="46.527443" lon="6.996766"><ele></ele><time>2014-4-4T19:30:20Z</time></trkpt>
<trkpt lat="46.527443" lon="6.996765"><ele></ele><time>2014-4-4T19:30:23Z</time></trkpt>
<trkpt lat="46.527443" lon="6.996765"><ele></ele><time>2014-4-4T19:30:26Z</time></trkpt>
<trkpt lat="46.527447" lon="6.996765"><ele></ele><time>2014-4-4T19:30:29Z</time></trkpt>
<trkpt lat="46.527447" lon="6.996764"><ele></ele><time>2014-4-4T19:30:32Z</time></trkpt>
<trkpt lat="46.527447" lon="6.996764"><ele></ele><time>2014-4-4T19:30:35Z</time></trkpt>
<trkpt lat="46.527447" lon="6.996764"><ele></ele><time>2014-4-4T19:30:38Z</time></trkpt>
<trkpt lat="46.527447" lon="6.996764"><ele></ele><time>2014-4-4T19:30:41Z</time></trkpt>
<trkpt lat="46.527443" lon="6.996759"><ele></ele><time>2014-4-4T19:30:44Z</time></trkpt>
<trkpt lat="46.527443" lon="6.996757"><ele></ele><time>2014-4-4T19:30:47Z</time></trkpt>
<trkpt lat="46.527447" lon="6.996755"><ele></ele><time>2014-4-4T19:30:50Z</time></trkpt>
<trkpt lat="46.527458" lon="6.996719"><ele></ele><time>2014-4-4T19:30:53Z</time></trkpt>
<trkpt lat="46.527512" lon="6.996616"><ele></ele><time>2014-4-4T19:30:56Z</time></trkpt>
<trkpt lat="46.527554" lon="6.996467"><ele></ele><time>2014-4-4T19:30:59Z</time></trkpt>
<trkpt lat="46.527573" lon="6.996352"><ele></ele><time>2014-4-4T19:31:2Z</time></trkpt>
<trkpt lat="46.527554" lon="6.996340"><ele></ele><time>2014-4-4T19:31:5Z</time></trkpt>
<trkpt lat="46.527550" lon="6.996339"><ele></ele><time>2014-4-4T19:31:8Z</time></trkpt>
<trkpt lat="46.527534" lon="6.996355"><ele></ele><time>2014-4-4T19:31:11Z</time></trkpt>
<trkpt lat="46.527534" lon="6.996360"><ele></ele><time>2014-4-4T19:31:14Z</time></trkpt>
<trkpt lat="46.527531" lon="6.996344"><ele></ele><time>2014-4-4T19:31:17Z</time></trkpt>
<trkpt lat="46.527462" lon="6.996232"><ele></ele><time>2014-4-4T19:31:20Z</time></trkpt>
<trkpt lat="46.527390" lon="6.996105"><ele></ele><time>2014-4-4T19:31:23Z</time></trkpt>
<trkpt lat="46.527271" lon="6.995935"><ele></ele><time>2014-4-4T19:31:26Z</time></trkpt>
<trkpt lat="46.527161" lon="6.995714"><ele></ele><time>2014-4-4T19:31:29Z</time></trkpt>
<trkpt lat="46.527023" lon="6.995495"><ele></ele><time>2014-4-4T19:31:32Z</time></trkpt>
<trkpt lat="46.526875" lon="6.995300"><ele></ele><time>2014-4-4T19:31:35Z</time></trkpt>
<trkpt lat="46.526783" lon="6.995043"><ele></ele><time>2014-4-4T19:31:38Z</time></trkpt>
<trkpt lat="46.526657" lon="6.994751"><ele></ele><time>2014-4-4T19:31:41Z</time></trkpt>
<trkpt lat="46.526596" lon="6.994473"><ele></ele><time>2014-4-4T19:31:44Z</time></trkpt>
<trkpt lat="46.526524" lon="6.994179"><ele></ele><time>2014-4-4T19:31:47Z</time></trkpt>
<trkpt lat="46.526505" lon="6.993882"><ele></ele><time>2014-4-4T19:31:50Z</time></trkpt>
<trkpt lat="46.526512" lon="6.993639"><ele></ele><time>2014-4-4T19:31:53Z</time></trkpt>
<trkpt lat="46.526516" lon="6.993609"><ele></ele><time>2014-4-4T19:31:56Z</time></trkpt>
<trkpt lat="46.526508" lon="6.993595"><ele></ele><time>2014-4-4T19:31:59Z</time></trkpt>
<trkpt lat="46.526508" lon="6.993581"><ele></ele><time>2014-4-4T19:32:2Z</time></trkpt>
<trkpt lat="46.526485" lon="6.993531"><ele></ele><time>2014-4-4T19:32:5Z</time></trkpt>
<trkpt lat="46.526432" lon="6.993492"><ele></ele><time>2014-4-4T19:32:8Z</time></trkpt>
<trkpt lat="46.526283" lon="6.993354"><ele></ele><time>2014-4-4T19:32:11Z</time></trkpt>
<trkpt lat="46.526173" lon="6.993134"><ele></ele><time>2014-4-4T19:32:14Z</time></trkpt>
<trkpt lat="46.526077" lon="6.992845"><ele></ele><time>2014-4-4T19:32:17Z</time></trkpt>
<trkpt lat="46.526001" lon="6.992582"><ele></ele><time>2014-4-4T19:32:20Z</time></trkpt>
<trkpt lat="46.525871" lon="6.992493"><ele></ele><time>2014-4-4T19:32:23Z</time></trkpt>
<trkpt lat="46.525738" lon="6.992344"><ele></ele><time>2014-4-4T19:32:26Z</time></trkpt>
<trkpt lat="46.525536" lon="6.992177"><ele></ele><time>2014-4-4T19:32:29Z</time></trkpt>
<trkpt lat="46.525467" lon="6.991981"><ele></ele><time>2014-4-4T19:32:32Z</time></trkpt>
<trkpt lat="46.525528" lon="6.991673"><ele></ele><time>2014-4-4T19:32:35Z</time></trkpt>
<trkpt lat="46.525551" lon="6.991446"><ele></ele><time>2014-4-4T19:32:38Z</time></trkpt>
<trkpt lat="46.525505" lon="6.991268"><ele></ele><time>2014-4-4T19:32:41Z</time></trkpt>
<trkpt lat="46.525452" lon="6.991017"><ele></ele><time>2014-4-4T19:32:44Z</time></trkpt>
<trkpt lat="46.525379" lon="6.990718"><ele></ele><time>2014-4-4T19:32:47Z</time></trkpt>
<trkpt lat="46.525219" lon="6.990491"><ele></ele><time>2014-4-4T19:32:50Z</time></trkpt>
<trkpt lat="46.525051" lon="6.990225"><ele></ele><time>2014-4-4T19:32:53Z</time></trkpt>
<trkpt lat="46.524750" lon="6.990058"><ele></ele><time>2014-4-4T19:32:56Z</time></trkpt>
<trkpt lat="46.524494" lon="6.989897"><ele></ele><time>2014-4-4T19:32:59Z</time></trkpt>
<trkpt lat="46.524170" lon="6.989793"><ele></ele><time>2014-4-4T19:33:2Z</time></trkpt>
<trkpt lat="46.524033" lon="6.989758"><ele></ele><time>2014-4-4T19:33:5Z</time></trkpt>
<trkpt lat="46.524033" lon="6.989761"><ele></ele><time>2014-4-4T19:33:8Z</time></trkpt>
<trkpt lat="46.524029" lon="6.989766"><ele></ele><time>2014-4-4T19:33:11Z</time></trkpt>
<trkpt lat="46.524029" lon="6.989765"><ele></ele><time>2014-4-4T19:33:14Z</time></trkpt>
<trkpt lat="46.524029" lon="6.989765"><ele></ele><time>2014-4-4T19:33:17Z</time></trkpt>
<trkpt lat="46.524029" lon="6.989766"><ele></ele><time>2014-4-4T19:33:20Z</time></trkpt>
<trkpt lat="46.524029" lon="6.989766"><ele></ele><time>2014-4-4T19:33:23Z</time></trkpt>
<trkpt lat="46.523975" lon="6.989764"><ele></ele><time>2014-4-4T19:33:26Z</time></trkpt>
<trkpt lat="46.523830" lon="6.989705"><ele></ele><time>2014-4-4T19:33:29Z</time></trkpt>
<trkpt lat="46.523666" lon="6.989535"><ele></ele><time>2014-4-4T19:33:32Z</time></trkpt>
<trkpt lat="46.523502" lon="6.989419"><ele></ele><time>2014-4-4T19:33:35Z</time></trkpt>
<trkpt lat="46.523312" lon="6.989324"><ele></ele><time>2014-4-4T19:33:38Z</time></trkpt>
<trkpt lat="46.523033" lon="6.989173"><ele></ele><time>2014-4-4T19:33:41Z</time></trkpt>
<trkpt lat="46.522823" lon="6.988957"><ele></ele><time>2014-4-4T19:33:44Z</time></trkpt>
<trkpt lat="46.522617" lon="6.988815"><ele></ele><time>2014-4-4T19:33:47Z</time></trkpt>
<trkpt lat="46.522388" lon="6.988675"><ele></ele><time>2014-4-4T19:33:50Z</time></trkpt>
<trkpt lat="46.522209" lon="6.988513"><ele></ele><time>2014-4-4T19:33:53Z</time></trkpt>
<trkpt lat="46.522049" lon="6.988392"><ele></ele><time>2014-4-4T19:33:56Z</time></trkpt>
<trkpt lat="46.521900" lon="6.988515"><ele></ele><time>2014-4-4T19:33:59Z</time></trkpt>
<trkpt lat="46.521664" lon="6.988507"><ele></ele><time>2014-4-4T19:34:2Z</time></trkpt>
<trkpt lat="46.521408" lon="6.988429"><ele></ele><time>2014-4-4T19:34:5Z</time></trkpt>
<trkpt lat="46.521126" lon="6.988303"><ele></ele><time>2014-4-4T19:34:8Z</time></trkpt>
<trkpt lat="46.520859" lon="6.988138"><ele></ele><time>2014-4-4T19:34:11Z</time></trkpt>
<trkpt lat="46.520592" lon="6.987970"><ele></ele><time>2014-4-4T19:34:14Z</time></trkpt>
<trkpt lat="46.520393" lon="6.987802"><ele></ele><time>2014-4-4T19:34:17Z</time></trkpt>
<trkpt lat="46.520241" lon="6.987610"><ele></ele><time>2014-4-4T19:34:20Z</time></trkpt>
<trkpt lat="46.520088" lon="6.987432"><ele></ele><time>2014-4-4T19:34:23Z</time></trkpt>
<trkpt lat="46.519894" lon="6.987221"><ele></ele><time>2014-4-4T19:34:26Z</time></trkpt>
<trkpt lat="46.519714" lon="6.986991"><ele></ele><time>2014-4-4T19:34:29Z</time></trkpt>
<trkpt lat="46.519650" lon="6.986644"><ele></ele><time>2014-4-4T19:34:32Z</time></trkpt>
<trkpt lat="46.519650" lon="6.986257"><ele></ele><time>2014-4-4T19:34:35Z</time></trkpt>
<trkpt lat="46.519642" lon="6.985860"><ele></ele><time>2014-4-4T19:34:38Z</time></trkpt>
<trkpt lat="46.519569" lon="6.985540"><ele></ele><time>2014-4-4T19:34:41Z</time></trkpt>
<trkpt lat="46.519291" lon="6.985291"><ele></ele><time>2014-4-4T19:34:44Z</time></trkpt>
<trkpt lat="46.519039" lon="6.984999"><ele></ele><time>2014-4-4T19:34:47Z</time></trkpt>
<trkpt lat="46.519005" lon="6.984677"><ele></ele><time>2014-4-4T19:34:50Z</time></trkpt>
<trkpt lat="46.519081" lon="6.984426"><ele></ele><time>2014-4-4T19:34:53Z</time></trkpt>
<trkpt lat="46.518997" lon="6.984265"><ele></ele><time>2014-4-4T19:34:56Z</time></trkpt>
<trkpt lat="46.518902" lon="6.984061"><ele></ele><time>2014-4-4T19:34:59Z</time></trkpt>
<trkpt lat="46.518787" lon="6.983832"><ele></ele><time>2014-4-4T19:35:2Z</time></trkpt>
<trkpt lat="46.518654" lon="6.983616"><ele></ele><time>2014-4-4T19:35:5Z</time></trkpt>
<trkpt lat="46.518429" lon="6.983354"><ele></ele><time>2014-4-4T19:35:8Z</time></trkpt>
<trkpt lat="46.518364" lon="6.982924"><ele></ele><time>2014-4-4T19:35:11Z</time></trkpt>
<trkpt lat="46.518284" lon="6.982533"><ele></ele><time>2014-4-4T19:35:14Z</time></trkpt>
<trkpt lat="46.518116" lon="6.982152"><ele></ele><time>2014-4-4T19:35:17Z</time></trkpt>
<trkpt lat="46.517990" lon="6.981928"><ele></ele><time>2014-4-4T19:35:20Z</time></trkpt>
<trkpt lat="46.517956" lon="6.981907"><ele></ele><time>2014-4-4T19:35:23Z</time></trkpt>
<trkpt lat="46.517925" lon="6.981870"><ele></ele><time>2014-4-4T19:35:26Z</time></trkpt>
<trkpt lat="46.517815" lon="6.981765"><ele></ele><time>2014-4-4T19:35:29Z</time></trkpt>
<trkpt lat="46.517685" lon="6.981678"><ele></ele><time>2014-4-4T19:35:32Z</time></trkpt>
<trkpt lat="46.517517" lon="6.981621"><ele></ele><time>2014-4-4T19:35:35Z</time></trkpt>
<trkpt lat="46.517403" lon="6.981719"><ele></ele><time>2014-4-4T19:35:38Z</time></trkpt>
<trkpt lat="46.517170" lon="6.981617"><ele></ele><time>2014-4-4T19:35:41Z</time></trkpt>
<trkpt lat="46.517101" lon="6.981368"><ele></ele><time>2014-4-4T19:35:44Z</time></trkpt>
<trkpt lat="46.516953" lon="6.981199"><ele></ele><time>2014-4-4T19:35:47Z</time></trkpt>
<trkpt lat="46.516815" lon="6.981053"><ele></ele><time>2014-4-4T19:35:50Z</time></trkpt>
<trkpt lat="46.516705" lon="6.980877"><ele></ele><time>2014-4-4T19:35:53Z</time></trkpt>
<trkpt lat="46.516659" lon="6.980680"><ele></ele><time>2014-4-4T19:35:56Z</time></trkpt>
<trkpt lat="46.516640" lon="6.980512"><ele></ele><time>2014-4-4T19:35:59Z</time></trkpt>
<trkpt lat="46.516632" lon="6.980381"><ele></ele><time>2014-4-4T19:36:2Z</time></trkpt>
<trkpt lat="46.516670" lon="6.980217"><ele></ele><time>2014-4-4T19:36:5Z</time></trkpt>
<trkpt lat="46.516750" lon="6.980048"><ele></ele><time>2014-4-4T19:36:8Z</time></trkpt>
<trkpt lat="46.516785" lon="6.979820"><ele></ele><time>2014-4-4T19:36:11Z</time></trkpt>
<trkpt lat="46.516773" lon="6.979581"><ele></ele><time>2014-4-4T19:36:14Z</time></trkpt>
<trkpt lat="46.516720" lon="6.979317"><ele></ele><time>2014-4-4T19:36:17Z</time></trkpt>
<trkpt lat="46.516705" lon="6.979067"><ele></ele><time>2014-4-4T19:36:20Z</time></trkpt>
<trkpt lat="46.516766" lon="6.978807"><ele></ele><time>2014-4-4T19:36:23Z</time></trkpt>
<trkpt lat="46.516857" lon="6.978583"><ele></ele><time>2014-4-4T19:36:26Z</time></trkpt>
<trkpt lat="46.516914" lon="6.978299"><ele></ele><time>2014-4-4T19:36:29Z</time></trkpt>
<trkpt lat="46.516899" lon="6.978000"><ele></ele><time>2014-4-4T19:36:32Z</time></trkpt>
<trkpt lat="46.516853" lon="6.977682"><ele></ele><time>2014-4-4T19:36:35Z</time></trkpt>
<trkpt lat="46.516811" lon="6.977316"><ele></ele><time>2014-4-4T19:36:38Z</time></trkpt>
<trkpt lat="46.516747" lon="6.976919"><ele></ele><time>2014-4-4T19:36:41Z</time></trkpt>
<trkpt lat="46.516628" lon="6.976548"><ele></ele><time>2014-4-4T19:36:44Z</time></trkpt>
<trkpt lat="46.516605" lon="6.976198"><ele></ele><time>2014-4-4T19:36:47Z</time></trkpt>
<trkpt lat="46.516651" lon="6.975837"><ele></ele><time>2014-4-4T19:36:50Z</time></trkpt>
<trkpt lat="46.516750" lon="6.975534"><ele></ele><time>2014-4-4T19:36:53Z</time></trkpt>
<trkpt lat="46.516911" lon="6.975227"><ele></ele><time>2014-4-4T19:36:56Z</time></trkpt>
<trkpt lat="46.517139" lon="6.975002"><ele></ele><time>2014-4-4T19:36:59Z</time></trkpt>
<trkpt lat="46.517406" lon="6.974776"><ele></ele><time>2014-4-4T19:37:2Z</time></trkpt>
<trkpt lat="46.517666" lon="6.974430"><ele></ele><time>2014-4-4T19:37:5Z</time></trkpt>
<trkpt lat="46.517582" lon="6.973845"><ele></ele><time>2014-4-4T19:37:8Z</time></trkpt>
<trkpt lat="46.517246" lon="6.973404"><ele></ele><time>2014-4-4T19:37:11Z</time></trkpt>
<trkpt lat="46.517017" lon="6.973092"><ele></ele><time>2014-4-4T19:37:14Z</time></trkpt>
<trkpt lat="46.517025" lon="6.972871"><ele></ele><time>2014-4-4T19:37:17Z</time></trkpt>
<trkpt lat="46.517132" lon="6.972694"><ele></ele><time>2014-4-4T19:37:20Z</time></trkpt>
<trkpt lat="46.517288" lon="6.972506"><ele></ele><time>2014-4-4T19:37:23Z</time></trkpt>
<trkpt lat="46.517506" lon="6.972322"><ele></ele><time>2014-4-4T19:37:26Z</time></trkpt>
<trkpt lat="46.517570" lon="6.971931"><ele></ele><time>2014-4-4T19:37:29Z</time></trkpt>
<trkpt lat="46.517654" lon="6.971552"><ele></ele><time>2014-4-4T19:37:32Z</time></trkpt>
<trkpt lat="46.517735" lon="6.971258"><ele></ele><time>2014-4-4T19:37:35Z</time></trkpt>
<trkpt lat="46.517811" lon="6.970911"><ele></ele><time>2014-4-4T19:37:38Z</time></trkpt>
<trkpt lat="46.517883" lon="6.970581"><ele></ele><time>2014-4-4T19:37:41Z</time></trkpt>
<trkpt lat="46.517902" lon="6.970267"><ele></ele><time>2014-4-4T19:37:44Z</time></trkpt>
<trkpt lat="46.517986" lon="6.970026"><ele></ele><time>2014-4-4T19:37:47Z</time></trkpt>
<trkpt lat="46.518024" lon="6.969778"><ele></ele><time>2014-4-4T19:37:50Z</time></trkpt>
<trkpt lat="46.517998" lon="6.969394"><ele></ele><time>2014-4-4T19:37:53Z</time></trkpt>
<trkpt lat="46.518105" lon="6.969109"><ele></ele><time>2014-4-4T19:37:56Z</time></trkpt>
<trkpt lat="46.518150" lon="6.968838"><ele></ele><time>2014-4-4T19:37:59Z</time></trkpt>
<trkpt lat="46.518188" lon="6.968331"><ele></ele><time>2014-4-4T19:38:2Z</time></trkpt>
<trkpt lat="46.518181" lon="6.967634"><ele></ele><time>2014-4-4T19:38:5Z</time></trkpt>
<trkpt lat="46.518188" lon="6.966823"><ele></ele><time>2014-4-4T19:38:8Z</time></trkpt>
<trkpt lat="46.518219" lon="6.965930"><ele></ele><time>2014-4-4T19:38:11Z</time></trkpt>
<trkpt lat="46.518120" lon="6.965180"><ele></ele><time>2014-4-4T19:38:14Z</time></trkpt>
<trkpt lat="46.518227" lon="6.964400"><ele></ele><time>2014-4-4T19:38:17Z</time></trkpt>
<trkpt lat="46.518196" lon="6.963661"><ele></ele><time>2014-4-4T19:38:20Z</time></trkpt>
<trkpt lat="46.518257" lon="6.963079"><ele></ele><time>2014-4-4T19:38:23Z</time></trkpt>
<trkpt lat="46.518360" lon="6.962654"><ele></ele><time>2014-4-4T19:38:26Z</time></trkpt>
<trkpt lat="46.518524" lon="6.962185"><ele></ele><time>2014-4-4T19:38:29Z</time></trkpt>
<trkpt lat="46.518795" lon="6.961770"><ele></ele><time>2014-4-4T19:38:32Z</time></trkpt>
<trkpt lat="46.518806" lon="6.961189"><ele></ele><time>2014-4-4T19:38:35Z</time></trkpt>
<trkpt lat="46.518780" lon="6.960553"><ele></ele><time>2014-4-4T19:38:38Z</time></trkpt>
<trkpt lat="46.518818" lon="6.959928"><ele></ele><time>2014-4-4T19:38:41Z</time></trkpt>
<trkpt lat="46.518879" lon="6.959257"><ele></ele><time>2014-4-4T19:38:44Z</time></trkpt>
<trkpt lat="46.518898" lon="6.958572"><ele></ele><time>2014-4-4T19:38:47Z</time></trkpt>
<trkpt lat="46.518906" lon="6.957960"><ele></ele><time>2014-4-4T19:38:50Z</time></trkpt>
<trkpt lat="46.519119" lon="6.957520"><ele></ele><time>2014-4-4T19:38:53Z</time></trkpt>
<trkpt lat="46.519238" lon="6.957032"><ele></ele><time>2014-4-4T19:38:56Z</time></trkpt>
<trkpt lat="46.519169" lon="6.956498"><ele></ele><time>2014-4-4T19:38:59Z</time></trkpt>
<trkpt lat="46.519188" lon="6.956020"><ele></ele><time>2014-4-4T19:39:2Z</time></trkpt>
<trkpt lat="46.519318" lon="6.955643"><ele></ele><time>2014-4-4T19:39:5Z</time></trkpt>
<trkpt lat="46.519478" lon="6.955230"><ele></ele><time>2014-4-4T19:39:8Z</time></trkpt>
<trkpt lat="46.519623" lon="6.954710"><ele></ele><time>2014-4-4T19:39:11Z</time></trkpt>
<trkpt lat="46.519810" lon="6.954127"><ele></ele><time>2014-4-4T19:39:14Z</time></trkpt>
<trkpt lat="46.520061" lon="6.953510"><ele></ele><time>2014-4-4T19:39:17Z</time></trkpt>
<trkpt lat="46.520313" lon="6.952886"><ele></ele><time>2014-4-4T19:39:20Z</time></trkpt>
<trkpt lat="46.520603" lon="6.952322"><ele></ele><time>2014-4-4T19:39:23Z</time></trkpt>
<trkpt lat="46.520988" lon="6.951918"><ele></ele><time>2014-4-4T19:39:26Z</time></trkpt>
<trkpt lat="46.521259" lon="6.951408"><ele></ele><time>2014-4-4T19:39:29Z</time></trkpt>
<trkpt lat="46.521469" lon="6.950882"><ele></ele><time>2014-4-4T19:39:32Z</time></trkpt>
<trkpt lat="46.521667" lon="6.950343"><ele></ele><time>2014-4-4T19:39:35Z</time></trkpt>
<trkpt lat="46.521851" lon="6.949811"><ele></ele><time>2014-4-4T19:39:38Z</time></trkpt>
<trkpt lat="46.521988" lon="6.949263"><ele></ele><time>2014-4-4T19:39:41Z</time></trkpt>
<trkpt lat="46.522144" lon="6.948733"><ele></ele><time>2014-4-4T19:39:44Z</time></trkpt>
<trkpt lat="46.522282" lon="6.948158"><ele></ele><time>2014-4-4T19:39:47Z</time></trkpt>
<trkpt lat="46.522388" lon="6.947607"><ele></ele><time>2014-4-4T19:39:50Z</time></trkpt>
<trkpt lat="46.522587" lon="6.947439"><ele></ele><time>2014-4-4T19:39:53Z</time></trkpt>
<trkpt lat="46.523022" lon="6.947539"><ele></ele><time>2014-4-4T19:39:56Z</time></trkpt>
<trkpt lat="46.523411" lon="6.947692"><ele></ele><time>2014-4-4T19:39:59Z</time></trkpt>
<trkpt lat="46.523838" lon="6.947783"><ele></ele><time>2014-4-4T19:40:2Z</time></trkpt>
<trkpt lat="46.524178" lon="6.947803"><ele></ele><time>2014-4-4T19:40:5Z</time></trkpt>
<trkpt lat="46.524364" lon="6.947535"><ele></ele><time>2014-4-4T19:40:8Z</time></trkpt>
<trkpt lat="46.524513" lon="6.947311"><ele></ele><time>2014-4-4T19:40:11Z</time></trkpt>
<trkpt lat="46.524639" lon="6.947113"><ele></ele><time>2014-4-4T19:40:14Z</time></trkpt>
<trkpt lat="46.524754" lon="6.946911"><ele></ele><time>2014-4-4T19:40:17Z</time></trkpt>
<trkpt lat="46.524887" lon="6.946662"><ele></ele><time>2014-4-4T19:40:20Z</time></trkpt>
<trkpt lat="46.525112" lon="6.946457"><ele></ele><time>2014-4-4T19:40:23Z</time></trkpt>
<trkpt lat="46.525223" lon="6.946338"><ele></ele><time>2014-4-4T19:40:26Z</time></trkpt>
<trkpt lat="46.525272" lon="6.946358"><ele></ele><time>2014-4-4T19:40:29Z</time></trkpt>
<trkpt lat="46.525360" lon="6.946267"><ele></ele><time>2014-4-4T19:40:32Z</time></trkpt>
<trkpt lat="46.525436" lon="6.946187"><ele></ele><time>2014-4-4T19:40:35Z</time></trkpt>
<trkpt lat="46.525497" lon="6.946124"><ele></ele><time>2014-4-4T19:40:38Z</time></trkpt>
<trkpt lat="46.525528" lon="6.946115"><ele></ele><time>2014-4-4T19:40:41Z</time></trkpt>
<trkpt lat="46.525543" lon="6.946115"><ele></ele><time>2014-4-4T19:40:44Z</time></trkpt>
<trkpt lat="46.525555" lon="6.946123"><ele></ele><time>2014-4-4T19:40:47Z</time></trkpt>
<trkpt lat="46.525597" lon="6.946073"><ele></ele><time>2014-4-4T19:40:50Z</time></trkpt>
<trkpt lat="46.525635" lon="6.946069"><ele></ele><time>2014-4-4T19:40:53Z</time></trkpt>
<trkpt lat="46.525631" lon="6.946071"><ele></ele><time>2014-4-4T19:40:56Z</time></trkpt>
<trkpt lat="46.525635" lon="6.946071"><ele></ele><time>2014-4-4T19:40:59Z</time></trkpt>
<trkpt lat="46.525635" lon="6.946072"><ele></ele><time>2014-4-4T19:41:2Z</time></trkpt>
<trkpt lat="46.525635" lon="6.946072"><ele></ele><time>2014-4-4T19:41:5Z</time></trkpt>
<trkpt lat="46.525635" lon="6.946072"><ele></ele><time>2014-4-4T19:41:8Z</time></trkpt>
<trkpt lat="46.525642" lon="6.946064"><ele></ele><time>2014-4-4T19:41:11Z</time></trkpt>
<trkpt lat="46.525677" lon="6.946059"><ele></ele><time>2014-4-4T19:41:14Z</time></trkpt>
<trkpt lat="46.525703" lon="6.946070"><ele></ele><time>2014-4-4T19:41:17Z</time></trkpt>
<trkpt lat="46.525715" lon="6.946080"><ele></ele><time>2014-4-4T19:41:20Z</time></trkpt>
<trkpt lat="46.525703" lon="6.946088"><ele></ele><time>2014-4-4T19:41:23Z</time></trkpt>
<trkpt lat="46.525723" lon="6.946059"><ele></ele><time>2014-4-4T19:41:26Z</time></trkpt>
<trkpt lat="46.525776" lon="6.946077"><ele></ele><time>2014-4-4T19:41:29Z</time></trkpt>
<trkpt lat="46.525799" lon="6.946045"><ele></ele><time>2014-4-4T19:41:32Z</time></trkpt>
<trkpt lat="46.525803" lon="6.946036"><ele></ele><time>2014-4-4T19:41:35Z</time></trkpt>
<trkpt lat="46.525829" lon="6.946045"><ele></ele><time>2014-4-4T19:41:38Z</time></trkpt>
<trkpt lat="46.525860" lon="6.946051"><ele></ele><time>2014-4-4T19:41:41Z</time></trkpt>
<trkpt lat="46.525925" lon="6.946063"><ele></ele><time>2014-4-4T19:41:44Z</time></trkpt>
<trkpt lat="46.526012" lon="6.946066"><ele></ele><time>2014-4-4T19:41:47Z</time></trkpt>
<trkpt lat="46.526073" lon="6.946068"><ele></ele><time>2014-4-4T19:41:50Z</time></trkpt>
<trkpt lat="46.526138" lon="6.946077"><ele></ele><time>2014-4-4T19:41:53Z</time></trkpt>
<trkpt lat="46.526196" lon="6.946070"><ele></ele><time>2014-4-4T19:41:56Z</time></trkpt>
<trkpt lat="46.526230" lon="6.945854"><ele></ele><time>2014-4-4T19:41:59Z</time></trkpt>
<trkpt lat="46.526276" lon="6.945684"><ele></ele><time>2014-4-4T19:42:2Z</time></trkpt>
<trkpt lat="46.526447" lon="6.945527"><ele></ele><time>2014-4-4T19:42:5Z</time></trkpt>
<trkpt lat="46.526627" lon="6.945344"><ele></ele><time>2014-4-4T19:42:8Z</time></trkpt>
<trkpt lat="46.526749" lon="6.945127"><ele></ele><time>2014-4-4T19:42:11Z</time></trkpt>
<trkpt lat="46.526871" lon="6.944959"><ele></ele><time>2014-4-4T19:42:14Z</time></trkpt>
<trkpt lat="46.526970" lon="6.944793"><ele></ele><time>2014-4-4T19:42:17Z</time></trkpt>
<trkpt lat="46.527000" lon="6.944562"><ele></ele><time>2014-4-4T19:42:20Z</time></trkpt>
<trkpt lat="46.527027" lon="6.944383"><ele></ele><time>2014-4-4T19:42:23Z</time></trkpt>
<trkpt lat="46.527027" lon="6.944108"><ele></ele><time>2014-4-4T19:42:26Z</time></trkpt>
<trkpt lat="46.527012" lon="6.943900"><ele></ele><time>2014-4-4T19:42:29Z</time></trkpt>
<trkpt lat="46.527023" lon="6.943687"><ele></ele><time>2014-4-4T19:42:32Z</time></trkpt>
<trkpt lat="46.527050" lon="6.943441"><ele></ele><time>2014-4-4T19:42:35Z</time></trkpt>
<trkpt lat="46.527069" lon="6.943229"><ele></ele><time>2014-4-4T19:42:38Z</time></trkpt>
<trkpt lat="46.527103" lon="6.943074"><ele></ele><time>2014-4-4T19:42:41Z</time></trkpt>
<trkpt lat="46.527142" lon="6.942946"><ele></ele><time>2014-4-4T19:42:44Z</time></trkpt>
<trkpt lat="46.527172" lon="6.942738"><ele></ele><time>2014-4-4T19:42:47Z</time></trkpt>
<trkpt lat="46.527149" lon="6.942313"><ele></ele><time>2014-4-4T19:42:50Z</time></trkpt>
<trkpt lat="46.527149" lon="6.941851"><ele></ele><time>2014-4-4T19:42:53Z</time></trkpt>
<trkpt lat="46.527222" lon="6.941499"><ele></ele><time>2014-4-4T19:42:56Z</time></trkpt>
<trkpt lat="46.527264" lon="6.941202"><ele></ele><time>2014-4-4T19:42:59Z</time></trkpt>
<trkpt lat="46.527473" lon="6.941005"><ele></ele><time>2014-4-4T19:43:2Z</time></trkpt>
<trkpt lat="46.527710" lon="6.940911"><ele></ele><time>2014-4-4T19:43:5Z</time></trkpt>
<trkpt lat="46.527912" lon="6.940824"><ele></ele><time>2014-4-4T19:43:8Z</time></trkpt>
<trkpt lat="46.528160" lon="6.940711"><ele></ele><time>2014-4-4T19:43:11Z</time></trkpt>
<trkpt lat="46.528362" lon="6.940395"><ele></ele><time>2014-4-4T19:43:14Z</time></trkpt>
<trkpt lat="46.528500" lon="6.940031"><ele></ele><time>2014-4-4T19:43:17Z</time></trkpt>
<trkpt lat="46.528614" lon="6.939717"><ele></ele><time>2014-4-4T19:43:20Z</time></trkpt>
<trkpt lat="46.528694" lon="6.939223"><ele></ele><time>2014-4-4T19:43:23Z</time></trkpt>
<trkpt lat="46.528790" lon="6.938756"><ele></ele><time>2014-4-4T19:43:26Z</time></trkpt>
<trkpt lat="46.528934" lon="6.938469"><ele></ele><time>2014-4-4T19:43:29Z</time></trkpt>
<trkpt lat="46.529076" lon="6.938168"><ele></ele><time>2014-4-4T19:43:32Z</time></trkpt>
<trkpt lat="46.529179" lon="6.937826"><ele></ele><time>2014-4-4T19:43:35Z</time></trkpt>
<trkpt lat="46.529175" lon="6.937477"><ele></ele><time>2014-4-4T19:43:38Z</time></trkpt>
<trkpt lat="46.529144" lon="6.937157"><ele></ele><time>2014-4-4T19:43:41Z</time></trkpt>
<trkpt lat="46.529121" lon="6.936856"><ele></ele><time>2014-4-4T19:43:44Z</time></trkpt>
<trkpt lat="46.529190" lon="6.936604"><ele></ele><time>2014-4-4T19:43:47Z</time></trkpt>
<trkpt lat="46.529320" lon="6.936427"><ele></ele><time>2014-4-4T19:43:50Z</time></trkpt>
<trkpt lat="46.529449" lon="6.936207"><ele></ele><time>2014-4-4T19:43:53Z</time></trkpt>
<trkpt lat="46.529594" lon="6.935961"><ele></ele><time>2014-4-4T19:43:56Z</time></trkpt>
<trkpt lat="46.529785" lon="6.935736"><ele></ele><time>2014-4-4T19:43:59Z</time></trkpt>
<trkpt lat="46.529991" lon="6.935526"><ele></ele><time>2014-4-4T19:44:2Z</time></trkpt>
<trkpt lat="46.530106" lon="6.935176"><ele></ele><time>2014-4-4T19:44:5Z</time></trkpt>
<trkpt lat="46.530151" lon="6.934789"><ele></ele><time>2014-4-4T19:44:8Z</time></trkpt>
<trkpt lat="46.530212" lon="6.934380"><ele></ele><time>2014-4-4T19:44:11Z</time></trkpt>
<trkpt lat="46.530251" lon="6.933959"><ele></ele><time>2014-4-4T19:44:14Z</time></trkpt>
<trkpt lat="46.530235" lon="6.933536"><ele></ele><time>2014-4-4T19:44:17Z</time></trkpt>
<trkpt lat="46.530216" lon="6.933111"><ele></ele><time>2014-4-4T19:44:20Z</time></trkpt>
<trkpt lat="46.530304" lon="6.932709"><ele></ele><time>2014-4-4T19:44:23Z</time></trkpt>
<trkpt lat="46.530556" lon="6.932421"><ele></ele><time>2014-4-4T19:44:26Z</time></trkpt>
<trkpt lat="46.530838" lon="6.932114"><ele></ele><time>2014-4-4T19:44:29Z</time></trkpt>
<trkpt lat="46.531124" lon="6.931742"><ele></ele><time>2014-4-4T19:44:32Z</time></trkpt>
<trkpt lat="46.531387" lon="6.931267"><ele></ele><time>2014-4-4T19:44:35Z</time></trkpt>
<trkpt lat="46.531719" lon="6.930833"><ele></ele><time>2014-4-4T19:44:38Z</time></trkpt>
<trkpt lat="46.532078" lon="6.930435"><ele></ele><time>2014-4-4T19:44:41Z</time></trkpt>
<trkpt lat="46.532398" lon="6.930048"><ele></ele><time>2014-4-4T19:44:44Z</time></trkpt>
<trkpt lat="46.532673" lon="6.929592"><ele></ele><time>2014-4-4T19:44:47Z</time></trkpt>
<trkpt lat="46.532791" lon="6.929039"><ele></ele><time>2014-4-4T19:44:50Z</time></trkpt>
<trkpt lat="46.532887" lon="6.928423"><ele></ele><time>2014-4-4T19:44:53Z</time></trkpt>
<trkpt lat="46.532948" lon="6.927743"><ele></ele><time>2014-4-4T19:44:56Z</time></trkpt>
<trkpt lat="46.532955" lon="6.926995"><ele></ele><time>2014-4-4T19:44:59Z</time></trkpt>
<trkpt lat="46.533035" lon="6.926252"><ele></ele><time>2014-4-4T19:45:2Z</time></trkpt>
<trkpt lat="46.533127" lon="6.925573"><ele></ele><time>2014-4-4T19:45:5Z</time></trkpt>
<trkpt lat="46.533203" lon="6.924986"><ele></ele><time>2014-4-4T19:45:8Z</time></trkpt>
<trkpt lat="46.533264" lon="6.924461"><ele></ele><time>2014-4-4T19:45:11Z</time></trkpt>
<trkpt lat="46.533268" lon="6.923854"><ele></ele><time>2014-4-4T19:45:14Z</time></trkpt>
<trkpt lat="46.533031" lon="6.923173"><ele></ele><time>2014-4-4T19:45:17Z</time></trkpt>
<trkpt lat="46.532715" lon="6.922402"><ele></ele><time>2014-4-4T19:45:20Z</time></trkpt>
<trkpt lat="46.532337" lon="6.921713"><ele></ele><time>2014-4-4T19:45:23Z</time></trkpt>
<trkpt lat="46.532070" lon="6.921139"><ele></ele><time>2014-4-4T19:45:26Z</time></trkpt>
<trkpt lat="46.531868" lon="6.920351"><ele></ele><time>2014-4-4T19:45:29Z</time></trkpt>
<trkpt lat="46.531525" lon="6.919586"><ele></ele><time>2014-4-4T19:45:32Z</time></trkpt>
<trkpt lat="46.531357" lon="6.918863"><ele></ele><time>2014-4-4T19:45:35Z</time></trkpt>
<trkpt lat="46.531071" lon="6.918380"><ele></ele><time>2014-4-4T19:45:38Z</time></trkpt>
<trkpt lat="46.530724" lon="6.918079"><ele></ele><time>2014-4-4T19:45:41Z</time></trkpt>
<trkpt lat="46.530361" lon="6.917978"><ele></ele><time>2014-4-4T19:45:44Z</time></trkpt>
<trkpt lat="46.530174" lon="6.917481"><ele></ele><time>2014-4-4T19:45:47Z</time></trkpt>
<trkpt lat="46.529842" lon="6.917382"><ele></ele><time>2014-4-4T19:45:50Z</time></trkpt>
<trkpt lat="46.529758" lon="6.917012"><ele></ele><time>2014-4-4T19:45:53Z</time></trkpt>
<trkpt lat="46.529984" lon="6.916602"><ele></ele><time>2014-4-4T19:45:56Z</time></trkpt>
<trkpt lat="46.529888" lon="6.916166"><ele></ele><time>2014-4-4T19:45:59Z</time></trkpt>
<trkpt lat="46.529549" lon="6.915846"><ele></ele><time>2014-4-4T19:46:2Z</time></trkpt>
<trkpt lat="46.529461" lon="6.915314"><ele></ele><time>2014-4-4T19:46:5Z</time></trkpt>
<trkpt lat="46.529617" lon="6.914752"><ele></ele><time>2014-4-4T19:46:8Z</time></trkpt>
<trkpt lat="46.529770" lon="6.914230"><ele></ele><time>2014-4-4T19:46:11Z</time></trkpt>
<trkpt lat="46.529762" lon="6.913698"><ele></ele><time>2014-4-4T19:46:14Z</time></trkpt>
<trkpt lat="46.529884" lon="6.913204"><ele></ele><time>2014-4-4T19:46:17Z</time></trkpt>
<trkpt lat="46.530365" lon="6.912960"><ele></ele><time>2014-4-4T19:46:20Z</time></trkpt>
<trkpt lat="46.530926" lon="6.912617"><ele></ele><time>2014-4-4T19:46:23Z</time></trkpt>
<trkpt lat="46.531170" lon="6.912242"><ele></ele><time>2014-4-4T19:46:26Z</time></trkpt>
<trkpt lat="46.530987" lon="6.911978"><ele></ele><time>2014-4-4T19:46:29Z</time></trkpt>
<trkpt lat="46.530788" lon="6.911643"><ele></ele><time>2014-4-4T19:46:32Z</time></trkpt>
<trkpt lat="46.530750" lon="6.911130"><ele></ele><time>2014-4-4T19:46:35Z</time></trkpt>
<trkpt lat="46.530697" lon="6.910553"><ele></ele><time>2014-4-4T19:46:38Z</time></trkpt>
<trkpt lat="46.530468" lon="6.909920"><ele></ele><time>2014-4-4T19:46:41Z</time></trkpt>
<trkpt lat="46.530319" lon="6.909061"><ele></ele><time>2014-4-4T19:46:44Z</time></trkpt>
<trkpt lat="46.530247" lon="6.908214"><ele></ele><time>2014-4-4T19:46:47Z</time></trkpt>
<trkpt lat="46.530384" lon="6.907519"><ele></ele><time>2014-4-4T19:46:50Z</time></trkpt>
<trkpt lat="46.530453" lon="6.906925"><ele></ele><time>2014-4-4T19:46:53Z</time></trkpt>
<trkpt lat="46.530540" lon="6.906449"><ele></ele><time>2014-4-4T19:46:56Z</time></trkpt>
<trkpt lat="46.530792" lon="6.906192"><ele></ele><time>2014-4-4T19:46:59Z</time></trkpt>
<trkpt lat="46.530811" lon="6.905755"><ele></ele><time>2014-4-4T19:47:2Z</time></trkpt>
<trkpt lat="46.530769" lon="6.905185"><ele></ele><time>2014-4-4T19:47:5Z</time></trkpt>
<trkpt lat="46.530731" lon="6.904569"><ele></ele><time>2014-4-4T19:47:8Z</time></trkpt>
<trkpt lat="46.530582" lon="6.904021"><ele></ele><time>2014-4-4T19:47:11Z</time></trkpt>
<trkpt lat="46.530296" lon="6.903626"><ele></ele><time>2014-4-4T19:47:14Z</time></trkpt>
<trkpt lat="46.529964" lon="6.903293"><ele></ele><time>2014-4-4T19:47:17Z</time></trkpt>
<trkpt lat="46.529591" lon="6.902990"><ele></ele><time>2014-4-4T19:47:20Z</time></trkpt>
<trkpt lat="46.529171" lon="6.902756"><ele></ele><time>2014-4-4T19:47:23Z</time></trkpt>
<trkpt lat="46.528812" lon="6.902593"><ele></ele><time>2014-4-4T19:47:26Z</time></trkpt>
<trkpt lat="46.528500" lon="6.902432"><ele></ele><time>2014-4-4T19:47:29Z</time></trkpt>
<trkpt lat="46.528149" lon="6.902143"><ele></ele><time>2014-4-4T19:47:32Z</time></trkpt>
<trkpt lat="46.527805" lon="6.901838"><ele></ele><time>2014-4-4T19:47:35Z</time></trkpt>
<trkpt lat="46.527470" lon="6.901589"><ele></ele><time>2014-4-4T19:47:38Z</time></trkpt>
<trkpt lat="46.527115" lon="6.901407"><ele></ele><time>2014-4-4T19:47:41Z</time></trkpt>
<trkpt lat="46.526962" lon="6.901210"><ele></ele><time>2014-4-4T19:47:44Z</time></trkpt>
<trkpt lat="46.526875" lon="6.900909"><ele></ele><time>2014-4-4T19:47:47Z</time></trkpt>
<trkpt lat="46.526615" lon="6.900781"><ele></ele><time>2014-4-4T19:47:50Z</time></trkpt>
<trkpt lat="46.526352" lon="6.900544"><ele></ele><time>2014-4-4T19:47:53Z</time></trkpt>
<trkpt lat="46.526031" lon="6.900317"><ele></ele><time>2014-4-4T19:47:56Z</time></trkpt>
<trkpt lat="46.525665" lon="6.900292"><ele></ele><time>2014-4-4T19:47:59Z</time></trkpt>
<trkpt lat="46.525311" lon="6.900261"><ele></ele><time>2014-4-4T19:48:2Z</time></trkpt>
<trkpt lat="46.524975" lon="6.900140"><ele></ele><time>2014-4-4T19:48:5Z</time></trkpt>
<trkpt lat="46.524666" lon="6.900030"><ele></ele><time>2014-4-4T19:48:8Z</time></trkpt>
<trkpt lat="46.524380" lon="6.899898"><ele></ele><time>2014-4-4T19:48:11Z</time></trkpt>
<trkpt lat="46.524067" lon="6.899762"><ele></ele><time>2014-4-4T19:48:14Z</time></trkpt>
<trkpt lat="46.523750" lon="6.899607"><ele></ele><time>2014-4-4T19:48:17Z</time></trkpt>
<trkpt lat="46.523724" lon="6.899242"><ele></ele><time>2014-4-4T19:48:20Z</time></trkpt>
<trkpt lat="46.523808" lon="6.898847"><ele></ele><time>2014-4-4T19:48:23Z</time></trkpt>
<trkpt lat="46.524006" lon="6.898780"><ele></ele><time>2014-4-4T19:48:26Z</time></trkpt>
<trkpt lat="46.524010" lon="6.898915"><ele></ele><time>2014-4-4T19:48:29Z</time></trkpt>
<trkpt lat="46.523979" lon="6.898938"><ele></ele><time>2014-4-4T19:48:32Z</time></trkpt>
</trkseg></trk></gpx>